<?xml version="1.0" encoding="UTF-8" standalone="no" ?>
<gpx xmlns="http://www.topografix.com/GPX/1/1" xmlns:xsi="http://www.w3.org/2001/XMLSchema-instance" xsi:schemaLocation="http://www.topografix.com/GPX/1/1 http://www.topografix.com/GPX/1/1/gpx.xsd" version="1.1" creator="VisuGPX - https://www.visugpx.com">
  <metadata>
    <name>Grenoble Trail - Rachais entrainement 2021-11-26</name>
    <desc><![CDATA[Pluie fine sur Grenoble, très vite un brouillard épais et puis de gros flocons de neige]]></desc>
  </metadata>
  <trk>
    <name><![CDATA[Grenoble Trail]]></name>
    <trkseg>
      <trkpt lat="45.19663" lon="5.73982">
        <ele>214.39999389648</ele>
        <time>2021-11-26T03:36:49.000Z</time>
      </trkpt>
      <trkpt lat="45.19663" lon="5.73982">
        <ele>214.39999389648</ele>
        <time>2021-11-26T03:36:50.000Z</time>
      </trkpt>
      <trkpt lat="45.1966" lon="5.73983">
        <ele>214.39999389648</ele>
        <time>2021-11-26T03:36:55.000Z</time>
      </trkpt>
      <trkpt lat="45.19649" lon="5.73982">
        <ele>214.39999389648</ele>
        <time>2021-11-26T03:37:02.000Z</time>
      </trkpt>
      <trkpt lat="45.19649" lon="5.73985">
        <ele>214.39999389648</ele>
        <time>2021-11-26T03:37:04.000Z</time>
      </trkpt>
      <trkpt lat="45.19649" lon="5.73987">
        <ele>214.39999389648</ele>
        <time>2021-11-26T03:37:06.000Z</time>
      </trkpt>
      <trkpt lat="45.19649" lon="5.7399">
        <ele>214.39999389648</ele>
        <time>2021-11-26T03:37:07.000Z</time>
      </trkpt>
      <trkpt lat="45.19647" lon="5.73992">
        <ele>214.39999389648</ele>
        <time>2021-11-26T03:37:11.000Z</time>
      </trkpt>
      <trkpt lat="45.19646" lon="5.73993">
        <ele>214.39999389648</ele>
        <time>2021-11-26T03:37:12.000Z</time>
      </trkpt>
      <trkpt lat="45.19644" lon="5.73992">
        <ele>213.39999389648</ele>
        <time>2021-11-26T03:37:15.000Z</time>
      </trkpt>
      <trkpt lat="45.19644" lon="5.73992">
        <ele>213</ele>
        <time>2021-11-26T03:37:16.000Z</time>
      </trkpt>
      <trkpt lat="45.19642" lon="5.73989">
        <ele>212.19999694824</ele>
        <time>2021-11-26T03:37:23.000Z</time>
      </trkpt>
      <trkpt lat="45.19641" lon="5.73988">
        <ele>211.80000305176</ele>
        <time>2021-11-26T03:37:24.000Z</time>
      </trkpt>
      <trkpt lat="45.1964" lon="5.73985">
        <ele>211</ele>
        <time>2021-11-26T03:37:26.000Z</time>
      </trkpt>
      <trkpt lat="45.19641" lon="5.73984">
        <ele>210.39999389648</ele>
        <time>2021-11-26T03:37:27.000Z</time>
      </trkpt>
      <trkpt lat="45.19641" lon="5.73983">
        <ele>209.80000305176</ele>
        <time>2021-11-26T03:37:29.000Z</time>
      </trkpt>
      <trkpt lat="45.19642" lon="5.73981">
        <ele>210.80000305176</ele>
        <time>2021-11-26T03:37:31.000Z</time>
      </trkpt>
      <trkpt lat="45.1964" lon="5.73979">
        <ele>209.39999389648</ele>
        <time>2021-11-26T03:37:33.000Z</time>
      </trkpt>
      <trkpt lat="45.19639" lon="5.73979">
        <ele>209.39999389648</ele>
        <time>2021-11-26T03:37:34.000Z</time>
      </trkpt>
      <trkpt lat="45.19638" lon="5.7398">
        <ele>208.80000305176</ele>
        <time>2021-11-26T03:37:38.000Z</time>
      </trkpt>
      <trkpt lat="45.19639" lon="5.73979">
        <ele>208.39999389648</ele>
        <time>2021-11-26T03:37:39.000Z</time>
      </trkpt>
      <trkpt lat="45.1964" lon="5.73979">
        <ele>208</ele>
        <time>2021-11-26T03:37:43.000Z</time>
      </trkpt>
      <trkpt lat="45.19642" lon="5.73977">
        <ele>208</ele>
        <time>2021-11-26T03:37:48.000Z</time>
      </trkpt>
      <trkpt lat="45.19648" lon="5.73976">
        <ele>208</ele>
        <time>2021-11-26T03:37:52.000Z</time>
      </trkpt>
      <trkpt lat="45.19649" lon="5.73976">
        <ele>208</ele>
        <time>2021-11-26T03:37:53.000Z</time>
      </trkpt>
      <trkpt lat="45.19652" lon="5.73974">
        <ele>207.80000305176</ele>
        <time>2021-11-26T03:37:55.000Z</time>
      </trkpt>
      <trkpt lat="45.19654" lon="5.73972">
        <ele>207.80000305176</ele>
        <time>2021-11-26T03:37:56.000Z</time>
      </trkpt>
      <trkpt lat="45.19657" lon="5.73969">
        <ele>208</ele>
        <time>2021-11-26T03:37:58.000Z</time>
      </trkpt>
      <trkpt lat="45.19661" lon="5.73965">
        <ele>208</ele>
        <time>2021-11-26T03:38:00.000Z</time>
      </trkpt>
      <trkpt lat="45.19664" lon="5.73962">
        <ele>208</ele>
        <time>2021-11-26T03:38:02.000Z</time>
      </trkpt>
      <trkpt lat="45.19664" lon="5.7396">
        <ele>207.80000305176</ele>
        <time>2021-11-26T03:38:04.000Z</time>
      </trkpt>
      <trkpt lat="45.19665" lon="5.73953">
        <ele>207.80000305176</ele>
        <time>2021-11-26T03:38:06.000Z</time>
      </trkpt>
      <trkpt lat="45.19669" lon="5.73948">
        <ele>208</ele>
        <time>2021-11-26T03:38:09.000Z</time>
      </trkpt>
      <trkpt lat="45.19671" lon="5.73947">
        <ele>208.19999694824</ele>
        <time>2021-11-26T03:38:11.000Z</time>
      </trkpt>
      <trkpt lat="45.19671" lon="5.73952">
        <ele>208</ele>
        <time>2021-11-26T03:38:14.000Z</time>
      </trkpt>
      <trkpt lat="45.19672" lon="5.73957">
        <ele>208</ele>
        <time>2021-11-26T03:38:16.000Z</time>
      </trkpt>
      <trkpt lat="45.19673" lon="5.7396">
        <ele>208</ele>
        <time>2021-11-26T03:38:17.000Z</time>
      </trkpt>
      <trkpt lat="45.19676" lon="5.73971">
        <ele>208</ele>
        <time>2021-11-26T03:38:21.000Z</time>
      </trkpt>
      <trkpt lat="45.19677" lon="5.73977">
        <ele>208.19999694824</ele>
        <time>2021-11-26T03:38:23.000Z</time>
      </trkpt>
      <trkpt lat="45.19676" lon="5.73983">
        <ele>208.19999694824</ele>
        <time>2021-11-26T03:38:26.000Z</time>
      </trkpt>
      <trkpt lat="45.19677" lon="5.73987">
        <ele>208.19999694824</ele>
        <time>2021-11-26T03:38:27.000Z</time>
      </trkpt>
      <trkpt lat="45.19683" lon="5.73998">
        <ele>208.19999694824</ele>
        <time>2021-11-26T03:38:30.000Z</time>
      </trkpt>
      <trkpt lat="45.19686" lon="5.74006">
        <ele>208.19999694824</ele>
        <time>2021-11-26T03:38:33.000Z</time>
      </trkpt>
      <trkpt lat="45.19689" lon="5.74015">
        <ele>208.19999694824</ele>
        <time>2021-11-26T03:38:36.000Z</time>
      </trkpt>
      <trkpt lat="45.19689" lon="5.74018">
        <ele>208.19999694824</ele>
        <time>2021-11-26T03:38:37.000Z</time>
      </trkpt>
      <trkpt lat="45.19692" lon="5.74038">
        <ele>208.19999694824</ele>
        <time>2021-11-26T03:38:43.000Z</time>
      </trkpt>
      <trkpt lat="45.19696" lon="5.74051">
        <ele>208.19999694824</ele>
        <time>2021-11-26T03:38:47.000Z</time>
      </trkpt>
      <trkpt lat="45.19697" lon="5.74057">
        <ele>208.19999694824</ele>
        <time>2021-11-26T03:38:49.000Z</time>
      </trkpt>
      <trkpt lat="45.197" lon="5.74083">
        <ele>208.19999694824</ele>
        <time>2021-11-26T03:38:56.000Z</time>
      </trkpt>
      <trkpt lat="45.19704" lon="5.74103">
        <ele>208.19999694824</ele>
        <time>2021-11-26T03:39:01.000Z</time>
      </trkpt>
      <trkpt lat="45.19711" lon="5.74125">
        <ele>208.19999694824</ele>
        <time>2021-11-26T03:39:07.000Z</time>
      </trkpt>
      <trkpt lat="45.19714" lon="5.7413">
        <ele>208.19999694824</ele>
        <time>2021-11-26T03:39:09.000Z</time>
      </trkpt>
      <trkpt lat="45.1972" lon="5.74147">
        <ele>208.19999694824</ele>
        <time>2021-11-26T03:39:14.000Z</time>
      </trkpt>
      <trkpt lat="45.19723" lon="5.74174">
        <ele>208.19999694824</ele>
        <time>2021-11-26T03:39:22.000Z</time>
      </trkpt>
      <trkpt lat="45.19723" lon="5.74176">
        <ele>208.19999694824</ele>
        <time>2021-11-26T03:39:23.000Z</time>
      </trkpt>
      <trkpt lat="45.19725" lon="5.74196">
        <ele>208.19999694824</ele>
        <time>2021-11-26T03:39:29.000Z</time>
      </trkpt>
      <trkpt lat="45.19727" lon="5.74221">
        <ele>208.39999389648</ele>
        <time>2021-11-26T03:39:36.000Z</time>
      </trkpt>
      <trkpt lat="45.19733" lon="5.74232">
        <ele>208.39999389648</ele>
        <time>2021-11-26T03:39:39.000Z</time>
      </trkpt>
      <trkpt lat="45.19734" lon="5.74239">
        <ele>208.60000610352</ele>
        <time>2021-11-26T03:39:42.000Z</time>
      </trkpt>
      <trkpt lat="45.19735" lon="5.7424">
        <ele>209</ele>
        <time>2021-11-26T03:39:45.000Z</time>
      </trkpt>
      <trkpt lat="45.19736" lon="5.7424">
        <ele>209.39999389648</ele>
        <time>2021-11-26T03:39:46.000Z</time>
      </trkpt>
      <trkpt lat="45.19742" lon="5.74238">
        <ele>209.80000305176</ele>
        <time>2021-11-26T03:39:49.000Z</time>
      </trkpt>
      <trkpt lat="45.19746" lon="5.74237">
        <ele>210.19999694824</ele>
        <time>2021-11-26T03:39:51.000Z</time>
      </trkpt>
      <trkpt lat="45.19759" lon="5.74233">
        <ele>210.19999694824</ele>
        <time>2021-11-26T03:39:57.000Z</time>
      </trkpt>
      <trkpt lat="45.19772" lon="5.7423">
        <ele>210.19999694824</ele>
        <time>2021-11-26T03:40:03.000Z</time>
      </trkpt>
      <trkpt lat="45.1979" lon="5.74227">
        <ele>210.19999694824</ele>
        <time>2021-11-26T03:40:11.000Z</time>
      </trkpt>
      <trkpt lat="45.198" lon="5.74226">
        <ele>210.39999389648</ele>
        <time>2021-11-26T03:40:17.000Z</time>
      </trkpt>
      <trkpt lat="45.19802" lon="5.74225">
        <ele>210.39999389648</ele>
        <time>2021-11-26T03:40:18.000Z</time>
      </trkpt>
      <trkpt lat="45.19817" lon="5.74218">
        <ele>210.39999389648</ele>
        <time>2021-11-26T03:40:25.000Z</time>
      </trkpt>
      <trkpt lat="45.19832" lon="5.74214">
        <ele>210.19999694824</ele>
        <time>2021-11-26T03:40:31.000Z</time>
      </trkpt>
      <trkpt lat="45.1985" lon="5.74207">
        <ele>210.39999389648</ele>
        <time>2021-11-26T03:40:39.000Z</time>
      </trkpt>
      <trkpt lat="45.19867" lon="5.74199">
        <ele>210.19999694824</ele>
        <time>2021-11-26T03:40:46.000Z</time>
      </trkpt>
      <trkpt lat="45.19885" lon="5.74183">
        <ele>210.60000610352</ele>
        <time>2021-11-26T03:40:55.000Z</time>
      </trkpt>
      <trkpt lat="45.19904" lon="5.74174">
        <ele>210.39999389648</ele>
        <time>2021-11-26T03:41:03.000Z</time>
      </trkpt>
      <trkpt lat="45.19917" lon="5.74165">
        <ele>210.60000610352</ele>
        <time>2021-11-26T03:41:09.000Z</time>
      </trkpt>
      <trkpt lat="45.19926" lon="5.74158">
        <ele>210.60000610352</ele>
        <time>2021-11-26T03:41:13.000Z</time>
      </trkpt>
      <trkpt lat="45.19936" lon="5.74152">
        <ele>210.80000305176</ele>
        <time>2021-11-26T03:41:17.000Z</time>
      </trkpt>
      <trkpt lat="45.19943" lon="5.74146">
        <ele>211</ele>
        <time>2021-11-26T03:41:20.000Z</time>
      </trkpt>
      <trkpt lat="45.19945" lon="5.74145">
        <ele>211</ele>
        <time>2021-11-26T03:41:21.000Z</time>
      </trkpt>
      <trkpt lat="45.19949" lon="5.74141">
        <ele>211</ele>
        <time>2021-11-26T03:41:23.000Z</time>
      </trkpt>
      <trkpt lat="45.19963" lon="5.74126">
        <ele>210.60000610352</ele>
        <time>2021-11-26T03:41:30.000Z</time>
      </trkpt>
      <trkpt lat="45.19967" lon="5.74121">
        <ele>210.60000610352</ele>
        <time>2021-11-26T03:41:32.000Z</time>
      </trkpt>
      <trkpt lat="45.19972" lon="5.74116">
        <ele>210.60000610352</ele>
        <time>2021-11-26T03:41:35.000Z</time>
      </trkpt>
      <trkpt lat="45.19975" lon="5.74114">
        <ele>210.60000610352</ele>
        <time>2021-11-26T03:41:37.000Z</time>
      </trkpt>
      <trkpt lat="45.19988" lon="5.74104">
        <ele>209.80000305176</ele>
        <time>2021-11-26T03:41:43.000Z</time>
      </trkpt>
      <trkpt lat="45.1999" lon="5.74103">
        <ele>209.60000610352</ele>
        <time>2021-11-26T03:41:44.000Z</time>
      </trkpt>
      <trkpt lat="45.2" lon="5.74091">
        <ele>208.60000610352</ele>
        <time>2021-11-26T03:41:49.000Z</time>
      </trkpt>
      <trkpt lat="45.20002" lon="5.74089">
        <ele>208.39999389648</ele>
        <time>2021-11-26T03:41:50.000Z</time>
      </trkpt>
      <trkpt lat="45.20007" lon="5.74081">
        <ele>208.19999694824</ele>
        <time>2021-11-26T03:41:53.000Z</time>
      </trkpt>
      <trkpt lat="45.20011" lon="5.74079">
        <ele>208</ele>
        <time>2021-11-26T03:41:55.000Z</time>
      </trkpt>
      <trkpt lat="45.20012" lon="5.74081">
        <ele>208</ele>
        <time>2021-11-26T03:41:56.000Z</time>
      </trkpt>
      <trkpt lat="45.20014" lon="5.74083">
        <ele>208</ele>
        <time>2021-11-26T03:42:01.000Z</time>
      </trkpt>
      <trkpt lat="45.20016" lon="5.74076">
        <ele>207.80000305176</ele>
        <time>2021-11-26T03:42:04.000Z</time>
      </trkpt>
      <trkpt lat="45.20017" lon="5.74075">
        <ele>207.80000305176</ele>
        <time>2021-11-26T03:42:05.000Z</time>
      </trkpt>
      <trkpt lat="45.20023" lon="5.74065">
        <ele>208.19999694824</ele>
        <time>2021-11-26T03:42:10.000Z</time>
      </trkpt>
      <trkpt lat="45.2003" lon="5.74055">
        <ele>209.19999694824</ele>
        <time>2021-11-26T03:42:15.000Z</time>
      </trkpt>
      <trkpt lat="45.20032" lon="5.74051">
        <ele>209.39999389648</ele>
        <time>2021-11-26T03:42:16.000Z</time>
      </trkpt>
      <trkpt lat="45.20034" lon="5.74047">
        <ele>209.60000610352</ele>
        <time>2021-11-26T03:42:17.000Z</time>
      </trkpt>
      <trkpt lat="45.20047" lon="5.74024">
        <ele>210.19999694824</ele>
        <time>2021-11-26T03:42:22.000Z</time>
      </trkpt>
      <trkpt lat="45.20054" lon="5.74013">
        <ele>210</ele>
        <time>2021-11-26T03:42:25.000Z</time>
      </trkpt>
      <trkpt lat="45.20068" lon="5.73994">
        <ele>209.60000610352</ele>
        <time>2021-11-26T03:42:31.000Z</time>
      </trkpt>
      <trkpt lat="45.20074" lon="5.73984">
        <ele>209.39999389648</ele>
        <time>2021-11-26T03:42:34.000Z</time>
      </trkpt>
      <trkpt lat="45.2009" lon="5.73965">
        <ele>209.19999694824</ele>
        <time>2021-11-26T03:42:40.000Z</time>
      </trkpt>
      <trkpt lat="45.20103" lon="5.73953">
        <ele>209</ele>
        <time>2021-11-26T03:42:45.000Z</time>
      </trkpt>
      <trkpt lat="45.20109" lon="5.73944">
        <ele>209</ele>
        <time>2021-11-26T03:42:48.000Z</time>
      </trkpt>
      <trkpt lat="45.20116" lon="5.73932">
        <ele>208.80000305176</ele>
        <time>2021-11-26T03:42:52.000Z</time>
      </trkpt>
      <trkpt lat="45.20117" lon="5.73929">
        <ele>208.80000305176</ele>
        <time>2021-11-26T03:42:53.000Z</time>
      </trkpt>
      <trkpt lat="45.20129" lon="5.73909">
        <ele>209</ele>
        <time>2021-11-26T03:43:00.000Z</time>
      </trkpt>
      <trkpt lat="45.20133" lon="5.73904">
        <ele>209.19999694824</ele>
        <time>2021-11-26T03:43:02.000Z</time>
      </trkpt>
      <trkpt lat="45.20139" lon="5.73896">
        <ele>209.39999389648</ele>
        <time>2021-11-26T03:43:05.000Z</time>
      </trkpt>
      <trkpt lat="45.20146" lon="5.7388">
        <ele>209.19999694824</ele>
        <time>2021-11-26T03:43:10.000Z</time>
      </trkpt>
      <trkpt lat="45.20157" lon="5.73858">
        <ele>209.19999694824</ele>
        <time>2021-11-26T03:43:17.000Z</time>
      </trkpt>
      <trkpt lat="45.20159" lon="5.73855">
        <ele>209.19999694824</ele>
        <time>2021-11-26T03:43:18.000Z</time>
      </trkpt>
      <trkpt lat="45.20167" lon="5.73831">
        <ele>209.19999694824</ele>
        <time>2021-11-26T03:43:25.000Z</time>
      </trkpt>
      <trkpt lat="45.20168" lon="5.73825">
        <ele>209.19999694824</ele>
        <time>2021-11-26T03:43:27.000Z</time>
      </trkpt>
      <trkpt lat="45.2017" lon="5.73818">
        <ele>209.39999389648</ele>
        <time>2021-11-26T03:43:29.000Z</time>
      </trkpt>
      <trkpt lat="45.20172" lon="5.73804">
        <ele>209.39999389648</ele>
        <time>2021-11-26T03:43:33.000Z</time>
      </trkpt>
      <trkpt lat="45.20172" lon="5.73778">
        <ele>209.39999389648</ele>
        <time>2021-11-26T03:43:40.000Z</time>
      </trkpt>
      <trkpt lat="45.20174" lon="5.73757">
        <ele>209.60000610352</ele>
        <time>2021-11-26T03:43:46.000Z</time>
      </trkpt>
      <trkpt lat="45.20174" lon="5.73739">
        <ele>209.39999389648</ele>
        <time>2021-11-26T03:43:51.000Z</time>
      </trkpt>
      <trkpt lat="45.20174" lon="5.73725">
        <ele>209.39999389648</ele>
        <time>2021-11-26T03:43:55.000Z</time>
      </trkpt>
      <trkpt lat="45.2017" lon="5.73701">
        <ele>209.60000610352</ele>
        <time>2021-11-26T03:44:02.000Z</time>
      </trkpt>
      <trkpt lat="45.20168" lon="5.73683">
        <ele>209.80000305176</ele>
        <time>2021-11-26T03:44:07.000Z</time>
      </trkpt>
      <trkpt lat="45.20164" lon="5.73659">
        <ele>209.60000610352</ele>
        <time>2021-11-26T03:44:14.000Z</time>
      </trkpt>
      <trkpt lat="45.2016" lon="5.73642">
        <ele>209.60000610352</ele>
        <time>2021-11-26T03:44:19.000Z</time>
      </trkpt>
      <trkpt lat="45.20154" lon="5.73628">
        <ele>209.60000610352</ele>
        <time>2021-11-26T03:44:23.000Z</time>
      </trkpt>
      <trkpt lat="45.20145" lon="5.73603">
        <ele>209.60000610352</ele>
        <time>2021-11-26T03:44:31.000Z</time>
      </trkpt>
      <trkpt lat="45.20138" lon="5.73587">
        <ele>209.60000610352</ele>
        <time>2021-11-26T03:44:36.000Z</time>
      </trkpt>
      <trkpt lat="45.20136" lon="5.73586">
        <ele>209.60000610352</ele>
        <time>2021-11-26T03:44:37.000Z</time>
      </trkpt>
      <trkpt lat="45.20124" lon="5.73571">
        <ele>209.60000610352</ele>
        <time>2021-11-26T03:44:43.000Z</time>
      </trkpt>
      <trkpt lat="45.2011" lon="5.73554">
        <ele>209.60000610352</ele>
        <time>2021-11-26T03:44:50.000Z</time>
      </trkpt>
      <trkpt lat="45.20109" lon="5.73551">
        <ele>209.60000610352</ele>
        <time>2021-11-26T03:44:51.000Z</time>
      </trkpt>
      <trkpt lat="45.20095" lon="5.73532">
        <ele>209.60000610352</ele>
        <time>2021-11-26T03:44:58.000Z</time>
      </trkpt>
      <trkpt lat="45.20085" lon="5.73517">
        <ele>209.60000610352</ele>
        <time>2021-11-26T03:45:04.000Z</time>
      </trkpt>
      <trkpt lat="45.2007" lon="5.73503">
        <ele>209.80000305176</ele>
        <time>2021-11-26T03:45:11.000Z</time>
      </trkpt>
      <trkpt lat="45.20054" lon="5.7349">
        <ele>209.80000305176</ele>
        <time>2021-11-26T03:45:18.000Z</time>
      </trkpt>
      <trkpt lat="45.20035" lon="5.73481">
        <ele>209.39999389648</ele>
        <time>2021-11-26T03:45:26.000Z</time>
      </trkpt>
      <trkpt lat="45.20021" lon="5.73468">
        <ele>208.80000305176</ele>
        <time>2021-11-26T03:45:32.000Z</time>
      </trkpt>
      <trkpt lat="45.20016" lon="5.73465">
        <ele>208.80000305176</ele>
        <time>2021-11-26T03:45:34.000Z</time>
      </trkpt>
      <trkpt lat="45.20004" lon="5.73457">
        <ele>209</ele>
        <time>2021-11-26T03:45:39.000Z</time>
      </trkpt>
      <trkpt lat="45.19987" lon="5.73446">
        <ele>209.80000305176</ele>
        <time>2021-11-26T03:45:46.000Z</time>
      </trkpt>
      <trkpt lat="45.19975" lon="5.73439">
        <ele>209.39999389648</ele>
        <time>2021-11-26T03:45:51.000Z</time>
      </trkpt>
      <trkpt lat="45.19968" lon="5.73435">
        <ele>209.19999694824</ele>
        <time>2021-11-26T03:45:54.000Z</time>
      </trkpt>
      <trkpt lat="45.19948" lon="5.73427">
        <ele>209.60000610352</ele>
        <time>2021-11-26T03:46:02.000Z</time>
      </trkpt>
      <trkpt lat="45.19942" lon="5.73425">
        <ele>209.80000305176</ele>
        <time>2021-11-26T03:46:04.000Z</time>
      </trkpt>
      <trkpt lat="45.19924" lon="5.73419">
        <ele>209.19999694824</ele>
        <time>2021-11-26T03:46:11.000Z</time>
      </trkpt>
      <trkpt lat="45.19906" lon="5.73414">
        <ele>209.39999389648</ele>
        <time>2021-11-26T03:46:18.000Z</time>
      </trkpt>
      <trkpt lat="45.19901" lon="5.73414">
        <ele>209.60000610352</ele>
        <time>2021-11-26T03:46:20.000Z</time>
      </trkpt>
      <trkpt lat="45.19883" lon="5.73411">
        <ele>209.80000305176</ele>
        <time>2021-11-26T03:46:27.000Z</time>
      </trkpt>
      <trkpt lat="45.19868" lon="5.73406">
        <ele>209.60000610352</ele>
        <time>2021-11-26T03:46:33.000Z</time>
      </trkpt>
      <trkpt lat="45.19865" lon="5.73405">
        <ele>209.60000610352</ele>
        <time>2021-11-26T03:46:34.000Z</time>
      </trkpt>
      <trkpt lat="45.19852" lon="5.73402">
        <ele>209.80000305176</ele>
        <time>2021-11-26T03:46:39.000Z</time>
      </trkpt>
      <trkpt lat="45.19833" lon="5.73397">
        <ele>210</ele>
        <time>2021-11-26T03:46:46.000Z</time>
      </trkpt>
      <trkpt lat="45.19815" lon="5.73392">
        <ele>209.80000305176</ele>
        <time>2021-11-26T03:46:53.000Z</time>
      </trkpt>
      <trkpt lat="45.19802" lon="5.7339">
        <ele>209.80000305176</ele>
        <time>2021-11-26T03:46:58.000Z</time>
      </trkpt>
      <trkpt lat="45.19799" lon="5.73389">
        <ele>209.80000305176</ele>
        <time>2021-11-26T03:46:59.000Z</time>
      </trkpt>
      <trkpt lat="45.19781" lon="5.73383">
        <ele>209.80000305176</ele>
        <time>2021-11-26T03:47:06.000Z</time>
      </trkpt>
      <trkpt lat="45.19778" lon="5.73382">
        <ele>209.60000610352</ele>
        <time>2021-11-26T03:47:07.000Z</time>
      </trkpt>
      <trkpt lat="45.1976" lon="5.73377">
        <ele>209.60000610352</ele>
        <time>2021-11-26T03:47:14.000Z</time>
      </trkpt>
      <trkpt lat="45.19757" lon="5.73376">
        <ele>209.60000610352</ele>
        <time>2021-11-26T03:47:15.000Z</time>
      </trkpt>
      <trkpt lat="45.1974" lon="5.7337">
        <ele>210.60000610352</ele>
        <time>2021-11-26T03:47:22.000Z</time>
      </trkpt>
      <trkpt lat="45.19737" lon="5.73369">
        <ele>210.60000610352</ele>
        <time>2021-11-26T03:47:23.000Z</time>
      </trkpt>
      <trkpt lat="45.19735" lon="5.73369">
        <ele>210.80000305176</ele>
        <time>2021-11-26T03:47:24.000Z</time>
      </trkpt>
      <trkpt lat="45.19731" lon="5.73365">
        <ele>211.19999694824</ele>
        <time>2021-11-26T03:47:26.000Z</time>
      </trkpt>
      <trkpt lat="45.1973" lon="5.73359">
        <ele>211.60000610352</ele>
        <time>2021-11-26T03:47:28.000Z</time>
      </trkpt>
      <trkpt lat="45.19732" lon="5.73352">
        <ele>211.80000305176</ele>
        <time>2021-11-26T03:47:30.000Z</time>
      </trkpt>
      <trkpt lat="45.19736" lon="5.73337">
        <ele>212.60000610352</ele>
        <time>2021-11-26T03:47:34.000Z</time>
      </trkpt>
      <trkpt lat="45.19743" lon="5.73311">
        <ele>212.60000610352</ele>
        <time>2021-11-26T03:47:41.000Z</time>
      </trkpt>
      <trkpt lat="45.19744" lon="5.73308">
        <ele>212.60000610352</ele>
        <time>2021-11-26T03:47:42.000Z</time>
      </trkpt>
      <trkpt lat="45.19747" lon="5.73296">
        <ele>212.80000305176</ele>
        <time>2021-11-26T03:47:45.000Z</time>
      </trkpt>
      <trkpt lat="45.19751" lon="5.73277">
        <ele>212.60000610352</ele>
        <time>2021-11-26T03:47:50.000Z</time>
      </trkpt>
      <trkpt lat="45.19758" lon="5.73258">
        <ele>212.39999389648</ele>
        <time>2021-11-26T03:47:56.000Z</time>
      </trkpt>
      <trkpt lat="45.19769" lon="5.7325">
        <ele>211.80000305176</ele>
        <time>2021-11-26T03:48:01.000Z</time>
      </trkpt>
      <trkpt lat="45.19772" lon="5.73249">
        <ele>211.60000610352</ele>
        <time>2021-11-26T03:48:02.000Z</time>
      </trkpt>
      <trkpt lat="45.19789" lon="5.73251">
        <ele>211</ele>
        <time>2021-11-26T03:48:08.000Z</time>
      </trkpt>
      <trkpt lat="45.19799" lon="5.73255">
        <ele>211</ele>
        <time>2021-11-26T03:48:12.000Z</time>
      </trkpt>
      <trkpt lat="45.19805" lon="5.73258">
        <ele>211</ele>
        <time>2021-11-26T03:48:14.000Z</time>
      </trkpt>
      <trkpt lat="45.1982" lon="5.73263">
        <ele>210.80000305176</ele>
        <time>2021-11-26T03:48:20.000Z</time>
      </trkpt>
      <trkpt lat="45.19823" lon="5.73263">
        <ele>210.80000305176</ele>
        <time>2021-11-26T03:48:21.000Z</time>
      </trkpt>
      <trkpt lat="45.19843" lon="5.73265">
        <ele>211.19999694824</ele>
        <time>2021-11-26T03:48:29.000Z</time>
      </trkpt>
      <trkpt lat="45.1985" lon="5.73268">
        <ele>211.19999694824</ele>
        <time>2021-11-26T03:48:32.000Z</time>
      </trkpt>
      <trkpt lat="45.19866" lon="5.7327">
        <ele>211.19999694824</ele>
        <time>2021-11-26T03:48:38.000Z</time>
      </trkpt>
      <trkpt lat="45.19878" lon="5.73272">
        <ele>211.39999389648</ele>
        <time>2021-11-26T03:48:43.000Z</time>
      </trkpt>
      <trkpt lat="45.19882" lon="5.73273">
        <ele>211.39999389648</ele>
        <time>2021-11-26T03:48:45.000Z</time>
      </trkpt>
      <trkpt lat="45.19898" lon="5.73272">
        <ele>212</ele>
        <time>2021-11-26T03:48:49.000Z</time>
      </trkpt>
      <trkpt lat="45.19903" lon="5.73274">
        <ele>211.80000305176</ele>
        <time>2021-11-26T03:48:51.000Z</time>
      </trkpt>
      <trkpt lat="45.19916" lon="5.73284">
        <ele>212</ele>
        <time>2021-11-26T03:48:56.000Z</time>
      </trkpt>
      <trkpt lat="45.19928" lon="5.7329">
        <ele>211.80000305176</ele>
        <time>2021-11-26T03:49:01.000Z</time>
      </trkpt>
      <trkpt lat="45.1993" lon="5.73292">
        <ele>211.80000305176</ele>
        <time>2021-11-26T03:49:02.000Z</time>
      </trkpt>
      <trkpt lat="45.19938" lon="5.73295">
        <ele>211.80000305176</ele>
        <time>2021-11-26T03:49:05.000Z</time>
      </trkpt>
      <trkpt lat="45.19943" lon="5.733">
        <ele>211.80000305176</ele>
        <time>2021-11-26T03:49:07.000Z</time>
      </trkpt>
      <trkpt lat="45.19947" lon="5.73302">
        <ele>211.80000305176</ele>
        <time>2021-11-26T03:49:09.000Z</time>
      </trkpt>
      <trkpt lat="45.19951" lon="5.73303">
        <ele>211.80000305176</ele>
        <time>2021-11-26T03:49:11.000Z</time>
      </trkpt>
      <trkpt lat="45.19953" lon="5.73304">
        <ele>211.80000305176</ele>
        <time>2021-11-26T03:49:12.000Z</time>
      </trkpt>
      <trkpt lat="45.19964" lon="5.73309">
        <ele>211.80000305176</ele>
        <time>2021-11-26T03:49:17.000Z</time>
      </trkpt>
      <trkpt lat="45.19982" lon="5.73311">
        <ele>211.80000305176</ele>
        <time>2021-11-26T03:49:23.000Z</time>
      </trkpt>
      <trkpt lat="45.19991" lon="5.73314">
        <ele>211.80000305176</ele>
        <time>2021-11-26T03:49:26.000Z</time>
      </trkpt>
      <trkpt lat="45.20007" lon="5.73319">
        <ele>211.80000305176</ele>
        <time>2021-11-26T03:49:32.000Z</time>
      </trkpt>
      <trkpt lat="45.20012" lon="5.73322">
        <ele>211.60000610352</ele>
        <time>2021-11-26T03:49:34.000Z</time>
      </trkpt>
      <trkpt lat="45.20029" lon="5.7333">
        <ele>211.39999389648</ele>
        <time>2021-11-26T03:49:41.000Z</time>
      </trkpt>
      <trkpt lat="45.20032" lon="5.73331">
        <ele>211.39999389648</ele>
        <time>2021-11-26T03:49:42.000Z</time>
      </trkpt>
      <trkpt lat="45.20045" lon="5.73338">
        <ele>211.39999389648</ele>
        <time>2021-11-26T03:49:47.000Z</time>
      </trkpt>
      <trkpt lat="45.20063" lon="5.73347">
        <ele>211</ele>
        <time>2021-11-26T03:49:53.000Z</time>
      </trkpt>
      <trkpt lat="45.20074" lon="5.73351">
        <ele>210.80000305176</ele>
        <time>2021-11-26T03:49:57.000Z</time>
      </trkpt>
      <trkpt lat="45.20084" lon="5.73353">
        <ele>210.80000305176</ele>
        <time>2021-11-26T03:50:01.000Z</time>
      </trkpt>
      <trkpt lat="45.20089" lon="5.73353">
        <ele>210.60000610352</ele>
        <time>2021-11-26T03:50:03.000Z</time>
      </trkpt>
      <trkpt lat="45.20103" lon="5.73358">
        <ele>210.60000610352</ele>
        <time>2021-11-26T03:50:08.000Z</time>
      </trkpt>
      <trkpt lat="45.20117" lon="5.7337">
        <ele>210.80000305176</ele>
        <time>2021-11-26T03:50:14.000Z</time>
      </trkpt>
      <trkpt lat="45.20119" lon="5.73373">
        <ele>211</ele>
        <time>2021-11-26T03:50:15.000Z</time>
      </trkpt>
      <trkpt lat="45.20121" lon="5.73374">
        <ele>211</ele>
        <time>2021-11-26T03:50:16.000Z</time>
      </trkpt>
      <trkpt lat="45.20124" lon="5.73377">
        <ele>211</ele>
        <time>2021-11-26T03:50:18.000Z</time>
      </trkpt>
      <trkpt lat="45.20126" lon="5.73379">
        <ele>211</ele>
        <time>2021-11-26T03:50:19.000Z</time>
      </trkpt>
      <trkpt lat="45.20131" lon="5.7338">
        <ele>211</ele>
        <time>2021-11-26T03:50:21.000Z</time>
      </trkpt>
      <trkpt lat="45.20136" lon="5.73382">
        <ele>211</ele>
        <time>2021-11-26T03:50:23.000Z</time>
      </trkpt>
      <trkpt lat="45.20148" lon="5.73388">
        <ele>211.19999694824</ele>
        <time>2021-11-26T03:50:28.000Z</time>
      </trkpt>
      <trkpt lat="45.2016" lon="5.73391">
        <ele>211.60000610352</ele>
        <time>2021-11-26T03:50:33.000Z</time>
      </trkpt>
      <trkpt lat="45.20162" lon="5.73391">
        <ele>211.60000610352</ele>
        <time>2021-11-26T03:50:34.000Z</time>
      </trkpt>
      <trkpt lat="45.20177" lon="5.73398">
        <ele>212</ele>
        <time>2021-11-26T03:50:39.000Z</time>
      </trkpt>
      <trkpt lat="45.20181" lon="5.73399">
        <ele>212</ele>
        <time>2021-11-26T03:50:41.000Z</time>
      </trkpt>
      <trkpt lat="45.20184" lon="5.73401">
        <ele>212.19999694824</ele>
        <time>2021-11-26T03:50:43.000Z</time>
      </trkpt>
      <trkpt lat="45.20188" lon="5.73403">
        <ele>212.39999389648</ele>
        <time>2021-11-26T03:50:45.000Z</time>
      </trkpt>
      <trkpt lat="45.20192" lon="5.73406">
        <ele>212.60000610352</ele>
        <time>2021-11-26T03:50:47.000Z</time>
      </trkpt>
      <trkpt lat="45.20202" lon="5.73415">
        <ele>212.60000610352</ele>
        <time>2021-11-26T03:50:51.000Z</time>
      </trkpt>
      <trkpt lat="45.20212" lon="5.73424">
        <ele>212.80000305176</ele>
        <time>2021-11-26T03:50:55.000Z</time>
      </trkpt>
      <trkpt lat="45.20215" lon="5.73429">
        <ele>212.60000610352</ele>
        <time>2021-11-26T03:50:57.000Z</time>
      </trkpt>
      <trkpt lat="45.20217" lon="5.73436">
        <ele>212.60000610352</ele>
        <time>2021-11-26T03:50:59.000Z</time>
      </trkpt>
      <trkpt lat="45.20225" lon="5.73448">
        <ele>212.80000305176</ele>
        <time>2021-11-26T03:51:04.000Z</time>
      </trkpt>
      <trkpt lat="45.20235" lon="5.7347">
        <ele>212.80000305176</ele>
        <time>2021-11-26T03:51:10.000Z</time>
      </trkpt>
      <trkpt lat="45.20237" lon="5.73473">
        <ele>213</ele>
        <time>2021-11-26T03:51:11.000Z</time>
      </trkpt>
      <trkpt lat="45.20244" lon="5.7349">
        <ele>213.19999694824</ele>
        <time>2021-11-26T03:51:16.000Z</time>
      </trkpt>
      <trkpt lat="45.20253" lon="5.73503">
        <ele>213.80000305176</ele>
        <time>2021-11-26T03:51:21.000Z</time>
      </trkpt>
      <trkpt lat="45.20255" lon="5.73505">
        <ele>213.80000305176</ele>
        <time>2021-11-26T03:51:22.000Z</time>
      </trkpt>
      <trkpt lat="45.20268" lon="5.73525">
        <ele>214.19999694824</ele>
        <time>2021-11-26T03:51:29.000Z</time>
      </trkpt>
      <trkpt lat="45.2028" lon="5.73541">
        <ele>214.80000305176</ele>
        <time>2021-11-26T03:51:35.000Z</time>
      </trkpt>
      <trkpt lat="45.20283" lon="5.73546">
        <ele>215.19999694824</ele>
        <time>2021-11-26T03:51:37.000Z</time>
      </trkpt>
      <trkpt lat="45.20292" lon="5.7356">
        <ele>216</ele>
        <time>2021-11-26T03:51:42.000Z</time>
      </trkpt>
      <trkpt lat="45.20303" lon="5.73577">
        <ele>217</ele>
        <time>2021-11-26T03:51:48.000Z</time>
      </trkpt>
      <trkpt lat="45.20304" lon="5.7358">
        <ele>217.19999694824</ele>
        <time>2021-11-26T03:51:49.000Z</time>
      </trkpt>
      <trkpt lat="45.20313" lon="5.73592">
        <ele>218.19999694824</ele>
        <time>2021-11-26T03:51:54.000Z</time>
      </trkpt>
      <trkpt lat="45.20315" lon="5.73594">
        <ele>218.19999694824</ele>
        <time>2021-11-26T03:51:55.000Z</time>
      </trkpt>
      <trkpt lat="45.20325" lon="5.73601">
        <ele>218.80000305176</ele>
        <time>2021-11-26T03:51:59.000Z</time>
      </trkpt>
      <trkpt lat="45.20327" lon="5.73602">
        <ele>219</ele>
        <time>2021-11-26T03:52:00.000Z</time>
      </trkpt>
      <trkpt lat="45.20328" lon="5.73605">
        <ele>219.19999694824</ele>
        <time>2021-11-26T03:52:01.000Z</time>
      </trkpt>
      <trkpt lat="45.20335" lon="5.73616">
        <ele>219.60000610352</ele>
        <time>2021-11-26T03:52:05.000Z</time>
      </trkpt>
      <trkpt lat="45.20347" lon="5.73627">
        <ele>219.80000305176</ele>
        <time>2021-11-26T03:52:11.000Z</time>
      </trkpt>
      <trkpt lat="45.20348" lon="5.73631">
        <ele>219.80000305176</ele>
        <time>2021-11-26T03:52:12.000Z</time>
      </trkpt>
      <trkpt lat="45.20352" lon="5.73635">
        <ele>220</ele>
        <time>2021-11-26T03:52:14.000Z</time>
      </trkpt>
      <trkpt lat="45.20361" lon="5.73646">
        <ele>220.19999694824</ele>
        <time>2021-11-26T03:52:19.000Z</time>
      </trkpt>
      <trkpt lat="45.20364" lon="5.73649">
        <ele>220.19999694824</ele>
        <time>2021-11-26T03:52:21.000Z</time>
      </trkpt>
      <trkpt lat="45.20371" lon="5.73655">
        <ele>220.60000610352</ele>
        <time>2021-11-26T03:52:25.000Z</time>
      </trkpt>
      <trkpt lat="45.20373" lon="5.73657">
        <ele>220.60000610352</ele>
        <time>2021-11-26T03:52:26.000Z</time>
      </trkpt>
      <trkpt lat="45.2038" lon="5.73667">
        <ele>221</ele>
        <time>2021-11-26T03:52:30.000Z</time>
      </trkpt>
      <trkpt lat="45.20393" lon="5.7368">
        <ele>221.19999694824</ele>
        <time>2021-11-26T03:52:36.000Z</time>
      </trkpt>
      <trkpt lat="45.20395" lon="5.73683">
        <ele>221.39999389648</ele>
        <time>2021-11-26T03:52:37.000Z</time>
      </trkpt>
      <trkpt lat="45.20405" lon="5.73701">
        <ele>221.80000305176</ele>
        <time>2021-11-26T03:52:43.000Z</time>
      </trkpt>
      <trkpt lat="45.20417" lon="5.73718">
        <ele>222.19999694824</ele>
        <time>2021-11-26T03:52:50.000Z</time>
      </trkpt>
      <trkpt lat="45.20419" lon="5.73721">
        <ele>222.39999389648</ele>
        <time>2021-11-26T03:52:51.000Z</time>
      </trkpt>
      <trkpt lat="45.2043" lon="5.73734">
        <ele>223</ele>
        <time>2021-11-26T03:52:57.000Z</time>
      </trkpt>
      <trkpt lat="45.20437" lon="5.73748">
        <ele>223.39999389648</ele>
        <time>2021-11-26T03:53:02.000Z</time>
      </trkpt>
      <trkpt lat="45.20438" lon="5.7375">
        <ele>223.39999389648</ele>
        <time>2021-11-26T03:53:03.000Z</time>
      </trkpt>
      <trkpt lat="45.20449" lon="5.73762">
        <ele>224</ele>
        <time>2021-11-26T03:53:08.000Z</time>
      </trkpt>
      <trkpt lat="45.2046" lon="5.73774">
        <ele>224.60000610352</ele>
        <time>2021-11-26T03:53:13.000Z</time>
      </trkpt>
      <trkpt lat="45.20462" lon="5.73776">
        <ele>224.60000610352</ele>
        <time>2021-11-26T03:53:14.000Z</time>
      </trkpt>
      <trkpt lat="45.2047" lon="5.7379">
        <ele>225.19999694824</ele>
        <time>2021-11-26T03:53:19.000Z</time>
      </trkpt>
      <trkpt lat="45.20474" lon="5.73794">
        <ele>225.60000610352</ele>
        <time>2021-11-26T03:53:21.000Z</time>
      </trkpt>
      <trkpt lat="45.20485" lon="5.73807">
        <ele>226.19999694824</ele>
        <time>2021-11-26T03:53:27.000Z</time>
      </trkpt>
      <trkpt lat="45.20491" lon="5.73813">
        <ele>226.80000305176</ele>
        <time>2021-11-26T03:53:30.000Z</time>
      </trkpt>
      <trkpt lat="45.20499" lon="5.73822">
        <ele>227.39999389648</ele>
        <time>2021-11-26T03:53:34.000Z</time>
      </trkpt>
      <trkpt lat="45.20504" lon="5.73827">
        <ele>227.80000305176</ele>
        <time>2021-11-26T03:53:37.000Z</time>
      </trkpt>
      <trkpt lat="45.20516" lon="5.73834">
        <ele>228.39999389648</ele>
        <time>2021-11-26T03:53:42.000Z</time>
      </trkpt>
      <trkpt lat="45.2052" lon="5.73837">
        <ele>228.80000305176</ele>
        <time>2021-11-26T03:53:44.000Z</time>
      </trkpt>
      <trkpt lat="45.20528" lon="5.73838">
        <ele>229.80000305176</ele>
        <time>2021-11-26T03:53:48.000Z</time>
      </trkpt>
      <trkpt lat="45.20536" lon="5.73841">
        <ele>231</ele>
        <time>2021-11-26T03:53:53.000Z</time>
      </trkpt>
      <trkpt lat="45.20537" lon="5.73844">
        <ele>231.19999694824</ele>
        <time>2021-11-26T03:53:54.000Z</time>
      </trkpt>
      <trkpt lat="45.20543" lon="5.73853">
        <ele>232.39999389648</ele>
        <time>2021-11-26T03:53:58.000Z</time>
      </trkpt>
      <trkpt lat="45.20547" lon="5.73861">
        <ele>233.80000305176</ele>
        <time>2021-11-26T03:54:02.000Z</time>
      </trkpt>
      <trkpt lat="45.20548" lon="5.73864">
        <ele>234.19999694824</ele>
        <time>2021-11-26T03:54:03.000Z</time>
      </trkpt>
      <trkpt lat="45.20551" lon="5.73871">
        <ele>235</ele>
        <time>2021-11-26T03:54:06.000Z</time>
      </trkpt>
      <trkpt lat="45.20555" lon="5.73873">
        <ele>236.19999694824</ele>
        <time>2021-11-26T03:54:09.000Z</time>
      </trkpt>
      <trkpt lat="45.20557" lon="5.73873">
        <ele>236.80000305176</ele>
        <time>2021-11-26T03:54:11.000Z</time>
      </trkpt>
      <trkpt lat="45.20558" lon="5.73873">
        <ele>237.19999694824</ele>
        <time>2021-11-26T03:54:12.000Z</time>
      </trkpt>
      <trkpt lat="45.20563" lon="5.73873">
        <ele>238.19999694824</ele>
        <time>2021-11-26T03:54:15.000Z</time>
      </trkpt>
      <trkpt lat="45.20567" lon="5.73871">
        <ele>239.39999389648</ele>
        <time>2021-11-26T03:54:18.000Z</time>
      </trkpt>
      <trkpt lat="45.20568" lon="5.73871">
        <ele>239.39999389648</ele>
        <time>2021-11-26T03:54:19.000Z</time>
      </trkpt>
      <trkpt lat="45.20574" lon="5.73868">
        <ele>240.39999389648</ele>
        <time>2021-11-26T03:54:23.000Z</time>
      </trkpt>
      <trkpt lat="45.2058" lon="5.73865">
        <ele>241.80000305176</ele>
        <time>2021-11-26T03:54:28.000Z</time>
      </trkpt>
      <trkpt lat="45.20585" lon="5.73863">
        <ele>243</ele>
        <time>2021-11-26T03:54:32.000Z</time>
      </trkpt>
      <trkpt lat="45.20589" lon="5.73861">
        <ele>244</ele>
        <time>2021-11-26T03:54:36.000Z</time>
      </trkpt>
      <trkpt lat="45.20595" lon="5.73859">
        <ele>245.39999389648</ele>
        <time>2021-11-26T03:54:40.000Z</time>
      </trkpt>
      <trkpt lat="45.20601" lon="5.73855">
        <ele>246.60000610352</ele>
        <time>2021-11-26T03:54:45.000Z</time>
      </trkpt>
      <trkpt lat="45.20606" lon="5.73853">
        <ele>247.80000305176</ele>
        <time>2021-11-26T03:54:49.000Z</time>
      </trkpt>
      <trkpt lat="45.20612" lon="5.73851">
        <ele>249.19999694824</ele>
        <time>2021-11-26T03:54:53.000Z</time>
      </trkpt>
      <trkpt lat="45.20618" lon="5.73848">
        <ele>250.19999694824</ele>
        <time>2021-11-26T03:54:57.000Z</time>
      </trkpt>
      <trkpt lat="45.20623" lon="5.73846">
        <ele>251.39999389648</ele>
        <time>2021-11-26T03:55:01.000Z</time>
      </trkpt>
      <trkpt lat="45.20625" lon="5.73845">
        <ele>252.19999694824</ele>
        <time>2021-11-26T03:55:03.000Z</time>
      </trkpt>
      <trkpt lat="45.20626" lon="5.73845">
        <ele>252.39999389648</ele>
        <time>2021-11-26T03:55:04.000Z</time>
      </trkpt>
      <trkpt lat="45.20631" lon="5.73843">
        <ele>253.60000610352</ele>
        <time>2021-11-26T03:55:08.000Z</time>
      </trkpt>
      <trkpt lat="45.20634" lon="5.73841">
        <ele>254.39999389648</ele>
        <time>2021-11-26T03:55:11.000Z</time>
      </trkpt>
      <trkpt lat="45.20635" lon="5.73841">
        <ele>254.80000305176</ele>
        <time>2021-11-26T03:55:12.000Z</time>
      </trkpt>
      <trkpt lat="45.20639" lon="5.73839">
        <ele>256</ele>
        <time>2021-11-26T03:55:16.000Z</time>
      </trkpt>
      <trkpt lat="45.20644" lon="5.73836">
        <ele>257.20001220703</ele>
        <time>2021-11-26T03:55:20.000Z</time>
      </trkpt>
      <trkpt lat="45.20648" lon="5.73834">
        <ele>258.39999389648</ele>
        <time>2021-11-26T03:55:24.000Z</time>
      </trkpt>
      <trkpt lat="45.20651" lon="5.73832">
        <ele>259.39999389648</ele>
        <time>2021-11-26T03:55:27.000Z</time>
      </trkpt>
      <trkpt lat="45.20656" lon="5.7383">
        <ele>260.79998779297</ele>
        <time>2021-11-26T03:55:31.000Z</time>
      </trkpt>
      <trkpt lat="45.20661" lon="5.73827">
        <ele>262</ele>
        <time>2021-11-26T03:55:35.000Z</time>
      </trkpt>
      <trkpt lat="45.20662" lon="5.73826">
        <ele>262.39999389648</ele>
        <time>2021-11-26T03:55:36.000Z</time>
      </trkpt>
      <trkpt lat="45.20666" lon="5.73825">
        <ele>263.20001220703</ele>
        <time>2021-11-26T03:55:39.000Z</time>
      </trkpt>
      <trkpt lat="45.20671" lon="5.73824">
        <ele>264.39999389648</ele>
        <time>2021-11-26T03:55:43.000Z</time>
      </trkpt>
      <trkpt lat="45.20672" lon="5.73824">
        <ele>264.79998779297</ele>
        <time>2021-11-26T03:55:44.000Z</time>
      </trkpt>
      <trkpt lat="45.20677" lon="5.73822">
        <ele>265.60000610352</ele>
        <time>2021-11-26T03:55:49.000Z</time>
      </trkpt>
      <trkpt lat="45.20678" lon="5.73822">
        <ele>266</ele>
        <time>2021-11-26T03:55:50.000Z</time>
      </trkpt>
      <trkpt lat="45.20682" lon="5.73818">
        <ele>266.79998779297</ele>
        <time>2021-11-26T03:55:53.000Z</time>
      </trkpt>
      <trkpt lat="45.20686" lon="5.73815">
        <ele>268</ele>
        <time>2021-11-26T03:55:57.000Z</time>
      </trkpt>
      <trkpt lat="45.20688" lon="5.73813">
        <ele>268.60000610352</ele>
        <time>2021-11-26T03:55:59.000Z</time>
      </trkpt>
      <trkpt lat="45.2069" lon="5.73813">
        <ele>269</ele>
        <time>2021-11-26T03:56:00.000Z</time>
      </trkpt>
      <trkpt lat="45.20693" lon="5.7381">
        <ele>270.20001220703</ele>
        <time>2021-11-26T03:56:04.000Z</time>
      </trkpt>
      <trkpt lat="45.20694" lon="5.7381">
        <ele>270.39999389648</ele>
        <time>2021-11-26T03:56:05.000Z</time>
      </trkpt>
      <trkpt lat="45.20699" lon="5.73808">
        <ele>271.20001220703</ele>
        <time>2021-11-26T03:56:09.000Z</time>
      </trkpt>
      <trkpt lat="45.20704" lon="5.73805">
        <ele>272.60000610352</ele>
        <time>2021-11-26T03:56:14.000Z</time>
      </trkpt>
      <trkpt lat="45.20704" lon="5.73804">
        <ele>272.79998779297</ele>
        <time>2021-11-26T03:56:15.000Z</time>
      </trkpt>
      <trkpt lat="45.20707" lon="5.73802">
        <ele>273.60000610352</ele>
        <time>2021-11-26T03:56:19.000Z</time>
      </trkpt>
      <trkpt lat="45.20707" lon="5.73801">
        <ele>274</ele>
        <time>2021-11-26T03:56:20.000Z</time>
      </trkpt>
      <trkpt lat="45.20708" lon="5.73798">
        <ele>274.79998779297</ele>
        <time>2021-11-26T03:56:22.000Z</time>
      </trkpt>
      <trkpt lat="45.20712" lon="5.73797">
        <ele>275.79998779297</ele>
        <time>2021-11-26T03:56:26.000Z</time>
      </trkpt>
      <trkpt lat="45.20713" lon="5.73796">
        <ele>276.20001220703</ele>
        <time>2021-11-26T03:56:27.000Z</time>
      </trkpt>
      <trkpt lat="45.20717" lon="5.73791">
        <ele>277.60000610352</ele>
        <time>2021-11-26T03:56:32.000Z</time>
      </trkpt>
      <trkpt lat="45.20719" lon="5.73789">
        <ele>278.39999389648</ele>
        <time>2021-11-26T03:56:34.000Z</time>
      </trkpt>
      <trkpt lat="45.20722" lon="5.73787">
        <ele>278.79998779297</ele>
        <time>2021-11-26T03:56:36.000Z</time>
      </trkpt>
      <trkpt lat="45.20724" lon="5.73786">
        <ele>279.39999389648</ele>
        <time>2021-11-26T03:56:38.000Z</time>
      </trkpt>
      <trkpt lat="45.20726" lon="5.73784">
        <ele>280</ele>
        <time>2021-11-26T03:56:40.000Z</time>
      </trkpt>
      <trkpt lat="45.20726" lon="5.73783">
        <ele>280.39999389648</ele>
        <time>2021-11-26T03:56:41.000Z</time>
      </trkpt>
      <trkpt lat="45.20726" lon="5.73782">
        <ele>280.60000610352</ele>
        <time>2021-11-26T03:56:42.000Z</time>
      </trkpt>
      <trkpt lat="45.20727" lon="5.7378">
        <ele>280.79998779297</ele>
        <time>2021-11-26T03:56:44.000Z</time>
      </trkpt>
      <trkpt lat="45.20729" lon="5.73778">
        <ele>281.60000610352</ele>
        <time>2021-11-26T03:56:46.000Z</time>
      </trkpt>
      <trkpt lat="45.20732" lon="5.73774">
        <ele>282.60000610352</ele>
        <time>2021-11-26T03:56:49.000Z</time>
      </trkpt>
      <trkpt lat="45.20733" lon="5.73773">
        <ele>282.79998779297</ele>
        <time>2021-11-26T03:56:50.000Z</time>
      </trkpt>
      <trkpt lat="45.20735" lon="5.7377">
        <ele>283.79998779297</ele>
        <time>2021-11-26T03:56:53.000Z</time>
      </trkpt>
      <trkpt lat="45.20739" lon="5.73766">
        <ele>285</ele>
        <time>2021-11-26T03:56:57.000Z</time>
      </trkpt>
      <trkpt lat="45.2074" lon="5.73765">
        <ele>285.60000610352</ele>
        <time>2021-11-26T03:56:58.000Z</time>
      </trkpt>
      <trkpt lat="45.20742" lon="5.73763">
        <ele>286.20001220703</ele>
        <time>2021-11-26T03:57:00.000Z</time>
      </trkpt>
      <trkpt lat="45.20745" lon="5.73759">
        <ele>287.60000610352</ele>
        <time>2021-11-26T03:57:04.000Z</time>
      </trkpt>
      <trkpt lat="45.20746" lon="5.73758">
        <ele>288</ele>
        <time>2021-11-26T03:57:05.000Z</time>
      </trkpt>
      <trkpt lat="45.20746" lon="5.73758">
        <ele>288.20001220703</ele>
        <time>2021-11-26T03:57:06.000Z</time>
      </trkpt>
      <trkpt lat="45.20749" lon="5.73757">
        <ele>288.60000610352</ele>
        <time>2021-11-26T03:57:08.000Z</time>
      </trkpt>
      <trkpt lat="45.20751" lon="5.73757">
        <ele>289</ele>
        <time>2021-11-26T03:57:09.000Z</time>
      </trkpt>
      <trkpt lat="45.20753" lon="5.73756">
        <ele>289.79998779297</ele>
        <time>2021-11-26T03:57:11.000Z</time>
      </trkpt>
      <trkpt lat="45.20758" lon="5.73754">
        <ele>291</ele>
        <time>2021-11-26T03:57:15.000Z</time>
      </trkpt>
      <trkpt lat="45.2076" lon="5.73753">
        <ele>291.79998779297</ele>
        <time>2021-11-26T03:57:17.000Z</time>
      </trkpt>
      <trkpt lat="45.20762" lon="5.73751">
        <ele>292.20001220703</ele>
        <time>2021-11-26T03:57:19.000Z</time>
      </trkpt>
      <trkpt lat="45.20766" lon="5.7375">
        <ele>293.39999389648</ele>
        <time>2021-11-26T03:57:22.000Z</time>
      </trkpt>
      <trkpt lat="45.20768" lon="5.73748">
        <ele>293.79998779297</ele>
        <time>2021-11-26T03:57:24.000Z</time>
      </trkpt>
      <trkpt lat="45.20769" lon="5.73747">
        <ele>294.20001220703</ele>
        <time>2021-11-26T03:57:26.000Z</time>
      </trkpt>
      <trkpt lat="45.2077" lon="5.73747">
        <ele>294.60000610352</ele>
        <time>2021-11-26T03:57:27.000Z</time>
      </trkpt>
      <trkpt lat="45.20771" lon="5.73746">
        <ele>295.60000610352</ele>
        <time>2021-11-26T03:57:29.000Z</time>
      </trkpt>
      <trkpt lat="45.20771" lon="5.73746">
        <ele>296</ele>
        <time>2021-11-26T03:57:30.000Z</time>
      </trkpt>
      <trkpt lat="45.20773" lon="5.73744">
        <ele>296.79998779297</ele>
        <time>2021-11-26T03:57:33.000Z</time>
      </trkpt>
      <trkpt lat="45.20774" lon="5.73743">
        <ele>297.39999389648</ele>
        <time>2021-11-26T03:57:34.000Z</time>
      </trkpt>
      <trkpt lat="45.20777" lon="5.73742">
        <ele>298.60000610352</ele>
        <time>2021-11-26T03:57:37.000Z</time>
      </trkpt>
      <trkpt lat="45.2078" lon="5.73741">
        <ele>299</ele>
        <time>2021-11-26T03:57:40.000Z</time>
      </trkpt>
      <trkpt lat="45.20783" lon="5.73739">
        <ele>299.79998779297</ele>
        <time>2021-11-26T03:57:43.000Z</time>
      </trkpt>
      <trkpt lat="45.20783" lon="5.73738">
        <ele>300</ele>
        <time>2021-11-26T03:57:44.000Z</time>
      </trkpt>
      <trkpt lat="45.20784" lon="5.73738">
        <ele>300.20001220703</ele>
        <time>2021-11-26T03:57:45.000Z</time>
      </trkpt>
      <trkpt lat="45.20784" lon="5.73738">
        <ele>300.39999389648</ele>
        <time>2021-11-26T03:57:46.000Z</time>
      </trkpt>
      <trkpt lat="45.20785" lon="5.73737">
        <ele>300.60000610352</ele>
        <time>2021-11-26T03:57:47.000Z</time>
      </trkpt>
      <trkpt lat="45.20785" lon="5.73736">
        <ele>300.79998779297</ele>
        <time>2021-11-26T03:57:48.000Z</time>
      </trkpt>
      <trkpt lat="45.20786" lon="5.73735">
        <ele>301</ele>
        <time>2021-11-26T03:57:49.000Z</time>
      </trkpt>
      <trkpt lat="45.20789" lon="5.73733">
        <ele>302.20001220703</ele>
        <time>2021-11-26T03:57:53.000Z</time>
      </trkpt>
      <trkpt lat="45.2079" lon="5.73733">
        <ele>302.39999389648</ele>
        <time>2021-11-26T03:57:54.000Z</time>
      </trkpt>
      <trkpt lat="45.2079" lon="5.73732">
        <ele>302.79998779297</ele>
        <time>2021-11-26T03:57:55.000Z</time>
      </trkpt>
      <trkpt lat="45.20791" lon="5.73732">
        <ele>303.39999389648</ele>
        <time>2021-11-26T03:57:57.000Z</time>
      </trkpt>
      <trkpt lat="45.20793" lon="5.73732">
        <ele>303.60000610352</ele>
        <time>2021-11-26T03:57:59.000Z</time>
      </trkpt>
      <trkpt lat="45.20794" lon="5.73731">
        <ele>304.39999389648</ele>
        <time>2021-11-26T03:58:01.000Z</time>
      </trkpt>
      <trkpt lat="45.20796" lon="5.73731">
        <ele>304.60000610352</ele>
        <time>2021-11-26T03:58:02.000Z</time>
      </trkpt>
      <trkpt lat="45.20799" lon="5.7373">
        <ele>305.39999389648</ele>
        <time>2021-11-26T03:58:05.000Z</time>
      </trkpt>
      <trkpt lat="45.208" lon="5.7373">
        <ele>305.60000610352</ele>
        <time>2021-11-26T03:58:06.000Z</time>
      </trkpt>
      <trkpt lat="45.20803" lon="5.73728">
        <ele>306.79998779297</ele>
        <time>2021-11-26T03:58:09.000Z</time>
      </trkpt>
      <trkpt lat="45.20807" lon="5.73728">
        <ele>308</ele>
        <time>2021-11-26T03:58:13.000Z</time>
      </trkpt>
      <trkpt lat="45.2081" lon="5.73729">
        <ele>309</ele>
        <time>2021-11-26T03:58:16.000Z</time>
      </trkpt>
      <trkpt lat="45.2081" lon="5.73731">
        <ele>309.39999389648</ele>
        <time>2021-11-26T03:58:17.000Z</time>
      </trkpt>
      <trkpt lat="45.2081" lon="5.73732">
        <ele>309.79998779297</ele>
        <time>2021-11-26T03:58:18.000Z</time>
      </trkpt>
      <trkpt lat="45.20812" lon="5.73737">
        <ele>310</ele>
        <time>2021-11-26T03:58:20.000Z</time>
      </trkpt>
      <trkpt lat="45.20813" lon="5.7374">
        <ele>310.60000610352</ele>
        <time>2021-11-26T03:58:22.000Z</time>
      </trkpt>
      <trkpt lat="45.20816" lon="5.73742">
        <ele>311</ele>
        <time>2021-11-26T03:58:24.000Z</time>
      </trkpt>
      <trkpt lat="45.20821" lon="5.73743">
        <ele>311.79998779297</ele>
        <time>2021-11-26T03:58:28.000Z</time>
      </trkpt>
      <trkpt lat="45.20824" lon="5.73742">
        <ele>312.39999389648</ele>
        <time>2021-11-26T03:58:31.000Z</time>
      </trkpt>
      <trkpt lat="45.20825" lon="5.73742">
        <ele>312.79998779297</ele>
        <time>2021-11-26T03:58:32.000Z</time>
      </trkpt>
      <trkpt lat="45.2083" lon="5.73742">
        <ele>313.79998779297</ele>
        <time>2021-11-26T03:58:36.000Z</time>
      </trkpt>
      <trkpt lat="45.20831" lon="5.73742">
        <ele>314.20001220703</ele>
        <time>2021-11-26T03:58:37.000Z</time>
      </trkpt>
      <trkpt lat="45.20834" lon="5.73742">
        <ele>315.20001220703</ele>
        <time>2021-11-26T03:58:40.000Z</time>
      </trkpt>
      <trkpt lat="45.20835" lon="5.73739">
        <ele>315.60000610352</ele>
        <time>2021-11-26T03:58:42.000Z</time>
      </trkpt>
      <trkpt lat="45.20836" lon="5.73737">
        <ele>315.79998779297</ele>
        <time>2021-11-26T03:58:43.000Z</time>
      </trkpt>
      <trkpt lat="45.20837" lon="5.73735">
        <ele>316.39999389648</ele>
        <time>2021-11-26T03:58:45.000Z</time>
      </trkpt>
      <trkpt lat="45.20837" lon="5.73733">
        <ele>317.20001220703</ele>
        <time>2021-11-26T03:58:47.000Z</time>
      </trkpt>
      <trkpt lat="45.20838" lon="5.73731">
        <ele>317.39999389648</ele>
        <time>2021-11-26T03:58:48.000Z</time>
      </trkpt>
      <trkpt lat="45.20839" lon="5.7373">
        <ele>317.60000610352</ele>
        <time>2021-11-26T03:58:49.000Z</time>
      </trkpt>
      <trkpt lat="45.20841" lon="5.7373">
        <ele>318.20001220703</ele>
        <time>2021-11-26T03:58:51.000Z</time>
      </trkpt>
      <trkpt lat="45.20842" lon="5.7373">
        <ele>318.60000610352</ele>
        <time>2021-11-26T03:58:52.000Z</time>
      </trkpt>
      <trkpt lat="45.20843" lon="5.73731">
        <ele>318.79998779297</ele>
        <time>2021-11-26T03:58:53.000Z</time>
      </trkpt>
      <trkpt lat="45.20843" lon="5.73731">
        <ele>319</ele>
        <time>2021-11-26T03:58:54.000Z</time>
      </trkpt>
      <trkpt lat="45.20844" lon="5.73732">
        <ele>319.39999389648</ele>
        <time>2021-11-26T03:58:56.000Z</time>
      </trkpt>
      <trkpt lat="45.20846" lon="5.73732">
        <ele>320</ele>
        <time>2021-11-26T03:58:58.000Z</time>
      </trkpt>
      <trkpt lat="45.20847" lon="5.73732">
        <ele>320.39999389648</ele>
        <time>2021-11-26T03:58:59.000Z</time>
      </trkpt>
      <trkpt lat="45.20848" lon="5.73732">
        <ele>320.39999389648</ele>
        <time>2021-11-26T03:59:00.000Z</time>
      </trkpt>
      <trkpt lat="45.20848" lon="5.73729">
        <ele>321.20001220703</ele>
        <time>2021-11-26T03:59:03.000Z</time>
      </trkpt>
      <trkpt lat="45.20849" lon="5.73728">
        <ele>321.39999389648</ele>
        <time>2021-11-26T03:59:04.000Z</time>
      </trkpt>
      <trkpt lat="45.20848" lon="5.73726">
        <ele>321.60000610352</ele>
        <time>2021-11-26T03:59:05.000Z</time>
      </trkpt>
      <trkpt lat="45.20847" lon="5.73722">
        <ele>322.60000610352</ele>
        <time>2021-11-26T03:59:08.000Z</time>
      </trkpt>
      <trkpt lat="45.20848" lon="5.73719">
        <ele>323.20001220703</ele>
        <time>2021-11-26T03:59:10.000Z</time>
      </trkpt>
      <trkpt lat="45.20849" lon="5.73718">
        <ele>323.39999389648</ele>
        <time>2021-11-26T03:59:12.000Z</time>
      </trkpt>
      <trkpt lat="45.20853" lon="5.73721">
        <ele>323.79998779297</ele>
        <time>2021-11-26T03:59:15.000Z</time>
      </trkpt>
      <trkpt lat="45.20857" lon="5.73723">
        <ele>324.20001220703</ele>
        <time>2021-11-26T03:59:18.000Z</time>
      </trkpt>
      <trkpt lat="45.20859" lon="5.73724">
        <ele>324.79998779297</ele>
        <time>2021-11-26T03:59:20.000Z</time>
      </trkpt>
      <trkpt lat="45.2086" lon="5.73724">
        <ele>325</ele>
        <time>2021-11-26T03:59:21.000Z</time>
      </trkpt>
      <trkpt lat="45.20864" lon="5.73726">
        <ele>326</ele>
        <time>2021-11-26T03:59:24.000Z</time>
      </trkpt>
      <trkpt lat="45.20866" lon="5.73727">
        <ele>326.60000610352</ele>
        <time>2021-11-26T03:59:26.000Z</time>
      </trkpt>
      <trkpt lat="45.2087" lon="5.73729">
        <ele>327</ele>
        <time>2021-11-26T03:59:29.000Z</time>
      </trkpt>
      <trkpt lat="45.20872" lon="5.73731">
        <ele>328.20001220703</ele>
        <time>2021-11-26T03:59:32.000Z</time>
      </trkpt>
      <trkpt lat="45.20877" lon="5.73734">
        <ele>329.20001220703</ele>
        <time>2021-11-26T03:59:37.000Z</time>
      </trkpt>
      <trkpt lat="45.20879" lon="5.73734">
        <ele>330</ele>
        <time>2021-11-26T03:59:39.000Z</time>
      </trkpt>
      <trkpt lat="45.2088" lon="5.73733">
        <ele>330.20001220703</ele>
        <time>2021-11-26T03:59:40.000Z</time>
      </trkpt>
      <trkpt lat="45.20882" lon="5.73731">
        <ele>330.79998779297</ele>
        <time>2021-11-26T03:59:43.000Z</time>
      </trkpt>
      <trkpt lat="45.20884" lon="5.7373">
        <ele>331.39999389648</ele>
        <time>2021-11-26T03:59:45.000Z</time>
      </trkpt>
      <trkpt lat="45.20885" lon="5.73729">
        <ele>331.60000610352</ele>
        <time>2021-11-26T03:59:46.000Z</time>
      </trkpt>
      <trkpt lat="45.20886" lon="5.73728">
        <ele>332.39999389648</ele>
        <time>2021-11-26T03:59:48.000Z</time>
      </trkpt>
      <trkpt lat="45.20887" lon="5.73728">
        <ele>332.79998779297</ele>
        <time>2021-11-26T03:59:50.000Z</time>
      </trkpt>
      <trkpt lat="45.2089" lon="5.73725">
        <ele>333.39999389648</ele>
        <time>2021-11-26T03:59:53.000Z</time>
      </trkpt>
      <trkpt lat="45.20892" lon="5.73725">
        <ele>333.79998779297</ele>
        <time>2021-11-26T03:59:54.000Z</time>
      </trkpt>
      <trkpt lat="45.20893" lon="5.73722">
        <ele>335</ele>
        <time>2021-11-26T03:59:57.000Z</time>
      </trkpt>
      <trkpt lat="45.20894" lon="5.73721">
        <ele>335.60000610352</ele>
        <time>2021-11-26T03:59:59.000Z</time>
      </trkpt>
      <trkpt lat="45.20895" lon="5.73721">
        <ele>336.20001220703</ele>
        <time>2021-11-26T04:00:01.000Z</time>
      </trkpt>
      <trkpt lat="45.20896" lon="5.73719">
        <ele>336.60000610352</ele>
        <time>2021-11-26T04:00:04.000Z</time>
      </trkpt>
      <trkpt lat="45.20898" lon="5.73718">
        <ele>337.39999389648</ele>
        <time>2021-11-26T04:00:06.000Z</time>
      </trkpt>
      <trkpt lat="45.20901" lon="5.73716">
        <ele>338.60000610352</ele>
        <time>2021-11-26T04:00:10.000Z</time>
      </trkpt>
      <trkpt lat="45.20904" lon="5.73714">
        <ele>339.79998779297</ele>
        <time>2021-11-26T04:00:13.000Z</time>
      </trkpt>
      <trkpt lat="45.20908" lon="5.73713">
        <ele>341.20001220703</ele>
        <time>2021-11-26T04:00:18.000Z</time>
      </trkpt>
      <trkpt lat="45.2091" lon="5.73713">
        <ele>341.39999389648</ele>
        <time>2021-11-26T04:00:19.000Z</time>
      </trkpt>
      <trkpt lat="45.20912" lon="5.73713">
        <ele>342.39999389648</ele>
        <time>2021-11-26T04:00:21.000Z</time>
      </trkpt>
      <trkpt lat="45.20914" lon="5.73713">
        <ele>343.39999389648</ele>
        <time>2021-11-26T04:00:25.000Z</time>
      </trkpt>
      <trkpt lat="45.20915" lon="5.73711">
        <ele>343.79998779297</ele>
        <time>2021-11-26T04:00:26.000Z</time>
      </trkpt>
      <trkpt lat="45.20917" lon="5.7371">
        <ele>344.39999389648</ele>
        <time>2021-11-26T04:00:27.000Z</time>
      </trkpt>
      <trkpt lat="45.20919" lon="5.7371">
        <ele>344.79998779297</ele>
        <time>2021-11-26T04:00:28.000Z</time>
      </trkpt>
      <trkpt lat="45.2092" lon="5.73709">
        <ele>345</ele>
        <time>2021-11-26T04:00:29.000Z</time>
      </trkpt>
      <trkpt lat="45.20924" lon="5.73708">
        <ele>346.20001220703</ele>
        <time>2021-11-26T04:00:34.000Z</time>
      </trkpt>
      <trkpt lat="45.20927" lon="5.73706">
        <ele>347.39999389648</ele>
        <time>2021-11-26T04:00:37.000Z</time>
      </trkpt>
      <trkpt lat="45.2093" lon="5.73705">
        <ele>348</ele>
        <time>2021-11-26T04:00:39.000Z</time>
      </trkpt>
      <trkpt lat="45.20932" lon="5.73704">
        <ele>348.60000610352</ele>
        <time>2021-11-26T04:00:41.000Z</time>
      </trkpt>
      <trkpt lat="45.20934" lon="5.73703">
        <ele>350</ele>
        <time>2021-11-26T04:00:45.000Z</time>
      </trkpt>
      <trkpt lat="45.20935" lon="5.73703">
        <ele>350.20001220703</ele>
        <time>2021-11-26T04:00:46.000Z</time>
      </trkpt>
      <trkpt lat="45.20938" lon="5.73702">
        <ele>351.20001220703</ele>
        <time>2021-11-26T04:00:49.000Z</time>
      </trkpt>
      <trkpt lat="45.20939" lon="5.73701">
        <ele>351.79998779297</ele>
        <time>2021-11-26T04:00:51.000Z</time>
      </trkpt>
      <trkpt lat="45.2094" lon="5.73699">
        <ele>352.39999389648</ele>
        <time>2021-11-26T04:00:53.000Z</time>
      </trkpt>
      <trkpt lat="45.20942" lon="5.737">
        <ele>352.79998779297</ele>
        <time>2021-11-26T04:00:55.000Z</time>
      </trkpt>
      <trkpt lat="45.20943" lon="5.737">
        <ele>353</ele>
        <time>2021-11-26T04:00:56.000Z</time>
      </trkpt>
      <trkpt lat="45.20943" lon="5.73701">
        <ele>353.39999389648</ele>
        <time>2021-11-26T04:00:57.000Z</time>
      </trkpt>
      <trkpt lat="45.20943" lon="5.73701">
        <ele>353.79998779297</ele>
        <time>2021-11-26T04:00:58.000Z</time>
      </trkpt>
      <trkpt lat="45.20944" lon="5.737">
        <ele>354</ele>
        <time>2021-11-26T04:00:59.000Z</time>
      </trkpt>
      <trkpt lat="45.20945" lon="5.73699">
        <ele>354.60000610352</ele>
        <time>2021-11-26T04:01:01.000Z</time>
      </trkpt>
      <trkpt lat="45.20946" lon="5.73699">
        <ele>354.60000610352</ele>
        <time>2021-11-26T04:01:02.000Z</time>
      </trkpt>
      <trkpt lat="45.2095" lon="5.73697">
        <ele>355.79998779297</ele>
        <time>2021-11-26T04:01:06.000Z</time>
      </trkpt>
      <trkpt lat="45.20951" lon="5.73697">
        <ele>356</ele>
        <time>2021-11-26T04:01:07.000Z</time>
      </trkpt>
      <trkpt lat="45.20955" lon="5.73695">
        <ele>356.79998779297</ele>
        <time>2021-11-26T04:01:10.000Z</time>
      </trkpt>
      <trkpt lat="45.20957" lon="5.73695">
        <ele>357</ele>
        <time>2021-11-26T04:01:11.000Z</time>
      </trkpt>
      <trkpt lat="45.20957" lon="5.73695">
        <ele>357.20001220703</ele>
        <time>2021-11-26T04:01:12.000Z</time>
      </trkpt>
      <trkpt lat="45.2096" lon="5.73696">
        <ele>358</ele>
        <time>2021-11-26T04:01:14.000Z</time>
      </trkpt>
      <trkpt lat="45.20961" lon="5.73692">
        <ele>359.20001220703</ele>
        <time>2021-11-26T04:01:19.000Z</time>
      </trkpt>
      <trkpt lat="45.20961" lon="5.73692">
        <ele>359.79998779297</ele>
        <time>2021-11-26T04:01:20.000Z</time>
      </trkpt>
      <trkpt lat="45.20961" lon="5.73691">
        <ele>360.39999389648</ele>
        <time>2021-11-26T04:01:21.000Z</time>
      </trkpt>
      <trkpt lat="45.20962" lon="5.73689">
        <ele>361.60000610352</ele>
        <time>2021-11-26T04:01:24.000Z</time>
      </trkpt>
      <trkpt lat="45.20963" lon="5.73687">
        <ele>362.39999389648</ele>
        <time>2021-11-26T04:01:27.000Z</time>
      </trkpt>
      <trkpt lat="45.20963" lon="5.73687">
        <ele>362.60000610352</ele>
        <time>2021-11-26T04:01:28.000Z</time>
      </trkpt>
      <trkpt lat="45.20965" lon="5.73684">
        <ele>363.79998779297</ele>
        <time>2021-11-26T04:01:32.000Z</time>
      </trkpt>
      <trkpt lat="45.20965" lon="5.73682">
        <ele>364</ele>
        <time>2021-11-26T04:01:33.000Z</time>
      </trkpt>
      <trkpt lat="45.20965" lon="5.73679">
        <ele>364.79998779297</ele>
        <time>2021-11-26T04:01:36.000Z</time>
      </trkpt>
      <trkpt lat="45.20968" lon="5.73677">
        <ele>365.39999389648</ele>
        <time>2021-11-26T04:01:40.000Z</time>
      </trkpt>
      <trkpt lat="45.20969" lon="5.73676">
        <ele>366</ele>
        <time>2021-11-26T04:01:42.000Z</time>
      </trkpt>
      <trkpt lat="45.20971" lon="5.7367">
        <ele>367.20001220703</ele>
        <time>2021-11-26T04:01:46.000Z</time>
      </trkpt>
      <trkpt lat="45.20972" lon="5.73667">
        <ele>367.79998779297</ele>
        <time>2021-11-26T04:01:48.000Z</time>
      </trkpt>
      <trkpt lat="45.20972" lon="5.73667">
        <ele>368.20001220703</ele>
        <time>2021-11-26T04:01:49.000Z</time>
      </trkpt>
      <trkpt lat="45.20975" lon="5.73663">
        <ele>369</ele>
        <time>2021-11-26T04:01:53.000Z</time>
      </trkpt>
      <trkpt lat="45.20976" lon="5.73661">
        <ele>369.39999389648</ele>
        <time>2021-11-26T04:01:54.000Z</time>
      </trkpt>
      <trkpt lat="45.20978" lon="5.73657">
        <ele>370.79998779297</ele>
        <time>2021-11-26T04:01:58.000Z</time>
      </trkpt>
      <trkpt lat="45.20979" lon="5.73653">
        <ele>372</ele>
        <time>2021-11-26T04:02:01.000Z</time>
      </trkpt>
      <trkpt lat="45.20978" lon="5.73647">
        <ele>373.20001220703</ele>
        <time>2021-11-26T04:02:06.000Z</time>
      </trkpt>
      <trkpt lat="45.20979" lon="5.73643">
        <ele>374.39999389648</ele>
        <time>2021-11-26T04:02:10.000Z</time>
      </trkpt>
      <trkpt lat="45.20981" lon="5.7364">
        <ele>375.20001220703</ele>
        <time>2021-11-26T04:02:13.000Z</time>
      </trkpt>
      <trkpt lat="45.20981" lon="5.73638">
        <ele>375.79998779297</ele>
        <time>2021-11-26T04:02:15.000Z</time>
      </trkpt>
      <trkpt lat="45.20982" lon="5.73637">
        <ele>376.79998779297</ele>
        <time>2021-11-26T04:02:20.000Z</time>
      </trkpt>
      <trkpt lat="45.20982" lon="5.73636">
        <ele>377.20001220703</ele>
        <time>2021-11-26T04:02:21.000Z</time>
      </trkpt>
      <trkpt lat="45.20983" lon="5.73632">
        <ele>378.20001220703</ele>
        <time>2021-11-26T04:02:25.000Z</time>
      </trkpt>
      <trkpt lat="45.20984" lon="5.73628">
        <ele>379.20001220703</ele>
        <time>2021-11-26T04:02:28.000Z</time>
      </trkpt>
      <trkpt lat="45.20984" lon="5.73627">
        <ele>379.39999389648</ele>
        <time>2021-11-26T04:02:29.000Z</time>
      </trkpt>
      <trkpt lat="45.20985" lon="5.73622">
        <ele>380.20001220703</ele>
        <time>2021-11-26T04:02:33.000Z</time>
      </trkpt>
      <trkpt lat="45.20985" lon="5.7362">
        <ele>380.39999389648</ele>
        <time>2021-11-26T04:02:34.000Z</time>
      </trkpt>
      <trkpt lat="45.20987" lon="5.73617">
        <ele>381.39999389648</ele>
        <time>2021-11-26T04:02:37.000Z</time>
      </trkpt>
      <trkpt lat="45.20987" lon="5.73616">
        <ele>381.60000610352</ele>
        <time>2021-11-26T04:02:38.000Z</time>
      </trkpt>
      <trkpt lat="45.20988" lon="5.73615">
        <ele>382</ele>
        <time>2021-11-26T04:02:39.000Z</time>
      </trkpt>
      <trkpt lat="45.20988" lon="5.73613">
        <ele>382.79998779297</ele>
        <time>2021-11-26T04:02:42.000Z</time>
      </trkpt>
      <trkpt lat="45.20989" lon="5.7361">
        <ele>383.20001220703</ele>
        <time>2021-11-26T04:02:44.000Z</time>
      </trkpt>
      <trkpt lat="45.20989" lon="5.73607">
        <ele>384</ele>
        <time>2021-11-26T04:02:46.000Z</time>
      </trkpt>
      <trkpt lat="45.20989" lon="5.73605">
        <ele>384.39999389648</ele>
        <time>2021-11-26T04:02:47.000Z</time>
      </trkpt>
      <trkpt lat="45.2099" lon="5.73603">
        <ele>385.39999389648</ele>
        <time>2021-11-26T04:02:50.000Z</time>
      </trkpt>
      <trkpt lat="45.2099" lon="5.73601">
        <ele>386.20001220703</ele>
        <time>2021-11-26T04:02:52.000Z</time>
      </trkpt>
      <trkpt lat="45.2099" lon="5.73601">
        <ele>386.39999389648</ele>
        <time>2021-11-26T04:02:53.000Z</time>
      </trkpt>
      <trkpt lat="45.20991" lon="5.73597">
        <ele>387.60000610352</ele>
        <time>2021-11-26T04:02:58.000Z</time>
      </trkpt>
      <trkpt lat="45.20991" lon="5.73595">
        <ele>388</ele>
        <time>2021-11-26T04:02:59.000Z</time>
      </trkpt>
      <trkpt lat="45.20992" lon="5.73593">
        <ele>388.79998779297</ele>
        <time>2021-11-26T04:03:01.000Z</time>
      </trkpt>
      <trkpt lat="45.20994" lon="5.73589">
        <ele>390</ele>
        <time>2021-11-26T04:03:05.000Z</time>
      </trkpt>
      <trkpt lat="45.20996" lon="5.73584">
        <ele>391.39999389648</ele>
        <time>2021-11-26T04:03:09.000Z</time>
      </trkpt>
      <trkpt lat="45.20997" lon="5.7358">
        <ele>392.39999389648</ele>
        <time>2021-11-26T04:03:12.000Z</time>
      </trkpt>
      <trkpt lat="45.20997" lon="5.73579">
        <ele>392.79998779297</ele>
        <time>2021-11-26T04:03:13.000Z</time>
      </trkpt>
      <trkpt lat="45.20996" lon="5.73578">
        <ele>393</ele>
        <time>2021-11-26T04:03:14.000Z</time>
      </trkpt>
      <trkpt lat="45.20996" lon="5.73576">
        <ele>394</ele>
        <time>2021-11-26T04:03:16.000Z</time>
      </trkpt>
      <trkpt lat="45.20996" lon="5.73574">
        <ele>394.79998779297</ele>
        <time>2021-11-26T04:03:18.000Z</time>
      </trkpt>
      <trkpt lat="45.20997" lon="5.73573">
        <ele>395.20001220703</ele>
        <time>2021-11-26T04:03:19.000Z</time>
      </trkpt>
      <trkpt lat="45.20999" lon="5.73566">
        <ele>396.39999389648</ele>
        <time>2021-11-26T04:03:24.000Z</time>
      </trkpt>
      <trkpt lat="45.20999" lon="5.73566">
        <ele>396.79998779297</ele>
        <time>2021-11-26T04:03:25.000Z</time>
      </trkpt>
      <trkpt lat="45.21" lon="5.73565">
        <ele>397</ele>
        <time>2021-11-26T04:03:26.000Z</time>
      </trkpt>
      <trkpt lat="45.20999" lon="5.73564">
        <ele>397.79998779297</ele>
        <time>2021-11-26T04:03:28.000Z</time>
      </trkpt>
      <trkpt lat="45.20999" lon="5.73564">
        <ele>398</ele>
        <time>2021-11-26T04:03:29.000Z</time>
      </trkpt>
      <trkpt lat="45.20998" lon="5.73563">
        <ele>398.20001220703</ele>
        <time>2021-11-26T04:03:31.000Z</time>
      </trkpt>
      <trkpt lat="45.20998" lon="5.7356">
        <ele>399</ele>
        <time>2021-11-26T04:03:34.000Z</time>
      </trkpt>
      <trkpt lat="45.20998" lon="5.73556">
        <ele>400</ele>
        <time>2021-11-26T04:03:38.000Z</time>
      </trkpt>
      <trkpt lat="45.20998" lon="5.73556">
        <ele>400.20001220703</ele>
        <time>2021-11-26T04:03:39.000Z</time>
      </trkpt>
      <trkpt lat="45.20998" lon="5.73552">
        <ele>401.20001220703</ele>
        <time>2021-11-26T04:03:44.000Z</time>
      </trkpt>
      <trkpt lat="45.20998" lon="5.73552">
        <ele>401.39999389648</ele>
        <time>2021-11-26T04:03:45.000Z</time>
      </trkpt>
      <trkpt lat="45.20999" lon="5.73549">
        <ele>402.60000610352</ele>
        <time>2021-11-26T04:03:48.000Z</time>
      </trkpt>
      <trkpt lat="45.20999" lon="5.73544">
        <ele>403.79998779297</ele>
        <time>2021-11-26T04:03:52.000Z</time>
      </trkpt>
      <trkpt lat="45.20999" lon="5.73545">
        <ele>404</ele>
        <time>2021-11-26T04:03:53.000Z</time>
      </trkpt>
      <trkpt lat="45.21" lon="5.73544">
        <ele>404.60000610352</ele>
        <time>2021-11-26T04:03:56.000Z</time>
      </trkpt>
      <trkpt lat="45.21001" lon="5.73543">
        <ele>404.79998779297</ele>
        <time>2021-11-26T04:03:57.000Z</time>
      </trkpt>
      <trkpt lat="45.21001" lon="5.73542">
        <ele>405.20001220703</ele>
        <time>2021-11-26T04:03:58.000Z</time>
      </trkpt>
      <trkpt lat="45.21002" lon="5.73539">
        <ele>406.39999389648</ele>
        <time>2021-11-26T04:04:03.000Z</time>
      </trkpt>
      <trkpt lat="45.21002" lon="5.73538">
        <ele>406.79998779297</ele>
        <time>2021-11-26T04:04:04.000Z</time>
      </trkpt>
      <trkpt lat="45.21004" lon="5.73536">
        <ele>407.39999389648</ele>
        <time>2021-11-26T04:04:07.000Z</time>
      </trkpt>
      <trkpt lat="45.21005" lon="5.73535">
        <ele>408.39999389648</ele>
        <time>2021-11-26T04:04:10.000Z</time>
      </trkpt>
      <trkpt lat="45.21005" lon="5.73534">
        <ele>408.79998779297</ele>
        <time>2021-11-26T04:04:12.000Z</time>
      </trkpt>
      <trkpt lat="45.21008" lon="5.73532">
        <ele>409.60000610352</ele>
        <time>2021-11-26T04:04:16.000Z</time>
      </trkpt>
      <trkpt lat="45.21009" lon="5.73529">
        <ele>410.79998779297</ele>
        <time>2021-11-26T04:04:20.000Z</time>
      </trkpt>
      <trkpt lat="45.21009" lon="5.73527">
        <ele>411.79998779297</ele>
        <time>2021-11-26T04:04:23.000Z</time>
      </trkpt>
      <trkpt lat="45.21009" lon="5.73524">
        <ele>412.60000610352</ele>
        <time>2021-11-26T04:04:26.000Z</time>
      </trkpt>
      <trkpt lat="45.21009" lon="5.73523">
        <ele>413</ele>
        <time>2021-11-26T04:04:27.000Z</time>
      </trkpt>
      <trkpt lat="45.21009" lon="5.7352">
        <ele>413.79998779297</ele>
        <time>2021-11-26T04:04:31.000Z</time>
      </trkpt>
      <trkpt lat="45.21009" lon="5.73519">
        <ele>414</ele>
        <time>2021-11-26T04:04:32.000Z</time>
      </trkpt>
      <trkpt lat="45.21009" lon="5.73516">
        <ele>415.20001220703</ele>
        <time>2021-11-26T04:04:36.000Z</time>
      </trkpt>
      <trkpt lat="45.21009" lon="5.73514">
        <ele>415.79998779297</ele>
        <time>2021-11-26T04:04:38.000Z</time>
      </trkpt>
      <trkpt lat="45.21008" lon="5.73513">
        <ele>416.20001220703</ele>
        <time>2021-11-26T04:04:40.000Z</time>
      </trkpt>
      <trkpt lat="45.21009" lon="5.73511">
        <ele>417.39999389648</ele>
        <time>2021-11-26T04:04:44.000Z</time>
      </trkpt>
      <trkpt lat="45.21008" lon="5.73509">
        <ele>418.60000610352</ele>
        <time>2021-11-26T04:04:48.000Z</time>
      </trkpt>
      <trkpt lat="45.21009" lon="5.73507">
        <ele>419.20001220703</ele>
        <time>2021-11-26T04:04:51.000Z</time>
      </trkpt>
      <trkpt lat="45.21011" lon="5.73504">
        <ele>419.60000610352</ele>
        <time>2021-11-26T04:04:53.000Z</time>
      </trkpt>
      <trkpt lat="45.21011" lon="5.735">
        <ele>420.79998779297</ele>
        <time>2021-11-26T04:04:57.000Z</time>
      </trkpt>
      <trkpt lat="45.21011" lon="5.73497">
        <ele>421.60000610352</ele>
        <time>2021-11-26T04:04:59.000Z</time>
      </trkpt>
      <trkpt lat="45.21012" lon="5.73495">
        <ele>421.79998779297</ele>
        <time>2021-11-26T04:05:00.000Z</time>
      </trkpt>
      <trkpt lat="45.21013" lon="5.73492">
        <ele>423</ele>
        <time>2021-11-26T04:05:04.000Z</time>
      </trkpt>
      <trkpt lat="45.21013" lon="5.7349">
        <ele>423.20001220703</ele>
        <time>2021-11-26T04:05:06.000Z</time>
      </trkpt>
      <trkpt lat="45.21014" lon="5.73488">
        <ele>424</ele>
        <time>2021-11-26T04:05:08.000Z</time>
      </trkpt>
      <trkpt lat="45.21014" lon="5.73488">
        <ele>425</ele>
        <time>2021-11-26T04:05:12.000Z</time>
      </trkpt>
      <trkpt lat="45.21014" lon="5.73488">
        <ele>425.20001220703</ele>
        <time>2021-11-26T04:05:13.000Z</time>
      </trkpt>
      <trkpt lat="45.21014" lon="5.73485">
        <ele>426.20001220703</ele>
        <time>2021-11-26T04:05:17.000Z</time>
      </trkpt>
      <trkpt lat="45.21014" lon="5.73483">
        <ele>426.60000610352</ele>
        <time>2021-11-26T04:05:18.000Z</time>
      </trkpt>
      <trkpt lat="45.21014" lon="5.73481">
        <ele>427.39999389648</ele>
        <time>2021-11-26T04:05:21.000Z</time>
      </trkpt>
      <trkpt lat="45.21014" lon="5.73479">
        <ele>428.60000610352</ele>
        <time>2021-11-26T04:05:24.000Z</time>
      </trkpt>
      <trkpt lat="45.21015" lon="5.73476">
        <ele>430</ele>
        <time>2021-11-26T04:05:29.000Z</time>
      </trkpt>
      <trkpt lat="45.21014" lon="5.73473">
        <ele>431</ele>
        <time>2021-11-26T04:05:33.000Z</time>
      </trkpt>
      <trkpt lat="45.21013" lon="5.7347">
        <ele>432</ele>
        <time>2021-11-26T04:05:36.000Z</time>
      </trkpt>
      <trkpt lat="45.21012" lon="5.73465">
        <ele>433.20001220703</ele>
        <time>2021-11-26T04:05:40.000Z</time>
      </trkpt>
      <trkpt lat="45.21012" lon="5.73465">
        <ele>433.79998779297</ele>
        <time>2021-11-26T04:05:41.000Z</time>
      </trkpt>
      <trkpt lat="45.21012" lon="5.73464">
        <ele>434.39999389648</ele>
        <time>2021-11-26T04:05:43.000Z</time>
      </trkpt>
      <trkpt lat="45.21011" lon="5.73461">
        <ele>435.79998779297</ele>
        <time>2021-11-26T04:05:46.000Z</time>
      </trkpt>
      <trkpt lat="45.2101" lon="5.73461">
        <ele>436</ele>
        <time>2021-11-26T04:05:47.000Z</time>
      </trkpt>
      <trkpt lat="45.21009" lon="5.73461">
        <ele>436.60000610352</ele>
        <time>2021-11-26T04:05:49.000Z</time>
      </trkpt>
      <trkpt lat="45.21009" lon="5.73461">
        <ele>436.79998779297</ele>
        <time>2021-11-26T04:05:50.000Z</time>
      </trkpt>
      <trkpt lat="45.21009" lon="5.73461">
        <ele>437.39999389648</ele>
        <time>2021-11-26T04:05:51.000Z</time>
      </trkpt>
      <trkpt lat="45.21009" lon="5.73462">
        <ele>437.60000610352</ele>
        <time>2021-11-26T04:05:52.000Z</time>
      </trkpt>
      <trkpt lat="45.21008" lon="5.73462">
        <ele>437.79998779297</ele>
        <time>2021-11-26T04:05:53.000Z</time>
      </trkpt>
      <trkpt lat="45.21007" lon="5.73462">
        <ele>438.20001220703</ele>
        <time>2021-11-26T04:05:54.000Z</time>
      </trkpt>
      <trkpt lat="45.21004" lon="5.73461">
        <ele>439</ele>
        <time>2021-11-26T04:05:57.000Z</time>
      </trkpt>
      <trkpt lat="45.21003" lon="5.7346">
        <ele>439.20001220703</ele>
        <time>2021-11-26T04:05:58.000Z</time>
      </trkpt>
      <trkpt lat="45.21001" lon="5.73454">
        <ele>440.39999389648</ele>
        <time>2021-11-26T04:06:03.000Z</time>
      </trkpt>
      <trkpt lat="45.21" lon="5.73453">
        <ele>440.79998779297</ele>
        <time>2021-11-26T04:06:04.000Z</time>
      </trkpt>
      <trkpt lat="45.20997" lon="5.73452">
        <ele>441.60000610352</ele>
        <time>2021-11-26T04:06:07.000Z</time>
      </trkpt>
      <trkpt lat="45.20996" lon="5.73453">
        <ele>442.20001220703</ele>
        <time>2021-11-26T04:06:09.000Z</time>
      </trkpt>
      <trkpt lat="45.20994" lon="5.73452">
        <ele>442.79998779297</ele>
        <time>2021-11-26T04:06:11.000Z</time>
      </trkpt>
      <trkpt lat="45.2099" lon="5.73449">
        <ele>443.39999389648</ele>
        <time>2021-11-26T04:06:15.000Z</time>
      </trkpt>
      <trkpt lat="45.20987" lon="5.73447">
        <ele>443.79998779297</ele>
        <time>2021-11-26T04:06:18.000Z</time>
      </trkpt>
      <trkpt lat="45.20984" lon="5.73445">
        <ele>444.79998779297</ele>
        <time>2021-11-26T04:06:21.000Z</time>
      </trkpt>
      <trkpt lat="45.20984" lon="5.73443">
        <ele>445.20001220703</ele>
        <time>2021-11-26T04:06:22.000Z</time>
      </trkpt>
      <trkpt lat="45.20983" lon="5.73442">
        <ele>445.60000610352</ele>
        <time>2021-11-26T04:06:23.000Z</time>
      </trkpt>
      <trkpt lat="45.20982" lon="5.73441">
        <ele>445.79998779297</ele>
        <time>2021-11-26T04:06:24.000Z</time>
      </trkpt>
      <trkpt lat="45.2098" lon="5.73439">
        <ele>447</ele>
        <time>2021-11-26T04:06:29.000Z</time>
      </trkpt>
      <trkpt lat="45.20978" lon="5.73438">
        <ele>448</ele>
        <time>2021-11-26T04:06:35.000Z</time>
      </trkpt>
      <trkpt lat="45.20976" lon="5.73436">
        <ele>448.79998779297</ele>
        <time>2021-11-26T04:06:37.000Z</time>
      </trkpt>
      <trkpt lat="45.20976" lon="5.73435">
        <ele>449.20001220703</ele>
        <time>2021-11-26T04:06:38.000Z</time>
      </trkpt>
      <trkpt lat="45.20974" lon="5.73432">
        <ele>450.60000610352</ele>
        <time>2021-11-26T04:06:41.000Z</time>
      </trkpt>
      <trkpt lat="45.20972" lon="5.73433">
        <ele>451.39999389648</ele>
        <time>2021-11-26T04:06:44.000Z</time>
      </trkpt>
      <trkpt lat="45.20972" lon="5.73433">
        <ele>451.60000610352</ele>
        <time>2021-11-26T04:06:45.000Z</time>
      </trkpt>
      <trkpt lat="45.2097" lon="5.73429">
        <ele>452.39999389648</ele>
        <time>2021-11-26T04:06:49.000Z</time>
      </trkpt>
      <trkpt lat="45.20968" lon="5.73427">
        <ele>452.79998779297</ele>
        <time>2021-11-26T04:06:51.000Z</time>
      </trkpt>
      <trkpt lat="45.20967" lon="5.73425">
        <ele>454</ele>
        <time>2021-11-26T04:06:53.000Z</time>
      </trkpt>
      <trkpt lat="45.20966" lon="5.73425">
        <ele>454.39999389648</ele>
        <time>2021-11-26T04:06:54.000Z</time>
      </trkpt>
      <trkpt lat="45.20964" lon="5.73423">
        <ele>455.20001220703</ele>
        <time>2021-11-26T04:06:57.000Z</time>
      </trkpt>
      <trkpt lat="45.20963" lon="5.73418">
        <ele>456</ele>
        <time>2021-11-26T04:07:00.000Z</time>
      </trkpt>
      <trkpt lat="45.20962" lon="5.73417">
        <ele>456.39999389648</ele>
        <time>2021-11-26T04:07:01.000Z</time>
      </trkpt>
      <trkpt lat="45.20961" lon="5.73416">
        <ele>456.79998779297</ele>
        <time>2021-11-26T04:07:02.000Z</time>
      </trkpt>
      <trkpt lat="45.20961" lon="5.73415">
        <ele>457.60000610352</ele>
        <time>2021-11-26T04:07:04.000Z</time>
      </trkpt>
      <trkpt lat="45.2096" lon="5.73415">
        <ele>457.60000610352</ele>
        <time>2021-11-26T04:07:05.000Z</time>
      </trkpt>
      <trkpt lat="45.2096" lon="5.73415">
        <ele>458.20001220703</ele>
        <time>2021-11-26T04:07:06.000Z</time>
      </trkpt>
      <trkpt lat="45.20959" lon="5.73414">
        <ele>458.60000610352</ele>
        <time>2021-11-26T04:07:07.000Z</time>
      </trkpt>
      <trkpt lat="45.20958" lon="5.73414">
        <ele>459.20001220703</ele>
        <time>2021-11-26T04:07:10.000Z</time>
      </trkpt>
      <trkpt lat="45.20958" lon="5.73413">
        <ele>459.60000610352</ele>
        <time>2021-11-26T04:07:11.000Z</time>
      </trkpt>
      <trkpt lat="45.20957" lon="5.73413">
        <ele>460</ele>
        <time>2021-11-26T04:07:12.000Z</time>
      </trkpt>
      <trkpt lat="45.20957" lon="5.73412">
        <ele>460.60000610352</ele>
        <time>2021-11-26T04:07:14.000Z</time>
      </trkpt>
      <trkpt lat="45.20956" lon="5.73408">
        <ele>462</ele>
        <time>2021-11-26T04:07:18.000Z</time>
      </trkpt>
      <trkpt lat="45.20956" lon="5.73407">
        <ele>462.79998779297</ele>
        <time>2021-11-26T04:07:20.000Z</time>
      </trkpt>
      <trkpt lat="45.20956" lon="5.73407">
        <ele>463</ele>
        <time>2021-11-26T04:07:21.000Z</time>
      </trkpt>
      <trkpt lat="45.20954" lon="5.73404">
        <ele>464.20001220703</ele>
        <time>2021-11-26T04:07:25.000Z</time>
      </trkpt>
      <trkpt lat="45.20953" lon="5.73401">
        <ele>464.60000610352</ele>
        <time>2021-11-26T04:07:27.000Z</time>
      </trkpt>
      <trkpt lat="45.20952" lon="5.734">
        <ele>465.39999389648</ele>
        <time>2021-11-26T04:07:28.000Z</time>
      </trkpt>
      <trkpt lat="45.20948" lon="5.73398">
        <ele>466.39999389648</ele>
        <time>2021-11-26T04:07:32.000Z</time>
      </trkpt>
      <trkpt lat="45.20939" lon="5.73394">
        <ele>465.20001220703</ele>
        <time>2021-11-26T04:07:39.000Z</time>
      </trkpt>
      <trkpt lat="45.20931" lon="5.73389">
        <ele>464.79998779297</ele>
        <time>2021-11-26T04:07:44.000Z</time>
      </trkpt>
      <trkpt lat="45.20929" lon="5.73387">
        <ele>464.79998779297</ele>
        <time>2021-11-26T04:07:46.000Z</time>
      </trkpt>
      <trkpt lat="45.20928" lon="5.73387">
        <ele>465.20001220703</ele>
        <time>2021-11-26T04:07:47.000Z</time>
      </trkpt>
      <trkpt lat="45.20927" lon="5.73386">
        <ele>465.60000610352</ele>
        <time>2021-11-26T04:07:48.000Z</time>
      </trkpt>
      <trkpt lat="45.20924" lon="5.7338">
        <ele>466.39999389648</ele>
        <time>2021-11-26T04:07:52.000Z</time>
      </trkpt>
      <trkpt lat="45.20923" lon="5.73377">
        <ele>467.60000610352</ele>
        <time>2021-11-26T04:07:55.000Z</time>
      </trkpt>
      <trkpt lat="45.2092" lon="5.73373">
        <ele>468.39999389648</ele>
        <time>2021-11-26T04:07:59.000Z</time>
      </trkpt>
      <trkpt lat="45.20919" lon="5.73373">
        <ele>468.79998779297</ele>
        <time>2021-11-26T04:08:00.000Z</time>
      </trkpt>
      <trkpt lat="45.20918" lon="5.73372">
        <ele>469.60000610352</ele>
        <time>2021-11-26T04:08:02.000Z</time>
      </trkpt>
      <trkpt lat="45.20917" lon="5.73372">
        <ele>470</ele>
        <time>2021-11-26T04:08:03.000Z</time>
      </trkpt>
      <trkpt lat="45.20916" lon="5.73369">
        <ele>470.39999389648</ele>
        <time>2021-11-26T04:08:05.000Z</time>
      </trkpt>
      <trkpt lat="45.20915" lon="5.73366">
        <ele>471.20001220703</ele>
        <time>2021-11-26T04:08:08.000Z</time>
      </trkpt>
      <trkpt lat="45.20914" lon="5.73363">
        <ele>472.60000610352</ele>
        <time>2021-11-26T04:08:11.000Z</time>
      </trkpt>
      <trkpt lat="45.20913" lon="5.73361">
        <ele>473.39999389648</ele>
        <time>2021-11-26T04:08:13.000Z</time>
      </trkpt>
      <trkpt lat="45.20913" lon="5.73362">
        <ele>473.79998779297</ele>
        <time>2021-11-26T04:08:14.000Z</time>
      </trkpt>
      <trkpt lat="45.20912" lon="5.73361">
        <ele>474.60000610352</ele>
        <time>2021-11-26T04:08:16.000Z</time>
      </trkpt>
      <trkpt lat="45.20912" lon="5.73361">
        <ele>475</ele>
        <time>2021-11-26T04:08:17.000Z</time>
      </trkpt>
      <trkpt lat="45.2091" lon="5.73359">
        <ele>475.79998779297</ele>
        <time>2021-11-26T04:08:20.000Z</time>
      </trkpt>
      <trkpt lat="45.2091" lon="5.73358">
        <ele>476</ele>
        <time>2021-11-26T04:08:21.000Z</time>
      </trkpt>
      <trkpt lat="45.20909" lon="5.73357">
        <ele>476.39999389648</ele>
        <time>2021-11-26T04:08:22.000Z</time>
      </trkpt>
      <trkpt lat="45.20908" lon="5.73357">
        <ele>476.79998779297</ele>
        <time>2021-11-26T04:08:23.000Z</time>
      </trkpt>
      <trkpt lat="45.20908" lon="5.73357">
        <ele>477.20001220703</ele>
        <time>2021-11-26T04:08:24.000Z</time>
      </trkpt>
      <trkpt lat="45.20906" lon="5.73356">
        <ele>478</ele>
        <time>2021-11-26T04:08:26.000Z</time>
      </trkpt>
      <trkpt lat="45.20904" lon="5.73356">
        <ele>478.39999389648</ele>
        <time>2021-11-26T04:08:28.000Z</time>
      </trkpt>
      <trkpt lat="45.20904" lon="5.73356">
        <ele>478.60000610352</ele>
        <time>2021-11-26T04:08:29.000Z</time>
      </trkpt>
      <trkpt lat="45.20902" lon="5.73357">
        <ele>479.20001220703</ele>
        <time>2021-11-26T04:08:31.000Z</time>
      </trkpt>
      <trkpt lat="45.20901" lon="5.73354">
        <ele>479.39999389648</ele>
        <time>2021-11-26T04:08:33.000Z</time>
      </trkpt>
      <trkpt lat="45.20899" lon="5.73352">
        <ele>479.60000610352</ele>
        <time>2021-11-26T04:08:34.000Z</time>
      </trkpt>
      <trkpt lat="45.20898" lon="5.73352">
        <ele>480</ele>
        <time>2021-11-26T04:08:36.000Z</time>
      </trkpt>
      <trkpt lat="45.20897" lon="5.73351">
        <ele>480.20001220703</ele>
        <time>2021-11-26T04:08:37.000Z</time>
      </trkpt>
      <trkpt lat="45.20896" lon="5.7335">
        <ele>480.60000610352</ele>
        <time>2021-11-26T04:08:38.000Z</time>
      </trkpt>
      <trkpt lat="45.20895" lon="5.73347">
        <ele>481.60000610352</ele>
        <time>2021-11-26T04:08:41.000Z</time>
      </trkpt>
      <trkpt lat="45.2089" lon="5.73346">
        <ele>482.79998779297</ele>
        <time>2021-11-26T04:08:46.000Z</time>
      </trkpt>
      <trkpt lat="45.20887" lon="5.73343">
        <ele>483.79998779297</ele>
        <time>2021-11-26T04:08:51.000Z</time>
      </trkpt>
      <trkpt lat="45.20884" lon="5.73342">
        <ele>484.39999389648</ele>
        <time>2021-11-26T04:08:53.000Z</time>
      </trkpt>
      <trkpt lat="45.20884" lon="5.73342">
        <ele>484.79998779297</ele>
        <time>2021-11-26T04:08:54.000Z</time>
      </trkpt>
      <trkpt lat="45.20883" lon="5.73342">
        <ele>485.39999389648</ele>
        <time>2021-11-26T04:08:55.000Z</time>
      </trkpt>
      <trkpt lat="45.20882" lon="5.73342">
        <ele>485.79998779297</ele>
        <time>2021-11-26T04:08:57.000Z</time>
      </trkpt>
      <trkpt lat="45.2088" lon="5.73342">
        <ele>486.79998779297</ele>
        <time>2021-11-26T04:09:00.000Z</time>
      </trkpt>
      <trkpt lat="45.20878" lon="5.73342">
        <ele>487.20001220703</ele>
        <time>2021-11-26T04:09:01.000Z</time>
      </trkpt>
      <trkpt lat="45.20877" lon="5.73341">
        <ele>487.79998779297</ele>
        <time>2021-11-26T04:09:04.000Z</time>
      </trkpt>
      <trkpt lat="45.20876" lon="5.7334">
        <ele>488</ele>
        <time>2021-11-26T04:09:05.000Z</time>
      </trkpt>
      <trkpt lat="45.20874" lon="5.7334">
        <ele>488.39999389648</ele>
        <time>2021-11-26T04:09:07.000Z</time>
      </trkpt>
      <trkpt lat="45.2087" lon="5.7334">
        <ele>489.60000610352</ele>
        <time>2021-11-26T04:09:10.000Z</time>
      </trkpt>
      <trkpt lat="45.20869" lon="5.73341">
        <ele>490</ele>
        <time>2021-11-26T04:09:11.000Z</time>
      </trkpt>
      <trkpt lat="45.20868" lon="5.73341">
        <ele>490.39999389648</ele>
        <time>2021-11-26T04:09:12.000Z</time>
      </trkpt>
      <trkpt lat="45.20866" lon="5.7334">
        <ele>491</ele>
        <time>2021-11-26T04:09:14.000Z</time>
      </trkpt>
      <trkpt lat="45.20865" lon="5.73339">
        <ele>491.60000610352</ele>
        <time>2021-11-26T04:09:16.000Z</time>
      </trkpt>
      <trkpt lat="45.20863" lon="5.73341">
        <ele>492.39999389648</ele>
        <time>2021-11-26T04:09:18.000Z</time>
      </trkpt>
      <trkpt lat="45.20861" lon="5.73341">
        <ele>493.60000610352</ele>
        <time>2021-11-26T04:09:21.000Z</time>
      </trkpt>
      <trkpt lat="45.2086" lon="5.73342">
        <ele>494.20001220703</ele>
        <time>2021-11-26T04:09:23.000Z</time>
      </trkpt>
      <trkpt lat="45.20859" lon="5.73341">
        <ele>494.60000610352</ele>
        <time>2021-11-26T04:09:24.000Z</time>
      </trkpt>
      <trkpt lat="45.20858" lon="5.73339">
        <ele>495.20001220703</ele>
        <time>2021-11-26T04:09:26.000Z</time>
      </trkpt>
      <trkpt lat="45.20858" lon="5.73336">
        <ele>495.60000610352</ele>
        <time>2021-11-26T04:09:28.000Z</time>
      </trkpt>
      <trkpt lat="45.20857" lon="5.73335">
        <ele>496.20001220703</ele>
        <time>2021-11-26T04:09:30.000Z</time>
      </trkpt>
      <trkpt lat="45.20856" lon="5.73334">
        <ele>496.39999389648</ele>
        <time>2021-11-26T04:09:32.000Z</time>
      </trkpt>
      <trkpt lat="45.20856" lon="5.7333">
        <ele>496.79998779297</ele>
        <time>2021-11-26T04:09:35.000Z</time>
      </trkpt>
      <trkpt lat="45.20856" lon="5.73328">
        <ele>497.20001220703</ele>
        <time>2021-11-26T04:09:36.000Z</time>
      </trkpt>
      <trkpt lat="45.20855" lon="5.73326">
        <ele>498.20001220703</ele>
        <time>2021-11-26T04:09:38.000Z</time>
      </trkpt>
      <trkpt lat="45.20855" lon="5.73325">
        <ele>498.60000610352</ele>
        <time>2021-11-26T04:09:39.000Z</time>
      </trkpt>
      <trkpt lat="45.20854" lon="5.73321">
        <ele>499.20001220703</ele>
        <time>2021-11-26T04:09:42.000Z</time>
      </trkpt>
      <trkpt lat="45.20853" lon="5.7332">
        <ele>499.39999389648</ele>
        <time>2021-11-26T04:09:43.000Z</time>
      </trkpt>
      <trkpt lat="45.20852" lon="5.73314">
        <ele>500.20001220703</ele>
        <time>2021-11-26T04:09:47.000Z</time>
      </trkpt>
      <trkpt lat="45.20851" lon="5.73312">
        <ele>500.20001220703</ele>
        <time>2021-11-26T04:09:48.000Z</time>
      </trkpt>
      <trkpt lat="45.2085" lon="5.73306">
        <ele>501.39999389648</ele>
        <time>2021-11-26T04:09:52.000Z</time>
      </trkpt>
      <trkpt lat="45.20849" lon="5.73299">
        <ele>502.20001220703</ele>
        <time>2021-11-26T04:09:56.000Z</time>
      </trkpt>
      <trkpt lat="45.20849" lon="5.73297">
        <ele>502.60000610352</ele>
        <time>2021-11-26T04:09:57.000Z</time>
      </trkpt>
      <trkpt lat="45.20849" lon="5.73294">
        <ele>503.60000610352</ele>
        <time>2021-11-26T04:10:00.000Z</time>
      </trkpt>
      <trkpt lat="45.20849" lon="5.73294">
        <ele>503.79998779297</ele>
        <time>2021-11-26T04:10:01.000Z</time>
      </trkpt>
      <trkpt lat="45.20849" lon="5.73293">
        <ele>504</ele>
        <time>2021-11-26T04:10:02.000Z</time>
      </trkpt>
      <trkpt lat="45.20851" lon="5.73291">
        <ele>505.20001220703</ele>
        <time>2021-11-26T04:10:06.000Z</time>
      </trkpt>
      <trkpt lat="45.20852" lon="5.73292">
        <ele>505.60000610352</ele>
        <time>2021-11-26T04:10:07.000Z</time>
      </trkpt>
      <trkpt lat="45.20853" lon="5.73292">
        <ele>506</ele>
        <time>2021-11-26T04:10:08.000Z</time>
      </trkpt>
      <trkpt lat="45.20854" lon="5.73293">
        <ele>506.60000610352</ele>
        <time>2021-11-26T04:10:09.000Z</time>
      </trkpt>
      <trkpt lat="45.20856" lon="5.73294">
        <ele>507</ele>
        <time>2021-11-26T04:10:12.000Z</time>
      </trkpt>
      <trkpt lat="45.20857" lon="5.73296">
        <ele>507.39999389648</ele>
        <time>2021-11-26T04:10:14.000Z</time>
      </trkpt>
      <trkpt lat="45.20857" lon="5.73296">
        <ele>507.60000610352</ele>
        <time>2021-11-26T04:10:15.000Z</time>
      </trkpt>
      <trkpt lat="45.20858" lon="5.73297">
        <ele>508.20001220703</ele>
        <time>2021-11-26T04:10:18.000Z</time>
      </trkpt>
      <trkpt lat="45.20859" lon="5.73297">
        <ele>508.60000610352</ele>
        <time>2021-11-26T04:10:20.000Z</time>
      </trkpt>
      <trkpt lat="45.2086" lon="5.73298">
        <ele>509.39999389648</ele>
        <time>2021-11-26T04:10:22.000Z</time>
      </trkpt>
      <trkpt lat="45.20861" lon="5.73298">
        <ele>510</ele>
        <time>2021-11-26T04:10:24.000Z</time>
      </trkpt>
      <trkpt lat="45.20862" lon="5.73297">
        <ele>511</ele>
        <time>2021-11-26T04:10:26.000Z</time>
      </trkpt>
      <trkpt lat="45.20862" lon="5.73297">
        <ele>511.20001220703</ele>
        <time>2021-11-26T04:10:27.000Z</time>
      </trkpt>
      <trkpt lat="45.20864" lon="5.73297">
        <ele>511.79998779297</ele>
        <time>2021-11-26T04:10:29.000Z</time>
      </trkpt>
      <trkpt lat="45.20865" lon="5.73297">
        <ele>512.20001220703</ele>
        <time>2021-11-26T04:10:30.000Z</time>
      </trkpt>
      <trkpt lat="45.20869" lon="5.73299">
        <ele>513.40002441406</ele>
        <time>2021-11-26T04:10:35.000Z</time>
      </trkpt>
      <trkpt lat="45.20871" lon="5.73298">
        <ele>514</ele>
        <time>2021-11-26T04:10:37.000Z</time>
      </trkpt>
      <trkpt lat="45.20871" lon="5.73298">
        <ele>514.20001220703</ele>
        <time>2021-11-26T04:10:38.000Z</time>
      </trkpt>
      <trkpt lat="45.20871" lon="5.73298">
        <ele>514.40002441406</ele>
        <time>2021-11-26T04:10:39.000Z</time>
      </trkpt>
      <trkpt lat="45.20872" lon="5.73292">
        <ele>515.79998779297</ele>
        <time>2021-11-26T04:10:44.000Z</time>
      </trkpt>
      <trkpt lat="45.20872" lon="5.73291">
        <ele>516.20001220703</ele>
        <time>2021-11-26T04:10:45.000Z</time>
      </trkpt>
      <trkpt lat="45.20872" lon="5.73288">
        <ele>517.20001220703</ele>
        <time>2021-11-26T04:10:48.000Z</time>
      </trkpt>
      <trkpt lat="45.20872" lon="5.73286">
        <ele>518.20001220703</ele>
        <time>2021-11-26T04:10:52.000Z</time>
      </trkpt>
      <trkpt lat="45.20872" lon="5.73285">
        <ele>518.40002441406</ele>
        <time>2021-11-26T04:10:53.000Z</time>
      </trkpt>
      <trkpt lat="45.20872" lon="5.73283">
        <ele>518.79998779297</ele>
        <time>2021-11-26T04:10:56.000Z</time>
      </trkpt>
      <trkpt lat="45.20872" lon="5.73281">
        <ele>519.79998779297</ele>
        <time>2021-11-26T04:10:58.000Z</time>
      </trkpt>
      <trkpt lat="45.20871" lon="5.73279">
        <ele>520.79998779297</ele>
        <time>2021-11-26T04:11:00.000Z</time>
      </trkpt>
      <trkpt lat="45.20871" lon="5.73278">
        <ele>521</ele>
        <time>2021-11-26T04:11:01.000Z</time>
      </trkpt>
      <trkpt lat="45.20871" lon="5.73275">
        <ele>521.59997558594</ele>
        <time>2021-11-26T04:11:04.000Z</time>
      </trkpt>
      <trkpt lat="45.20871" lon="5.73274">
        <ele>522</ele>
        <time>2021-11-26T04:11:05.000Z</time>
      </trkpt>
      <trkpt lat="45.20871" lon="5.73273">
        <ele>522.20001220703</ele>
        <time>2021-11-26T04:11:06.000Z</time>
      </trkpt>
      <trkpt lat="45.20868" lon="5.73265">
        <ele>523.20001220703</ele>
        <time>2021-11-26T04:11:11.000Z</time>
      </trkpt>
      <trkpt lat="45.20867" lon="5.73263">
        <ele>523.20001220703</ele>
        <time>2021-11-26T04:11:13.000Z</time>
      </trkpt>
      <trkpt lat="45.20864" lon="5.73258">
        <ele>523.20001220703</ele>
        <time>2021-11-26T04:11:16.000Z</time>
      </trkpt>
      <trkpt lat="45.20859" lon="5.73249">
        <ele>523.59997558594</ele>
        <time>2021-11-26T04:11:23.000Z</time>
      </trkpt>
      <trkpt lat="45.20858" lon="5.73242">
        <ele>524</ele>
        <time>2021-11-26T04:11:27.000Z</time>
      </trkpt>
      <trkpt lat="45.20856" lon="5.73239">
        <ele>524.40002441406</ele>
        <time>2021-11-26T04:11:29.000Z</time>
      </trkpt>
      <trkpt lat="45.20853" lon="5.73234">
        <ele>524.79998779297</ele>
        <time>2021-11-26T04:11:32.000Z</time>
      </trkpt>
      <trkpt lat="45.20852" lon="5.73233">
        <ele>524.79998779297</ele>
        <time>2021-11-26T04:11:33.000Z</time>
      </trkpt>
      <trkpt lat="45.20851" lon="5.73229">
        <ele>525</ele>
        <time>2021-11-26T04:11:35.000Z</time>
      </trkpt>
      <trkpt lat="45.2085" lon="5.73229">
        <ele>525</ele>
        <time>2021-11-26T04:11:36.000Z</time>
      </trkpt>
      <trkpt lat="45.20843" lon="5.7322">
        <ele>525.40002441406</ele>
        <time>2021-11-26T04:11:42.000Z</time>
      </trkpt>
      <trkpt lat="45.20839" lon="5.73214">
        <ele>526</ele>
        <time>2021-11-26T04:11:45.000Z</time>
      </trkpt>
      <trkpt lat="45.20836" lon="5.73208">
        <ele>526.59997558594</ele>
        <time>2021-11-26T04:11:49.000Z</time>
      </trkpt>
      <trkpt lat="45.20835" lon="5.73205">
        <ele>527.20001220703</ele>
        <time>2021-11-26T04:11:51.000Z</time>
      </trkpt>
      <trkpt lat="45.20834" lon="5.73202">
        <ele>527.40002441406</ele>
        <time>2021-11-26T04:11:52.000Z</time>
      </trkpt>
      <trkpt lat="45.20832" lon="5.73198">
        <ele>527.79998779297</ele>
        <time>2021-11-26T04:11:54.000Z</time>
      </trkpt>
      <trkpt lat="45.20832" lon="5.7319">
        <ele>529</ele>
        <time>2021-11-26T04:11:58.000Z</time>
      </trkpt>
      <trkpt lat="45.20831" lon="5.73188">
        <ele>529.20001220703</ele>
        <time>2021-11-26T04:11:59.000Z</time>
      </trkpt>
      <trkpt lat="45.20831" lon="5.73186">
        <ele>530</ele>
        <time>2021-11-26T04:12:01.000Z</time>
      </trkpt>
      <trkpt lat="45.20831" lon="5.73185">
        <ele>530.40002441406</ele>
        <time>2021-11-26T04:12:02.000Z</time>
      </trkpt>
      <trkpt lat="45.2083" lon="5.73184">
        <ele>530.79998779297</ele>
        <time>2021-11-26T04:12:04.000Z</time>
      </trkpt>
      <trkpt lat="45.2083" lon="5.73184">
        <ele>531</ele>
        <time>2021-11-26T04:12:05.000Z</time>
      </trkpt>
      <trkpt lat="45.20829" lon="5.73181">
        <ele>531.20001220703</ele>
        <time>2021-11-26T04:12:07.000Z</time>
      </trkpt>
      <trkpt lat="45.20827" lon="5.73179">
        <ele>532.59997558594</ele>
        <time>2021-11-26T04:12:10.000Z</time>
      </trkpt>
      <trkpt lat="45.20827" lon="5.73178">
        <ele>532.79998779297</ele>
        <time>2021-11-26T04:12:11.000Z</time>
      </trkpt>
      <trkpt lat="45.20826" lon="5.73175">
        <ele>533</ele>
        <time>2021-11-26T04:12:13.000Z</time>
      </trkpt>
      <trkpt lat="45.20823" lon="5.73172">
        <ele>533.79998779297</ele>
        <time>2021-11-26T04:12:16.000Z</time>
      </trkpt>
      <trkpt lat="45.20819" lon="5.73164">
        <ele>534.79998779297</ele>
        <time>2021-11-26T04:12:21.000Z</time>
      </trkpt>
      <trkpt lat="45.20818" lon="5.73163">
        <ele>534.79998779297</ele>
        <time>2021-11-26T04:12:22.000Z</time>
      </trkpt>
      <trkpt lat="45.20812" lon="5.73151">
        <ele>536</ele>
        <time>2021-11-26T04:12:30.000Z</time>
      </trkpt>
      <trkpt lat="45.20812" lon="5.7315">
        <ele>536.20001220703</ele>
        <time>2021-11-26T04:12:31.000Z</time>
      </trkpt>
      <trkpt lat="45.20806" lon="5.73142">
        <ele>537.20001220703</ele>
        <time>2021-11-26T04:12:37.000Z</time>
      </trkpt>
      <trkpt lat="45.20803" lon="5.73137">
        <ele>538</ele>
        <time>2021-11-26T04:12:41.000Z</time>
      </trkpt>
      <trkpt lat="45.20802" lon="5.73136">
        <ele>538.20001220703</ele>
        <time>2021-11-26T04:12:42.000Z</time>
      </trkpt>
      <trkpt lat="45.20799" lon="5.73128">
        <ele>539.40002441406</ele>
        <time>2021-11-26T04:12:48.000Z</time>
      </trkpt>
      <trkpt lat="45.20798" lon="5.73125">
        <ele>540</ele>
        <time>2021-11-26T04:12:50.000Z</time>
      </trkpt>
      <trkpt lat="45.20797" lon="5.73123">
        <ele>540.59997558594</ele>
        <time>2021-11-26T04:12:52.000Z</time>
      </trkpt>
      <trkpt lat="45.20795" lon="5.73119">
        <ele>541.20001220703</ele>
        <time>2021-11-26T04:12:55.000Z</time>
      </trkpt>
      <trkpt lat="45.20794" lon="5.73114">
        <ele>541.79998779297</ele>
        <time>2021-11-26T04:12:58.000Z</time>
      </trkpt>
      <trkpt lat="45.20792" lon="5.73107">
        <ele>542.79998779297</ele>
        <time>2021-11-26T04:13:03.000Z</time>
      </trkpt>
      <trkpt lat="45.20789" lon="5.73102">
        <ele>543.79998779297</ele>
        <time>2021-11-26T04:13:08.000Z</time>
      </trkpt>
      <trkpt lat="45.20787" lon="5.731">
        <ele>544.59997558594</ele>
        <time>2021-11-26T04:13:11.000Z</time>
      </trkpt>
      <trkpt lat="45.20786" lon="5.73096">
        <ele>545</ele>
        <time>2021-11-26T04:13:14.000Z</time>
      </trkpt>
      <trkpt lat="45.20784" lon="5.7309">
        <ele>546.20001220703</ele>
        <time>2021-11-26T04:13:18.000Z</time>
      </trkpt>
      <trkpt lat="45.20779" lon="5.73082">
        <ele>547.20001220703</ele>
        <time>2021-11-26T04:13:25.000Z</time>
      </trkpt>
      <trkpt lat="45.20776" lon="5.73077">
        <ele>548.59997558594</ele>
        <time>2021-11-26T04:13:29.000Z</time>
      </trkpt>
      <trkpt lat="45.20776" lon="5.73077">
        <ele>548.79998779297</ele>
        <time>2021-11-26T04:13:30.000Z</time>
      </trkpt>
      <trkpt lat="45.20774" lon="5.73075">
        <ele>549.40002441406</ele>
        <time>2021-11-26T04:13:33.000Z</time>
      </trkpt>
      <trkpt lat="45.20772" lon="5.73073">
        <ele>549.59997558594</ele>
        <time>2021-11-26T04:13:35.000Z</time>
      </trkpt>
      <trkpt lat="45.2077" lon="5.7307">
        <ele>550.20001220703</ele>
        <time>2021-11-26T04:13:37.000Z</time>
      </trkpt>
      <trkpt lat="45.20769" lon="5.73068">
        <ele>550.59997558594</ele>
        <time>2021-11-26T04:13:39.000Z</time>
      </trkpt>
      <trkpt lat="45.20768" lon="5.73067">
        <ele>550.59997558594</ele>
        <time>2021-11-26T04:13:40.000Z</time>
      </trkpt>
      <trkpt lat="45.20767" lon="5.73064">
        <ele>551</ele>
        <time>2021-11-26T04:13:42.000Z</time>
      </trkpt>
      <trkpt lat="45.20764" lon="5.73061">
        <ele>551.59997558594</ele>
        <time>2021-11-26T04:13:45.000Z</time>
      </trkpt>
      <trkpt lat="45.20763" lon="5.7306">
        <ele>551.79998779297</ele>
        <time>2021-11-26T04:13:46.000Z</time>
      </trkpt>
      <trkpt lat="45.2076" lon="5.73058">
        <ele>552</ele>
        <time>2021-11-26T04:13:48.000Z</time>
      </trkpt>
      <trkpt lat="45.20759" lon="5.73055">
        <ele>552.20001220703</ele>
        <time>2021-11-26T04:13:50.000Z</time>
      </trkpt>
      <trkpt lat="45.20758" lon="5.73055">
        <ele>552.20001220703</ele>
        <time>2021-11-26T04:13:51.000Z</time>
      </trkpt>
      <trkpt lat="45.20751" lon="5.73052">
        <ele>552.79998779297</ele>
        <time>2021-11-26T04:13:56.000Z</time>
      </trkpt>
      <trkpt lat="45.20748" lon="5.7305">
        <ele>553</ele>
        <time>2021-11-26T04:13:58.000Z</time>
      </trkpt>
      <trkpt lat="45.2074" lon="5.73042">
        <ele>553.40002441406</ele>
        <time>2021-11-26T04:14:04.000Z</time>
      </trkpt>
      <trkpt lat="45.20734" lon="5.73039">
        <ele>553.59997558594</ele>
        <time>2021-11-26T04:14:08.000Z</time>
      </trkpt>
      <trkpt lat="45.20731" lon="5.73035">
        <ele>553.59997558594</ele>
        <time>2021-11-26T04:14:10.000Z</time>
      </trkpt>
      <trkpt lat="45.20728" lon="5.73031">
        <ele>553.79998779297</ele>
        <time>2021-11-26T04:14:12.000Z</time>
      </trkpt>
      <trkpt lat="45.20725" lon="5.73021">
        <ele>554.59997558594</ele>
        <time>2021-11-26T04:14:17.000Z</time>
      </trkpt>
      <trkpt lat="45.20723" lon="5.73017">
        <ele>554.79998779297</ele>
        <time>2021-11-26T04:14:19.000Z</time>
      </trkpt>
      <trkpt lat="45.20723" lon="5.73015">
        <ele>555</ele>
        <time>2021-11-26T04:14:20.000Z</time>
      </trkpt>
      <trkpt lat="45.2072" lon="5.73012">
        <ele>555.40002441406</ele>
        <time>2021-11-26T04:14:23.000Z</time>
      </trkpt>
      <trkpt lat="45.20717" lon="5.73007">
        <ele>556.20001220703</ele>
        <time>2021-11-26T04:14:27.000Z</time>
      </trkpt>
      <trkpt lat="45.20716" lon="5.73005">
        <ele>556.59997558594</ele>
        <time>2021-11-26T04:14:29.000Z</time>
      </trkpt>
      <trkpt lat="45.20714" lon="5.73002">
        <ele>556.79998779297</ele>
        <time>2021-11-26T04:14:31.000Z</time>
      </trkpt>
      <trkpt lat="45.20711" lon="5.73">
        <ele>557.40002441406</ele>
        <time>2021-11-26T04:14:33.000Z</time>
      </trkpt>
      <trkpt lat="45.20705" lon="5.72994">
        <ele>558.40002441406</ele>
        <time>2021-11-26T04:14:39.000Z</time>
      </trkpt>
      <trkpt lat="45.207" lon="5.72981">
        <ele>559.59997558594</ele>
        <time>2021-11-26T04:14:45.000Z</time>
      </trkpt>
      <trkpt lat="45.20698" lon="5.7298">
        <ele>559.79998779297</ele>
        <time>2021-11-26T04:14:46.000Z</time>
      </trkpt>
      <trkpt lat="45.20697" lon="5.7298">
        <ele>560</ele>
        <time>2021-11-26T04:14:47.000Z</time>
      </trkpt>
      <trkpt lat="45.20688" lon="5.72975">
        <ele>560.59997558594</ele>
        <time>2021-11-26T04:14:52.000Z</time>
      </trkpt>
      <trkpt lat="45.20684" lon="5.72971">
        <ele>560.59997558594</ele>
        <time>2021-11-26T04:14:54.000Z</time>
      </trkpt>
      <trkpt lat="45.20674" lon="5.72958">
        <ele>560.79998779297</ele>
        <time>2021-11-26T04:15:01.000Z</time>
      </trkpt>
      <trkpt lat="45.20668" lon="5.72949">
        <ele>561.59997558594</ele>
        <time>2021-11-26T04:15:06.000Z</time>
      </trkpt>
      <trkpt lat="45.20665" lon="5.72942">
        <ele>562.40002441406</ele>
        <time>2021-11-26T04:15:09.000Z</time>
      </trkpt>
      <trkpt lat="45.20663" lon="5.72938">
        <ele>562.79998779297</ele>
        <time>2021-11-26T04:15:11.000Z</time>
      </trkpt>
      <trkpt lat="45.20657" lon="5.72926">
        <ele>564</ele>
        <time>2021-11-26T04:15:17.000Z</time>
      </trkpt>
      <trkpt lat="45.20656" lon="5.72925">
        <ele>564.20001220703</ele>
        <time>2021-11-26T04:15:18.000Z</time>
      </trkpt>
      <trkpt lat="45.20651" lon="5.72917">
        <ele>565</ele>
        <time>2021-11-26T04:15:22.000Z</time>
      </trkpt>
      <trkpt lat="45.20648" lon="5.72912">
        <ele>565.79998779297</ele>
        <time>2021-11-26T04:15:25.000Z</time>
      </trkpt>
      <trkpt lat="45.20647" lon="5.72909">
        <ele>566</ele>
        <time>2021-11-26T04:15:26.000Z</time>
      </trkpt>
      <trkpt lat="45.20646" lon="5.72907">
        <ele>566.40002441406</ele>
        <time>2021-11-26T04:15:27.000Z</time>
      </trkpt>
      <trkpt lat="45.20637" lon="5.729">
        <ele>567</ele>
        <time>2021-11-26T04:15:32.000Z</time>
      </trkpt>
      <trkpt lat="45.20623" lon="5.72891">
        <ele>566.40002441406</ele>
        <time>2021-11-26T04:15:40.000Z</time>
      </trkpt>
      <trkpt lat="45.20609" lon="5.72879">
        <ele>565.59997558594</ele>
        <time>2021-11-26T04:15:48.000Z</time>
      </trkpt>
      <trkpt lat="45.20597" lon="5.7287">
        <ele>565.79998779297</ele>
        <time>2021-11-26T04:15:53.000Z</time>
      </trkpt>
      <trkpt lat="45.20587" lon="5.72856">
        <ele>566.79998779297</ele>
        <time>2021-11-26T04:15:59.000Z</time>
      </trkpt>
      <trkpt lat="45.20586" lon="5.72854">
        <ele>567</ele>
        <time>2021-11-26T04:16:00.000Z</time>
      </trkpt>
      <trkpt lat="45.20581" lon="5.72847">
        <ele>567.40002441406</ele>
        <time>2021-11-26T04:16:03.000Z</time>
      </trkpt>
      <trkpt lat="45.20576" lon="5.72841">
        <ele>567.59997558594</ele>
        <time>2021-11-26T04:16:06.000Z</time>
      </trkpt>
      <trkpt lat="45.20566" lon="5.72827">
        <ele>567.20001220703</ele>
        <time>2021-11-26T04:16:12.000Z</time>
      </trkpt>
      <trkpt lat="45.20556" lon="5.7281">
        <ele>566.59997558594</ele>
        <time>2021-11-26T04:16:19.000Z</time>
      </trkpt>
      <trkpt lat="45.20542" lon="5.72791">
        <ele>566.79998779297</ele>
        <time>2021-11-26T04:16:27.000Z</time>
      </trkpt>
      <trkpt lat="45.20539" lon="5.72785">
        <ele>567</ele>
        <time>2021-11-26T04:16:29.000Z</time>
      </trkpt>
      <trkpt lat="45.20526" lon="5.72768">
        <ele>567.79998779297</ele>
        <time>2021-11-26T04:16:36.000Z</time>
      </trkpt>
      <trkpt lat="45.20512" lon="5.72761">
        <ele>568</ele>
        <time>2021-11-26T04:16:42.000Z</time>
      </trkpt>
      <trkpt lat="45.20497" lon="5.72751">
        <ele>566.40002441406</ele>
        <time>2021-11-26T04:16:49.000Z</time>
      </trkpt>
      <trkpt lat="45.20495" lon="5.7275">
        <ele>566.20001220703</ele>
        <time>2021-11-26T04:16:50.000Z</time>
      </trkpt>
      <trkpt lat="45.20487" lon="5.72745">
        <ele>565.20001220703</ele>
        <time>2021-11-26T04:16:54.000Z</time>
      </trkpt>
      <trkpt lat="45.20484" lon="5.72742">
        <ele>564.79998779297</ele>
        <time>2021-11-26T04:16:56.000Z</time>
      </trkpt>
      <trkpt lat="45.20476" lon="5.72734">
        <ele>564</ele>
        <time>2021-11-26T04:17:01.000Z</time>
      </trkpt>
      <trkpt lat="45.20474" lon="5.72734">
        <ele>563.79998779297</ele>
        <time>2021-11-26T04:17:02.000Z</time>
      </trkpt>
      <trkpt lat="45.20471" lon="5.72734">
        <ele>563.20001220703</ele>
        <time>2021-11-26T04:17:03.000Z</time>
      </trkpt>
      <trkpt lat="45.20467" lon="5.72733">
        <ele>562.59997558594</ele>
        <time>2021-11-26T04:17:05.000Z</time>
      </trkpt>
      <trkpt lat="45.20459" lon="5.72731">
        <ele>561.59997558594</ele>
        <time>2021-11-26T04:17:09.000Z</time>
      </trkpt>
      <trkpt lat="45.20456" lon="5.72731">
        <ele>561.59997558594</ele>
        <time>2021-11-26T04:17:10.000Z</time>
      </trkpt>
      <trkpt lat="45.20447" lon="5.72733">
        <ele>560.40002441406</ele>
        <time>2021-11-26T04:17:14.000Z</time>
      </trkpt>
      <trkpt lat="45.20445" lon="5.72733">
        <ele>560.20001220703</ele>
        <time>2021-11-26T04:17:15.000Z</time>
      </trkpt>
      <trkpt lat="45.2044" lon="5.72733">
        <ele>559.40002441406</ele>
        <time>2021-11-26T04:17:18.000Z</time>
      </trkpt>
      <trkpt lat="45.20435" lon="5.72732">
        <ele>558.79998779297</ele>
        <time>2021-11-26T04:17:20.000Z</time>
      </trkpt>
      <trkpt lat="45.20433" lon="5.7273">
        <ele>558.59997558594</ele>
        <time>2021-11-26T04:17:21.000Z</time>
      </trkpt>
      <trkpt lat="45.20431" lon="5.72729">
        <ele>558.20001220703</ele>
        <time>2021-11-26T04:17:22.000Z</time>
      </trkpt>
      <trkpt lat="45.20426" lon="5.72725">
        <ele>557.20001220703</ele>
        <time>2021-11-26T04:17:25.000Z</time>
      </trkpt>
      <trkpt lat="45.20418" lon="5.72721">
        <ele>556</ele>
        <time>2021-11-26T04:17:29.000Z</time>
      </trkpt>
      <trkpt lat="45.20415" lon="5.7272">
        <ele>555.40002441406</ele>
        <time>2021-11-26T04:17:31.000Z</time>
      </trkpt>
      <trkpt lat="45.20412" lon="5.72718">
        <ele>555</ele>
        <time>2021-11-26T04:17:33.000Z</time>
      </trkpt>
      <trkpt lat="45.20407" lon="5.72714">
        <ele>554</ele>
        <time>2021-11-26T04:17:36.000Z</time>
      </trkpt>
      <trkpt lat="45.20406" lon="5.72712">
        <ele>553.79998779297</ele>
        <time>2021-11-26T04:17:37.000Z</time>
      </trkpt>
      <trkpt lat="45.20403" lon="5.72709">
        <ele>552.79998779297</ele>
        <time>2021-11-26T04:17:39.000Z</time>
      </trkpt>
      <trkpt lat="45.20399" lon="5.72705">
        <ele>552.20001220703</ele>
        <time>2021-11-26T04:17:41.000Z</time>
      </trkpt>
      <trkpt lat="45.20397" lon="5.72703">
        <ele>552</ele>
        <time>2021-11-26T04:17:42.000Z</time>
      </trkpt>
      <trkpt lat="45.20396" lon="5.72701">
        <ele>551.59997558594</ele>
        <time>2021-11-26T04:17:43.000Z</time>
      </trkpt>
      <trkpt lat="45.20388" lon="5.72692">
        <ele>550.40002441406</ele>
        <time>2021-11-26T04:17:47.000Z</time>
      </trkpt>
      <trkpt lat="45.20386" lon="5.7269">
        <ele>550.20001220703</ele>
        <time>2021-11-26T04:17:48.000Z</time>
      </trkpt>
      <trkpt lat="45.20382" lon="5.72686">
        <ele>549.20001220703</ele>
        <time>2021-11-26T04:17:51.000Z</time>
      </trkpt>
      <trkpt lat="45.20379" lon="5.72682">
        <ele>548.59997558594</ele>
        <time>2021-11-26T04:17:53.000Z</time>
      </trkpt>
      <trkpt lat="45.20377" lon="5.72679">
        <ele>548.40002441406</ele>
        <time>2021-11-26T04:17:54.000Z</time>
      </trkpt>
      <trkpt lat="45.20375" lon="5.72678">
        <ele>548</ele>
        <time>2021-11-26T04:17:55.000Z</time>
      </trkpt>
      <trkpt lat="45.20368" lon="5.72669">
        <ele>546.79998779297</ele>
        <time>2021-11-26T04:18:00.000Z</time>
      </trkpt>
      <trkpt lat="45.20365" lon="5.72667">
        <ele>546.20001220703</ele>
        <time>2021-11-26T04:18:03.000Z</time>
      </trkpt>
      <trkpt lat="45.20361" lon="5.72666">
        <ele>545.79998779297</ele>
        <time>2021-11-26T04:18:05.000Z</time>
      </trkpt>
      <trkpt lat="45.20356" lon="5.72662">
        <ele>544.59997558594</ele>
        <time>2021-11-26T04:18:08.000Z</time>
      </trkpt>
      <trkpt lat="45.20355" lon="5.7266">
        <ele>544.20001220703</ele>
        <time>2021-11-26T04:18:09.000Z</time>
      </trkpt>
      <trkpt lat="45.20352" lon="5.72658">
        <ele>543.79998779297</ele>
        <time>2021-11-26T04:18:11.000Z</time>
      </trkpt>
      <trkpt lat="45.20351" lon="5.72657">
        <ele>543.59997558594</ele>
        <time>2021-11-26T04:18:12.000Z</time>
      </trkpt>
      <trkpt lat="45.20349" lon="5.72656">
        <ele>543.40002441406</ele>
        <time>2021-11-26T04:18:13.000Z</time>
      </trkpt>
      <trkpt lat="45.20342" lon="5.7265">
        <ele>542</ele>
        <time>2021-11-26T04:18:17.000Z</time>
      </trkpt>
      <trkpt lat="45.20341" lon="5.72649">
        <ele>541.79998779297</ele>
        <time>2021-11-26T04:18:18.000Z</time>
      </trkpt>
      <trkpt lat="45.20339" lon="5.72647">
        <ele>541.40002441406</ele>
        <time>2021-11-26T04:18:19.000Z</time>
      </trkpt>
      <trkpt lat="45.20333" lon="5.72643">
        <ele>540.79998779297</ele>
        <time>2021-11-26T04:18:22.000Z</time>
      </trkpt>
      <trkpt lat="45.20327" lon="5.72639">
        <ele>540</ele>
        <time>2021-11-26T04:18:25.000Z</time>
      </trkpt>
      <trkpt lat="45.20325" lon="5.72637">
        <ele>539.59997558594</ele>
        <time>2021-11-26T04:18:26.000Z</time>
      </trkpt>
      <trkpt lat="45.20318" lon="5.72634">
        <ele>538.40002441406</ele>
        <time>2021-11-26T04:18:30.000Z</time>
      </trkpt>
      <trkpt lat="45.20315" lon="5.72633">
        <ele>538</ele>
        <time>2021-11-26T04:18:32.000Z</time>
      </trkpt>
      <trkpt lat="45.20313" lon="5.72633">
        <ele>537.40002441406</ele>
        <time>2021-11-26T04:18:34.000Z</time>
      </trkpt>
      <trkpt lat="45.2031" lon="5.72631">
        <ele>536.79998779297</ele>
        <time>2021-11-26T04:18:36.000Z</time>
      </trkpt>
      <trkpt lat="45.20309" lon="5.72631">
        <ele>536.40002441406</ele>
        <time>2021-11-26T04:18:37.000Z</time>
      </trkpt>
      <trkpt lat="45.20302" lon="5.7263">
        <ele>535.20001220703</ele>
        <time>2021-11-26T04:18:41.000Z</time>
      </trkpt>
      <trkpt lat="45.203" lon="5.7263">
        <ele>535</ele>
        <time>2021-11-26T04:18:42.000Z</time>
      </trkpt>
      <trkpt lat="45.20298" lon="5.72629">
        <ele>534.79998779297</ele>
        <time>2021-11-26T04:18:43.000Z</time>
      </trkpt>
      <trkpt lat="45.20294" lon="5.72627">
        <ele>534.59997558594</ele>
        <time>2021-11-26T04:18:45.000Z</time>
      </trkpt>
      <trkpt lat="45.20292" lon="5.72626">
        <ele>534.20001220703</ele>
        <time>2021-11-26T04:18:46.000Z</time>
      </trkpt>
      <trkpt lat="45.20288" lon="5.72625">
        <ele>533.59997558594</ele>
        <time>2021-11-26T04:18:48.000Z</time>
      </trkpt>
      <trkpt lat="45.20285" lon="5.72625">
        <ele>532.79998779297</ele>
        <time>2021-11-26T04:18:50.000Z</time>
      </trkpt>
      <trkpt lat="45.20277" lon="5.72627">
        <ele>531.40002441406</ele>
        <time>2021-11-26T04:18:54.000Z</time>
      </trkpt>
      <trkpt lat="45.20274" lon="5.72625">
        <ele>530.79998779297</ele>
        <time>2021-11-26T04:18:56.000Z</time>
      </trkpt>
      <trkpt lat="45.20273" lon="5.72625">
        <ele>530.40002441406</ele>
        <time>2021-11-26T04:18:57.000Z</time>
      </trkpt>
      <trkpt lat="45.20268" lon="5.72624">
        <ele>529.20001220703</ele>
        <time>2021-11-26T04:19:00.000Z</time>
      </trkpt>
      <trkpt lat="45.20261" lon="5.72626">
        <ele>528.40002441406</ele>
        <time>2021-11-26T04:19:04.000Z</time>
      </trkpt>
      <trkpt lat="45.20259" lon="5.72627">
        <ele>528.20001220703</ele>
        <time>2021-11-26T04:19:05.000Z</time>
      </trkpt>
      <trkpt lat="45.20253" lon="5.72626">
        <ele>527.20001220703</ele>
        <time>2021-11-26T04:19:08.000Z</time>
      </trkpt>
      <trkpt lat="45.20251" lon="5.72625">
        <ele>527</ele>
        <time>2021-11-26T04:19:09.000Z</time>
      </trkpt>
      <trkpt lat="45.20249" lon="5.72624">
        <ele>526.59997558594</ele>
        <time>2021-11-26T04:19:10.000Z</time>
      </trkpt>
      <trkpt lat="45.20246" lon="5.72623">
        <ele>526</ele>
        <time>2021-11-26T04:19:12.000Z</time>
      </trkpt>
      <trkpt lat="45.2024" lon="5.72624">
        <ele>525.20001220703</ele>
        <time>2021-11-26T04:19:15.000Z</time>
      </trkpt>
      <trkpt lat="45.20238" lon="5.72623">
        <ele>525</ele>
        <time>2021-11-26T04:19:16.000Z</time>
      </trkpt>
      <trkpt lat="45.20233" lon="5.7262">
        <ele>524</ele>
        <time>2021-11-26T04:19:19.000Z</time>
      </trkpt>
      <trkpt lat="45.20231" lon="5.72618">
        <ele>523.79998779297</ele>
        <time>2021-11-26T04:19:20.000Z</time>
      </trkpt>
      <trkpt lat="45.20224" lon="5.72613">
        <ele>522.59997558594</ele>
        <time>2021-11-26T04:19:24.000Z</time>
      </trkpt>
      <trkpt lat="45.20222" lon="5.72611">
        <ele>522.20001220703</ele>
        <time>2021-11-26T04:19:25.000Z</time>
      </trkpt>
      <trkpt lat="45.20218" lon="5.72609">
        <ele>521.59997558594</ele>
        <time>2021-11-26T04:19:27.000Z</time>
      </trkpt>
      <trkpt lat="45.20212" lon="5.72605">
        <ele>520.40002441406</ele>
        <time>2021-11-26T04:19:31.000Z</time>
      </trkpt>
      <trkpt lat="45.20205" lon="5.72602">
        <ele>519.40002441406</ele>
        <time>2021-11-26T04:19:35.000Z</time>
      </trkpt>
      <trkpt lat="45.20201" lon="5.726">
        <ele>518.59997558594</ele>
        <time>2021-11-26T04:19:37.000Z</time>
      </trkpt>
      <trkpt lat="45.20199" lon="5.72599">
        <ele>518.20001220703</ele>
        <time>2021-11-26T04:19:38.000Z</time>
      </trkpt>
      <trkpt lat="45.20193" lon="5.72596">
        <ele>517.40002441406</ele>
        <time>2021-11-26T04:19:41.000Z</time>
      </trkpt>
      <trkpt lat="45.20189" lon="5.72594">
        <ele>517.20001220703</ele>
        <time>2021-11-26T04:19:43.000Z</time>
      </trkpt>
      <trkpt lat="45.20187" lon="5.72592">
        <ele>516.79998779297</ele>
        <time>2021-11-26T04:19:44.000Z</time>
      </trkpt>
      <trkpt lat="45.20181" lon="5.72589">
        <ele>516</ele>
        <time>2021-11-26T04:19:47.000Z</time>
      </trkpt>
      <trkpt lat="45.20177" lon="5.72586">
        <ele>515.20001220703</ele>
        <time>2021-11-26T04:19:49.000Z</time>
      </trkpt>
      <trkpt lat="45.20175" lon="5.72584">
        <ele>514.79998779297</ele>
        <time>2021-11-26T04:19:50.000Z</time>
      </trkpt>
      <trkpt lat="45.20166" lon="5.72579">
        <ele>513.79998779297</ele>
        <time>2021-11-26T04:19:54.000Z</time>
      </trkpt>
      <trkpt lat="45.20158" lon="5.72575">
        <ele>512.40002441406</ele>
        <time>2021-11-26T04:19:58.000Z</time>
      </trkpt>
      <trkpt lat="45.20156" lon="5.72575">
        <ele>512.20001220703</ele>
        <time>2021-11-26T04:19:59.000Z</time>
      </trkpt>
      <trkpt lat="45.20151" lon="5.72573">
        <ele>511.39999389648</ele>
        <time>2021-11-26T04:20:01.000Z</time>
      </trkpt>
      <trkpt lat="45.20144" lon="5.72573">
        <ele>510.39999389648</ele>
        <time>2021-11-26T04:20:04.000Z</time>
      </trkpt>
      <trkpt lat="45.20132" lon="5.72569">
        <ele>509</ele>
        <time>2021-11-26T04:20:09.000Z</time>
      </trkpt>
      <trkpt lat="45.20124" lon="5.72566">
        <ele>507.79998779297</ele>
        <time>2021-11-26T04:20:13.000Z</time>
      </trkpt>
      <trkpt lat="45.2012" lon="5.72563">
        <ele>506.39999389648</ele>
        <time>2021-11-26T04:20:16.000Z</time>
      </trkpt>
      <trkpt lat="45.20115" lon="5.7256">
        <ele>505.60000610352</ele>
        <time>2021-11-26T04:20:19.000Z</time>
      </trkpt>
      <trkpt lat="45.20114" lon="5.72558">
        <ele>505.20001220703</ele>
        <time>2021-11-26T04:20:20.000Z</time>
      </trkpt>
      <trkpt lat="45.20113" lon="5.72554">
        <ele>505</ele>
        <time>2021-11-26T04:20:22.000Z</time>
      </trkpt>
      <trkpt lat="45.20109" lon="5.72543">
        <ele>506.20001220703</ele>
        <time>2021-11-26T04:20:27.000Z</time>
      </trkpt>
      <trkpt lat="45.20109" lon="5.72541">
        <ele>506.39999389648</ele>
        <time>2021-11-26T04:20:28.000Z</time>
      </trkpt>
      <trkpt lat="45.20109" lon="5.72537">
        <ele>506.60000610352</ele>
        <time>2021-11-26T04:20:30.000Z</time>
      </trkpt>
      <trkpt lat="45.2011" lon="5.72531">
        <ele>507.39999389648</ele>
        <time>2021-11-26T04:20:33.000Z</time>
      </trkpt>
      <trkpt lat="45.20111" lon="5.72529">
        <ele>507.39999389648</ele>
        <time>2021-11-26T04:20:34.000Z</time>
      </trkpt>
      <trkpt lat="45.20113" lon="5.72524">
        <ele>508.60000610352</ele>
        <time>2021-11-26T04:20:37.000Z</time>
      </trkpt>
      <trkpt lat="45.20113" lon="5.72522">
        <ele>508.79998779297</ele>
        <time>2021-11-26T04:20:38.000Z</time>
      </trkpt>
      <trkpt lat="45.20116" lon="5.72519">
        <ele>509.60000610352</ele>
        <time>2021-11-26T04:20:41.000Z</time>
      </trkpt>
      <trkpt lat="45.2012" lon="5.72511">
        <ele>510.79998779297</ele>
        <time>2021-11-26T04:20:46.000Z</time>
      </trkpt>
      <trkpt lat="45.20125" lon="5.72502">
        <ele>512.20001220703</ele>
        <time>2021-11-26T04:20:52.000Z</time>
      </trkpt>
      <trkpt lat="45.20128" lon="5.72496">
        <ele>513</ele>
        <time>2021-11-26T04:20:56.000Z</time>
      </trkpt>
      <trkpt lat="45.20129" lon="5.72496">
        <ele>513.40002441406</ele>
        <time>2021-11-26T04:20:57.000Z</time>
      </trkpt>
      <trkpt lat="45.2013" lon="5.72492">
        <ele>514</ele>
        <time>2021-11-26T04:21:00.000Z</time>
      </trkpt>
      <trkpt lat="45.2013" lon="5.72491">
        <ele>514.40002441406</ele>
        <time>2021-11-26T04:21:01.000Z</time>
      </trkpt>
      <trkpt lat="45.20131" lon="5.72488">
        <ele>515.59997558594</ele>
        <time>2021-11-26T04:21:05.000Z</time>
      </trkpt>
      <trkpt lat="45.20131" lon="5.72484">
        <ele>516.20001220703</ele>
        <time>2021-11-26T04:21:08.000Z</time>
      </trkpt>
      <trkpt lat="45.20132" lon="5.72481">
        <ele>516.79998779297</ele>
        <time>2021-11-26T04:21:10.000Z</time>
      </trkpt>
      <trkpt lat="45.20134" lon="5.72477">
        <ele>517.59997558594</ele>
        <time>2021-11-26T04:21:13.000Z</time>
      </trkpt>
      <trkpt lat="45.20134" lon="5.72474">
        <ele>518</ele>
        <time>2021-11-26T04:21:15.000Z</time>
      </trkpt>
      <trkpt lat="45.20135" lon="5.72473">
        <ele>518.40002441406</ele>
        <time>2021-11-26T04:21:18.000Z</time>
      </trkpt>
      <trkpt lat="45.20135" lon="5.72473">
        <ele>518.59997558594</ele>
        <time>2021-11-26T04:21:19.000Z</time>
      </trkpt>
      <trkpt lat="45.20135" lon="5.72473">
        <ele>518.79998779297</ele>
        <time>2021-11-26T04:21:23.000Z</time>
      </trkpt>
      <trkpt lat="45.20135" lon="5.72472">
        <ele>518.79998779297</ele>
        <time>2021-11-26T04:21:32.000Z</time>
      </trkpt>
      <trkpt lat="45.20135" lon="5.72472">
        <ele>518.79998779297</ele>
        <time>2021-11-26T04:21:34.000Z</time>
      </trkpt>
      <trkpt lat="45.20135" lon="5.72472">
        <ele>518.79998779297</ele>
        <time>2021-11-26T04:21:38.000Z</time>
      </trkpt>
      <trkpt lat="45.20135" lon="5.72472">
        <ele>518.79998779297</ele>
        <time>2021-11-26T04:21:42.000Z</time>
      </trkpt>
      <trkpt lat="45.20135" lon="5.72472">
        <ele>518.79998779297</ele>
        <time>2021-11-26T04:21:44.000Z</time>
      </trkpt>
      <trkpt lat="45.20136" lon="5.72472">
        <ele>518.59997558594</ele>
        <time>2021-11-26T04:21:54.000Z</time>
      </trkpt>
      <trkpt lat="45.20137" lon="5.72473">
        <ele>518.59997558594</ele>
        <time>2021-11-26T04:22:03.000Z</time>
      </trkpt>
      <trkpt lat="45.20137" lon="5.72474">
        <ele>518.59997558594</ele>
        <time>2021-11-26T04:22:07.000Z</time>
      </trkpt>
      <trkpt lat="45.20137" lon="5.72474">
        <ele>518.40002441406</ele>
        <time>2021-11-26T04:22:10.000Z</time>
      </trkpt>
      <trkpt lat="45.20137" lon="5.72474">
        <ele>518.40002441406</ele>
        <time>2021-11-26T04:22:11.000Z</time>
      </trkpt>
      <trkpt lat="45.20137" lon="5.72474">
        <ele>518.40002441406</ele>
        <time>2021-11-26T04:22:13.000Z</time>
      </trkpt>
      <trkpt lat="45.20137" lon="5.72474">
        <ele>518.40002441406</ele>
        <time>2021-11-26T04:22:14.000Z</time>
      </trkpt>
      <trkpt lat="45.20138" lon="5.72474">
        <ele>518.40002441406</ele>
        <time>2021-11-26T04:22:16.000Z</time>
      </trkpt>
      <trkpt lat="45.20138" lon="5.72473">
        <ele>518.40002441406</ele>
        <time>2021-11-26T04:22:18.000Z</time>
      </trkpt>
      <trkpt lat="45.20138" lon="5.72473">
        <ele>518.40002441406</ele>
        <time>2021-11-26T04:22:21.000Z</time>
      </trkpt>
      <trkpt lat="45.20138" lon="5.72473">
        <ele>518.59997558594</ele>
        <time>2021-11-26T04:22:25.000Z</time>
      </trkpt>
      <trkpt lat="45.20138" lon="5.72473">
        <ele>518.59997558594</ele>
        <time>2021-11-26T04:22:28.000Z</time>
      </trkpt>
      <trkpt lat="45.20138" lon="5.72472">
        <ele>518.59997558594</ele>
        <time>2021-11-26T04:22:37.000Z</time>
      </trkpt>
      <trkpt lat="45.20138" lon="5.7247">
        <ele>518.59997558594</ele>
        <time>2021-11-26T04:22:45.000Z</time>
      </trkpt>
      <trkpt lat="45.20139" lon="5.7247">
        <ele>518.59997558594</ele>
        <time>2021-11-26T04:22:52.000Z</time>
      </trkpt>
      <trkpt lat="45.20139" lon="5.7247">
        <ele>518.59997558594</ele>
        <time>2021-11-26T04:22:55.000Z</time>
      </trkpt>
      <trkpt lat="45.20139" lon="5.7247">
        <ele>518.59997558594</ele>
        <time>2021-11-26T04:22:58.000Z</time>
      </trkpt>
      <trkpt lat="45.20143" lon="5.72465">
        <ele>518.59997558594</ele>
        <time>2021-11-26T04:23:03.000Z</time>
      </trkpt>
      <trkpt lat="45.20144" lon="5.72463">
        <ele>518.59997558594</ele>
        <time>2021-11-26T04:23:04.000Z</time>
      </trkpt>
      <trkpt lat="45.20146" lon="5.72462">
        <ele>518.59997558594</ele>
        <time>2021-11-26T04:23:05.000Z</time>
      </trkpt>
      <trkpt lat="45.20149" lon="5.72461">
        <ele>518.59997558594</ele>
        <time>2021-11-26T04:23:08.000Z</time>
      </trkpt>
      <trkpt lat="45.20149" lon="5.72461">
        <ele>518.59997558594</ele>
        <time>2021-11-26T04:23:09.000Z</time>
      </trkpt>
      <trkpt lat="45.20149" lon="5.72462">
        <ele>518.59997558594</ele>
        <time>2021-11-26T04:23:10.000Z</time>
      </trkpt>
      <trkpt lat="45.20151" lon="5.72462">
        <ele>519</ele>
        <time>2021-11-26T04:23:12.000Z</time>
      </trkpt>
      <trkpt lat="45.20152" lon="5.72463">
        <ele>519.59997558594</ele>
        <time>2021-11-26T04:23:13.000Z</time>
      </trkpt>
      <trkpt lat="45.20153" lon="5.72465">
        <ele>520.20001220703</ele>
        <time>2021-11-26T04:23:15.000Z</time>
      </trkpt>
      <trkpt lat="45.20155" lon="5.72466">
        <ele>521.20001220703</ele>
        <time>2021-11-26T04:23:19.000Z</time>
      </trkpt>
      <trkpt lat="45.20155" lon="5.72466">
        <ele>521.40002441406</ele>
        <time>2021-11-26T04:23:20.000Z</time>
      </trkpt>
      <trkpt lat="45.20157" lon="5.72467">
        <ele>521.79998779297</ele>
        <time>2021-11-26T04:23:22.000Z</time>
      </trkpt>
      <trkpt lat="45.20158" lon="5.72468">
        <ele>522.59997558594</ele>
        <time>2021-11-26T04:23:24.000Z</time>
      </trkpt>
      <trkpt lat="45.20158" lon="5.7247">
        <ele>523.79998779297</ele>
        <time>2021-11-26T04:23:27.000Z</time>
      </trkpt>
      <trkpt lat="45.20159" lon="5.72471">
        <ele>524</ele>
        <time>2021-11-26T04:23:28.000Z</time>
      </trkpt>
      <trkpt lat="45.20159" lon="5.72472">
        <ele>524.20001220703</ele>
        <time>2021-11-26T04:23:29.000Z</time>
      </trkpt>
      <trkpt lat="45.20159" lon="5.72473">
        <ele>524.59997558594</ele>
        <time>2021-11-26T04:23:30.000Z</time>
      </trkpt>
      <trkpt lat="45.2016" lon="5.72473">
        <ele>525.20001220703</ele>
        <time>2021-11-26T04:23:31.000Z</time>
      </trkpt>
      <trkpt lat="45.20163" lon="5.72475">
        <ele>526.40002441406</ele>
        <time>2021-11-26T04:23:35.000Z</time>
      </trkpt>
      <trkpt lat="45.20165" lon="5.72476">
        <ele>527.40002441406</ele>
        <time>2021-11-26T04:23:37.000Z</time>
      </trkpt>
      <trkpt lat="45.20166" lon="5.72477">
        <ele>527.59997558594</ele>
        <time>2021-11-26T04:23:38.000Z</time>
      </trkpt>
      <trkpt lat="45.20167" lon="5.72479">
        <ele>528.59997558594</ele>
        <time>2021-11-26T04:23:42.000Z</time>
      </trkpt>
      <trkpt lat="45.20167" lon="5.72481">
        <ele>529.20001220703</ele>
        <time>2021-11-26T04:23:43.000Z</time>
      </trkpt>
      <trkpt lat="45.20167" lon="5.72483">
        <ele>529.79998779297</ele>
        <time>2021-11-26T04:23:45.000Z</time>
      </trkpt>
      <trkpt lat="45.20168" lon="5.72485">
        <ele>530</ele>
        <time>2021-11-26T04:23:46.000Z</time>
      </trkpt>
      <trkpt lat="45.20172" lon="5.72488">
        <ele>530.59997558594</ele>
        <time>2021-11-26T04:23:51.000Z</time>
      </trkpt>
      <trkpt lat="45.20172" lon="5.72489">
        <ele>531</ele>
        <time>2021-11-26T04:23:52.000Z</time>
      </trkpt>
      <trkpt lat="45.20177" lon="5.72493">
        <ele>532</ele>
        <time>2021-11-26T04:23:58.000Z</time>
      </trkpt>
      <trkpt lat="45.20179" lon="5.72495">
        <ele>532.79998779297</ele>
        <time>2021-11-26T04:24:02.000Z</time>
      </trkpt>
      <trkpt lat="45.20182" lon="5.72495">
        <ele>533.40002441406</ele>
        <time>2021-11-26T04:24:04.000Z</time>
      </trkpt>
      <trkpt lat="45.20185" lon="5.72496">
        <ele>534.40002441406</ele>
        <time>2021-11-26T04:24:07.000Z</time>
      </trkpt>
      <trkpt lat="45.20186" lon="5.72498">
        <ele>534.59997558594</ele>
        <time>2021-11-26T04:24:08.000Z</time>
      </trkpt>
      <trkpt lat="45.20191" lon="5.72501">
        <ele>535</ele>
        <time>2021-11-26T04:24:11.000Z</time>
      </trkpt>
      <trkpt lat="45.20194" lon="5.72503">
        <ele>535.79998779297</ele>
        <time>2021-11-26T04:24:14.000Z</time>
      </trkpt>
      <trkpt lat="45.20197" lon="5.72504">
        <ele>536.40002441406</ele>
        <time>2021-11-26T04:24:17.000Z</time>
      </trkpt>
      <trkpt lat="45.20197" lon="5.72505">
        <ele>536.59997558594</ele>
        <time>2021-11-26T04:24:18.000Z</time>
      </trkpt>
      <trkpt lat="45.20198" lon="5.72506">
        <ele>536.79998779297</ele>
        <time>2021-11-26T04:24:19.000Z</time>
      </trkpt>
      <trkpt lat="45.20199" lon="5.72507">
        <ele>537</ele>
        <time>2021-11-26T04:24:20.000Z</time>
      </trkpt>
      <trkpt lat="45.202" lon="5.72508">
        <ele>537.20001220703</ele>
        <time>2021-11-26T04:24:21.000Z</time>
      </trkpt>
      <trkpt lat="45.20201" lon="5.72509">
        <ele>537.40002441406</ele>
        <time>2021-11-26T04:24:22.000Z</time>
      </trkpt>
      <trkpt lat="45.20202" lon="5.72511">
        <ele>537.59997558594</ele>
        <time>2021-11-26T04:24:24.000Z</time>
      </trkpt>
      <trkpt lat="45.20204" lon="5.72513">
        <ele>538</ele>
        <time>2021-11-26T04:24:26.000Z</time>
      </trkpt>
      <trkpt lat="45.20209" lon="5.72518">
        <ele>539.20001220703</ele>
        <time>2021-11-26T04:24:31.000Z</time>
      </trkpt>
      <trkpt lat="45.20213" lon="5.72523">
        <ele>540.40002441406</ele>
        <time>2021-11-26T04:24:36.000Z</time>
      </trkpt>
      <trkpt lat="45.20215" lon="5.72525">
        <ele>541</ele>
        <time>2021-11-26T04:24:38.000Z</time>
      </trkpt>
      <trkpt lat="45.20216" lon="5.72524">
        <ele>541.40002441406</ele>
        <time>2021-11-26T04:24:39.000Z</time>
      </trkpt>
      <trkpt lat="45.20219" lon="5.72523">
        <ele>542</ele>
        <time>2021-11-26T04:24:42.000Z</time>
      </trkpt>
      <trkpt lat="45.20219" lon="5.72523">
        <ele>542.20001220703</ele>
        <time>2021-11-26T04:24:43.000Z</time>
      </trkpt>
      <trkpt lat="45.2022" lon="5.72523">
        <ele>542.40002441406</ele>
        <time>2021-11-26T04:24:44.000Z</time>
      </trkpt>
      <trkpt lat="45.20221" lon="5.72523">
        <ele>543</ele>
        <time>2021-11-26T04:24:46.000Z</time>
      </trkpt>
      <trkpt lat="45.20222" lon="5.72523">
        <ele>543.40002441406</ele>
        <time>2021-11-26T04:24:47.000Z</time>
      </trkpt>
      <trkpt lat="45.20224" lon="5.72523">
        <ele>544.59997558594</ele>
        <time>2021-11-26T04:24:50.000Z</time>
      </trkpt>
      <trkpt lat="45.20229" lon="5.72523">
        <ele>545.59997558594</ele>
        <time>2021-11-26T04:24:55.000Z</time>
      </trkpt>
      <trkpt lat="45.2023" lon="5.72523">
        <ele>545.79998779297</ele>
        <time>2021-11-26T04:24:56.000Z</time>
      </trkpt>
      <trkpt lat="45.20233" lon="5.72523">
        <ele>546.79998779297</ele>
        <time>2021-11-26T04:24:59.000Z</time>
      </trkpt>
      <trkpt lat="45.20237" lon="5.72521">
        <ele>547.79998779297</ele>
        <time>2021-11-26T04:25:05.000Z</time>
      </trkpt>
      <trkpt lat="45.2024" lon="5.72522">
        <ele>549</ele>
        <time>2021-11-26T04:25:09.000Z</time>
      </trkpt>
      <trkpt lat="45.20242" lon="5.72524">
        <ele>550</ele>
        <time>2021-11-26T04:25:13.000Z</time>
      </trkpt>
      <trkpt lat="45.20243" lon="5.72523">
        <ele>550.40002441406</ele>
        <time>2021-11-26T04:25:14.000Z</time>
      </trkpt>
      <trkpt lat="45.20245" lon="5.72522">
        <ele>551.20001220703</ele>
        <time>2021-11-26T04:25:17.000Z</time>
      </trkpt>
      <trkpt lat="45.20246" lon="5.72522">
        <ele>551.59997558594</ele>
        <time>2021-11-26T04:25:18.000Z</time>
      </trkpt>
      <trkpt lat="45.20248" lon="5.72521">
        <ele>552.20001220703</ele>
        <time>2021-11-26T04:25:21.000Z</time>
      </trkpt>
      <trkpt lat="45.2025" lon="5.72522">
        <ele>552.79998779297</ele>
        <time>2021-11-26T04:25:23.000Z</time>
      </trkpt>
      <trkpt lat="45.20251" lon="5.72522">
        <ele>553.20001220703</ele>
        <time>2021-11-26T04:25:26.000Z</time>
      </trkpt>
      <trkpt lat="45.20253" lon="5.72519">
        <ele>554.59997558594</ele>
        <time>2021-11-26T04:25:29.000Z</time>
      </trkpt>
      <trkpt lat="45.20256" lon="5.72519">
        <ele>555.59997558594</ele>
        <time>2021-11-26T04:25:33.000Z</time>
      </trkpt>
      <trkpt lat="45.20258" lon="5.7252">
        <ele>556.59997558594</ele>
        <time>2021-11-26T04:25:36.000Z</time>
      </trkpt>
      <trkpt lat="45.20259" lon="5.72521">
        <ele>556.79998779297</ele>
        <time>2021-11-26T04:25:37.000Z</time>
      </trkpt>
      <trkpt lat="45.20266" lon="5.7252">
        <ele>557.79998779297</ele>
        <time>2021-11-26T04:25:43.000Z</time>
      </trkpt>
      <trkpt lat="45.20268" lon="5.7252">
        <ele>558.40002441406</ele>
        <time>2021-11-26T04:25:45.000Z</time>
      </trkpt>
      <trkpt lat="45.20269" lon="5.7252">
        <ele>559</ele>
        <time>2021-11-26T04:25:47.000Z</time>
      </trkpt>
      <trkpt lat="45.2027" lon="5.72519">
        <ele>559.20001220703</ele>
        <time>2021-11-26T04:25:49.000Z</time>
      </trkpt>
      <trkpt lat="45.20273" lon="5.7252">
        <ele>560</ele>
        <time>2021-11-26T04:25:52.000Z</time>
      </trkpt>
      <trkpt lat="45.20279" lon="5.7252">
        <ele>561.20001220703</ele>
        <time>2021-11-26T04:25:57.000Z</time>
      </trkpt>
      <trkpt lat="45.20283" lon="5.7252">
        <ele>561.79998779297</ele>
        <time>2021-11-26T04:26:01.000Z</time>
      </trkpt>
      <trkpt lat="45.20284" lon="5.7252">
        <ele>562.40002441406</ele>
        <time>2021-11-26T04:26:03.000Z</time>
      </trkpt>
      <trkpt lat="45.20285" lon="5.72521">
        <ele>562.59997558594</ele>
        <time>2021-11-26T04:26:04.000Z</time>
      </trkpt>
      <trkpt lat="45.20292" lon="5.7252">
        <ele>563.59997558594</ele>
        <time>2021-11-26T04:26:09.000Z</time>
      </trkpt>
      <trkpt lat="45.20295" lon="5.72519">
        <ele>564</ele>
        <time>2021-11-26T04:26:11.000Z</time>
      </trkpt>
      <trkpt lat="45.203" lon="5.72516">
        <ele>564.59997558594</ele>
        <time>2021-11-26T04:26:14.000Z</time>
      </trkpt>
      <trkpt lat="45.20306" lon="5.72518">
        <ele>565.79998779297</ele>
        <time>2021-11-26T04:26:18.000Z</time>
      </trkpt>
      <trkpt lat="45.20309" lon="5.72517">
        <ele>566.40002441406</ele>
        <time>2021-11-26T04:26:21.000Z</time>
      </trkpt>
      <trkpt lat="45.2031" lon="5.72518">
        <ele>566.79998779297</ele>
        <time>2021-11-26T04:26:22.000Z</time>
      </trkpt>
      <trkpt lat="45.20313" lon="5.72519">
        <ele>567.79998779297</ele>
        <time>2021-11-26T04:26:26.000Z</time>
      </trkpt>
      <trkpt lat="45.20314" lon="5.72519">
        <ele>568</ele>
        <time>2021-11-26T04:26:27.000Z</time>
      </trkpt>
      <trkpt lat="45.20315" lon="5.72519">
        <ele>568</ele>
        <time>2021-11-26T04:26:28.000Z</time>
      </trkpt>
      <trkpt lat="45.20316" lon="5.72519">
        <ele>568.79998779297</ele>
        <time>2021-11-26T04:26:30.000Z</time>
      </trkpt>
      <trkpt lat="45.20319" lon="5.7252">
        <ele>569.79998779297</ele>
        <time>2021-11-26T04:26:34.000Z</time>
      </trkpt>
      <trkpt lat="45.20321" lon="5.72519">
        <ele>570.79998779297</ele>
        <time>2021-11-26T04:26:36.000Z</time>
      </trkpt>
      <trkpt lat="45.20324" lon="5.72519">
        <ele>572</ele>
        <time>2021-11-26T04:26:39.000Z</time>
      </trkpt>
      <trkpt lat="45.20326" lon="5.72521">
        <ele>572.59997558594</ele>
        <time>2021-11-26T04:26:42.000Z</time>
      </trkpt>
      <trkpt lat="45.20328" lon="5.72521">
        <ele>573.40002441406</ele>
        <time>2021-11-26T04:26:44.000Z</time>
      </trkpt>
      <trkpt lat="45.2033" lon="5.72521">
        <ele>574.40002441406</ele>
        <time>2021-11-26T04:26:47.000Z</time>
      </trkpt>
      <trkpt lat="45.20334" lon="5.7252">
        <ele>575</ele>
        <time>2021-11-26T04:26:50.000Z</time>
      </trkpt>
      <trkpt lat="45.20335" lon="5.72521">
        <ele>575.40002441406</ele>
        <time>2021-11-26T04:26:51.000Z</time>
      </trkpt>
      <trkpt lat="45.20336" lon="5.72521">
        <ele>575.59997558594</ele>
        <time>2021-11-26T04:26:52.000Z</time>
      </trkpt>
      <trkpt lat="45.20337" lon="5.72519">
        <ele>576</ele>
        <time>2021-11-26T04:26:55.000Z</time>
      </trkpt>
      <trkpt lat="45.20337" lon="5.72519">
        <ele>576.40002441406</ele>
        <time>2021-11-26T04:26:57.000Z</time>
      </trkpt>
      <trkpt lat="45.20338" lon="5.72518">
        <ele>576.59997558594</ele>
        <time>2021-11-26T04:26:58.000Z</time>
      </trkpt>
      <trkpt lat="45.20338" lon="5.72521">
        <ele>577</ele>
        <time>2021-11-26T04:27:01.000Z</time>
      </trkpt>
      <trkpt lat="45.20337" lon="5.72522">
        <ele>577.59997558594</ele>
        <time>2021-11-26T04:27:03.000Z</time>
      </trkpt>
      <trkpt lat="45.20338" lon="5.72521">
        <ele>578.79998779297</ele>
        <time>2021-11-26T04:27:07.000Z</time>
      </trkpt>
      <trkpt lat="45.20338" lon="5.72522">
        <ele>579.40002441406</ele>
        <time>2021-11-26T04:27:09.000Z</time>
      </trkpt>
      <trkpt lat="45.2034" lon="5.72521">
        <ele>580</ele>
        <time>2021-11-26T04:27:11.000Z</time>
      </trkpt>
      <trkpt lat="45.20341" lon="5.72522">
        <ele>581</ele>
        <time>2021-11-26T04:27:14.000Z</time>
      </trkpt>
      <trkpt lat="45.20342" lon="5.72523">
        <ele>581.20001220703</ele>
        <time>2021-11-26T04:27:15.000Z</time>
      </trkpt>
      <trkpt lat="45.20343" lon="5.72523">
        <ele>581.40002441406</ele>
        <time>2021-11-26T04:27:16.000Z</time>
      </trkpt>
      <trkpt lat="45.20345" lon="5.72524">
        <ele>582.20001220703</ele>
        <time>2021-11-26T04:27:20.000Z</time>
      </trkpt>
      <trkpt lat="45.20347" lon="5.72522">
        <ele>583</ele>
        <time>2021-11-26T04:27:23.000Z</time>
      </trkpt>
      <trkpt lat="45.20347" lon="5.72522">
        <ele>583.40002441406</ele>
        <time>2021-11-26T04:27:24.000Z</time>
      </trkpt>
      <trkpt lat="45.2035" lon="5.72522">
        <ele>584.40002441406</ele>
        <time>2021-11-26T04:27:28.000Z</time>
      </trkpt>
      <trkpt lat="45.20351" lon="5.72521">
        <ele>585</ele>
        <time>2021-11-26T04:27:30.000Z</time>
      </trkpt>
      <trkpt lat="45.20351" lon="5.7252">
        <ele>585.79998779297</ele>
        <time>2021-11-26T04:27:32.000Z</time>
      </trkpt>
      <trkpt lat="45.20354" lon="5.72519">
        <ele>586.59997558594</ele>
        <time>2021-11-26T04:27:36.000Z</time>
      </trkpt>
      <trkpt lat="45.20354" lon="5.7252">
        <ele>586.79998779297</ele>
        <time>2021-11-26T04:27:37.000Z</time>
      </trkpt>
      <trkpt lat="45.20355" lon="5.72521">
        <ele>587.40002441406</ele>
        <time>2021-11-26T04:27:40.000Z</time>
      </trkpt>
      <trkpt lat="45.20358" lon="5.72522">
        <ele>587.59997558594</ele>
        <time>2021-11-26T04:27:42.000Z</time>
      </trkpt>
      <trkpt lat="45.2036" lon="5.72523">
        <ele>588</ele>
        <time>2021-11-26T04:27:44.000Z</time>
      </trkpt>
      <trkpt lat="45.20365" lon="5.72523">
        <ele>589</ele>
        <time>2021-11-26T04:27:48.000Z</time>
      </trkpt>
      <trkpt lat="45.20367" lon="5.72522">
        <ele>589.40002441406</ele>
        <time>2021-11-26T04:27:50.000Z</time>
      </trkpt>
      <trkpt lat="45.20367" lon="5.72522">
        <ele>589.79998779297</ele>
        <time>2021-11-26T04:27:51.000Z</time>
      </trkpt>
      <trkpt lat="45.20369" lon="5.72524">
        <ele>590.40002441406</ele>
        <time>2021-11-26T04:27:53.000Z</time>
      </trkpt>
      <trkpt lat="45.20369" lon="5.72525">
        <ele>590.40002441406</ele>
        <time>2021-11-26T04:27:54.000Z</time>
      </trkpt>
      <trkpt lat="45.20375" lon="5.72532">
        <ele>591.40002441406</ele>
        <time>2021-11-26T04:28:00.000Z</time>
      </trkpt>
      <trkpt lat="45.20375" lon="5.72533">
        <ele>591.40002441406</ele>
        <time>2021-11-26T04:28:01.000Z</time>
      </trkpt>
      <trkpt lat="45.20375" lon="5.72534">
        <ele>592.20001220703</ele>
        <time>2021-11-26T04:28:03.000Z</time>
      </trkpt>
      <trkpt lat="45.20376" lon="5.72532">
        <ele>592.59997558594</ele>
        <time>2021-11-26T04:28:05.000Z</time>
      </trkpt>
      <trkpt lat="45.20377" lon="5.7253">
        <ele>593.20001220703</ele>
        <time>2021-11-26T04:28:07.000Z</time>
      </trkpt>
      <trkpt lat="45.20379" lon="5.7253">
        <ele>593.59997558594</ele>
        <time>2021-11-26T04:28:09.000Z</time>
      </trkpt>
      <trkpt lat="45.20381" lon="5.7253">
        <ele>594.79998779297</ele>
        <time>2021-11-26T04:28:12.000Z</time>
      </trkpt>
      <trkpt lat="45.20382" lon="5.72531">
        <ele>595</ele>
        <time>2021-11-26T04:28:13.000Z</time>
      </trkpt>
      <trkpt lat="45.20382" lon="5.72531">
        <ele>595.20001220703</ele>
        <time>2021-11-26T04:28:14.000Z</time>
      </trkpt>
      <trkpt lat="45.20383" lon="5.72532">
        <ele>595.59997558594</ele>
        <time>2021-11-26T04:28:16.000Z</time>
      </trkpt>
      <trkpt lat="45.20383" lon="5.72533">
        <ele>595.79998779297</ele>
        <time>2021-11-26T04:28:17.000Z</time>
      </trkpt>
      <trkpt lat="45.20385" lon="5.72537">
        <ele>596.59997558594</ele>
        <time>2021-11-26T04:28:21.000Z</time>
      </trkpt>
      <trkpt lat="45.20386" lon="5.72537">
        <ele>597</ele>
        <time>2021-11-26T04:28:22.000Z</time>
      </trkpt>
      <trkpt lat="45.20387" lon="5.72537">
        <ele>597.40002441406</ele>
        <time>2021-11-26T04:28:23.000Z</time>
      </trkpt>
      <trkpt lat="45.2039" lon="5.72537">
        <ele>598</ele>
        <time>2021-11-26T04:28:26.000Z</time>
      </trkpt>
      <trkpt lat="45.2039" lon="5.72538">
        <ele>598.59997558594</ele>
        <time>2021-11-26T04:28:28.000Z</time>
      </trkpt>
      <trkpt lat="45.20391" lon="5.72536">
        <ele>599.40002441406</ele>
        <time>2021-11-26T04:28:30.000Z</time>
      </trkpt>
      <trkpt lat="45.20393" lon="5.72534">
        <ele>600.20001220703</ele>
        <time>2021-11-26T04:28:32.000Z</time>
      </trkpt>
      <trkpt lat="45.20394" lon="5.72533">
        <ele>600.40002441406</ele>
        <time>2021-11-26T04:28:33.000Z</time>
      </trkpt>
      <trkpt lat="45.20395" lon="5.72534">
        <ele>600.59997558594</ele>
        <time>2021-11-26T04:28:34.000Z</time>
      </trkpt>
      <trkpt lat="45.20396" lon="5.72534">
        <ele>601</ele>
        <time>2021-11-26T04:28:36.000Z</time>
      </trkpt>
      <trkpt lat="45.20398" lon="5.72534">
        <ele>601.20001220703</ele>
        <time>2021-11-26T04:28:37.000Z</time>
      </trkpt>
      <trkpt lat="45.204" lon="5.72536">
        <ele>601.59997558594</ele>
        <time>2021-11-26T04:28:40.000Z</time>
      </trkpt>
      <trkpt lat="45.20401" lon="5.72538">
        <ele>601.79998779297</ele>
        <time>2021-11-26T04:28:41.000Z</time>
      </trkpt>
      <trkpt lat="45.20404" lon="5.72539">
        <ele>602.79998779297</ele>
        <time>2021-11-26T04:28:44.000Z</time>
      </trkpt>
      <trkpt lat="45.20405" lon="5.72537">
        <ele>603.20001220703</ele>
        <time>2021-11-26T04:28:46.000Z</time>
      </trkpt>
      <trkpt lat="45.20405" lon="5.72537">
        <ele>603.40002441406</ele>
        <time>2021-11-26T04:28:47.000Z</time>
      </trkpt>
      <trkpt lat="45.20407" lon="5.72537">
        <ele>604</ele>
        <time>2021-11-26T04:28:49.000Z</time>
      </trkpt>
      <trkpt lat="45.20408" lon="5.72536">
        <ele>604.79998779297</ele>
        <time>2021-11-26T04:28:52.000Z</time>
      </trkpt>
      <trkpt lat="45.20409" lon="5.72534">
        <ele>605</ele>
        <time>2021-11-26T04:28:53.000Z</time>
      </trkpt>
      <trkpt lat="45.2041" lon="5.72535">
        <ele>605.79998779297</ele>
        <time>2021-11-26T04:28:56.000Z</time>
      </trkpt>
      <trkpt lat="45.2041" lon="5.72534">
        <ele>606</ele>
        <time>2021-11-26T04:28:58.000Z</time>
      </trkpt>
      <trkpt lat="45.2041" lon="5.72533">
        <ele>606</ele>
        <time>2021-11-26T04:28:59.000Z</time>
      </trkpt>
      <trkpt lat="45.20411" lon="5.72532">
        <ele>607.20001220703</ele>
        <time>2021-11-26T04:29:03.000Z</time>
      </trkpt>
      <trkpt lat="45.20412" lon="5.72531">
        <ele>607.40002441406</ele>
        <time>2021-11-26T04:29:04.000Z</time>
      </trkpt>
      <trkpt lat="45.20414" lon="5.72528">
        <ele>608</ele>
        <time>2021-11-26T04:29:07.000Z</time>
      </trkpt>
      <trkpt lat="45.20414" lon="5.72528">
        <ele>608.40002441406</ele>
        <time>2021-11-26T04:29:08.000Z</time>
      </trkpt>
      <trkpt lat="45.20415" lon="5.72527">
        <ele>609</ele>
        <time>2021-11-26T04:29:10.000Z</time>
      </trkpt>
      <trkpt lat="45.20416" lon="5.72525">
        <ele>609.59997558594</ele>
        <time>2021-11-26T04:29:12.000Z</time>
      </trkpt>
      <trkpt lat="45.20416" lon="5.72523">
        <ele>610.40002441406</ele>
        <time>2021-11-26T04:29:15.000Z</time>
      </trkpt>
      <trkpt lat="45.20416" lon="5.72522">
        <ele>610.59997558594</ele>
        <time>2021-11-26T04:29:16.000Z</time>
      </trkpt>
      <trkpt lat="45.20419" lon="5.72518">
        <ele>611.79998779297</ele>
        <time>2021-11-26T04:29:22.000Z</time>
      </trkpt>
      <trkpt lat="45.2042" lon="5.72517">
        <ele>612</ele>
        <time>2021-11-26T04:29:23.000Z</time>
      </trkpt>
      <trkpt lat="45.20422" lon="5.72516">
        <ele>612.79998779297</ele>
        <time>2021-11-26T04:29:26.000Z</time>
      </trkpt>
      <trkpt lat="45.20422" lon="5.72516">
        <ele>613.20001220703</ele>
        <time>2021-11-26T04:29:27.000Z</time>
      </trkpt>
      <trkpt lat="45.20423" lon="5.72515">
        <ele>613.40002441406</ele>
        <time>2021-11-26T04:29:28.000Z</time>
      </trkpt>
      <trkpt lat="45.20424" lon="5.72515">
        <ele>613.59997558594</ele>
        <time>2021-11-26T04:29:29.000Z</time>
      </trkpt>
      <trkpt lat="45.20426" lon="5.72515">
        <ele>613.79998779297</ele>
        <time>2021-11-26T04:29:31.000Z</time>
      </trkpt>
      <trkpt lat="45.20428" lon="5.72516">
        <ele>615.20001220703</ele>
        <time>2021-11-26T04:29:35.000Z</time>
      </trkpt>
      <trkpt lat="45.2043" lon="5.72517">
        <ele>616.40002441406</ele>
        <time>2021-11-26T04:29:39.000Z</time>
      </trkpt>
      <trkpt lat="45.20431" lon="5.72516">
        <ele>617</ele>
        <time>2021-11-26T04:29:40.000Z</time>
      </trkpt>
      <trkpt lat="45.20432" lon="5.72516">
        <ele>617.59997558594</ele>
        <time>2021-11-26T04:29:42.000Z</time>
      </trkpt>
      <trkpt lat="45.20434" lon="5.72516">
        <ele>618.59997558594</ele>
        <time>2021-11-26T04:29:45.000Z</time>
      </trkpt>
      <trkpt lat="45.20435" lon="5.72516">
        <ele>619</ele>
        <time>2021-11-26T04:29:46.000Z</time>
      </trkpt>
      <trkpt lat="45.20438" lon="5.72513">
        <ele>619.59997558594</ele>
        <time>2021-11-26T04:29:49.000Z</time>
      </trkpt>
      <trkpt lat="45.20445" lon="5.72513">
        <ele>620.20001220703</ele>
        <time>2021-11-26T04:29:52.000Z</time>
      </trkpt>
      <trkpt lat="45.20452" lon="5.72517">
        <ele>620.79998779297</ele>
        <time>2021-11-26T04:29:56.000Z</time>
      </trkpt>
      <trkpt lat="45.20454" lon="5.72519">
        <ele>621.20001220703</ele>
        <time>2021-11-26T04:29:58.000Z</time>
      </trkpt>
      <trkpt lat="45.20458" lon="5.72524">
        <ele>621.79998779297</ele>
        <time>2021-11-26T04:30:01.000Z</time>
      </trkpt>
      <trkpt lat="45.20463" lon="5.72533">
        <ele>622.59997558594</ele>
        <time>2021-11-26T04:30:06.000Z</time>
      </trkpt>
      <trkpt lat="45.20464" lon="5.72536">
        <ele>622.79998779297</ele>
        <time>2021-11-26T04:30:08.000Z</time>
      </trkpt>
      <trkpt lat="45.20469" lon="5.72544">
        <ele>624</ele>
        <time>2021-11-26T04:30:13.000Z</time>
      </trkpt>
      <trkpt lat="45.20475" lon="5.7255">
        <ele>624.79998779297</ele>
        <time>2021-11-26T04:30:18.000Z</time>
      </trkpt>
      <trkpt lat="45.20477" lon="5.72551">
        <ele>625</ele>
        <time>2021-11-26T04:30:19.000Z</time>
      </trkpt>
      <trkpt lat="45.20479" lon="5.72553">
        <ele>625.40002441406</ele>
        <time>2021-11-26T04:30:21.000Z</time>
      </trkpt>
      <trkpt lat="45.20484" lon="5.72559">
        <ele>626</ele>
        <time>2021-11-26T04:30:25.000Z</time>
      </trkpt>
      <trkpt lat="45.20485" lon="5.7256">
        <ele>626.20001220703</ele>
        <time>2021-11-26T04:30:26.000Z</time>
      </trkpt>
      <trkpt lat="45.20488" lon="5.72562">
        <ele>626.59997558594</ele>
        <time>2021-11-26T04:30:28.000Z</time>
      </trkpt>
      <trkpt lat="45.20491" lon="5.72561">
        <ele>626.79998779297</ele>
        <time>2021-11-26T04:30:30.000Z</time>
      </trkpt>
      <trkpt lat="45.20491" lon="5.72558">
        <ele>627.20001220703</ele>
        <time>2021-11-26T04:30:32.000Z</time>
      </trkpt>
      <trkpt lat="45.20491" lon="5.72557">
        <ele>627.40002441406</ele>
        <time>2021-11-26T04:30:33.000Z</time>
      </trkpt>
      <trkpt lat="45.2049" lon="5.72551">
        <ele>628.59997558594</ele>
        <time>2021-11-26T04:30:37.000Z</time>
      </trkpt>
      <trkpt lat="45.2049" lon="5.72549">
        <ele>629.20001220703</ele>
        <time>2021-11-26T04:30:39.000Z</time>
      </trkpt>
      <trkpt lat="45.20489" lon="5.72544">
        <ele>630</ele>
        <time>2021-11-26T04:30:42.000Z</time>
      </trkpt>
      <trkpt lat="45.20485" lon="5.72538">
        <ele>631.20001220703</ele>
        <time>2021-11-26T04:30:46.000Z</time>
      </trkpt>
      <trkpt lat="45.20484" lon="5.72536">
        <ele>631.40002441406</ele>
        <time>2021-11-26T04:30:47.000Z</time>
      </trkpt>
      <trkpt lat="45.20485" lon="5.72526">
        <ele>632.20001220703</ele>
        <time>2021-11-26T04:30:51.000Z</time>
      </trkpt>
      <trkpt lat="45.20486" lon="5.72524">
        <ele>632.40002441406</ele>
        <time>2021-11-26T04:30:52.000Z</time>
      </trkpt>
      <trkpt lat="45.20488" lon="5.72516">
        <ele>633</ele>
        <time>2021-11-26T04:30:56.000Z</time>
      </trkpt>
      <trkpt lat="45.20485" lon="5.72499">
        <ele>632.40002441406</ele>
        <time>2021-11-26T04:31:03.000Z</time>
      </trkpt>
      <trkpt lat="45.20482" lon="5.72496">
        <ele>632.20001220703</ele>
        <time>2021-11-26T04:31:05.000Z</time>
      </trkpt>
      <trkpt lat="45.20476" lon="5.72495">
        <ele>632</ele>
        <time>2021-11-26T04:31:08.000Z</time>
      </trkpt>
      <trkpt lat="45.20474" lon="5.72493">
        <ele>632</ele>
        <time>2021-11-26T04:31:09.000Z</time>
      </trkpt>
      <trkpt lat="45.20465" lon="5.7249">
        <ele>632</ele>
        <time>2021-11-26T04:31:14.000Z</time>
      </trkpt>
      <trkpt lat="45.20451" lon="5.72486">
        <ele>632.59997558594</ele>
        <time>2021-11-26T04:31:21.000Z</time>
      </trkpt>
      <trkpt lat="45.20448" lon="5.72483">
        <ele>632.59997558594</ele>
        <time>2021-11-26T04:31:23.000Z</time>
      </trkpt>
      <trkpt lat="45.20443" lon="5.7248">
        <ele>632.40002441406</ele>
        <time>2021-11-26T04:31:26.000Z</time>
      </trkpt>
      <trkpt lat="45.20435" lon="5.72478">
        <ele>632.20001220703</ele>
        <time>2021-11-26T04:31:29.000Z</time>
      </trkpt>
      <trkpt lat="45.20424" lon="5.72471">
        <ele>632</ele>
        <time>2021-11-26T04:31:34.000Z</time>
      </trkpt>
      <trkpt lat="45.2041" lon="5.72454">
        <ele>632.40002441406</ele>
        <time>2021-11-26T04:31:42.000Z</time>
      </trkpt>
      <trkpt lat="45.20406" lon="5.7245">
        <ele>632.79998779297</ele>
        <time>2021-11-26T04:31:45.000Z</time>
      </trkpt>
      <trkpt lat="45.20403" lon="5.72448">
        <ele>633</ele>
        <time>2021-11-26T04:31:47.000Z</time>
      </trkpt>
      <trkpt lat="45.20402" lon="5.72446">
        <ele>633.20001220703</ele>
        <time>2021-11-26T04:31:49.000Z</time>
      </trkpt>
      <trkpt lat="45.20402" lon="5.72444">
        <ele>633.40002441406</ele>
        <time>2021-11-26T04:31:50.000Z</time>
      </trkpt>
      <trkpt lat="45.20402" lon="5.72443">
        <ele>633.59997558594</ele>
        <time>2021-11-26T04:31:51.000Z</time>
      </trkpt>
      <trkpt lat="45.20401" lon="5.72441">
        <ele>634.59997558594</ele>
        <time>2021-11-26T04:31:53.000Z</time>
      </trkpt>
      <trkpt lat="45.20398" lon="5.72442">
        <ele>635</ele>
        <time>2021-11-26T04:31:56.000Z</time>
      </trkpt>
      <trkpt lat="45.20395" lon="5.72443">
        <ele>635.59997558594</ele>
        <time>2021-11-26T04:31:59.000Z</time>
      </trkpt>
      <trkpt lat="45.20393" lon="5.72444">
        <ele>635.79998779297</ele>
        <time>2021-11-26T04:32:01.000Z</time>
      </trkpt>
      <trkpt lat="45.20391" lon="5.72442">
        <ele>636.20001220703</ele>
        <time>2021-11-26T04:32:03.000Z</time>
      </trkpt>
      <trkpt lat="45.20391" lon="5.7244">
        <ele>636.40002441406</ele>
        <time>2021-11-26T04:32:04.000Z</time>
      </trkpt>
      <trkpt lat="45.2039" lon="5.72438">
        <ele>636.59997558594</ele>
        <time>2021-11-26T04:32:06.000Z</time>
      </trkpt>
      <trkpt lat="45.20389" lon="5.72435">
        <ele>636.79998779297</ele>
        <time>2021-11-26T04:32:07.000Z</time>
      </trkpt>
      <trkpt lat="45.2039" lon="5.72431">
        <ele>636.79998779297</ele>
        <time>2021-11-26T04:32:09.000Z</time>
      </trkpt>
      <trkpt lat="45.20399" lon="5.72428">
        <ele>637.40002441406</ele>
        <time>2021-11-26T04:32:14.000Z</time>
      </trkpt>
      <trkpt lat="45.204" lon="5.72427">
        <ele>637.59997558594</ele>
        <time>2021-11-26T04:32:15.000Z</time>
      </trkpt>
      <trkpt lat="45.20401" lon="5.72426">
        <ele>637.79998779297</ele>
        <time>2021-11-26T04:32:16.000Z</time>
      </trkpt>
      <trkpt lat="45.20402" lon="5.72422">
        <ele>638.20001220703</ele>
        <time>2021-11-26T04:32:18.000Z</time>
      </trkpt>
      <trkpt lat="45.20402" lon="5.7242">
        <ele>638.20001220703</ele>
        <time>2021-11-26T04:32:19.000Z</time>
      </trkpt>
      <trkpt lat="45.20401" lon="5.72414">
        <ele>638.40002441406</ele>
        <time>2021-11-26T04:32:24.000Z</time>
      </trkpt>
      <trkpt lat="45.20401" lon="5.72413">
        <ele>638.40002441406</ele>
        <time>2021-11-26T04:32:25.000Z</time>
      </trkpt>
      <trkpt lat="45.20399" lon="5.72415">
        <ele>638.59997558594</ele>
        <time>2021-11-26T04:32:29.000Z</time>
      </trkpt>
      <trkpt lat="45.20398" lon="5.72417">
        <ele>638.59997558594</ele>
        <time>2021-11-26T04:32:30.000Z</time>
      </trkpt>
      <trkpt lat="45.20394" lon="5.72422">
        <ele>638</ele>
        <time>2021-11-26T04:32:34.000Z</time>
      </trkpt>
      <trkpt lat="45.20391" lon="5.72422">
        <ele>637.59997558594</ele>
        <time>2021-11-26T04:32:36.000Z</time>
      </trkpt>
      <trkpt lat="45.20387" lon="5.72424">
        <ele>636.40002441406</ele>
        <time>2021-11-26T04:32:40.000Z</time>
      </trkpt>
      <trkpt lat="45.20386" lon="5.72422">
        <ele>636</ele>
        <time>2021-11-26T04:32:42.000Z</time>
      </trkpt>
      <trkpt lat="45.20385" lon="5.72421">
        <ele>635.79998779297</ele>
        <time>2021-11-26T04:32:43.000Z</time>
      </trkpt>
      <trkpt lat="45.20385" lon="5.7242">
        <ele>635.40002441406</ele>
        <time>2021-11-26T04:32:44.000Z</time>
      </trkpt>
      <trkpt lat="45.20383" lon="5.72415">
        <ele>634.40002441406</ele>
        <time>2021-11-26T04:32:48.000Z</time>
      </trkpt>
      <trkpt lat="45.20382" lon="5.72409">
        <ele>633.40002441406</ele>
        <time>2021-11-26T04:32:52.000Z</time>
      </trkpt>
      <trkpt lat="45.20381" lon="5.72407">
        <ele>633.20001220703</ele>
        <time>2021-11-26T04:32:53.000Z</time>
      </trkpt>
      <trkpt lat="45.20375" lon="5.72405">
        <ele>632.40002441406</ele>
        <time>2021-11-26T04:32:58.000Z</time>
      </trkpt>
      <trkpt lat="45.20372" lon="5.72408">
        <ele>632</ele>
        <time>2021-11-26T04:33:01.000Z</time>
      </trkpt>
      <trkpt lat="45.20371" lon="5.72411">
        <ele>631.79998779297</ele>
        <time>2021-11-26T04:33:02.000Z</time>
      </trkpt>
      <trkpt lat="45.20371" lon="5.72417">
        <ele>631.59997558594</ele>
        <time>2021-11-26T04:33:04.000Z</time>
      </trkpt>
      <trkpt lat="45.2037" lon="5.7242">
        <ele>631.59997558594</ele>
        <time>2021-11-26T04:33:05.000Z</time>
      </trkpt>
      <trkpt lat="45.20368" lon="5.72429">
        <ele>631.79998779297</ele>
        <time>2021-11-26T04:33:09.000Z</time>
      </trkpt>
      <trkpt lat="45.20367" lon="5.72432">
        <ele>631.59997558594</ele>
        <time>2021-11-26T04:33:14.000Z</time>
      </trkpt>
      <trkpt lat="45.20368" lon="5.72427">
        <ele>631.59997558594</ele>
        <time>2021-11-26T04:33:20.000Z</time>
      </trkpt>
      <trkpt lat="45.2037" lon="5.72421">
        <ele>631.59997558594</ele>
        <time>2021-11-26T04:33:22.000Z</time>
      </trkpt>
      <trkpt lat="45.2037" lon="5.72412">
        <ele>631.59997558594</ele>
        <time>2021-11-26T04:33:25.000Z</time>
      </trkpt>
      <trkpt lat="45.20371" lon="5.72405">
        <ele>631.59997558594</ele>
        <time>2021-11-26T04:33:27.000Z</time>
      </trkpt>
      <trkpt lat="45.2038" lon="5.72394">
        <ele>631.40002441406</ele>
        <time>2021-11-26T04:33:33.000Z</time>
      </trkpt>
      <trkpt lat="45.20397" lon="5.72385">
        <ele>631.20001220703</ele>
        <time>2021-11-26T04:33:41.000Z</time>
      </trkpt>
      <trkpt lat="45.20412" lon="5.72387">
        <ele>631.20001220703</ele>
        <time>2021-11-26T04:33:48.000Z</time>
      </trkpt>
      <trkpt lat="45.20415" lon="5.72388">
        <ele>631.20001220703</ele>
        <time>2021-11-26T04:33:49.000Z</time>
      </trkpt>
      <trkpt lat="45.20434" lon="5.72394">
        <ele>631.59997558594</ele>
        <time>2021-11-26T04:33:57.000Z</time>
      </trkpt>
      <trkpt lat="45.2044" lon="5.72398">
        <ele>631.59997558594</ele>
        <time>2021-11-26T04:34:00.000Z</time>
      </trkpt>
      <trkpt lat="45.20449" lon="5.72403">
        <ele>632.59997558594</ele>
        <time>2021-11-26T04:34:06.000Z</time>
      </trkpt>
      <trkpt lat="45.20453" lon="5.72406">
        <ele>633.20001220703</ele>
        <time>2021-11-26T04:34:09.000Z</time>
      </trkpt>
      <trkpt lat="45.20457" lon="5.72409">
        <ele>633.79998779297</ele>
        <time>2021-11-26T04:34:11.000Z</time>
      </trkpt>
      <trkpt lat="45.2046" lon="5.72411">
        <ele>634.20001220703</ele>
        <time>2021-11-26T04:34:13.000Z</time>
      </trkpt>
      <trkpt lat="45.20462" lon="5.72413">
        <ele>634.40002441406</ele>
        <time>2021-11-26T04:34:14.000Z</time>
      </trkpt>
      <trkpt lat="45.20472" lon="5.72429">
        <ele>635.40002441406</ele>
        <time>2021-11-26T04:34:21.000Z</time>
      </trkpt>
      <trkpt lat="45.20477" lon="5.72439">
        <ele>636.20001220703</ele>
        <time>2021-11-26T04:34:25.000Z</time>
      </trkpt>
      <trkpt lat="45.20479" lon="5.72449">
        <ele>636.40002441406</ele>
        <time>2021-11-26T04:34:29.000Z</time>
      </trkpt>
      <trkpt lat="45.20481" lon="5.72456">
        <ele>635.59997558594</ele>
        <time>2021-11-26T04:34:33.000Z</time>
      </trkpt>
      <trkpt lat="45.20481" lon="5.72459">
        <ele>635.20001220703</ele>
        <time>2021-11-26T04:34:35.000Z</time>
      </trkpt>
      <trkpt lat="45.20481" lon="5.72465">
        <ele>634.40002441406</ele>
        <time>2021-11-26T04:34:38.000Z</time>
      </trkpt>
      <trkpt lat="45.20483" lon="5.72474">
        <ele>633.20001220703</ele>
        <time>2021-11-26T04:34:42.000Z</time>
      </trkpt>
      <trkpt lat="45.20483" lon="5.7248">
        <ele>632.59997558594</ele>
        <time>2021-11-26T04:34:44.000Z</time>
      </trkpt>
      <trkpt lat="45.20484" lon="5.72486">
        <ele>632</ele>
        <time>2021-11-26T04:34:46.000Z</time>
      </trkpt>
      <trkpt lat="45.20487" lon="5.72498">
        <ele>631.40002441406</ele>
        <time>2021-11-26T04:34:50.000Z</time>
      </trkpt>
      <trkpt lat="45.20487" lon="5.72502">
        <ele>631.40002441406</ele>
        <time>2021-11-26T04:34:51.000Z</time>
      </trkpt>
      <trkpt lat="45.2049" lon="5.72516">
        <ele>631.59997558594</ele>
        <time>2021-11-26T04:34:56.000Z</time>
      </trkpt>
      <trkpt lat="45.20496" lon="5.72531">
        <ele>632.20001220703</ele>
        <time>2021-11-26T04:35:02.000Z</time>
      </trkpt>
      <trkpt lat="45.20498" lon="5.72533">
        <ele>632.40002441406</ele>
        <time>2021-11-26T04:35:03.000Z</time>
      </trkpt>
      <trkpt lat="45.20511" lon="5.72551">
        <ele>633</ele>
        <time>2021-11-26T04:35:11.000Z</time>
      </trkpt>
      <trkpt lat="45.20513" lon="5.72553">
        <ele>633.20001220703</ele>
        <time>2021-11-26T04:35:12.000Z</time>
      </trkpt>
      <trkpt lat="45.20524" lon="5.72558">
        <ele>632.79998779297</ele>
        <time>2021-11-26T04:35:18.000Z</time>
      </trkpt>
      <trkpt lat="45.20529" lon="5.72558">
        <ele>632</ele>
        <time>2021-11-26T04:35:21.000Z</time>
      </trkpt>
      <trkpt lat="45.20534" lon="5.72559">
        <ele>631.40002441406</ele>
        <time>2021-11-26T04:35:24.000Z</time>
      </trkpt>
      <trkpt lat="45.20536" lon="5.72559">
        <ele>630.79998779297</ele>
        <time>2021-11-26T04:35:25.000Z</time>
      </trkpt>
      <trkpt lat="45.20545" lon="5.72555">
        <ele>630.59997558594</ele>
        <time>2021-11-26T04:35:30.000Z</time>
      </trkpt>
      <trkpt lat="45.20556" lon="5.72556">
        <ele>631.20001220703</ele>
        <time>2021-11-26T04:35:36.000Z</time>
      </trkpt>
      <trkpt lat="45.20564" lon="5.72558">
        <ele>632</ele>
        <time>2021-11-26T04:35:40.000Z</time>
      </trkpt>
      <trkpt lat="45.20571" lon="5.7256">
        <ele>632.20001220703</ele>
        <time>2021-11-26T04:35:44.000Z</time>
      </trkpt>
      <trkpt lat="45.2058" lon="5.72566">
        <ele>633</ele>
        <time>2021-11-26T04:35:50.000Z</time>
      </trkpt>
      <trkpt lat="45.20582" lon="5.72567">
        <ele>633.20001220703</ele>
        <time>2021-11-26T04:35:51.000Z</time>
      </trkpt>
      <trkpt lat="45.20585" lon="5.72569">
        <ele>633.79998779297</ele>
        <time>2021-11-26T04:35:53.000Z</time>
      </trkpt>
      <trkpt lat="45.20588" lon="5.72571">
        <ele>634.20001220703</ele>
        <time>2021-11-26T04:35:55.000Z</time>
      </trkpt>
      <trkpt lat="45.20594" lon="5.72575">
        <ele>634.59997558594</ele>
        <time>2021-11-26T04:35:58.000Z</time>
      </trkpt>
      <trkpt lat="45.20598" lon="5.72579">
        <ele>635</ele>
        <time>2021-11-26T04:36:01.000Z</time>
      </trkpt>
      <trkpt lat="45.20599" lon="5.72579">
        <ele>635.40002441406</ele>
        <time>2021-11-26T04:36:02.000Z</time>
      </trkpt>
      <trkpt lat="45.20602" lon="5.72581">
        <ele>635.79998779297</ele>
        <time>2021-11-26T04:36:04.000Z</time>
      </trkpt>
      <trkpt lat="45.20612" lon="5.7259">
        <ele>636.20001220703</ele>
        <time>2021-11-26T04:36:11.000Z</time>
      </trkpt>
      <trkpt lat="45.20615" lon="5.72592">
        <ele>636.59997558594</ele>
        <time>2021-11-26T04:36:13.000Z</time>
      </trkpt>
      <trkpt lat="45.20622" lon="5.72596">
        <ele>637.79998779297</ele>
        <time>2021-11-26T04:36:17.000Z</time>
      </trkpt>
      <trkpt lat="45.20625" lon="5.72598">
        <ele>638.20001220703</ele>
        <time>2021-11-26T04:36:19.000Z</time>
      </trkpt>
      <trkpt lat="45.20629" lon="5.72601">
        <ele>639</ele>
        <time>2021-11-26T04:36:22.000Z</time>
      </trkpt>
      <trkpt lat="45.20631" lon="5.72602">
        <ele>639.20001220703</ele>
        <time>2021-11-26T04:36:24.000Z</time>
      </trkpt>
      <trkpt lat="45.20633" lon="5.72602">
        <ele>639.40002441406</ele>
        <time>2021-11-26T04:36:25.000Z</time>
      </trkpt>
      <trkpt lat="45.20642" lon="5.72601">
        <ele>639.79998779297</ele>
        <time>2021-11-26T04:36:29.000Z</time>
      </trkpt>
      <trkpt lat="45.20645" lon="5.72601">
        <ele>640</ele>
        <time>2021-11-26T04:36:30.000Z</time>
      </trkpt>
      <trkpt lat="45.2065" lon="5.72599">
        <ele>640.40002441406</ele>
        <time>2021-11-26T04:36:33.000Z</time>
      </trkpt>
      <trkpt lat="45.20658" lon="5.72592">
        <ele>641.20001220703</ele>
        <time>2021-11-26T04:36:38.000Z</time>
      </trkpt>
      <trkpt lat="45.20659" lon="5.72591">
        <ele>641.40002441406</ele>
        <time>2021-11-26T04:36:39.000Z</time>
      </trkpt>
      <trkpt lat="45.20665" lon="5.72584">
        <ele>642.20001220703</ele>
        <time>2021-11-26T04:36:43.000Z</time>
      </trkpt>
      <trkpt lat="45.20669" lon="5.72579">
        <ele>642.79998779297</ele>
        <time>2021-11-26T04:36:46.000Z</time>
      </trkpt>
      <trkpt lat="45.20671" lon="5.72577">
        <ele>643.40002441406</ele>
        <time>2021-11-26T04:36:48.000Z</time>
      </trkpt>
      <trkpt lat="45.20672" lon="5.72576">
        <ele>643.59997558594</ele>
        <time>2021-11-26T04:36:49.000Z</time>
      </trkpt>
      <trkpt lat="45.2068" lon="5.72572">
        <ele>644.40002441406</ele>
        <time>2021-11-26T04:36:54.000Z</time>
      </trkpt>
      <trkpt lat="45.20685" lon="5.72571">
        <ele>645.20001220703</ele>
        <time>2021-11-26T04:36:58.000Z</time>
      </trkpt>
      <trkpt lat="45.20686" lon="5.72571">
        <ele>645.59997558594</ele>
        <time>2021-11-26T04:36:59.000Z</time>
      </trkpt>
      <trkpt lat="45.20692" lon="5.72566">
        <ele>646.79998779297</ele>
        <time>2021-11-26T04:37:04.000Z</time>
      </trkpt>
      <trkpt lat="45.20699" lon="5.72566">
        <ele>648</ele>
        <time>2021-11-26T04:37:09.000Z</time>
      </trkpt>
      <trkpt lat="45.20701" lon="5.72567">
        <ele>648.20001220703</ele>
        <time>2021-11-26T04:37:10.000Z</time>
      </trkpt>
      <trkpt lat="45.20702" lon="5.7257">
        <ele>648.79998779297</ele>
        <time>2021-11-26T04:37:12.000Z</time>
      </trkpt>
      <trkpt lat="45.20703" lon="5.72571">
        <ele>649.20001220703</ele>
        <time>2021-11-26T04:37:13.000Z</time>
      </trkpt>
      <trkpt lat="45.20707" lon="5.72575">
        <ele>650.40002441406</ele>
        <time>2021-11-26T04:37:17.000Z</time>
      </trkpt>
      <trkpt lat="45.20709" lon="5.72575">
        <ele>650.79998779297</ele>
        <time>2021-11-26T04:37:19.000Z</time>
      </trkpt>
      <trkpt lat="45.20712" lon="5.72575">
        <ele>651.59997558594</ele>
        <time>2021-11-26T04:37:21.000Z</time>
      </trkpt>
      <trkpt lat="45.20715" lon="5.72577">
        <ele>652.59997558594</ele>
        <time>2021-11-26T04:37:24.000Z</time>
      </trkpt>
      <trkpt lat="45.20716" lon="5.72577">
        <ele>652.79998779297</ele>
        <time>2021-11-26T04:37:25.000Z</time>
      </trkpt>
      <trkpt lat="45.20718" lon="5.72575">
        <ele>653.40002441406</ele>
        <time>2021-11-26T04:37:27.000Z</time>
      </trkpt>
      <trkpt lat="45.20719" lon="5.72575">
        <ele>653.79998779297</ele>
        <time>2021-11-26T04:37:28.000Z</time>
      </trkpt>
      <trkpt lat="45.20722" lon="5.72575">
        <ele>654.20001220703</ele>
        <time>2021-11-26T04:37:31.000Z</time>
      </trkpt>
      <trkpt lat="45.20724" lon="5.72576">
        <ele>654.79998779297</ele>
        <time>2021-11-26T04:37:33.000Z</time>
      </trkpt>
      <trkpt lat="45.20724" lon="5.72577">
        <ele>655.20001220703</ele>
        <time>2021-11-26T04:37:34.000Z</time>
      </trkpt>
      <trkpt lat="45.20729" lon="5.72581">
        <ele>656.20001220703</ele>
        <time>2021-11-26T04:37:38.000Z</time>
      </trkpt>
      <trkpt lat="45.2073" lon="5.72583">
        <ele>656.59997558594</ele>
        <time>2021-11-26T04:37:39.000Z</time>
      </trkpt>
      <trkpt lat="45.20732" lon="5.72584">
        <ele>657</ele>
        <time>2021-11-26T04:37:41.000Z</time>
      </trkpt>
      <trkpt lat="45.20733" lon="5.72585">
        <ele>657.40002441406</ele>
        <time>2021-11-26T04:37:43.000Z</time>
      </trkpt>
      <trkpt lat="45.20735" lon="5.72584">
        <ele>658</ele>
        <time>2021-11-26T04:37:45.000Z</time>
      </trkpt>
      <trkpt lat="45.20736" lon="5.72584">
        <ele>658.59997558594</ele>
        <time>2021-11-26T04:37:47.000Z</time>
      </trkpt>
      <trkpt lat="45.20739" lon="5.72588">
        <ele>659.40002441406</ele>
        <time>2021-11-26T04:37:51.000Z</time>
      </trkpt>
      <trkpt lat="45.2074" lon="5.7259">
        <ele>659.79998779297</ele>
        <time>2021-11-26T04:37:52.000Z</time>
      </trkpt>
      <trkpt lat="45.2074" lon="5.72592">
        <ele>660</ele>
        <time>2021-11-26T04:37:53.000Z</time>
      </trkpt>
      <trkpt lat="45.20743" lon="5.72601">
        <ele>661</ele>
        <time>2021-11-26T04:37:57.000Z</time>
      </trkpt>
      <trkpt lat="45.20744" lon="5.72603">
        <ele>661.40002441406</ele>
        <time>2021-11-26T04:37:58.000Z</time>
      </trkpt>
      <trkpt lat="45.20745" lon="5.72606">
        <ele>661.79998779297</ele>
        <time>2021-11-26T04:38:00.000Z</time>
      </trkpt>
      <trkpt lat="45.20746" lon="5.72608">
        <ele>662</ele>
        <time>2021-11-26T04:38:01.000Z</time>
      </trkpt>
      <trkpt lat="45.20747" lon="5.72614">
        <ele>663.20001220703</ele>
        <time>2021-11-26T04:38:04.000Z</time>
      </trkpt>
      <trkpt lat="45.20747" lon="5.72616">
        <ele>664</ele>
        <time>2021-11-26T04:38:08.000Z</time>
      </trkpt>
      <trkpt lat="45.20748" lon="5.72616">
        <ele>664.40002441406</ele>
        <time>2021-11-26T04:38:09.000Z</time>
      </trkpt>
      <trkpt lat="45.20753" lon="5.72615">
        <ele>665.40002441406</ele>
        <time>2021-11-26T04:38:14.000Z</time>
      </trkpt>
      <trkpt lat="45.20754" lon="5.72615">
        <ele>665.59997558594</ele>
        <time>2021-11-26T04:38:15.000Z</time>
      </trkpt>
      <trkpt lat="45.20756" lon="5.72615">
        <ele>666.59997558594</ele>
        <time>2021-11-26T04:38:18.000Z</time>
      </trkpt>
      <trkpt lat="45.20759" lon="5.72615">
        <ele>667.59997558594</ele>
        <time>2021-11-26T04:38:22.000Z</time>
      </trkpt>
      <trkpt lat="45.2076" lon="5.72614">
        <ele>668</ele>
        <time>2021-11-26T04:38:23.000Z</time>
      </trkpt>
      <trkpt lat="45.20763" lon="5.72612">
        <ele>668.59997558594</ele>
        <time>2021-11-26T04:38:26.000Z</time>
      </trkpt>
      <trkpt lat="45.20766" lon="5.7261">
        <ele>669</ele>
        <time>2021-11-26T04:38:29.000Z</time>
      </trkpt>
      <trkpt lat="45.20768" lon="5.72609">
        <ele>669.79998779297</ele>
        <time>2021-11-26T04:38:31.000Z</time>
      </trkpt>
      <trkpt lat="45.20772" lon="5.72608">
        <ele>670.79998779297</ele>
        <time>2021-11-26T04:38:34.000Z</time>
      </trkpt>
      <trkpt lat="45.20773" lon="5.72609">
        <ele>670.79998779297</ele>
        <time>2021-11-26T04:38:35.000Z</time>
      </trkpt>
      <trkpt lat="45.20773" lon="5.7261">
        <ele>671.20001220703</ele>
        <time>2021-11-26T04:38:36.000Z</time>
      </trkpt>
      <trkpt lat="45.20774" lon="5.72615">
        <ele>672.40002441406</ele>
        <time>2021-11-26T04:38:39.000Z</time>
      </trkpt>
      <trkpt lat="45.20775" lon="5.72616">
        <ele>672.59997558594</ele>
        <time>2021-11-26T04:38:40.000Z</time>
      </trkpt>
      <trkpt lat="45.20777" lon="5.72623">
        <ele>673.40002441406</ele>
        <time>2021-11-26T04:38:44.000Z</time>
      </trkpt>
      <trkpt lat="45.20777" lon="5.72624">
        <ele>673.79998779297</ele>
        <time>2021-11-26T04:38:45.000Z</time>
      </trkpt>
      <trkpt lat="45.20776" lon="5.72626">
        <ele>674</ele>
        <time>2021-11-26T04:38:46.000Z</time>
      </trkpt>
      <trkpt lat="45.20776" lon="5.72631">
        <ele>674.59997558594</ele>
        <time>2021-11-26T04:38:49.000Z</time>
      </trkpt>
      <trkpt lat="45.20777" lon="5.72637">
        <ele>675.79998779297</ele>
        <time>2021-11-26T04:38:53.000Z</time>
      </trkpt>
      <trkpt lat="45.20777" lon="5.72638">
        <ele>676</ele>
        <time>2021-11-26T04:38:54.000Z</time>
      </trkpt>
      <trkpt lat="45.20777" lon="5.7264">
        <ele>676.40002441406</ele>
        <time>2021-11-26T04:38:56.000Z</time>
      </trkpt>
      <trkpt lat="45.20776" lon="5.72643">
        <ele>677</ele>
        <time>2021-11-26T04:38:58.000Z</time>
      </trkpt>
      <trkpt lat="45.20776" lon="5.72646">
        <ele>678</ele>
        <time>2021-11-26T04:39:01.000Z</time>
      </trkpt>
      <trkpt lat="45.20776" lon="5.72645">
        <ele>678.40002441406</ele>
        <time>2021-11-26T04:39:02.000Z</time>
      </trkpt>
      <trkpt lat="45.20779" lon="5.72646">
        <ele>679</ele>
        <time>2021-11-26T04:39:05.000Z</time>
      </trkpt>
      <trkpt lat="45.20779" lon="5.72645">
        <ele>679.40002441406</ele>
        <time>2021-11-26T04:39:06.000Z</time>
      </trkpt>
      <trkpt lat="45.20781" lon="5.72643">
        <ele>680.20001220703</ele>
        <time>2021-11-26T04:39:08.000Z</time>
      </trkpt>
      <trkpt lat="45.20782" lon="5.72643">
        <ele>680.40002441406</ele>
        <time>2021-11-26T04:39:09.000Z</time>
      </trkpt>
      <trkpt lat="45.20783" lon="5.72642">
        <ele>680.79998779297</ele>
        <time>2021-11-26T04:39:10.000Z</time>
      </trkpt>
      <trkpt lat="45.20784" lon="5.7264">
        <ele>681.20001220703</ele>
        <time>2021-11-26T04:39:12.000Z</time>
      </trkpt>
      <trkpt lat="45.20784" lon="5.7264">
        <ele>681.20001220703</ele>
        <time>2021-11-26T04:39:13.000Z</time>
      </trkpt>
      <trkpt lat="45.20787" lon="5.72638">
        <ele>682.20001220703</ele>
        <time>2021-11-26T04:39:16.000Z</time>
      </trkpt>
      <trkpt lat="45.20791" lon="5.72636">
        <ele>683.40002441406</ele>
        <time>2021-11-26T04:39:20.000Z</time>
      </trkpt>
      <trkpt lat="45.20792" lon="5.72635">
        <ele>683.59997558594</ele>
        <time>2021-11-26T04:39:21.000Z</time>
      </trkpt>
      <trkpt lat="45.20793" lon="5.72633">
        <ele>684</ele>
        <time>2021-11-26T04:39:23.000Z</time>
      </trkpt>
      <trkpt lat="45.20794" lon="5.7263">
        <ele>684.59997558594</ele>
        <time>2021-11-26T04:39:25.000Z</time>
      </trkpt>
      <trkpt lat="45.20795" lon="5.72623">
        <ele>685.40002441406</ele>
        <time>2021-11-26T04:39:30.000Z</time>
      </trkpt>
      <trkpt lat="45.20796" lon="5.72622">
        <ele>685.59997558594</ele>
        <time>2021-11-26T04:39:31.000Z</time>
      </trkpt>
      <trkpt lat="45.20798" lon="5.72621">
        <ele>686.59997558594</ele>
        <time>2021-11-26T04:39:34.000Z</time>
      </trkpt>
      <trkpt lat="45.20798" lon="5.72624">
        <ele>687.20001220703</ele>
        <time>2021-11-26T04:39:36.000Z</time>
      </trkpt>
      <trkpt lat="45.20799" lon="5.72627">
        <ele>687.79998779297</ele>
        <time>2021-11-26T04:39:39.000Z</time>
      </trkpt>
      <trkpt lat="45.20802" lon="5.72632">
        <ele>688.79998779297</ele>
        <time>2021-11-26T04:39:43.000Z</time>
      </trkpt>
      <trkpt lat="45.20803" lon="5.72633">
        <ele>689</ele>
        <time>2021-11-26T04:39:44.000Z</time>
      </trkpt>
      <trkpt lat="45.20805" lon="5.72641">
        <ele>690.40002441406</ele>
        <time>2021-11-26T04:39:48.000Z</time>
      </trkpt>
      <trkpt lat="45.20805" lon="5.72643">
        <ele>691</ele>
        <time>2021-11-26T04:39:50.000Z</time>
      </trkpt>
      <trkpt lat="45.20806" lon="5.72645">
        <ele>691.40002441406</ele>
        <time>2021-11-26T04:39:52.000Z</time>
      </trkpt>
      <trkpt lat="45.20806" lon="5.72647">
        <ele>691.79998779297</ele>
        <time>2021-11-26T04:39:54.000Z</time>
      </trkpt>
      <trkpt lat="45.20807" lon="5.72653">
        <ele>692.59997558594</ele>
        <time>2021-11-26T04:39:57.000Z</time>
      </trkpt>
      <trkpt lat="45.20806" lon="5.72655">
        <ele>693.20001220703</ele>
        <time>2021-11-26T04:39:59.000Z</time>
      </trkpt>
      <trkpt lat="45.20807" lon="5.72657">
        <ele>693.59997558594</ele>
        <time>2021-11-26T04:40:01.000Z</time>
      </trkpt>
      <trkpt lat="45.20807" lon="5.72658">
        <ele>693.79998779297</ele>
        <time>2021-11-26T04:40:02.000Z</time>
      </trkpt>
      <trkpt lat="45.20808" lon="5.7266">
        <ele>694.40002441406</ele>
        <time>2021-11-26T04:40:04.000Z</time>
      </trkpt>
      <trkpt lat="45.20809" lon="5.72663">
        <ele>694.79998779297</ele>
        <time>2021-11-26T04:40:06.000Z</time>
      </trkpt>
      <trkpt lat="45.2081" lon="5.72667">
        <ele>695.79998779297</ele>
        <time>2021-11-26T04:40:09.000Z</time>
      </trkpt>
      <trkpt lat="45.2081" lon="5.72667">
        <ele>696</ele>
        <time>2021-11-26T04:40:10.000Z</time>
      </trkpt>
      <trkpt lat="45.20811" lon="5.72668">
        <ele>696.20001220703</ele>
        <time>2021-11-26T04:40:11.000Z</time>
      </trkpt>
      <trkpt lat="45.20813" lon="5.72666">
        <ele>697.20001220703</ele>
        <time>2021-11-26T04:40:14.000Z</time>
      </trkpt>
      <trkpt lat="45.20815" lon="5.72665">
        <ele>697.79998779297</ele>
        <time>2021-11-26T04:40:17.000Z</time>
      </trkpt>
      <trkpt lat="45.20818" lon="5.72663">
        <ele>698.40002441406</ele>
        <time>2021-11-26T04:40:20.000Z</time>
      </trkpt>
      <trkpt lat="45.20819" lon="5.72662">
        <ele>698.59997558594</ele>
        <time>2021-11-26T04:40:21.000Z</time>
      </trkpt>
      <trkpt lat="45.20821" lon="5.7266">
        <ele>699.40002441406</ele>
        <time>2021-11-26T04:40:23.000Z</time>
      </trkpt>
      <trkpt lat="45.20822" lon="5.7266">
        <ele>699.59997558594</ele>
        <time>2021-11-26T04:40:24.000Z</time>
      </trkpt>
      <trkpt lat="45.20822" lon="5.72659">
        <ele>699.79998779297</ele>
        <time>2021-11-26T04:40:25.000Z</time>
      </trkpt>
      <trkpt lat="45.20822" lon="5.72658">
        <ele>699.79998779297</ele>
        <time>2021-11-26T04:40:26.000Z</time>
      </trkpt>
      <trkpt lat="45.20824" lon="5.72654">
        <ele>700.20001220703</ele>
        <time>2021-11-26T04:40:29.000Z</time>
      </trkpt>
      <trkpt lat="45.20824" lon="5.72653">
        <ele>700.59997558594</ele>
        <time>2021-11-26T04:40:30.000Z</time>
      </trkpt>
      <trkpt lat="45.20826" lon="5.72651">
        <ele>701.20001220703</ele>
        <time>2021-11-26T04:40:32.000Z</time>
      </trkpt>
      <trkpt lat="45.20828" lon="5.72651">
        <ele>701.59997558594</ele>
        <time>2021-11-26T04:40:34.000Z</time>
      </trkpt>
      <trkpt lat="45.20831" lon="5.72657">
        <ele>703</ele>
        <time>2021-11-26T04:40:38.000Z</time>
      </trkpt>
      <trkpt lat="45.20833" lon="5.72659">
        <ele>703.59997558594</ele>
        <time>2021-11-26T04:40:41.000Z</time>
      </trkpt>
      <trkpt lat="45.20834" lon="5.72661">
        <ele>704.20001220703</ele>
        <time>2021-11-26T04:40:43.000Z</time>
      </trkpt>
      <trkpt lat="45.20836" lon="5.72665">
        <ele>705.20001220703</ele>
        <time>2021-11-26T04:40:46.000Z</time>
      </trkpt>
      <trkpt lat="45.20837" lon="5.72667">
        <ele>705.59997558594</ele>
        <time>2021-11-26T04:40:47.000Z</time>
      </trkpt>
      <trkpt lat="45.20836" lon="5.72672">
        <ele>706.59997558594</ele>
        <time>2021-11-26T04:40:50.000Z</time>
      </trkpt>
      <trkpt lat="45.20836" lon="5.72673">
        <ele>706.79998779297</ele>
        <time>2021-11-26T04:40:51.000Z</time>
      </trkpt>
      <trkpt lat="45.20835" lon="5.7268">
        <ele>707.79998779297</ele>
        <time>2021-11-26T04:40:56.000Z</time>
      </trkpt>
      <trkpt lat="45.20835" lon="5.72686">
        <ele>708.59997558594</ele>
        <time>2021-11-26T04:40:59.000Z</time>
      </trkpt>
      <trkpt lat="45.20836" lon="5.72687">
        <ele>708.79998779297</ele>
        <time>2021-11-26T04:41:00.000Z</time>
      </trkpt>
      <trkpt lat="45.20837" lon="5.72688">
        <ele>709</ele>
        <time>2021-11-26T04:41:01.000Z</time>
      </trkpt>
      <trkpt lat="45.20837" lon="5.72693">
        <ele>710</ele>
        <time>2021-11-26T04:41:05.000Z</time>
      </trkpt>
      <trkpt lat="45.20838" lon="5.72694">
        <ele>710.40002441406</ele>
        <time>2021-11-26T04:41:06.000Z</time>
      </trkpt>
      <trkpt lat="45.20839" lon="5.72693">
        <ele>711.20001220703</ele>
        <time>2021-11-26T04:41:09.000Z</time>
      </trkpt>
      <trkpt lat="45.20839" lon="5.72693">
        <ele>711.40002441406</ele>
        <time>2021-11-26T04:41:10.000Z</time>
      </trkpt>
      <trkpt lat="45.20841" lon="5.72693">
        <ele>712</ele>
        <time>2021-11-26T04:41:12.000Z</time>
      </trkpt>
      <trkpt lat="45.20843" lon="5.72692">
        <ele>712.40002441406</ele>
        <time>2021-11-26T04:41:14.000Z</time>
      </trkpt>
      <trkpt lat="45.20845" lon="5.72692">
        <ele>713</ele>
        <time>2021-11-26T04:41:17.000Z</time>
      </trkpt>
      <trkpt lat="45.20848" lon="5.72692">
        <ele>713.79998779297</ele>
        <time>2021-11-26T04:41:20.000Z</time>
      </trkpt>
      <trkpt lat="45.20851" lon="5.7269">
        <ele>714.79998779297</ele>
        <time>2021-11-26T04:41:23.000Z</time>
      </trkpt>
      <trkpt lat="45.20852" lon="5.7269">
        <ele>715.20001220703</ele>
        <time>2021-11-26T04:41:25.000Z</time>
      </trkpt>
      <trkpt lat="45.20856" lon="5.72689">
        <ele>715.79998779297</ele>
        <time>2021-11-26T04:41:28.000Z</time>
      </trkpt>
      <trkpt lat="45.20857" lon="5.72689">
        <ele>716.20001220703</ele>
        <time>2021-11-26T04:41:29.000Z</time>
      </trkpt>
      <trkpt lat="45.20861" lon="5.72688">
        <ele>716.79998779297</ele>
        <time>2021-11-26T04:41:32.000Z</time>
      </trkpt>
      <trkpt lat="45.20864" lon="5.72688">
        <ele>717.40002441406</ele>
        <time>2021-11-26T04:41:35.000Z</time>
      </trkpt>
      <trkpt lat="45.20866" lon="5.72688">
        <ele>717.79998779297</ele>
        <time>2021-11-26T04:41:37.000Z</time>
      </trkpt>
      <trkpt lat="45.20866" lon="5.72687">
        <ele>718</ele>
        <time>2021-11-26T04:41:38.000Z</time>
      </trkpt>
      <trkpt lat="45.20869" lon="5.72687">
        <ele>718.20001220703</ele>
        <time>2021-11-26T04:41:40.000Z</time>
      </trkpt>
      <trkpt lat="45.2087" lon="5.72687">
        <ele>718.79998779297</ele>
        <time>2021-11-26T04:41:41.000Z</time>
      </trkpt>
      <trkpt lat="45.20876" lon="5.72684">
        <ele>719.59997558594</ele>
        <time>2021-11-26T04:41:45.000Z</time>
      </trkpt>
      <trkpt lat="45.20878" lon="5.72684">
        <ele>719.79998779297</ele>
        <time>2021-11-26T04:41:46.000Z</time>
      </trkpt>
      <trkpt lat="45.20884" lon="5.72681">
        <ele>721</ele>
        <time>2021-11-26T04:41:52.000Z</time>
      </trkpt>
      <trkpt lat="45.20889" lon="5.72677">
        <ele>722.20001220703</ele>
        <time>2021-11-26T04:41:57.000Z</time>
      </trkpt>
      <trkpt lat="45.20891" lon="5.72676">
        <ele>722.40002441406</ele>
        <time>2021-11-26T04:41:59.000Z</time>
      </trkpt>
      <trkpt lat="45.20893" lon="5.72675">
        <ele>723</ele>
        <time>2021-11-26T04:42:00.000Z</time>
      </trkpt>
      <trkpt lat="45.20894" lon="5.72674">
        <ele>723.20001220703</ele>
        <time>2021-11-26T04:42:01.000Z</time>
      </trkpt>
      <trkpt lat="45.20896" lon="5.72674">
        <ele>723.79998779297</ele>
        <time>2021-11-26T04:42:04.000Z</time>
      </trkpt>
      <trkpt lat="45.20898" lon="5.72673">
        <ele>724.20001220703</ele>
        <time>2021-11-26T04:42:06.000Z</time>
      </trkpt>
      <trkpt lat="45.20899" lon="5.72673">
        <ele>724.59997558594</ele>
        <time>2021-11-26T04:42:07.000Z</time>
      </trkpt>
      <trkpt lat="45.209" lon="5.72672">
        <ele>725.40002441406</ele>
        <time>2021-11-26T04:42:09.000Z</time>
      </trkpt>
      <trkpt lat="45.20901" lon="5.72672">
        <ele>725.79998779297</ele>
        <time>2021-11-26T04:42:10.000Z</time>
      </trkpt>
      <trkpt lat="45.20901" lon="5.72671">
        <ele>726</ele>
        <time>2021-11-26T04:42:11.000Z</time>
      </trkpt>
      <trkpt lat="45.20902" lon="5.72671">
        <ele>726.40002441406</ele>
        <time>2021-11-26T04:42:13.000Z</time>
      </trkpt>
      <trkpt lat="45.20904" lon="5.72671">
        <ele>726.79998779297</ele>
        <time>2021-11-26T04:42:15.000Z</time>
      </trkpt>
      <trkpt lat="45.20909" lon="5.72671">
        <ele>728</ele>
        <time>2021-11-26T04:42:19.000Z</time>
      </trkpt>
      <trkpt lat="45.20911" lon="5.72671">
        <ele>728.59997558594</ele>
        <time>2021-11-26T04:42:21.000Z</time>
      </trkpt>
      <trkpt lat="45.20912" lon="5.72672">
        <ele>729</ele>
        <time>2021-11-26T04:42:22.000Z</time>
      </trkpt>
      <trkpt lat="45.20913" lon="5.72672">
        <ele>729.20001220703</ele>
        <time>2021-11-26T04:42:23.000Z</time>
      </trkpt>
      <trkpt lat="45.20918" lon="5.72673">
        <ele>730.20001220703</ele>
        <time>2021-11-26T04:42:28.000Z</time>
      </trkpt>
      <trkpt lat="45.20919" lon="5.72674">
        <ele>730.59997558594</ele>
        <time>2021-11-26T04:42:29.000Z</time>
      </trkpt>
      <trkpt lat="45.2092" lon="5.72676">
        <ele>730.79998779297</ele>
        <time>2021-11-26T04:42:30.000Z</time>
      </trkpt>
      <trkpt lat="45.20921" lon="5.72677">
        <ele>731.40002441406</ele>
        <time>2021-11-26T04:42:32.000Z</time>
      </trkpt>
      <trkpt lat="45.20924" lon="5.72679">
        <ele>731.79998779297</ele>
        <time>2021-11-26T04:42:34.000Z</time>
      </trkpt>
      <trkpt lat="45.20925" lon="5.7268">
        <ele>732.20001220703</ele>
        <time>2021-11-26T04:42:35.000Z</time>
      </trkpt>
      <trkpt lat="45.20926" lon="5.72681">
        <ele>732.40002441406</ele>
        <time>2021-11-26T04:42:36.000Z</time>
      </trkpt>
      <trkpt lat="45.2093" lon="5.72683">
        <ele>733</ele>
        <time>2021-11-26T04:42:40.000Z</time>
      </trkpt>
      <trkpt lat="45.20932" lon="5.72683">
        <ele>733.59997558594</ele>
        <time>2021-11-26T04:42:42.000Z</time>
      </trkpt>
      <trkpt lat="45.20935" lon="5.72685">
        <ele>734.20001220703</ele>
        <time>2021-11-26T04:42:45.000Z</time>
      </trkpt>
      <trkpt lat="45.20936" lon="5.72688">
        <ele>734.59997558594</ele>
        <time>2021-11-26T04:42:47.000Z</time>
      </trkpt>
      <trkpt lat="45.20937" lon="5.72689">
        <ele>735</ele>
        <time>2021-11-26T04:42:48.000Z</time>
      </trkpt>
      <trkpt lat="45.2094" lon="5.72692">
        <ele>735.40002441406</ele>
        <time>2021-11-26T04:42:51.000Z</time>
      </trkpt>
      <trkpt lat="45.20941" lon="5.72694">
        <ele>736</ele>
        <time>2021-11-26T04:42:53.000Z</time>
      </trkpt>
      <trkpt lat="45.20944" lon="5.727">
        <ele>737</ele>
        <time>2021-11-26T04:42:58.000Z</time>
      </trkpt>
      <trkpt lat="45.20946" lon="5.72702">
        <ele>737.59997558594</ele>
        <time>2021-11-26T04:43:00.000Z</time>
      </trkpt>
      <trkpt lat="45.20947" lon="5.72704">
        <ele>738.20001220703</ele>
        <time>2021-11-26T04:43:02.000Z</time>
      </trkpt>
      <trkpt lat="45.20954" lon="5.72709">
        <ele>739.59997558594</ele>
        <time>2021-11-26T04:43:07.000Z</time>
      </trkpt>
      <trkpt lat="45.20959" lon="5.72712">
        <ele>741</ele>
        <time>2021-11-26T04:43:12.000Z</time>
      </trkpt>
      <trkpt lat="45.20962" lon="5.72712">
        <ele>741.79998779297</ele>
        <time>2021-11-26T04:43:15.000Z</time>
      </trkpt>
      <trkpt lat="45.20963" lon="5.72713">
        <ele>742</ele>
        <time>2021-11-26T04:43:16.000Z</time>
      </trkpt>
      <trkpt lat="45.20964" lon="5.72713">
        <ele>742.20001220703</ele>
        <time>2021-11-26T04:43:17.000Z</time>
      </trkpt>
      <trkpt lat="45.20965" lon="5.72713">
        <ele>742.59997558594</ele>
        <time>2021-11-26T04:43:19.000Z</time>
      </trkpt>
      <trkpt lat="45.20966" lon="5.72714">
        <ele>743</ele>
        <time>2021-11-26T04:43:20.000Z</time>
      </trkpt>
      <trkpt lat="45.20966" lon="5.72716">
        <ele>743.20001220703</ele>
        <time>2021-11-26T04:43:21.000Z</time>
      </trkpt>
      <trkpt lat="45.20967" lon="5.72718">
        <ele>744.20001220703</ele>
        <time>2021-11-26T04:43:25.000Z</time>
      </trkpt>
      <trkpt lat="45.20967" lon="5.72719">
        <ele>744.59997558594</ele>
        <time>2021-11-26T04:43:26.000Z</time>
      </trkpt>
      <trkpt lat="45.20969" lon="5.72723">
        <ele>745.79998779297</ele>
        <time>2021-11-26T04:43:29.000Z</time>
      </trkpt>
      <trkpt lat="45.2097" lon="5.72727">
        <ele>746.79998779297</ele>
        <time>2021-11-26T04:43:32.000Z</time>
      </trkpt>
      <trkpt lat="45.20971" lon="5.72728">
        <ele>747</ele>
        <time>2021-11-26T04:43:33.000Z</time>
      </trkpt>
      <trkpt lat="45.20973" lon="5.7273">
        <ele>748</ele>
        <time>2021-11-26T04:43:37.000Z</time>
      </trkpt>
      <trkpt lat="45.20974" lon="5.72731">
        <ele>748.40002441406</ele>
        <time>2021-11-26T04:43:38.000Z</time>
      </trkpt>
      <trkpt lat="45.20976" lon="5.72733">
        <ele>748.79998779297</ele>
        <time>2021-11-26T04:43:40.000Z</time>
      </trkpt>
      <trkpt lat="45.20976" lon="5.72733">
        <ele>749.20001220703</ele>
        <time>2021-11-26T04:43:41.000Z</time>
      </trkpt>
      <trkpt lat="45.20977" lon="5.72734">
        <ele>749.79998779297</ele>
        <time>2021-11-26T04:43:43.000Z</time>
      </trkpt>
      <trkpt lat="45.20979" lon="5.72736">
        <ele>750.40002441406</ele>
        <time>2021-11-26T04:43:45.000Z</time>
      </trkpt>
      <trkpt lat="45.20979" lon="5.72736">
        <ele>751</ele>
        <time>2021-11-26T04:43:46.000Z</time>
      </trkpt>
      <trkpt lat="45.2098" lon="5.72737">
        <ele>751.20001220703</ele>
        <time>2021-11-26T04:43:47.000Z</time>
      </trkpt>
      <trkpt lat="45.2098" lon="5.72739">
        <ele>751.59997558594</ele>
        <time>2021-11-26T04:43:48.000Z</time>
      </trkpt>
      <trkpt lat="45.20981" lon="5.7274">
        <ele>752</ele>
        <time>2021-11-26T04:43:50.000Z</time>
      </trkpt>
      <trkpt lat="45.20982" lon="5.72742">
        <ele>752.20001220703</ele>
        <time>2021-11-26T04:43:52.000Z</time>
      </trkpt>
      <trkpt lat="45.20984" lon="5.72742">
        <ele>752.59997558594</ele>
        <time>2021-11-26T04:43:54.000Z</time>
      </trkpt>
      <trkpt lat="45.20985" lon="5.72743">
        <ele>753.20001220703</ele>
        <time>2021-11-26T04:43:55.000Z</time>
      </trkpt>
      <trkpt lat="45.20985" lon="5.72745">
        <ele>754</ele>
        <time>2021-11-26T04:43:57.000Z</time>
      </trkpt>
      <trkpt lat="45.20986" lon="5.72746">
        <ele>754.20001220703</ele>
        <time>2021-11-26T04:43:58.000Z</time>
      </trkpt>
      <trkpt lat="45.20988" lon="5.72749">
        <ele>755</ele>
        <time>2021-11-26T04:44:02.000Z</time>
      </trkpt>
      <trkpt lat="45.2099" lon="5.72751">
        <ele>756</ele>
        <time>2021-11-26T04:44:05.000Z</time>
      </trkpt>
      <trkpt lat="45.20991" lon="5.72753">
        <ele>756.79998779297</ele>
        <time>2021-11-26T04:44:07.000Z</time>
      </trkpt>
      <trkpt lat="45.20992" lon="5.72754">
        <ele>757.20001220703</ele>
        <time>2021-11-26T04:44:08.000Z</time>
      </trkpt>
      <trkpt lat="45.20993" lon="5.72755">
        <ele>758.20001220703</ele>
        <time>2021-11-26T04:44:11.000Z</time>
      </trkpt>
      <trkpt lat="45.20993" lon="5.72755">
        <ele>758.40002441406</ele>
        <time>2021-11-26T04:44:12.000Z</time>
      </trkpt>
      <trkpt lat="45.20991" lon="5.72752">
        <ele>759.20001220703</ele>
        <time>2021-11-26T04:44:16.000Z</time>
      </trkpt>
      <trkpt lat="45.20991" lon="5.72751">
        <ele>759.59997558594</ele>
        <time>2021-11-26T04:44:18.000Z</time>
      </trkpt>
      <trkpt lat="45.20992" lon="5.72751">
        <ele>760</ele>
        <time>2021-11-26T04:44:19.000Z</time>
      </trkpt>
      <trkpt lat="45.20992" lon="5.72751">
        <ele>760.40002441406</ele>
        <time>2021-11-26T04:44:21.000Z</time>
      </trkpt>
      <trkpt lat="45.20993" lon="5.72751">
        <ele>760.79998779297</ele>
        <time>2021-11-26T04:44:22.000Z</time>
      </trkpt>
      <trkpt lat="45.20994" lon="5.7275">
        <ele>761</ele>
        <time>2021-11-26T04:44:23.000Z</time>
      </trkpt>
      <trkpt lat="45.20995" lon="5.7275">
        <ele>761.40002441406</ele>
        <time>2021-11-26T04:44:25.000Z</time>
      </trkpt>
      <trkpt lat="45.20996" lon="5.72749">
        <ele>761.79998779297</ele>
        <time>2021-11-26T04:44:27.000Z</time>
      </trkpt>
      <trkpt lat="45.20998" lon="5.72748">
        <ele>763</ele>
        <time>2021-11-26T04:44:30.000Z</time>
      </trkpt>
      <trkpt lat="45.20999" lon="5.72745">
        <ele>764.20001220703</ele>
        <time>2021-11-26T04:44:34.000Z</time>
      </trkpt>
      <trkpt lat="45.20999" lon="5.72744">
        <ele>764.40002441406</ele>
        <time>2021-11-26T04:44:35.000Z</time>
      </trkpt>
      <trkpt lat="45.21002" lon="5.72743">
        <ele>765.40002441406</ele>
        <time>2021-11-26T04:44:39.000Z</time>
      </trkpt>
      <trkpt lat="45.21004" lon="5.72744">
        <ele>766</ele>
        <time>2021-11-26T04:44:41.000Z</time>
      </trkpt>
      <trkpt lat="45.21005" lon="5.72744">
        <ele>766.40002441406</ele>
        <time>2021-11-26T04:44:42.000Z</time>
      </trkpt>
      <trkpt lat="45.21008" lon="5.72741">
        <ele>767.79998779297</ele>
        <time>2021-11-26T04:44:46.000Z</time>
      </trkpt>
      <trkpt lat="45.21009" lon="5.72741">
        <ele>768</ele>
        <time>2021-11-26T04:44:47.000Z</time>
      </trkpt>
      <trkpt lat="45.21013" lon="5.72739">
        <ele>768.79998779297</ele>
        <time>2021-11-26T04:44:52.000Z</time>
      </trkpt>
      <trkpt lat="45.21013" lon="5.72739">
        <ele>769</ele>
        <time>2021-11-26T04:44:53.000Z</time>
      </trkpt>
      <trkpt lat="45.21014" lon="5.72739">
        <ele>769.40002441406</ele>
        <time>2021-11-26T04:44:54.000Z</time>
      </trkpt>
      <trkpt lat="45.21015" lon="5.72739">
        <ele>769.59997558594</ele>
        <time>2021-11-26T04:44:56.000Z</time>
      </trkpt>
      <trkpt lat="45.21016" lon="5.7274">
        <ele>769.79998779297</ele>
        <time>2021-11-26T04:44:57.000Z</time>
      </trkpt>
      <trkpt lat="45.21016" lon="5.72741">
        <ele>770.20001220703</ele>
        <time>2021-11-26T04:44:58.000Z</time>
      </trkpt>
      <trkpt lat="45.21018" lon="5.72742">
        <ele>771.20001220703</ele>
        <time>2021-11-26T04:45:00.000Z</time>
      </trkpt>
      <trkpt lat="45.2102" lon="5.72742">
        <ele>771.79998779297</ele>
        <time>2021-11-26T04:45:02.000Z</time>
      </trkpt>
      <trkpt lat="45.2102" lon="5.7274">
        <ele>772.20001220703</ele>
        <time>2021-11-26T04:45:04.000Z</time>
      </trkpt>
      <trkpt lat="45.21026" lon="5.72738">
        <ele>773.59997558594</ele>
        <time>2021-11-26T04:45:10.000Z</time>
      </trkpt>
      <trkpt lat="45.21027" lon="5.72737">
        <ele>774</ele>
        <time>2021-11-26T04:45:12.000Z</time>
      </trkpt>
      <trkpt lat="45.21028" lon="5.72737">
        <ele>774.59997558594</ele>
        <time>2021-11-26T04:45:14.000Z</time>
      </trkpt>
      <trkpt lat="45.21029" lon="5.72737">
        <ele>775.20001220703</ele>
        <time>2021-11-26T04:45:16.000Z</time>
      </trkpt>
      <trkpt lat="45.2103" lon="5.72737">
        <ele>775.59997558594</ele>
        <time>2021-11-26T04:45:18.000Z</time>
      </trkpt>
      <trkpt lat="45.21032" lon="5.72737">
        <ele>775.79998779297</ele>
        <time>2021-11-26T04:45:19.000Z</time>
      </trkpt>
      <trkpt lat="45.21036" lon="5.72738">
        <ele>777.20001220703</ele>
        <time>2021-11-26T04:45:24.000Z</time>
      </trkpt>
      <trkpt lat="45.21039" lon="5.72739">
        <ele>778.20001220703</ele>
        <time>2021-11-26T04:45:28.000Z</time>
      </trkpt>
      <trkpt lat="45.21041" lon="5.72739">
        <ele>779</ele>
        <time>2021-11-26T04:45:30.000Z</time>
      </trkpt>
      <trkpt lat="45.21042" lon="5.7274">
        <ele>779.40002441406</ele>
        <time>2021-11-26T04:45:31.000Z</time>
      </trkpt>
      <trkpt lat="45.21044" lon="5.7274">
        <ele>779.59997558594</ele>
        <time>2021-11-26T04:45:32.000Z</time>
      </trkpt>
      <trkpt lat="45.2105" lon="5.72743">
        <ele>780.40002441406</ele>
        <time>2021-11-26T04:45:37.000Z</time>
      </trkpt>
      <trkpt lat="45.21052" lon="5.72745">
        <ele>780.59997558594</ele>
        <time>2021-11-26T04:45:38.000Z</time>
      </trkpt>
      <trkpt lat="45.21052" lon="5.72749">
        <ele>781.20001220703</ele>
        <time>2021-11-26T04:45:40.000Z</time>
      </trkpt>
      <trkpt lat="45.21054" lon="5.72756">
        <ele>781.79998779297</ele>
        <time>2021-11-26T04:45:44.000Z</time>
      </trkpt>
      <trkpt lat="45.21057" lon="5.72763">
        <ele>782</ele>
        <time>2021-11-26T04:45:48.000Z</time>
      </trkpt>
      <trkpt lat="45.21059" lon="5.72769">
        <ele>782.40002441406</ele>
        <time>2021-11-26T04:45:51.000Z</time>
      </trkpt>
      <trkpt lat="45.2106" lon="5.72778">
        <ele>782.79998779297</ele>
        <time>2021-11-26T04:45:55.000Z</time>
      </trkpt>
      <trkpt lat="45.21061" lon="5.72784">
        <ele>783</ele>
        <time>2021-11-26T04:45:58.000Z</time>
      </trkpt>
      <trkpt lat="45.21062" lon="5.72788">
        <ele>783</ele>
        <time>2021-11-26T04:46:00.000Z</time>
      </trkpt>
      <trkpt lat="45.21062" lon="5.72791">
        <ele>783</ele>
        <time>2021-11-26T04:46:01.000Z</time>
      </trkpt>
      <trkpt lat="45.21063" lon="5.72796">
        <ele>783.20001220703</ele>
        <time>2021-11-26T04:46:03.000Z</time>
      </trkpt>
      <trkpt lat="45.21066" lon="5.72805">
        <ele>783.40002441406</ele>
        <time>2021-11-26T04:46:07.000Z</time>
      </trkpt>
      <trkpt lat="45.21069" lon="5.7282">
        <ele>783.79998779297</ele>
        <time>2021-11-26T04:46:13.000Z</time>
      </trkpt>
      <trkpt lat="45.2107" lon="5.72821">
        <ele>784</ele>
        <time>2021-11-26T04:46:14.000Z</time>
      </trkpt>
      <trkpt lat="45.21073" lon="5.72827">
        <ele>784.40002441406</ele>
        <time>2021-11-26T04:46:17.000Z</time>
      </trkpt>
      <trkpt lat="45.21076" lon="5.72833">
        <ele>785</ele>
        <time>2021-11-26T04:46:21.000Z</time>
      </trkpt>
      <trkpt lat="45.21077" lon="5.72835">
        <ele>785.20001220703</ele>
        <time>2021-11-26T04:46:22.000Z</time>
      </trkpt>
      <trkpt lat="45.21081" lon="5.72842">
        <ele>785.79998779297</ele>
        <time>2021-11-26T04:46:26.000Z</time>
      </trkpt>
      <trkpt lat="45.21083" lon="5.72845">
        <ele>786.20001220703</ele>
        <time>2021-11-26T04:46:28.000Z</time>
      </trkpt>
      <trkpt lat="45.21085" lon="5.72847">
        <ele>786.40002441406</ele>
        <time>2021-11-26T04:46:29.000Z</time>
      </trkpt>
      <trkpt lat="45.21088" lon="5.7285">
        <ele>786.79998779297</ele>
        <time>2021-11-26T04:46:32.000Z</time>
      </trkpt>
      <trkpt lat="45.21091" lon="5.72852">
        <ele>787.20001220703</ele>
        <time>2021-11-26T04:46:35.000Z</time>
      </trkpt>
      <trkpt lat="45.21092" lon="5.72852">
        <ele>787.20001220703</ele>
        <time>2021-11-26T04:46:36.000Z</time>
      </trkpt>
      <trkpt lat="45.21094" lon="5.72853">
        <ele>787.59997558594</ele>
        <time>2021-11-26T04:46:37.000Z</time>
      </trkpt>
      <trkpt lat="45.21096" lon="5.72854">
        <ele>788.40002441406</ele>
        <time>2021-11-26T04:46:39.000Z</time>
      </trkpt>
      <trkpt lat="45.21097" lon="5.72855">
        <ele>788.79998779297</ele>
        <time>2021-11-26T04:46:40.000Z</time>
      </trkpt>
      <trkpt lat="45.21097" lon="5.72857">
        <ele>789</ele>
        <time>2021-11-26T04:46:41.000Z</time>
      </trkpt>
      <trkpt lat="45.211" lon="5.72861">
        <ele>789.40002441406</ele>
        <time>2021-11-26T04:46:44.000Z</time>
      </trkpt>
      <trkpt lat="45.21101" lon="5.72864">
        <ele>790</ele>
        <time>2021-11-26T04:46:46.000Z</time>
      </trkpt>
      <trkpt lat="45.21104" lon="5.72865">
        <ele>790.40002441406</ele>
        <time>2021-11-26T04:46:49.000Z</time>
      </trkpt>
      <trkpt lat="45.21104" lon="5.72867">
        <ele>790.59997558594</ele>
        <time>2021-11-26T04:46:50.000Z</time>
      </trkpt>
      <trkpt lat="45.21105" lon="5.72868">
        <ele>790.59997558594</ele>
        <time>2021-11-26T04:46:51.000Z</time>
      </trkpt>
      <trkpt lat="45.21106" lon="5.72871">
        <ele>791.20001220703</ele>
        <time>2021-11-26T04:46:53.000Z</time>
      </trkpt>
      <trkpt lat="45.21111" lon="5.72872">
        <ele>791.59997558594</ele>
        <time>2021-11-26T04:46:55.000Z</time>
      </trkpt>
      <trkpt lat="45.21115" lon="5.72877">
        <ele>792.20001220703</ele>
        <time>2021-11-26T04:46:58.000Z</time>
      </trkpt>
      <trkpt lat="45.21119" lon="5.72877">
        <ele>792.59997558594</ele>
        <time>2021-11-26T04:47:01.000Z</time>
      </trkpt>
      <trkpt lat="45.21121" lon="5.72878">
        <ele>793.20001220703</ele>
        <time>2021-11-26T04:47:03.000Z</time>
      </trkpt>
      <trkpt lat="45.21123" lon="5.7288">
        <ele>793.79998779297</ele>
        <time>2021-11-26T04:47:06.000Z</time>
      </trkpt>
      <trkpt lat="45.21127" lon="5.72881">
        <ele>794</ele>
        <time>2021-11-26T04:47:08.000Z</time>
      </trkpt>
      <trkpt lat="45.21128" lon="5.72882">
        <ele>794.40002441406</ele>
        <time>2021-11-26T04:47:09.000Z</time>
      </trkpt>
      <trkpt lat="45.21132" lon="5.72884">
        <ele>795</ele>
        <time>2021-11-26T04:47:11.000Z</time>
      </trkpt>
      <trkpt lat="45.21136" lon="5.72886">
        <ele>795.79998779297</ele>
        <time>2021-11-26T04:47:14.000Z</time>
      </trkpt>
      <trkpt lat="45.21137" lon="5.72886">
        <ele>796</ele>
        <time>2021-11-26T04:47:15.000Z</time>
      </trkpt>
      <trkpt lat="45.21142" lon="5.72887">
        <ele>797.59997558594</ele>
        <time>2021-11-26T04:47:20.000Z</time>
      </trkpt>
      <trkpt lat="45.21147" lon="5.72888">
        <ele>799</ele>
        <time>2021-11-26T04:47:25.000Z</time>
      </trkpt>
      <trkpt lat="45.21152" lon="5.72891">
        <ele>799.79998779297</ele>
        <time>2021-11-26T04:47:28.000Z</time>
      </trkpt>
      <trkpt lat="45.21155" lon="5.72893">
        <ele>800.20001220703</ele>
        <time>2021-11-26T04:47:30.000Z</time>
      </trkpt>
      <trkpt lat="45.21162" lon="5.72896">
        <ele>801</ele>
        <time>2021-11-26T04:47:34.000Z</time>
      </trkpt>
      <trkpt lat="45.21165" lon="5.72896">
        <ele>801.40002441406</ele>
        <time>2021-11-26T04:47:36.000Z</time>
      </trkpt>
      <trkpt lat="45.21168" lon="5.72897">
        <ele>801.79998779297</ele>
        <time>2021-11-26T04:47:38.000Z</time>
      </trkpt>
      <trkpt lat="45.21172" lon="5.72897">
        <ele>802.20001220703</ele>
        <time>2021-11-26T04:47:40.000Z</time>
      </trkpt>
      <trkpt lat="45.21174" lon="5.72898">
        <ele>802.40002441406</ele>
        <time>2021-11-26T04:47:41.000Z</time>
      </trkpt>
      <trkpt lat="45.21175" lon="5.72899">
        <ele>802.59997558594</ele>
        <time>2021-11-26T04:47:42.000Z</time>
      </trkpt>
      <trkpt lat="45.21177" lon="5.72901">
        <ele>803.40002441406</ele>
        <time>2021-11-26T04:47:44.000Z</time>
      </trkpt>
      <trkpt lat="45.21179" lon="5.72903">
        <ele>804</ele>
        <time>2021-11-26T04:47:46.000Z</time>
      </trkpt>
      <trkpt lat="45.21182" lon="5.72905">
        <ele>804.59997558594</ele>
        <time>2021-11-26T04:47:48.000Z</time>
      </trkpt>
      <trkpt lat="45.21185" lon="5.7291">
        <ele>805.79998779297</ele>
        <time>2021-11-26T04:47:52.000Z</time>
      </trkpt>
      <trkpt lat="45.21186" lon="5.72911">
        <ele>806</ele>
        <time>2021-11-26T04:47:53.000Z</time>
      </trkpt>
      <trkpt lat="45.21189" lon="5.72916">
        <ele>806.79998779297</ele>
        <time>2021-11-26T04:47:57.000Z</time>
      </trkpt>
      <trkpt lat="45.21191" lon="5.72917">
        <ele>807</ele>
        <time>2021-11-26T04:47:58.000Z</time>
      </trkpt>
      <trkpt lat="45.21194" lon="5.72924">
        <ele>807.79998779297</ele>
        <time>2021-11-26T04:48:02.000Z</time>
      </trkpt>
      <trkpt lat="45.21195" lon="5.72925">
        <ele>808</ele>
        <time>2021-11-26T04:48:03.000Z</time>
      </trkpt>
      <trkpt lat="45.21198" lon="5.72927">
        <ele>808.59997558594</ele>
        <time>2021-11-26T04:48:05.000Z</time>
      </trkpt>
      <trkpt lat="45.21199" lon="5.7293">
        <ele>808.79998779297</ele>
        <time>2021-11-26T04:48:07.000Z</time>
      </trkpt>
      <trkpt lat="45.21201" lon="5.72936">
        <ele>809.59997558594</ele>
        <time>2021-11-26T04:48:10.000Z</time>
      </trkpt>
      <trkpt lat="45.21204" lon="5.72939">
        <ele>810</ele>
        <time>2021-11-26T04:48:12.000Z</time>
      </trkpt>
      <trkpt lat="45.21208" lon="5.72944">
        <ele>810.79998779297</ele>
        <time>2021-11-26T04:48:16.000Z</time>
      </trkpt>
      <trkpt lat="45.21209" lon="5.72944">
        <ele>811</ele>
        <time>2021-11-26T04:48:17.000Z</time>
      </trkpt>
      <trkpt lat="45.2121" lon="5.72945">
        <ele>811.20001220703</ele>
        <time>2021-11-26T04:48:18.000Z</time>
      </trkpt>
      <trkpt lat="45.21214" lon="5.72945">
        <ele>811.79998779297</ele>
        <time>2021-11-26T04:48:21.000Z</time>
      </trkpt>
      <trkpt lat="45.21214" lon="5.72944">
        <ele>812.40002441406</ele>
        <time>2021-11-26T04:48:23.000Z</time>
      </trkpt>
      <trkpt lat="45.21213" lon="5.72944">
        <ele>812.59997558594</ele>
        <time>2021-11-26T04:48:24.000Z</time>
      </trkpt>
      <trkpt lat="45.21211" lon="5.72943">
        <ele>813.40002441406</ele>
        <time>2021-11-26T04:48:27.000Z</time>
      </trkpt>
      <trkpt lat="45.2121" lon="5.72942">
        <ele>813.59997558594</ele>
        <time>2021-11-26T04:48:28.000Z</time>
      </trkpt>
      <trkpt lat="45.21208" lon="5.72937">
        <ele>814.40002441406</ele>
        <time>2021-11-26T04:48:31.000Z</time>
      </trkpt>
      <trkpt lat="45.21208" lon="5.72936">
        <ele>814.59997558594</ele>
        <time>2021-11-26T04:48:32.000Z</time>
      </trkpt>
      <trkpt lat="45.21208" lon="5.72934">
        <ele>814.79998779297</ele>
        <time>2021-11-26T04:48:33.000Z</time>
      </trkpt>
      <trkpt lat="45.21208" lon="5.72932">
        <ele>815</ele>
        <time>2021-11-26T04:48:34.000Z</time>
      </trkpt>
      <trkpt lat="45.21208" lon="5.72928">
        <ele>815.79998779297</ele>
        <time>2021-11-26T04:48:37.000Z</time>
      </trkpt>
      <trkpt lat="45.21209" lon="5.72921">
        <ele>816.79998779297</ele>
        <time>2021-11-26T04:48:41.000Z</time>
      </trkpt>
      <trkpt lat="45.21209" lon="5.7292">
        <ele>817.20001220703</ele>
        <time>2021-11-26T04:48:42.000Z</time>
      </trkpt>
      <trkpt lat="45.21214" lon="5.7292">
        <ele>817.79998779297</ele>
        <time>2021-11-26T04:48:46.000Z</time>
      </trkpt>
      <trkpt lat="45.21218" lon="5.7292">
        <ele>819.20001220703</ele>
        <time>2021-11-26T04:48:50.000Z</time>
      </trkpt>
      <trkpt lat="45.21224" lon="5.72921">
        <ele>820.40002441406</ele>
        <time>2021-11-26T04:48:55.000Z</time>
      </trkpt>
      <trkpt lat="45.21225" lon="5.72922">
        <ele>820.59997558594</ele>
        <time>2021-11-26T04:48:56.000Z</time>
      </trkpt>
      <trkpt lat="45.21226" lon="5.72924">
        <ele>821.20001220703</ele>
        <time>2021-11-26T04:48:57.000Z</time>
      </trkpt>
      <trkpt lat="45.21226" lon="5.72925">
        <ele>821.40002441406</ele>
        <time>2021-11-26T04:48:58.000Z</time>
      </trkpt>
      <trkpt lat="45.21227" lon="5.72926">
        <ele>821.79998779297</ele>
        <time>2021-11-26T04:48:59.000Z</time>
      </trkpt>
      <trkpt lat="45.21232" lon="5.72932">
        <ele>822.59997558594</ele>
        <time>2021-11-26T04:49:04.000Z</time>
      </trkpt>
      <trkpt lat="45.21238" lon="5.72935">
        <ele>823.59997558594</ele>
        <time>2021-11-26T04:49:09.000Z</time>
      </trkpt>
      <trkpt lat="45.21244" lon="5.72936">
        <ele>824.40002441406</ele>
        <time>2021-11-26T04:49:13.000Z</time>
      </trkpt>
      <trkpt lat="45.21246" lon="5.72938">
        <ele>824.79998779297</ele>
        <time>2021-11-26T04:49:15.000Z</time>
      </trkpt>
      <trkpt lat="45.21247" lon="5.72938">
        <ele>825</ele>
        <time>2021-11-26T04:49:16.000Z</time>
      </trkpt>
      <trkpt lat="45.21249" lon="5.72937">
        <ele>825.59997558594</ele>
        <time>2021-11-26T04:49:19.000Z</time>
      </trkpt>
      <trkpt lat="45.2125" lon="5.72937">
        <ele>826</ele>
        <time>2021-11-26T04:49:20.000Z</time>
      </trkpt>
      <trkpt lat="45.21253" lon="5.72938">
        <ele>827</ele>
        <time>2021-11-26T04:49:24.000Z</time>
      </trkpt>
      <trkpt lat="45.21255" lon="5.7294">
        <ele>827.20001220703</ele>
        <time>2021-11-26T04:49:26.000Z</time>
      </trkpt>
      <trkpt lat="45.21256" lon="5.7294">
        <ele>827.59997558594</ele>
        <time>2021-11-26T04:49:27.000Z</time>
      </trkpt>
      <trkpt lat="45.21258" lon="5.72941">
        <ele>828.20001220703</ele>
        <time>2021-11-26T04:49:29.000Z</time>
      </trkpt>
      <trkpt lat="45.2126" lon="5.72943">
        <ele>828.79998779297</ele>
        <time>2021-11-26T04:49:31.000Z</time>
      </trkpt>
      <trkpt lat="45.21262" lon="5.72945">
        <ele>829.20001220703</ele>
        <time>2021-11-26T04:49:33.000Z</time>
      </trkpt>
      <trkpt lat="45.21265" lon="5.72947">
        <ele>830.40002441406</ele>
        <time>2021-11-26T04:49:37.000Z</time>
      </trkpt>
      <trkpt lat="45.21267" lon="5.72949">
        <ele>831</ele>
        <time>2021-11-26T04:49:40.000Z</time>
      </trkpt>
      <trkpt lat="45.21269" lon="5.72949">
        <ele>831.20001220703</ele>
        <time>2021-11-26T04:49:42.000Z</time>
      </trkpt>
      <trkpt lat="45.2127" lon="5.72949">
        <ele>831.79998779297</ele>
        <time>2021-11-26T04:49:43.000Z</time>
      </trkpt>
      <trkpt lat="45.21274" lon="5.72949">
        <ele>833</ele>
        <time>2021-11-26T04:49:46.000Z</time>
      </trkpt>
      <trkpt lat="45.21276" lon="5.7295">
        <ele>833.40002441406</ele>
        <time>2021-11-26T04:49:48.000Z</time>
      </trkpt>
      <trkpt lat="45.21278" lon="5.72954">
        <ele>834.40002441406</ele>
        <time>2021-11-26T04:49:51.000Z</time>
      </trkpt>
      <trkpt lat="45.2128" lon="5.7296">
        <ele>835.20001220703</ele>
        <time>2021-11-26T04:49:55.000Z</time>
      </trkpt>
      <trkpt lat="45.21282" lon="5.72961">
        <ele>835.40002441406</ele>
        <time>2021-11-26T04:49:56.000Z</time>
      </trkpt>
      <trkpt lat="45.21285" lon="5.72963">
        <ele>836.20001220703</ele>
        <time>2021-11-26T04:49:59.000Z</time>
      </trkpt>
      <trkpt lat="45.21286" lon="5.72964">
        <ele>836.40002441406</ele>
        <time>2021-11-26T04:50:00.000Z</time>
      </trkpt>
      <trkpt lat="45.2129" lon="5.72967">
        <ele>837.40002441406</ele>
        <time>2021-11-26T04:50:04.000Z</time>
      </trkpt>
      <trkpt lat="45.21291" lon="5.72969">
        <ele>838</ele>
        <time>2021-11-26T04:50:06.000Z</time>
      </trkpt>
      <trkpt lat="45.21294" lon="5.72972">
        <ele>838.79998779297</ele>
        <time>2021-11-26T04:50:09.000Z</time>
      </trkpt>
      <trkpt lat="45.21296" lon="5.72974">
        <ele>839.40002441406</ele>
        <time>2021-11-26T04:50:11.000Z</time>
      </trkpt>
      <trkpt lat="45.21297" lon="5.72977">
        <ele>840</ele>
        <time>2021-11-26T04:50:13.000Z</time>
      </trkpt>
      <trkpt lat="45.21298" lon="5.72978">
        <ele>840.20001220703</ele>
        <time>2021-11-26T04:50:14.000Z</time>
      </trkpt>
      <trkpt lat="45.213" lon="5.72978">
        <ele>841</ele>
        <time>2021-11-26T04:50:16.000Z</time>
      </trkpt>
      <trkpt lat="45.21302" lon="5.72979">
        <ele>841.40002441406</ele>
        <time>2021-11-26T04:50:18.000Z</time>
      </trkpt>
      <trkpt lat="45.21306" lon="5.72981">
        <ele>841.79998779297</ele>
        <time>2021-11-26T04:50:21.000Z</time>
      </trkpt>
      <trkpt lat="45.21306" lon="5.72982">
        <ele>842</ele>
        <time>2021-11-26T04:50:22.000Z</time>
      </trkpt>
      <trkpt lat="45.21311" lon="5.72985">
        <ele>843</ele>
        <time>2021-11-26T04:50:25.000Z</time>
      </trkpt>
      <trkpt lat="45.21312" lon="5.72987">
        <ele>843</ele>
        <time>2021-11-26T04:50:26.000Z</time>
      </trkpt>
      <trkpt lat="45.21314" lon="5.72988">
        <ele>843.20001220703</ele>
        <time>2021-11-26T04:50:28.000Z</time>
      </trkpt>
      <trkpt lat="45.21317" lon="5.72992">
        <ele>843.79998779297</ele>
        <time>2021-11-26T04:50:31.000Z</time>
      </trkpt>
      <trkpt lat="45.21318" lon="5.72993">
        <ele>844.20001220703</ele>
        <time>2021-11-26T04:50:32.000Z</time>
      </trkpt>
      <trkpt lat="45.21319" lon="5.72997">
        <ele>845</ele>
        <time>2021-11-26T04:50:35.000Z</time>
      </trkpt>
      <trkpt lat="45.2132" lon="5.72998">
        <ele>845.40002441406</ele>
        <time>2021-11-26T04:50:36.000Z</time>
      </trkpt>
      <trkpt lat="45.21321" lon="5.73">
        <ele>845.79998779297</ele>
        <time>2021-11-26T04:50:38.000Z</time>
      </trkpt>
      <trkpt lat="45.21323" lon="5.73004">
        <ele>846.59997558594</ele>
        <time>2021-11-26T04:50:41.000Z</time>
      </trkpt>
      <trkpt lat="45.21326" lon="5.73008">
        <ele>847</ele>
        <time>2021-11-26T04:50:44.000Z</time>
      </trkpt>
      <trkpt lat="45.21327" lon="5.73009">
        <ele>847.59997558594</ele>
        <time>2021-11-26T04:50:45.000Z</time>
      </trkpt>
      <trkpt lat="45.21328" lon="5.7301">
        <ele>847.79998779297</ele>
        <time>2021-11-26T04:50:46.000Z</time>
      </trkpt>
      <trkpt lat="45.21328" lon="5.73012">
        <ele>848</ele>
        <time>2021-11-26T04:50:47.000Z</time>
      </trkpt>
      <trkpt lat="45.21329" lon="5.73015">
        <ele>848.40002441406</ele>
        <time>2021-11-26T04:50:49.000Z</time>
      </trkpt>
      <trkpt lat="45.2133" lon="5.73017">
        <ele>849.20001220703</ele>
        <time>2021-11-26T04:50:51.000Z</time>
      </trkpt>
      <trkpt lat="45.21332" lon="5.73019">
        <ele>849.79998779297</ele>
        <time>2021-11-26T04:50:53.000Z</time>
      </trkpt>
      <trkpt lat="45.21334" lon="5.73023">
        <ele>850.20001220703</ele>
        <time>2021-11-26T04:50:56.000Z</time>
      </trkpt>
      <trkpt lat="45.21336" lon="5.73025">
        <ele>851.20001220703</ele>
        <time>2021-11-26T04:50:58.000Z</time>
      </trkpt>
      <trkpt lat="45.21336" lon="5.73026">
        <ele>851.40002441406</ele>
        <time>2021-11-26T04:50:59.000Z</time>
      </trkpt>
      <trkpt lat="45.21337" lon="5.7303">
        <ele>851.59997558594</ele>
        <time>2021-11-26T04:51:01.000Z</time>
      </trkpt>
      <trkpt lat="45.21338" lon="5.73031">
        <ele>852</ele>
        <time>2021-11-26T04:51:02.000Z</time>
      </trkpt>
      <trkpt lat="45.21339" lon="5.73032">
        <ele>852.40002441406</ele>
        <time>2021-11-26T04:51:03.000Z</time>
      </trkpt>
      <trkpt lat="45.21342" lon="5.73033">
        <ele>853.40002441406</ele>
        <time>2021-11-26T04:51:06.000Z</time>
      </trkpt>
      <trkpt lat="45.21342" lon="5.73034">
        <ele>853.59997558594</ele>
        <time>2021-11-26T04:51:07.000Z</time>
      </trkpt>
      <trkpt lat="45.21344" lon="5.73035">
        <ele>854.40002441406</ele>
        <time>2021-11-26T04:51:09.000Z</time>
      </trkpt>
      <trkpt lat="45.21345" lon="5.73036">
        <ele>854.59997558594</ele>
        <time>2021-11-26T04:51:10.000Z</time>
      </trkpt>
      <trkpt lat="45.21349" lon="5.73038">
        <ele>855.79998779297</ele>
        <time>2021-11-26T04:51:14.000Z</time>
      </trkpt>
      <trkpt lat="45.2135" lon="5.73038">
        <ele>856</ele>
        <time>2021-11-26T04:51:15.000Z</time>
      </trkpt>
      <trkpt lat="45.2135" lon="5.73042">
        <ele>856.59997558594</ele>
        <time>2021-11-26T04:51:17.000Z</time>
      </trkpt>
      <trkpt lat="45.21352" lon="5.73044">
        <ele>856.79998779297</ele>
        <time>2021-11-26T04:51:18.000Z</time>
      </trkpt>
      <trkpt lat="45.21353" lon="5.73047">
        <ele>857</ele>
        <time>2021-11-26T04:51:19.000Z</time>
      </trkpt>
      <trkpt lat="45.21354" lon="5.73051">
        <ele>857.40002441406</ele>
        <time>2021-11-26T04:51:21.000Z</time>
      </trkpt>
      <trkpt lat="45.21355" lon="5.73054">
        <ele>858</ele>
        <time>2021-11-26T04:51:23.000Z</time>
      </trkpt>
      <trkpt lat="45.21358" lon="5.73058">
        <ele>858.79998779297</ele>
        <time>2021-11-26T04:51:26.000Z</time>
      </trkpt>
      <trkpt lat="45.21359" lon="5.73059">
        <ele>859.40002441406</ele>
        <time>2021-11-26T04:51:27.000Z</time>
      </trkpt>
      <trkpt lat="45.21364" lon="5.73064">
        <ele>860.40002441406</ele>
        <time>2021-11-26T04:51:31.000Z</time>
      </trkpt>
      <trkpt lat="45.21367" lon="5.73065">
        <ele>860.59997558594</ele>
        <time>2021-11-26T04:51:33.000Z</time>
      </trkpt>
      <trkpt lat="45.21368" lon="5.73067">
        <ele>861.20001220703</ele>
        <time>2021-11-26T04:51:34.000Z</time>
      </trkpt>
      <trkpt lat="45.21369" lon="5.73068">
        <ele>861.40002441406</ele>
        <time>2021-11-26T04:51:35.000Z</time>
      </trkpt>
      <trkpt lat="45.21371" lon="5.73073">
        <ele>862</ele>
        <time>2021-11-26T04:51:38.000Z</time>
      </trkpt>
      <trkpt lat="45.21374" lon="5.73082">
        <ele>862.40002441406</ele>
        <time>2021-11-26T04:51:42.000Z</time>
      </trkpt>
      <trkpt lat="45.21375" lon="5.73084">
        <ele>862.59997558594</ele>
        <time>2021-11-26T04:51:43.000Z</time>
      </trkpt>
      <trkpt lat="45.21376" lon="5.73086">
        <ele>862.59997558594</ele>
        <time>2021-11-26T04:51:44.000Z</time>
      </trkpt>
      <trkpt lat="45.21378" lon="5.73089">
        <ele>862.59997558594</ele>
        <time>2021-11-26T04:51:46.000Z</time>
      </trkpt>
      <trkpt lat="45.21382" lon="5.73096">
        <ele>863.20001220703</ele>
        <time>2021-11-26T04:51:50.000Z</time>
      </trkpt>
      <trkpt lat="45.21389" lon="5.73105">
        <ele>863.59997558594</ele>
        <time>2021-11-26T04:51:55.000Z</time>
      </trkpt>
      <trkpt lat="45.21391" lon="5.73108">
        <ele>863.79998779297</ele>
        <time>2021-11-26T04:51:57.000Z</time>
      </trkpt>
      <trkpt lat="45.21393" lon="5.73112">
        <ele>864.20001220703</ele>
        <time>2021-11-26T04:51:59.000Z</time>
      </trkpt>
      <trkpt lat="45.21396" lon="5.73114">
        <ele>864.40002441406</ele>
        <time>2021-11-26T04:52:02.000Z</time>
      </trkpt>
      <trkpt lat="45.21398" lon="5.73116">
        <ele>864.79998779297</ele>
        <time>2021-11-26T04:52:03.000Z</time>
      </trkpt>
      <trkpt lat="45.21404" lon="5.7312">
        <ele>865.40002441406</ele>
        <time>2021-11-26T04:52:07.000Z</time>
      </trkpt>
      <trkpt lat="45.21405" lon="5.73122">
        <ele>865.59997558594</ele>
        <time>2021-11-26T04:52:08.000Z</time>
      </trkpt>
      <trkpt lat="45.21409" lon="5.73126">
        <ele>865.79998779297</ele>
        <time>2021-11-26T04:52:11.000Z</time>
      </trkpt>
      <trkpt lat="45.21412" lon="5.7313">
        <ele>866.40002441406</ele>
        <time>2021-11-26T04:52:13.000Z</time>
      </trkpt>
      <trkpt lat="45.21412" lon="5.73132">
        <ele>866.59997558594</ele>
        <time>2021-11-26T04:52:14.000Z</time>
      </trkpt>
      <trkpt lat="45.21414" lon="5.73135">
        <ele>867</ele>
        <time>2021-11-26T04:52:16.000Z</time>
      </trkpt>
      <trkpt lat="45.21417" lon="5.73144">
        <ele>868</ele>
        <time>2021-11-26T04:52:21.000Z</time>
      </trkpt>
      <trkpt lat="45.21418" lon="5.73144">
        <ele>868</ele>
        <time>2021-11-26T04:52:22.000Z</time>
      </trkpt>
      <trkpt lat="45.21423" lon="5.73148">
        <ele>869.20001220703</ele>
        <time>2021-11-26T04:52:26.000Z</time>
      </trkpt>
      <trkpt lat="45.21425" lon="5.7315">
        <ele>869.59997558594</ele>
        <time>2021-11-26T04:52:28.000Z</time>
      </trkpt>
      <trkpt lat="45.21432" lon="5.73152">
        <ele>870.20001220703</ele>
        <time>2021-11-26T04:52:32.000Z</time>
      </trkpt>
      <trkpt lat="45.21434" lon="5.73153">
        <ele>870.59997558594</ele>
        <time>2021-11-26T04:52:34.000Z</time>
      </trkpt>
      <trkpt lat="45.21435" lon="5.73154">
        <ele>870.79998779297</ele>
        <time>2021-11-26T04:52:35.000Z</time>
      </trkpt>
      <trkpt lat="45.21438" lon="5.73155">
        <ele>871.40002441406</ele>
        <time>2021-11-26T04:52:38.000Z</time>
      </trkpt>
      <trkpt lat="45.21443" lon="5.73154">
        <ele>872.20001220703</ele>
        <time>2021-11-26T04:52:41.000Z</time>
      </trkpt>
      <trkpt lat="45.21445" lon="5.73154">
        <ele>872.79998779297</ele>
        <time>2021-11-26T04:52:43.000Z</time>
      </trkpt>
      <trkpt lat="45.21448" lon="5.73156">
        <ele>873.79998779297</ele>
        <time>2021-11-26T04:52:46.000Z</time>
      </trkpt>
      <trkpt lat="45.21449" lon="5.73156">
        <ele>874</ele>
        <time>2021-11-26T04:52:47.000Z</time>
      </trkpt>
      <trkpt lat="45.21451" lon="5.73157">
        <ele>874.59997558594</ele>
        <time>2021-11-26T04:52:49.000Z</time>
      </trkpt>
      <trkpt lat="45.21453" lon="5.7316">
        <ele>875.40002441406</ele>
        <time>2021-11-26T04:52:51.000Z</time>
      </trkpt>
      <trkpt lat="45.21454" lon="5.73163">
        <ele>875.59997558594</ele>
        <time>2021-11-26T04:52:52.000Z</time>
      </trkpt>
      <trkpt lat="45.21456" lon="5.73166">
        <ele>876</ele>
        <time>2021-11-26T04:52:54.000Z</time>
      </trkpt>
      <trkpt lat="45.21457" lon="5.73168">
        <ele>876.40002441406</ele>
        <time>2021-11-26T04:52:55.000Z</time>
      </trkpt>
      <trkpt lat="45.21459" lon="5.73171">
        <ele>877</ele>
        <time>2021-11-26T04:52:57.000Z</time>
      </trkpt>
      <trkpt lat="45.2146" lon="5.73173">
        <ele>877.40002441406</ele>
        <time>2021-11-26T04:52:58.000Z</time>
      </trkpt>
      <trkpt lat="45.21461" lon="5.73177">
        <ele>878.59997558594</ele>
        <time>2021-11-26T04:53:01.000Z</time>
      </trkpt>
      <trkpt lat="45.21467" lon="5.73181">
        <ele>879.59997558594</ele>
        <time>2021-11-26T04:53:05.000Z</time>
      </trkpt>
      <trkpt lat="45.2147" lon="5.73183">
        <ele>880.40002441406</ele>
        <time>2021-11-26T04:53:07.000Z</time>
      </trkpt>
      <trkpt lat="45.21471" lon="5.73185">
        <ele>880.59997558594</ele>
        <time>2021-11-26T04:53:08.000Z</time>
      </trkpt>
      <trkpt lat="45.21472" lon="5.73187">
        <ele>881.59997558594</ele>
        <time>2021-11-26T04:53:10.000Z</time>
      </trkpt>
      <trkpt lat="45.21473" lon="5.73188">
        <ele>882.20001220703</ele>
        <time>2021-11-26T04:53:11.000Z</time>
      </trkpt>
      <trkpt lat="45.21474" lon="5.73189">
        <ele>882.59997558594</ele>
        <time>2021-11-26T04:53:12.000Z</time>
      </trkpt>
      <trkpt lat="45.21475" lon="5.7319">
        <ele>882.79998779297</ele>
        <time>2021-11-26T04:53:13.000Z</time>
      </trkpt>
      <trkpt lat="45.21476" lon="5.73194">
        <ele>883.20001220703</ele>
        <time>2021-11-26T04:53:15.000Z</time>
      </trkpt>
      <trkpt lat="45.21477" lon="5.73198">
        <ele>883.40002441406</ele>
        <time>2021-11-26T04:53:17.000Z</time>
      </trkpt>
      <trkpt lat="45.21477" lon="5.732">
        <ele>883.79998779297</ele>
        <time>2021-11-26T04:53:18.000Z</time>
      </trkpt>
      <trkpt lat="45.21477" lon="5.73216">
        <ele>884.20001220703</ele>
        <time>2021-11-26T04:53:24.000Z</time>
      </trkpt>
      <trkpt lat="45.21478" lon="5.73218">
        <ele>884.20001220703</ele>
        <time>2021-11-26T04:53:25.000Z</time>
      </trkpt>
      <trkpt lat="45.2148" lon="5.73221">
        <ele>884.40002441406</ele>
        <time>2021-11-26T04:53:27.000Z</time>
      </trkpt>
      <trkpt lat="45.21485" lon="5.73231">
        <ele>885.20001220703</ele>
        <time>2021-11-26T04:53:32.000Z</time>
      </trkpt>
      <trkpt lat="45.21486" lon="5.73232">
        <ele>885.40002441406</ele>
        <time>2021-11-26T04:53:33.000Z</time>
      </trkpt>
      <trkpt lat="45.21487" lon="5.73234">
        <ele>885.59997558594</ele>
        <time>2021-11-26T04:53:34.000Z</time>
      </trkpt>
      <trkpt lat="45.21489" lon="5.73234">
        <ele>885.79998779297</ele>
        <time>2021-11-26T04:53:35.000Z</time>
      </trkpt>
      <trkpt lat="45.21491" lon="5.73236">
        <ele>886.59997558594</ele>
        <time>2021-11-26T04:53:38.000Z</time>
      </trkpt>
      <trkpt lat="45.21496" lon="5.73241">
        <ele>887.79998779297</ele>
        <time>2021-11-26T04:53:43.000Z</time>
      </trkpt>
      <trkpt lat="45.21498" lon="5.73243">
        <ele>888.79998779297</ele>
        <time>2021-11-26T04:53:46.000Z</time>
      </trkpt>
      <trkpt lat="45.215" lon="5.73244">
        <ele>888.79998779297</ele>
        <time>2021-11-26T04:53:47.000Z</time>
      </trkpt>
      <trkpt lat="45.21502" lon="5.73248">
        <ele>889.40002441406</ele>
        <time>2021-11-26T04:53:49.000Z</time>
      </trkpt>
      <trkpt lat="45.21502" lon="5.73251">
        <ele>889.79998779297</ele>
        <time>2021-11-26T04:53:51.000Z</time>
      </trkpt>
      <trkpt lat="45.21505" lon="5.73255">
        <ele>890.20001220703</ele>
        <time>2021-11-26T04:53:53.000Z</time>
      </trkpt>
      <trkpt lat="45.21508" lon="5.73261">
        <ele>891</ele>
        <time>2021-11-26T04:53:57.000Z</time>
      </trkpt>
      <trkpt lat="45.21509" lon="5.73265">
        <ele>891.59997558594</ele>
        <time>2021-11-26T04:53:59.000Z</time>
      </trkpt>
      <trkpt lat="45.21509" lon="5.73269">
        <ele>892</ele>
        <time>2021-11-26T04:54:01.000Z</time>
      </trkpt>
      <trkpt lat="45.21507" lon="5.73277">
        <ele>892</ele>
        <time>2021-11-26T04:54:05.000Z</time>
      </trkpt>
      <trkpt lat="45.21506" lon="5.73283">
        <ele>891.79998779297</ele>
        <time>2021-11-26T04:54:07.000Z</time>
      </trkpt>
      <trkpt lat="45.21506" lon="5.73289">
        <ele>891.79998779297</ele>
        <time>2021-11-26T04:54:09.000Z</time>
      </trkpt>
      <trkpt lat="45.2151" lon="5.73306">
        <ele>892.40002441406</ele>
        <time>2021-11-26T04:54:17.000Z</time>
      </trkpt>
      <trkpt lat="45.2151" lon="5.73307">
        <ele>892.40002441406</ele>
        <time>2021-11-26T04:54:18.000Z</time>
      </trkpt>
      <trkpt lat="45.21512" lon="5.73311">
        <ele>893.20001220703</ele>
        <time>2021-11-26T04:54:22.000Z</time>
      </trkpt>
      <trkpt lat="45.21513" lon="5.73313">
        <ele>893.59997558594</ele>
        <time>2021-11-26T04:54:24.000Z</time>
      </trkpt>
      <trkpt lat="45.2152" lon="5.73317">
        <ele>894.20001220703</ele>
        <time>2021-11-26T04:54:28.000Z</time>
      </trkpt>
      <trkpt lat="45.21521" lon="5.73317">
        <ele>894.20001220703</ele>
        <time>2021-11-26T04:54:29.000Z</time>
      </trkpt>
      <trkpt lat="45.21529" lon="5.73317">
        <ele>895.20001220703</ele>
        <time>2021-11-26T04:54:34.000Z</time>
      </trkpt>
      <trkpt lat="45.2153" lon="5.73318">
        <ele>895.40002441406</ele>
        <time>2021-11-26T04:54:35.000Z</time>
      </trkpt>
      <trkpt lat="45.21531" lon="5.73319">
        <ele>895.40002441406</ele>
        <time>2021-11-26T04:54:36.000Z</time>
      </trkpt>
      <trkpt lat="45.21533" lon="5.7332">
        <ele>896</ele>
        <time>2021-11-26T04:54:38.000Z</time>
      </trkpt>
      <trkpt lat="45.21535" lon="5.73321">
        <ele>896.40002441406</ele>
        <time>2021-11-26T04:54:40.000Z</time>
      </trkpt>
      <trkpt lat="45.21537" lon="5.73321">
        <ele>896.59997558594</ele>
        <time>2021-11-26T04:54:41.000Z</time>
      </trkpt>
      <trkpt lat="45.21538" lon="5.73321">
        <ele>897</ele>
        <time>2021-11-26T04:54:42.000Z</time>
      </trkpt>
      <trkpt lat="45.21545" lon="5.73321">
        <ele>897.79998779297</ele>
        <time>2021-11-26T04:54:46.000Z</time>
      </trkpt>
      <trkpt lat="45.21549" lon="5.7332">
        <ele>898.79998779297</ele>
        <time>2021-11-26T04:54:49.000Z</time>
      </trkpt>
      <trkpt lat="45.2155" lon="5.73321">
        <ele>899.20001220703</ele>
        <time>2021-11-26T04:54:50.000Z</time>
      </trkpt>
      <trkpt lat="45.21558" lon="5.73326">
        <ele>900.20001220703</ele>
        <time>2021-11-26T04:54:55.000Z</time>
      </trkpt>
      <trkpt lat="45.2156" lon="5.73326">
        <ele>900.59997558594</ele>
        <time>2021-11-26T04:54:56.000Z</time>
      </trkpt>
      <trkpt lat="45.21565" lon="5.73328">
        <ele>901.20001220703</ele>
        <time>2021-11-26T04:54:59.000Z</time>
      </trkpt>
      <trkpt lat="45.2157" lon="5.73333">
        <ele>902</ele>
        <time>2021-11-26T04:55:03.000Z</time>
      </trkpt>
      <trkpt lat="45.21571" lon="5.73334">
        <ele>902.20001220703</ele>
        <time>2021-11-26T04:55:04.000Z</time>
      </trkpt>
      <trkpt lat="45.21572" lon="5.73336">
        <ele>902.40002441406</ele>
        <time>2021-11-26T04:55:05.000Z</time>
      </trkpt>
      <trkpt lat="45.2158" lon="5.7334">
        <ele>903.20001220703</ele>
        <time>2021-11-26T04:55:11.000Z</time>
      </trkpt>
      <trkpt lat="45.2158" lon="5.73345">
        <ele>903.40002441406</ele>
        <time>2021-11-26T04:55:16.000Z</time>
      </trkpt>
      <trkpt lat="45.2158" lon="5.7335">
        <ele>903.40002441406</ele>
        <time>2021-11-26T04:55:23.000Z</time>
      </trkpt>
      <trkpt lat="45.2158" lon="5.73351">
        <ele>903.59997558594</ele>
        <time>2021-11-26T04:55:28.000Z</time>
      </trkpt>
      <trkpt lat="45.21581" lon="5.73351">
        <ele>903.79998779297</ele>
        <time>2021-11-26T04:55:33.000Z</time>
      </trkpt>
      <trkpt lat="45.21581" lon="5.73351">
        <ele>903.79998779297</ele>
        <time>2021-11-26T04:55:36.000Z</time>
      </trkpt>
      <trkpt lat="45.21581" lon="5.73351">
        <ele>903.79998779297</ele>
        <time>2021-11-26T04:55:38.000Z</time>
      </trkpt>
      <trkpt lat="45.21581" lon="5.73351">
        <ele>903.59997558594</ele>
        <time>2021-11-26T04:55:41.000Z</time>
      </trkpt>
      <trkpt lat="45.21581" lon="5.73351">
        <ele>903.79998779297</ele>
        <time>2021-11-26T04:55:45.000Z</time>
      </trkpt>
      <trkpt lat="45.21581" lon="5.73351">
        <ele>903.79998779297</ele>
        <time>2021-11-26T04:55:49.000Z</time>
      </trkpt>
      <trkpt lat="45.21581" lon="5.73351">
        <ele>903.59997558594</ele>
        <time>2021-11-26T04:55:55.000Z</time>
      </trkpt>
      <trkpt lat="45.21581" lon="5.7335">
        <ele>903.79998779297</ele>
        <time>2021-11-26T04:56:04.000Z</time>
      </trkpt>
      <trkpt lat="45.21582" lon="5.73349">
        <ele>903.79998779297</ele>
        <time>2021-11-26T04:56:08.000Z</time>
      </trkpt>
      <trkpt lat="45.21583" lon="5.73348">
        <ele>903.79998779297</ele>
        <time>2021-11-26T04:56:11.000Z</time>
      </trkpt>
      <trkpt lat="45.21583" lon="5.73348">
        <ele>903.79998779297</ele>
        <time>2021-11-26T04:56:12.000Z</time>
      </trkpt>
      <trkpt lat="45.21583" lon="5.73347">
        <ele>903.79998779297</ele>
        <time>2021-11-26T04:56:13.000Z</time>
      </trkpt>
      <trkpt lat="45.21589" lon="5.73344">
        <ele>903.59997558594</ele>
        <time>2021-11-26T04:56:23.000Z</time>
      </trkpt>
      <trkpt lat="45.2159" lon="5.73345">
        <ele>903.59997558594</ele>
        <time>2021-11-26T04:56:24.000Z</time>
      </trkpt>
      <trkpt lat="45.21594" lon="5.73346">
        <ele>903.59997558594</ele>
        <time>2021-11-26T04:56:27.000Z</time>
      </trkpt>
      <trkpt lat="45.21598" lon="5.73351">
        <ele>903.59997558594</ele>
        <time>2021-11-26T04:56:31.000Z</time>
      </trkpt>
      <trkpt lat="45.216" lon="5.73355">
        <ele>903.59997558594</ele>
        <time>2021-11-26T04:56:33.000Z</time>
      </trkpt>
      <trkpt lat="45.21602" lon="5.73357">
        <ele>903.59997558594</ele>
        <time>2021-11-26T04:56:35.000Z</time>
      </trkpt>
      <trkpt lat="45.21604" lon="5.7336">
        <ele>903.59997558594</ele>
        <time>2021-11-26T04:56:37.000Z</time>
      </trkpt>
      <trkpt lat="45.21606" lon="5.73361">
        <ele>903.79998779297</ele>
        <time>2021-11-26T04:56:38.000Z</time>
      </trkpt>
      <trkpt lat="45.21608" lon="5.73362">
        <ele>904.20001220703</ele>
        <time>2021-11-26T04:56:40.000Z</time>
      </trkpt>
      <trkpt lat="45.21608" lon="5.73363">
        <ele>904.40002441406</ele>
        <time>2021-11-26T04:56:41.000Z</time>
      </trkpt>
      <trkpt lat="45.21609" lon="5.73365">
        <ele>904.59997558594</ele>
        <time>2021-11-26T04:56:42.000Z</time>
      </trkpt>
      <trkpt lat="45.21609" lon="5.73367">
        <ele>904.59997558594</ele>
        <time>2021-11-26T04:56:43.000Z</time>
      </trkpt>
      <trkpt lat="45.2161" lon="5.73368">
        <ele>905</ele>
        <time>2021-11-26T04:56:44.000Z</time>
      </trkpt>
      <trkpt lat="45.21612" lon="5.7337">
        <ele>905.79998779297</ele>
        <time>2021-11-26T04:56:46.000Z</time>
      </trkpt>
      <trkpt lat="45.21613" lon="5.73371">
        <ele>906</ele>
        <time>2021-11-26T04:56:47.000Z</time>
      </trkpt>
      <trkpt lat="45.21615" lon="5.73372">
        <ele>906.40002441406</ele>
        <time>2021-11-26T04:56:49.000Z</time>
      </trkpt>
      <trkpt lat="45.21616" lon="5.73373">
        <ele>906.59997558594</ele>
        <time>2021-11-26T04:56:50.000Z</time>
      </trkpt>
      <trkpt lat="45.21617" lon="5.73375">
        <ele>906.79998779297</ele>
        <time>2021-11-26T04:56:51.000Z</time>
      </trkpt>
      <trkpt lat="45.21618" lon="5.73376">
        <ele>907</ele>
        <time>2021-11-26T04:56:52.000Z</time>
      </trkpt>
      <trkpt lat="45.2162" lon="5.73379">
        <ele>907.59997558594</ele>
        <time>2021-11-26T04:56:54.000Z</time>
      </trkpt>
      <trkpt lat="45.21621" lon="5.73379">
        <ele>908</ele>
        <time>2021-11-26T04:56:55.000Z</time>
      </trkpt>
      <trkpt lat="45.21627" lon="5.73384">
        <ele>909.20001220703</ele>
        <time>2021-11-26T04:57:00.000Z</time>
      </trkpt>
      <trkpt lat="45.2163" lon="5.73387">
        <ele>909.59997558594</ele>
        <time>2021-11-26T04:57:02.000Z</time>
      </trkpt>
      <trkpt lat="45.21635" lon="5.73391">
        <ele>910.40002441406</ele>
        <time>2021-11-26T04:57:06.000Z</time>
      </trkpt>
      <trkpt lat="45.21637" lon="5.73393">
        <ele>910.79998779297</ele>
        <time>2021-11-26T04:57:08.000Z</time>
      </trkpt>
      <trkpt lat="45.21641" lon="5.73397">
        <ele>911.40002441406</ele>
        <time>2021-11-26T04:57:11.000Z</time>
      </trkpt>
      <trkpt lat="45.21647" lon="5.73404">
        <ele>912.40002441406</ele>
        <time>2021-11-26T04:57:15.000Z</time>
      </trkpt>
      <trkpt lat="45.21654" lon="5.73414">
        <ele>913</ele>
        <time>2021-11-26T04:57:20.000Z</time>
      </trkpt>
      <trkpt lat="45.21655" lon="5.73417">
        <ele>913.20001220703</ele>
        <time>2021-11-26T04:57:21.000Z</time>
      </trkpt>
      <trkpt lat="45.21658" lon="5.73424">
        <ele>913.59997558594</ele>
        <time>2021-11-26T04:57:24.000Z</time>
      </trkpt>
      <trkpt lat="45.21661" lon="5.73427">
        <ele>914</ele>
        <time>2021-11-26T04:57:26.000Z</time>
      </trkpt>
      <trkpt lat="45.21662" lon="5.7343">
        <ele>914</ele>
        <time>2021-11-26T04:57:27.000Z</time>
      </trkpt>
      <trkpt lat="45.21664" lon="5.73435">
        <ele>914.20001220703</ele>
        <time>2021-11-26T04:57:29.000Z</time>
      </trkpt>
      <trkpt lat="45.21664" lon="5.7344">
        <ele>914.59997558594</ele>
        <time>2021-11-26T04:57:31.000Z</time>
      </trkpt>
      <trkpt lat="45.21665" lon="5.73443">
        <ele>914.79998779297</ele>
        <time>2021-11-26T04:57:32.000Z</time>
      </trkpt>
      <trkpt lat="45.21668" lon="5.73456">
        <ele>915.59997558594</ele>
        <time>2021-11-26T04:57:37.000Z</time>
      </trkpt>
      <trkpt lat="45.21668" lon="5.73458">
        <ele>915.79998779297</ele>
        <time>2021-11-26T04:57:38.000Z</time>
      </trkpt>
      <trkpt lat="45.21669" lon="5.7346">
        <ele>916</ele>
        <time>2021-11-26T04:57:39.000Z</time>
      </trkpt>
      <trkpt lat="45.2167" lon="5.73473">
        <ele>916.79998779297</ele>
        <time>2021-11-26T04:57:44.000Z</time>
      </trkpt>
      <trkpt lat="45.21673" lon="5.73482">
        <ele>917.79998779297</ele>
        <time>2021-11-26T04:57:48.000Z</time>
      </trkpt>
      <trkpt lat="45.21674" lon="5.73483">
        <ele>918</ele>
        <time>2021-11-26T04:57:49.000Z</time>
      </trkpt>
      <trkpt lat="45.21674" lon="5.73481">
        <ele>918.79998779297</ele>
        <time>2021-11-26T04:57:53.000Z</time>
      </trkpt>
      <trkpt lat="45.21674" lon="5.73481">
        <ele>919.20001220703</ele>
        <time>2021-11-26T04:57:54.000Z</time>
      </trkpt>
      <trkpt lat="45.21674" lon="5.73478">
        <ele>919.59997558594</ele>
        <time>2021-11-26T04:57:56.000Z</time>
      </trkpt>
      <trkpt lat="45.21673" lon="5.73476">
        <ele>920</ele>
        <time>2021-11-26T04:57:57.000Z</time>
      </trkpt>
      <trkpt lat="45.21673" lon="5.73473">
        <ele>920.40002441406</ele>
        <time>2021-11-26T04:57:59.000Z</time>
      </trkpt>
      <trkpt lat="45.21672" lon="5.73467">
        <ele>921</ele>
        <time>2021-11-26T04:58:02.000Z</time>
      </trkpt>
      <trkpt lat="45.21672" lon="5.73465">
        <ele>921</ele>
        <time>2021-11-26T04:58:03.000Z</time>
      </trkpt>
      <trkpt lat="45.21673" lon="5.73459">
        <ele>921.59997558594</ele>
        <time>2021-11-26T04:58:06.000Z</time>
      </trkpt>
      <trkpt lat="45.21673" lon="5.73455">
        <ele>922</ele>
        <time>2021-11-26T04:58:08.000Z</time>
      </trkpt>
      <trkpt lat="45.21674" lon="5.73446">
        <ele>923</ele>
        <time>2021-11-26T04:58:13.000Z</time>
      </trkpt>
      <trkpt lat="45.21674" lon="5.73444">
        <ele>923.40002441406</ele>
        <time>2021-11-26T04:58:14.000Z</time>
      </trkpt>
      <trkpt lat="45.21675" lon="5.73439">
        <ele>924.20001220703</ele>
        <time>2021-11-26T04:58:17.000Z</time>
      </trkpt>
      <trkpt lat="45.21676" lon="5.73434">
        <ele>925.20001220703</ele>
        <time>2021-11-26T04:58:20.000Z</time>
      </trkpt>
      <trkpt lat="45.21676" lon="5.73432">
        <ele>925.40002441406</ele>
        <time>2021-11-26T04:58:21.000Z</time>
      </trkpt>
      <trkpt lat="45.21676" lon="5.73423">
        <ele>926.59997558594</ele>
        <time>2021-11-26T04:58:26.000Z</time>
      </trkpt>
      <trkpt lat="45.21675" lon="5.73417">
        <ele>927.59997558594</ele>
        <time>2021-11-26T04:58:29.000Z</time>
      </trkpt>
      <trkpt lat="45.21675" lon="5.7341">
        <ele>928.40002441406</ele>
        <time>2021-11-26T04:58:32.000Z</time>
      </trkpt>
      <trkpt lat="45.21675" lon="5.73408">
        <ele>928.79998779297</ele>
        <time>2021-11-26T04:58:33.000Z</time>
      </trkpt>
      <trkpt lat="45.21673" lon="5.73404">
        <ele>929.40002441406</ele>
        <time>2021-11-26T04:58:36.000Z</time>
      </trkpt>
      <trkpt lat="45.21671" lon="5.73401">
        <ele>930.20001220703</ele>
        <time>2021-11-26T04:58:38.000Z</time>
      </trkpt>
      <trkpt lat="45.21667" lon="5.73392">
        <ele>931.40002441406</ele>
        <time>2021-11-26T04:58:42.000Z</time>
      </trkpt>
      <trkpt lat="45.21665" lon="5.73387">
        <ele>932.40002441406</ele>
        <time>2021-11-26T04:58:46.000Z</time>
      </trkpt>
      <trkpt lat="45.21665" lon="5.73386">
        <ele>932.59997558594</ele>
        <time>2021-11-26T04:58:47.000Z</time>
      </trkpt>
      <trkpt lat="45.21665" lon="5.73384">
        <ele>933.59997558594</ele>
        <time>2021-11-26T04:58:49.000Z</time>
      </trkpt>
      <trkpt lat="45.21663" lon="5.7338">
        <ele>934.20001220703</ele>
        <time>2021-11-26T04:58:52.000Z</time>
      </trkpt>
      <trkpt lat="45.21662" lon="5.73379">
        <ele>934.59997558594</ele>
        <time>2021-11-26T04:58:53.000Z</time>
      </trkpt>
      <trkpt lat="45.2166" lon="5.73374">
        <ele>935.59997558594</ele>
        <time>2021-11-26T04:58:57.000Z</time>
      </trkpt>
      <trkpt lat="45.2166" lon="5.73372">
        <ele>936</ele>
        <time>2021-11-26T04:58:59.000Z</time>
      </trkpt>
      <trkpt lat="45.21659" lon="5.73369">
        <ele>937</ele>
        <time>2021-11-26T04:59:01.000Z</time>
      </trkpt>
      <trkpt lat="45.21658" lon="5.73365">
        <ele>937.40002441406</ele>
        <time>2021-11-26T04:59:03.000Z</time>
      </trkpt>
      <trkpt lat="45.21658" lon="5.73364">
        <ele>937.59997558594</ele>
        <time>2021-11-26T04:59:04.000Z</time>
      </trkpt>
      <trkpt lat="45.21657" lon="5.7336">
        <ele>938</ele>
        <time>2021-11-26T04:59:06.000Z</time>
      </trkpt>
      <trkpt lat="45.21655" lon="5.73356">
        <ele>939</ele>
        <time>2021-11-26T04:59:09.000Z</time>
      </trkpt>
      <trkpt lat="45.21654" lon="5.73353">
        <ele>939.79998779297</ele>
        <time>2021-11-26T04:59:12.000Z</time>
      </trkpt>
      <trkpt lat="45.21654" lon="5.73351">
        <ele>940.40002441406</ele>
        <time>2021-11-26T04:59:14.000Z</time>
      </trkpt>
      <trkpt lat="45.21653" lon="5.73349">
        <ele>941.20001220703</ele>
        <time>2021-11-26T04:59:16.000Z</time>
      </trkpt>
      <trkpt lat="45.21652" lon="5.73348">
        <ele>941.40002441406</ele>
        <time>2021-11-26T04:59:17.000Z</time>
      </trkpt>
      <trkpt lat="45.21651" lon="5.73345">
        <ele>941.79998779297</ele>
        <time>2021-11-26T04:59:19.000Z</time>
      </trkpt>
      <trkpt lat="45.2165" lon="5.73344">
        <ele>942.40002441406</ele>
        <time>2021-11-26T04:59:20.000Z</time>
      </trkpt>
      <trkpt lat="45.2165" lon="5.73342">
        <ele>942.79998779297</ele>
        <time>2021-11-26T04:59:21.000Z</time>
      </trkpt>
      <trkpt lat="45.21648" lon="5.73336">
        <ele>943.79998779297</ele>
        <time>2021-11-26T04:59:26.000Z</time>
      </trkpt>
      <trkpt lat="45.21648" lon="5.73335">
        <ele>944</ele>
        <time>2021-11-26T04:59:27.000Z</time>
      </trkpt>
      <trkpt lat="45.21649" lon="5.73333">
        <ele>945</ele>
        <time>2021-11-26T04:59:29.000Z</time>
      </trkpt>
      <trkpt lat="45.21648" lon="5.7333">
        <ele>945.79998779297</ele>
        <time>2021-11-26T04:59:32.000Z</time>
      </trkpt>
      <trkpt lat="45.21647" lon="5.73329">
        <ele>946</ele>
        <time>2021-11-26T04:59:33.000Z</time>
      </trkpt>
      <trkpt lat="45.21644" lon="5.73321">
        <ele>947</ele>
        <time>2021-11-26T04:59:38.000Z</time>
      </trkpt>
      <trkpt lat="45.21644" lon="5.73319">
        <ele>947.40002441406</ele>
        <time>2021-11-26T04:59:39.000Z</time>
      </trkpt>
      <trkpt lat="45.21644" lon="5.73315">
        <ele>948</ele>
        <time>2021-11-26T04:59:42.000Z</time>
      </trkpt>
      <trkpt lat="45.21644" lon="5.73313">
        <ele>948.20001220703</ele>
        <time>2021-11-26T04:59:43.000Z</time>
      </trkpt>
      <trkpt lat="45.21643" lon="5.73309">
        <ele>948.59997558594</ele>
        <time>2021-11-26T04:59:45.000Z</time>
      </trkpt>
      <trkpt lat="45.21643" lon="5.73305">
        <ele>949.40002441406</ele>
        <time>2021-11-26T04:59:47.000Z</time>
      </trkpt>
      <trkpt lat="45.2164" lon="5.73295">
        <ele>950.40002441406</ele>
        <time>2021-11-26T04:59:53.000Z</time>
      </trkpt>
      <trkpt lat="45.21639" lon="5.73293">
        <ele>951</ele>
        <time>2021-11-26T04:59:55.000Z</time>
      </trkpt>
      <trkpt lat="45.21638" lon="5.73292">
        <ele>951.40002441406</ele>
        <time>2021-11-26T04:59:56.000Z</time>
      </trkpt>
      <trkpt lat="45.21637" lon="5.73289">
        <ele>951.59997558594</ele>
        <time>2021-11-26T04:59:58.000Z</time>
      </trkpt>
      <trkpt lat="45.21636" lon="5.73283">
        <ele>952.20001220703</ele>
        <time>2021-11-26T05:00:01.000Z</time>
      </trkpt>
      <trkpt lat="45.21635" lon="5.73281">
        <ele>952.40002441406</ele>
        <time>2021-11-26T05:00:02.000Z</time>
      </trkpt>
      <trkpt lat="45.21633" lon="5.73273">
        <ele>953</ele>
        <time>2021-11-26T05:00:07.000Z</time>
      </trkpt>
      <trkpt lat="45.21632" lon="5.73271">
        <ele>953.40002441406</ele>
        <time>2021-11-26T05:00:09.000Z</time>
      </trkpt>
      <trkpt lat="45.21629" lon="5.73266">
        <ele>954</ele>
        <time>2021-11-26T05:00:13.000Z</time>
      </trkpt>
      <trkpt lat="45.21628" lon="5.73264">
        <ele>954.59997558594</ele>
        <time>2021-11-26T05:00:15.000Z</time>
      </trkpt>
      <trkpt lat="45.21625" lon="5.73258">
        <ele>955.40002441406</ele>
        <time>2021-11-26T05:00:19.000Z</time>
      </trkpt>
      <trkpt lat="45.21625" lon="5.73256">
        <ele>955.79998779297</ele>
        <time>2021-11-26T05:00:20.000Z</time>
      </trkpt>
      <trkpt lat="45.21624" lon="5.73255">
        <ele>956</ele>
        <time>2021-11-26T05:00:21.000Z</time>
      </trkpt>
      <trkpt lat="45.2162" lon="5.7325">
        <ele>956.79998779297</ele>
        <time>2021-11-26T05:00:26.000Z</time>
      </trkpt>
      <trkpt lat="45.21619" lon="5.73245">
        <ele>957.59997558594</ele>
        <time>2021-11-26T05:00:29.000Z</time>
      </trkpt>
      <trkpt lat="45.21618" lon="5.73243">
        <ele>958</ele>
        <time>2021-11-26T05:00:30.000Z</time>
      </trkpt>
      <trkpt lat="45.21616" lon="5.73237">
        <ele>959</ele>
        <time>2021-11-26T05:00:35.000Z</time>
      </trkpt>
      <trkpt lat="45.21615" lon="5.73236">
        <ele>959.79998779297</ele>
        <time>2021-11-26T05:00:38.000Z</time>
      </trkpt>
      <trkpt lat="45.21614" lon="5.73235">
        <ele>960.20001220703</ele>
        <time>2021-11-26T05:00:39.000Z</time>
      </trkpt>
      <trkpt lat="45.21613" lon="5.73234">
        <ele>960.59997558594</ele>
        <time>2021-11-26T05:00:40.000Z</time>
      </trkpt>
      <trkpt lat="45.21612" lon="5.73232">
        <ele>961.59997558594</ele>
        <time>2021-11-26T05:00:43.000Z</time>
      </trkpt>
      <trkpt lat="45.21611" lon="5.73232">
        <ele>961.79998779297</ele>
        <time>2021-11-26T05:00:44.000Z</time>
      </trkpt>
      <trkpt lat="45.2161" lon="5.7323">
        <ele>962.59997558594</ele>
        <time>2021-11-26T05:00:47.000Z</time>
      </trkpt>
      <trkpt lat="45.21609" lon="5.73226">
        <ele>963.20001220703</ele>
        <time>2021-11-26T05:00:50.000Z</time>
      </trkpt>
      <trkpt lat="45.21607" lon="5.73225">
        <ele>963.79998779297</ele>
        <time>2021-11-26T05:00:52.000Z</time>
      </trkpt>
      <trkpt lat="45.21607" lon="5.73223">
        <ele>964.40002441406</ele>
        <time>2021-11-26T05:00:54.000Z</time>
      </trkpt>
      <trkpt lat="45.21606" lon="5.73222">
        <ele>964.79998779297</ele>
        <time>2021-11-26T05:00:56.000Z</time>
      </trkpt>
      <trkpt lat="45.21605" lon="5.73222">
        <ele>964.79998779297</ele>
        <time>2021-11-26T05:00:57.000Z</time>
      </trkpt>
      <trkpt lat="45.21602" lon="5.73219">
        <ele>965.40002441406</ele>
        <time>2021-11-26T05:01:01.000Z</time>
      </trkpt>
      <trkpt lat="45.216" lon="5.73218">
        <ele>966</ele>
        <time>2021-11-26T05:01:03.000Z</time>
      </trkpt>
      <trkpt lat="45.21599" lon="5.73216">
        <ele>966.20001220703</ele>
        <time>2021-11-26T05:01:04.000Z</time>
      </trkpt>
      <trkpt lat="45.21596" lon="5.73213">
        <ele>966.59997558594</ele>
        <time>2021-11-26T05:01:07.000Z</time>
      </trkpt>
      <trkpt lat="45.21595" lon="5.73212">
        <ele>966.79998779297</ele>
        <time>2021-11-26T05:01:08.000Z</time>
      </trkpt>
      <trkpt lat="45.21594" lon="5.73208">
        <ele>967</ele>
        <time>2021-11-26T05:01:10.000Z</time>
      </trkpt>
      <trkpt lat="45.21593" lon="5.73206">
        <ele>967</ele>
        <time>2021-11-26T05:01:11.000Z</time>
      </trkpt>
      <trkpt lat="45.21586" lon="5.73201">
        <ele>968</ele>
        <time>2021-11-26T05:01:16.000Z</time>
      </trkpt>
      <trkpt lat="45.21582" lon="5.73198">
        <ele>968.79998779297</ele>
        <time>2021-11-26T05:01:19.000Z</time>
      </trkpt>
      <trkpt lat="45.21579" lon="5.73196">
        <ele>969.40002441406</ele>
        <time>2021-11-26T05:01:21.000Z</time>
      </trkpt>
      <trkpt lat="45.21575" lon="5.73196">
        <ele>970</ele>
        <time>2021-11-26T05:01:24.000Z</time>
      </trkpt>
      <trkpt lat="45.21572" lon="5.73194">
        <ele>970.40002441406</ele>
        <time>2021-11-26T05:01:26.000Z</time>
      </trkpt>
      <trkpt lat="45.2157" lon="5.7319">
        <ele>971.40002441406</ele>
        <time>2021-11-26T05:01:30.000Z</time>
      </trkpt>
      <trkpt lat="45.21569" lon="5.73189">
        <ele>972</ele>
        <time>2021-11-26T05:01:32.000Z</time>
      </trkpt>
      <trkpt lat="45.21569" lon="5.73188">
        <ele>972.20001220703</ele>
        <time>2021-11-26T05:01:33.000Z</time>
      </trkpt>
      <trkpt lat="45.21568" lon="5.73185">
        <ele>972.59997558594</ele>
        <time>2021-11-26T05:01:35.000Z</time>
      </trkpt>
      <trkpt lat="45.21568" lon="5.73183">
        <ele>973</ele>
        <time>2021-11-26T05:01:37.000Z</time>
      </trkpt>
      <trkpt lat="45.21568" lon="5.73181">
        <ele>973.59997558594</ele>
        <time>2021-11-26T05:01:39.000Z</time>
      </trkpt>
      <trkpt lat="45.21567" lon="5.73178">
        <ele>974.59997558594</ele>
        <time>2021-11-26T05:01:42.000Z</time>
      </trkpt>
      <trkpt lat="45.21567" lon="5.73175">
        <ele>975.20001220703</ele>
        <time>2021-11-26T05:01:44.000Z</time>
      </trkpt>
      <trkpt lat="45.21567" lon="5.73173">
        <ele>975.40002441406</ele>
        <time>2021-11-26T05:01:45.000Z</time>
      </trkpt>
      <trkpt lat="45.21566" lon="5.73169">
        <ele>975.79998779297</ele>
        <time>2021-11-26T05:01:47.000Z</time>
      </trkpt>
      <trkpt lat="45.21566" lon="5.73165">
        <ele>976.59997558594</ele>
        <time>2021-11-26T05:01:49.000Z</time>
      </trkpt>
      <trkpt lat="45.21567" lon="5.73165">
        <ele>976.79998779297</ele>
        <time>2021-11-26T05:01:50.000Z</time>
      </trkpt>
      <trkpt lat="45.21567" lon="5.73163">
        <ele>977</ele>
        <time>2021-11-26T05:01:51.000Z</time>
      </trkpt>
      <trkpt lat="45.21567" lon="5.73162">
        <ele>977.20001220703</ele>
        <time>2021-11-26T05:01:52.000Z</time>
      </trkpt>
      <trkpt lat="45.21573" lon="5.73158">
        <ele>978.20001220703</ele>
        <time>2021-11-26T05:01:55.000Z</time>
      </trkpt>
      <trkpt lat="45.21574" lon="5.73158">
        <ele>978.59997558594</ele>
        <time>2021-11-26T05:01:56.000Z</time>
      </trkpt>
      <trkpt lat="45.21575" lon="5.73156">
        <ele>979.40002441406</ele>
        <time>2021-11-26T05:01:58.000Z</time>
      </trkpt>
      <trkpt lat="45.21575" lon="5.73155">
        <ele>980</ele>
        <time>2021-11-26T05:02:00.000Z</time>
      </trkpt>
      <trkpt lat="45.21574" lon="5.73155">
        <ele>980.40002441406</ele>
        <time>2021-11-26T05:02:01.000Z</time>
      </trkpt>
      <trkpt lat="45.21573" lon="5.73155">
        <ele>980.59997558594</ele>
        <time>2021-11-26T05:02:02.000Z</time>
      </trkpt>
      <trkpt lat="45.21574" lon="5.73153">
        <ele>980.59997558594</ele>
        <time>2021-11-26T05:02:03.000Z</time>
      </trkpt>
      <trkpt lat="45.21574" lon="5.7315">
        <ele>981.40002441406</ele>
        <time>2021-11-26T05:02:06.000Z</time>
      </trkpt>
      <trkpt lat="45.21574" lon="5.73149">
        <ele>981.79998779297</ele>
        <time>2021-11-26T05:02:07.000Z</time>
      </trkpt>
      <trkpt lat="45.21575" lon="5.73145">
        <ele>983</ele>
        <time>2021-11-26T05:02:11.000Z</time>
      </trkpt>
      <trkpt lat="45.21575" lon="5.73143">
        <ele>983.20001220703</ele>
        <time>2021-11-26T05:02:12.000Z</time>
      </trkpt>
      <trkpt lat="45.21576" lon="5.7314">
        <ele>984.40002441406</ele>
        <time>2021-11-26T05:02:15.000Z</time>
      </trkpt>
      <trkpt lat="45.21577" lon="5.7314">
        <ele>985</ele>
        <time>2021-11-26T05:02:17.000Z</time>
      </trkpt>
      <trkpt lat="45.21578" lon="5.7314">
        <ele>985.40002441406</ele>
        <time>2021-11-26T05:02:18.000Z</time>
      </trkpt>
      <trkpt lat="45.21578" lon="5.73139">
        <ele>985.59997558594</ele>
        <time>2021-11-26T05:02:19.000Z</time>
      </trkpt>
      <trkpt lat="45.21581" lon="5.73139">
        <ele>986.20001220703</ele>
        <time>2021-11-26T05:02:22.000Z</time>
      </trkpt>
      <trkpt lat="45.21582" lon="5.73138">
        <ele>986.59997558594</ele>
        <time>2021-11-26T05:02:23.000Z</time>
      </trkpt>
      <trkpt lat="45.21582" lon="5.73137">
        <ele>986.79998779297</ele>
        <time>2021-11-26T05:02:24.000Z</time>
      </trkpt>
      <trkpt lat="45.21582" lon="5.73134">
        <ele>987.79998779297</ele>
        <time>2021-11-26T05:02:27.000Z</time>
      </trkpt>
      <trkpt lat="45.21582" lon="5.73133">
        <ele>988</ele>
        <time>2021-11-26T05:02:28.000Z</time>
      </trkpt>
      <trkpt lat="45.21582" lon="5.73129">
        <ele>988.59997558594</ele>
        <time>2021-11-26T05:02:31.000Z</time>
      </trkpt>
      <trkpt lat="45.21582" lon="5.73129">
        <ele>988.79998779297</ele>
        <time>2021-11-26T05:02:32.000Z</time>
      </trkpt>
      <trkpt lat="45.21582" lon="5.73127">
        <ele>989</ele>
        <time>2021-11-26T05:02:33.000Z</time>
      </trkpt>
      <trkpt lat="45.21582" lon="5.73125">
        <ele>990</ele>
        <time>2021-11-26T05:02:36.000Z</time>
      </trkpt>
      <trkpt lat="45.21582" lon="5.73124">
        <ele>990.20001220703</ele>
        <time>2021-11-26T05:02:37.000Z</time>
      </trkpt>
      <trkpt lat="45.21582" lon="5.73122">
        <ele>991</ele>
        <time>2021-11-26T05:02:40.000Z</time>
      </trkpt>
      <trkpt lat="45.21583" lon="5.73122">
        <ele>991.20001220703</ele>
        <time>2021-11-26T05:02:41.000Z</time>
      </trkpt>
      <trkpt lat="45.21583" lon="5.73121">
        <ele>991.40002441406</ele>
        <time>2021-11-26T05:02:42.000Z</time>
      </trkpt>
      <trkpt lat="45.21587" lon="5.73118">
        <ele>992.59997558594</ele>
        <time>2021-11-26T05:02:47.000Z</time>
      </trkpt>
      <trkpt lat="45.21588" lon="5.73117">
        <ele>993</ele>
        <time>2021-11-26T05:02:48.000Z</time>
      </trkpt>
      <trkpt lat="45.2159" lon="5.73116">
        <ele>993.79998779297</ele>
        <time>2021-11-26T05:02:50.000Z</time>
      </trkpt>
      <trkpt lat="45.21593" lon="5.73116">
        <ele>994</ele>
        <time>2021-11-26T05:02:53.000Z</time>
      </trkpt>
      <trkpt lat="45.21599" lon="5.73122">
        <ele>994.79998779297</ele>
        <time>2021-11-26T05:02:58.000Z</time>
      </trkpt>
      <trkpt lat="45.21601" lon="5.73123">
        <ele>995</ele>
        <time>2021-11-26T05:03:00.000Z</time>
      </trkpt>
      <trkpt lat="45.21606" lon="5.73127">
        <ele>995.79998779297</ele>
        <time>2021-11-26T05:03:04.000Z</time>
      </trkpt>
      <trkpt lat="45.21611" lon="5.73129">
        <ele>997</ele>
        <time>2021-11-26T05:03:09.000Z</time>
      </trkpt>
      <trkpt lat="45.21613" lon="5.73131">
        <ele>997.40002441406</ele>
        <time>2021-11-26T05:03:11.000Z</time>
      </trkpt>
      <trkpt lat="45.21618" lon="5.73135">
        <ele>998.20001220703</ele>
        <time>2021-11-26T05:03:15.000Z</time>
      </trkpt>
      <trkpt lat="45.21619" lon="5.73135">
        <ele>998.59997558594</ele>
        <time>2021-11-26T05:03:16.000Z</time>
      </trkpt>
      <trkpt lat="45.21622" lon="5.73136">
        <ele>999.20001220703</ele>
        <time>2021-11-26T05:03:19.000Z</time>
      </trkpt>
      <trkpt lat="45.21625" lon="5.73137">
        <ele>1000.200012207</ele>
        <time>2021-11-26T05:03:22.000Z</time>
      </trkpt>
      <trkpt lat="45.21627" lon="5.73137">
        <ele>1000.5999755859</ele>
        <time>2021-11-26T05:03:23.000Z</time>
      </trkpt>
      <trkpt lat="45.21632" lon="5.7314">
        <ele>1001.5999755859</ele>
        <time>2021-11-26T05:03:28.000Z</time>
      </trkpt>
      <trkpt lat="45.21633" lon="5.73139">
        <ele>1002</ele>
        <time>2021-11-26T05:03:29.000Z</time>
      </trkpt>
      <trkpt lat="45.21634" lon="5.73138">
        <ele>1002.5999755859</ele>
        <time>2021-11-26T05:03:31.000Z</time>
      </trkpt>
      <trkpt lat="45.21635" lon="5.73137">
        <ele>1003</ele>
        <time>2021-11-26T05:03:32.000Z</time>
      </trkpt>
      <trkpt lat="45.21636" lon="5.73137">
        <ele>1003.200012207</ele>
        <time>2021-11-26T05:03:33.000Z</time>
      </trkpt>
      <trkpt lat="45.21636" lon="5.73137">
        <ele>1003.4000244141</ele>
        <time>2021-11-26T05:03:34.000Z</time>
      </trkpt>
      <trkpt lat="45.21639" lon="5.73135">
        <ele>1004.4000244141</ele>
        <time>2021-11-26T05:03:38.000Z</time>
      </trkpt>
      <trkpt lat="45.2164" lon="5.73134">
        <ele>1004.5999755859</ele>
        <time>2021-11-26T05:03:39.000Z</time>
      </trkpt>
      <trkpt lat="45.21643" lon="5.73134">
        <ele>1005.200012207</ele>
        <time>2021-11-26T05:03:41.000Z</time>
      </trkpt>
      <trkpt lat="45.21645" lon="5.73135">
        <ele>1005.5999755859</ele>
        <time>2021-11-26T05:03:43.000Z</time>
      </trkpt>
      <trkpt lat="45.21648" lon="5.73135">
        <ele>1006.5999755859</ele>
        <time>2021-11-26T05:03:47.000Z</time>
      </trkpt>
      <trkpt lat="45.2165" lon="5.73134">
        <ele>1007.200012207</ele>
        <time>2021-11-26T05:03:49.000Z</time>
      </trkpt>
      <trkpt lat="45.21652" lon="5.73134">
        <ele>1007.5999755859</ele>
        <time>2021-11-26T05:03:51.000Z</time>
      </trkpt>
      <trkpt lat="45.21654" lon="5.73135">
        <ele>1008.200012207</ele>
        <time>2021-11-26T05:03:53.000Z</time>
      </trkpt>
      <trkpt lat="45.21656" lon="5.73131">
        <ele>1009</ele>
        <time>2021-11-26T05:03:56.000Z</time>
      </trkpt>
      <trkpt lat="45.21657" lon="5.73131">
        <ele>1009.4000244141</ele>
        <time>2021-11-26T05:03:58.000Z</time>
      </trkpt>
      <trkpt lat="45.21658" lon="5.7313">
        <ele>1009.5999755859</ele>
        <time>2021-11-26T05:03:59.000Z</time>
      </trkpt>
      <trkpt lat="45.21659" lon="5.7313">
        <ele>1010.4000244141</ele>
        <time>2021-11-26T05:04:02.000Z</time>
      </trkpt>
      <trkpt lat="45.21659" lon="5.73132">
        <ele>1010.5999755859</ele>
        <time>2021-11-26T05:04:03.000Z</time>
      </trkpt>
      <trkpt lat="45.21662" lon="5.73135">
        <ele>1011.4000244141</ele>
        <time>2021-11-26T05:04:05.000Z</time>
      </trkpt>
      <trkpt lat="45.21662" lon="5.73135">
        <ele>1011.5999755859</ele>
        <time>2021-11-26T05:04:06.000Z</time>
      </trkpt>
      <trkpt lat="45.21664" lon="5.73136">
        <ele>1012.4000244141</ele>
        <time>2021-11-26T05:04:09.000Z</time>
      </trkpt>
      <trkpt lat="45.21665" lon="5.73136">
        <ele>1012.799987793</ele>
        <time>2021-11-26T05:04:11.000Z</time>
      </trkpt>
      <trkpt lat="45.21668" lon="5.73137">
        <ele>1013.799987793</ele>
        <time>2021-11-26T05:04:15.000Z</time>
      </trkpt>
      <trkpt lat="45.21669" lon="5.73138">
        <ele>1014</ele>
        <time>2021-11-26T05:04:16.000Z</time>
      </trkpt>
      <trkpt lat="45.21671" lon="5.73142">
        <ele>1015</ele>
        <time>2021-11-26T05:04:20.000Z</time>
      </trkpt>
      <trkpt lat="45.21672" lon="5.73143">
        <ele>1016</ele>
        <time>2021-11-26T05:04:23.000Z</time>
      </trkpt>
      <trkpt lat="45.21672" lon="5.73144">
        <ele>1016.200012207</ele>
        <time>2021-11-26T05:04:24.000Z</time>
      </trkpt>
      <trkpt lat="45.21673" lon="5.73147">
        <ele>1017.200012207</ele>
        <time>2021-11-26T05:04:28.000Z</time>
      </trkpt>
      <trkpt lat="45.21674" lon="5.73148">
        <ele>1017.5999755859</ele>
        <time>2021-11-26T05:04:30.000Z</time>
      </trkpt>
      <trkpt lat="45.21676" lon="5.73152">
        <ele>1018.5999755859</ele>
        <time>2021-11-26T05:04:33.000Z</time>
      </trkpt>
      <trkpt lat="45.21678" lon="5.73156">
        <ele>1019.5999755859</ele>
        <time>2021-11-26T05:04:36.000Z</time>
      </trkpt>
      <trkpt lat="45.21678" lon="5.73157">
        <ele>1019.5999755859</ele>
        <time>2021-11-26T05:04:37.000Z</time>
      </trkpt>
      <trkpt lat="45.21683" lon="5.73163">
        <ele>1020.799987793</ele>
        <time>2021-11-26T05:04:42.000Z</time>
      </trkpt>
      <trkpt lat="45.21683" lon="5.73165">
        <ele>1021</ele>
        <time>2021-11-26T05:04:43.000Z</time>
      </trkpt>
      <trkpt lat="45.21683" lon="5.73166">
        <ele>1021.4000244141</ele>
        <time>2021-11-26T05:04:44.000Z</time>
      </trkpt>
      <trkpt lat="45.21685" lon="5.73168">
        <ele>1021.799987793</ele>
        <time>2021-11-26T05:04:46.000Z</time>
      </trkpt>
      <trkpt lat="45.21687" lon="5.73173">
        <ele>1022.799987793</ele>
        <time>2021-11-26T05:04:50.000Z</time>
      </trkpt>
      <trkpt lat="45.2169" lon="5.7318">
        <ele>1024</ele>
        <time>2021-11-26T05:04:55.000Z</time>
      </trkpt>
      <trkpt lat="45.2169" lon="5.73181">
        <ele>1024.1999511719</ele>
        <time>2021-11-26T05:04:56.000Z</time>
      </trkpt>
      <trkpt lat="45.21691" lon="5.73185">
        <ele>1025</ele>
        <time>2021-11-26T05:04:59.000Z</time>
      </trkpt>
      <trkpt lat="45.21693" lon="5.73188">
        <ele>1025.4000244141</ele>
        <time>2021-11-26T05:05:01.000Z</time>
      </trkpt>
      <trkpt lat="45.21695" lon="5.73191">
        <ele>1025.8000488281</ele>
        <time>2021-11-26T05:05:03.000Z</time>
      </trkpt>
      <trkpt lat="45.21701" lon="5.73199">
        <ele>1026.1999511719</ele>
        <time>2021-11-26T05:05:08.000Z</time>
      </trkpt>
      <trkpt lat="45.21704" lon="5.73203">
        <ele>1026.4000244141</ele>
        <time>2021-11-26T05:05:11.000Z</time>
      </trkpt>
      <trkpt lat="45.21707" lon="5.73207">
        <ele>1026.4000244141</ele>
        <time>2021-11-26T05:05:14.000Z</time>
      </trkpt>
      <trkpt lat="45.21713" lon="5.73212">
        <ele>1026.8000488281</ele>
        <time>2021-11-26T05:05:18.000Z</time>
      </trkpt>
      <trkpt lat="45.21716" lon="5.73217">
        <ele>1027.1999511719</ele>
        <time>2021-11-26T05:05:22.000Z</time>
      </trkpt>
      <trkpt lat="45.21718" lon="5.73219">
        <ele>1028</ele>
        <time>2021-11-26T05:05:25.000Z</time>
      </trkpt>
      <trkpt lat="45.21719" lon="5.73219">
        <ele>1028</ele>
        <time>2021-11-26T05:05:26.000Z</time>
      </trkpt>
      <trkpt lat="45.2172" lon="5.73219">
        <ele>1028.4000244141</ele>
        <time>2021-11-26T05:05:27.000Z</time>
      </trkpt>
      <trkpt lat="45.21721" lon="5.73219">
        <ele>1028.8000488281</ele>
        <time>2021-11-26T05:05:28.000Z</time>
      </trkpt>
      <trkpt lat="45.21723" lon="5.73218">
        <ele>1029.4000244141</ele>
        <time>2021-11-26T05:05:31.000Z</time>
      </trkpt>
      <trkpt lat="45.21723" lon="5.73217">
        <ele>1029.8000488281</ele>
        <time>2021-11-26T05:05:32.000Z</time>
      </trkpt>
      <trkpt lat="45.21725" lon="5.73214">
        <ele>1030.8000488281</ele>
        <time>2021-11-26T05:05:36.000Z</time>
      </trkpt>
      <trkpt lat="45.21727" lon="5.73213">
        <ele>1031.4000244141</ele>
        <time>2021-11-26T05:05:38.000Z</time>
      </trkpt>
      <trkpt lat="45.21728" lon="5.73213">
        <ele>1031.5999755859</ele>
        <time>2021-11-26T05:05:39.000Z</time>
      </trkpt>
      <trkpt lat="45.21728" lon="5.73212">
        <ele>1032</ele>
        <time>2021-11-26T05:05:40.000Z</time>
      </trkpt>
      <trkpt lat="45.21729" lon="5.7321">
        <ele>1032.1999511719</ele>
        <time>2021-11-26T05:05:41.000Z</time>
      </trkpt>
      <trkpt lat="45.21731" lon="5.73207">
        <ele>1032.5999755859</ele>
        <time>2021-11-26T05:05:44.000Z</time>
      </trkpt>
      <trkpt lat="45.21733" lon="5.73205">
        <ele>1032.5999755859</ele>
        <time>2021-11-26T05:05:46.000Z</time>
      </trkpt>
      <trkpt lat="45.21738" lon="5.73203">
        <ele>1032.8000488281</ele>
        <time>2021-11-26T05:05:50.000Z</time>
      </trkpt>
      <trkpt lat="45.21741" lon="5.73202">
        <ele>1033</ele>
        <time>2021-11-26T05:05:53.000Z</time>
      </trkpt>
      <trkpt lat="45.21743" lon="5.73202">
        <ele>1032.5999755859</ele>
        <time>2021-11-26T05:05:55.000Z</time>
      </trkpt>
      <trkpt lat="45.21744" lon="5.73202">
        <ele>1032.4000244141</ele>
        <time>2021-11-26T05:05:56.000Z</time>
      </trkpt>
      <trkpt lat="45.21754" lon="5.73207">
        <ele>1031.4000244141</ele>
        <time>2021-11-26T05:06:03.000Z</time>
      </trkpt>
      <trkpt lat="45.21755" lon="5.73209">
        <ele>1031.4000244141</ele>
        <time>2021-11-26T05:06:05.000Z</time>
      </trkpt>
      <trkpt lat="45.21755" lon="5.73211">
        <ele>1031.5999755859</ele>
        <time>2021-11-26T05:06:07.000Z</time>
      </trkpt>
      <trkpt lat="45.21755" lon="5.73212">
        <ele>1032.1999511719</ele>
        <time>2021-11-26T05:06:08.000Z</time>
      </trkpt>
      <trkpt lat="45.21757" lon="5.73217">
        <ele>1033.1999511719</ele>
        <time>2021-11-26T05:06:11.000Z</time>
      </trkpt>
      <trkpt lat="45.21758" lon="5.7322">
        <ele>1034.1999511719</ele>
        <time>2021-11-26T05:06:14.000Z</time>
      </trkpt>
      <trkpt lat="45.21758" lon="5.73221">
        <ele>1034.5999755859</ele>
        <time>2021-11-26T05:06:15.000Z</time>
      </trkpt>
      <trkpt lat="45.21762" lon="5.73225">
        <ele>1035.4000244141</ele>
        <time>2021-11-26T05:06:19.000Z</time>
      </trkpt>
      <trkpt lat="45.21765" lon="5.73227">
        <ele>1035.4000244141</ele>
        <time>2021-11-26T05:06:22.000Z</time>
      </trkpt>
      <trkpt lat="45.21768" lon="5.73232">
        <ele>1035.1999511719</ele>
        <time>2021-11-26T05:06:27.000Z</time>
      </trkpt>
      <trkpt lat="45.2177" lon="5.73232">
        <ele>1035.4000244141</ele>
        <time>2021-11-26T05:06:29.000Z</time>
      </trkpt>
      <trkpt lat="45.21778" lon="5.73238">
        <ele>1035.1999511719</ele>
        <time>2021-11-26T05:06:35.000Z</time>
      </trkpt>
      <trkpt lat="45.21779" lon="5.73238">
        <ele>1035.1999511719</ele>
        <time>2021-11-26T05:06:36.000Z</time>
      </trkpt>
      <trkpt lat="45.2178" lon="5.73241">
        <ele>1035.5999755859</ele>
        <time>2021-11-26T05:06:39.000Z</time>
      </trkpt>
      <trkpt lat="45.21782" lon="5.73244">
        <ele>1036.1999511719</ele>
        <time>2021-11-26T05:06:41.000Z</time>
      </trkpt>
      <trkpt lat="45.21782" lon="5.73246">
        <ele>1036.4000244141</ele>
        <time>2021-11-26T05:06:42.000Z</time>
      </trkpt>
      <trkpt lat="45.21783" lon="5.73248">
        <ele>1036.5999755859</ele>
        <time>2021-11-26T05:06:43.000Z</time>
      </trkpt>
      <trkpt lat="45.21784" lon="5.73251">
        <ele>1036.8000488281</ele>
        <time>2021-11-26T05:06:45.000Z</time>
      </trkpt>
      <trkpt lat="45.21785" lon="5.73253">
        <ele>1037.5999755859</ele>
        <time>2021-11-26T05:06:47.000Z</time>
      </trkpt>
      <trkpt lat="45.21786" lon="5.73254">
        <ele>1038</ele>
        <time>2021-11-26T05:06:48.000Z</time>
      </trkpt>
      <trkpt lat="45.21787" lon="5.73256">
        <ele>1038.1999511719</ele>
        <time>2021-11-26T05:06:49.000Z</time>
      </trkpt>
      <trkpt lat="45.21786" lon="5.73261">
        <ele>1038.8000488281</ele>
        <time>2021-11-26T05:06:51.000Z</time>
      </trkpt>
      <trkpt lat="45.21783" lon="5.73264">
        <ele>1039.4000244141</ele>
        <time>2021-11-26T05:06:53.000Z</time>
      </trkpt>
      <trkpt lat="45.21781" lon="5.73266">
        <ele>1039.8000488281</ele>
        <time>2021-11-26T05:06:55.000Z</time>
      </trkpt>
      <trkpt lat="45.21781" lon="5.73267">
        <ele>1039.8000488281</ele>
        <time>2021-11-26T05:06:56.000Z</time>
      </trkpt>
      <trkpt lat="45.21781" lon="5.73273">
        <ele>1040.4000244141</ele>
        <time>2021-11-26T05:06:59.000Z</time>
      </trkpt>
      <trkpt lat="45.21786" lon="5.73278">
        <ele>1040.8000488281</ele>
        <time>2021-11-26T05:07:03.000Z</time>
      </trkpt>
      <trkpt lat="45.21786" lon="5.73278">
        <ele>1041</ele>
        <time>2021-11-26T05:07:04.000Z</time>
      </trkpt>
      <trkpt lat="45.21787" lon="5.73279">
        <ele>1041.1999511719</ele>
        <time>2021-11-26T05:07:05.000Z</time>
      </trkpt>
      <trkpt lat="45.21788" lon="5.7328">
        <ele>1041.5999755859</ele>
        <time>2021-11-26T05:07:07.000Z</time>
      </trkpt>
      <trkpt lat="45.21791" lon="5.73282">
        <ele>1042.1999511719</ele>
        <time>2021-11-26T05:07:10.000Z</time>
      </trkpt>
      <trkpt lat="45.21795" lon="5.73285">
        <ele>1043.1999511719</ele>
        <time>2021-11-26T05:07:14.000Z</time>
      </trkpt>
      <trkpt lat="45.21798" lon="5.73289">
        <ele>1043.8000488281</ele>
        <time>2021-11-26T05:07:17.000Z</time>
      </trkpt>
      <trkpt lat="45.21799" lon="5.73292">
        <ele>1044.1999511719</ele>
        <time>2021-11-26T05:07:19.000Z</time>
      </trkpt>
      <trkpt lat="45.21802" lon="5.73294">
        <ele>1044.4000244141</ele>
        <time>2021-11-26T05:07:21.000Z</time>
      </trkpt>
      <trkpt lat="45.21803" lon="5.73295">
        <ele>1044.5999755859</ele>
        <time>2021-11-26T05:07:22.000Z</time>
      </trkpt>
      <trkpt lat="45.21806" lon="5.73297">
        <ele>1044.8000488281</ele>
        <time>2021-11-26T05:07:25.000Z</time>
      </trkpt>
      <trkpt lat="45.21808" lon="5.733">
        <ele>1045.1999511719</ele>
        <time>2021-11-26T05:07:27.000Z</time>
      </trkpt>
      <trkpt lat="45.21809" lon="5.73303">
        <ele>1045.4000244141</ele>
        <time>2021-11-26T05:07:29.000Z</time>
      </trkpt>
      <trkpt lat="45.2181" lon="5.73306">
        <ele>1046</ele>
        <time>2021-11-26T05:07:31.000Z</time>
      </trkpt>
      <trkpt lat="45.21813" lon="5.73307">
        <ele>1046.5999755859</ele>
        <time>2021-11-26T05:07:33.000Z</time>
      </trkpt>
      <trkpt lat="45.21814" lon="5.73308">
        <ele>1046.5999755859</ele>
        <time>2021-11-26T05:07:34.000Z</time>
      </trkpt>
      <trkpt lat="45.21819" lon="5.7331">
        <ele>1047</ele>
        <time>2021-11-26T05:07:37.000Z</time>
      </trkpt>
      <trkpt lat="45.21821" lon="5.73311">
        <ele>1047.1999511719</ele>
        <time>2021-11-26T05:07:39.000Z</time>
      </trkpt>
      <trkpt lat="45.21822" lon="5.73313">
        <ele>1047.4000244141</ele>
        <time>2021-11-26T05:07:41.000Z</time>
      </trkpt>
      <trkpt lat="45.21823" lon="5.73314">
        <ele>1048</ele>
        <time>2021-11-26T05:07:42.000Z</time>
      </trkpt>
      <trkpt lat="45.21824" lon="5.73315">
        <ele>1048.4000244141</ele>
        <time>2021-11-26T05:07:43.000Z</time>
      </trkpt>
      <trkpt lat="45.21827" lon="5.73318">
        <ele>1049.1999511719</ele>
        <time>2021-11-26T05:07:46.000Z</time>
      </trkpt>
      <trkpt lat="45.21828" lon="5.73319">
        <ele>1049.4000244141</ele>
        <time>2021-11-26T05:07:47.000Z</time>
      </trkpt>
      <trkpt lat="45.21833" lon="5.73324">
        <ele>1050.4000244141</ele>
        <time>2021-11-26T05:07:52.000Z</time>
      </trkpt>
      <trkpt lat="45.21836" lon="5.73327">
        <ele>1051</ele>
        <time>2021-11-26T05:07:55.000Z</time>
      </trkpt>
      <trkpt lat="45.2184" lon="5.73333">
        <ele>1051.5999755859</ele>
        <time>2021-11-26T05:07:59.000Z</time>
      </trkpt>
      <trkpt lat="45.21845" lon="5.7334">
        <ele>1052</ele>
        <time>2021-11-26T05:08:03.000Z</time>
      </trkpt>
      <trkpt lat="45.21846" lon="5.73341">
        <ele>1052</ele>
        <time>2021-11-26T05:08:04.000Z</time>
      </trkpt>
      <trkpt lat="45.21848" lon="5.73343">
        <ele>1052.1999511719</ele>
        <time>2021-11-26T05:08:08.000Z</time>
      </trkpt>
      <trkpt lat="45.21849" lon="5.73343">
        <ele>1052.1999511719</ele>
        <time>2021-11-26T05:08:09.000Z</time>
      </trkpt>
      <trkpt lat="45.21849" lon="5.73343">
        <ele>1052.4000244141</ele>
        <time>2021-11-26T05:08:10.000Z</time>
      </trkpt>
      <trkpt lat="45.2185" lon="5.73344">
        <ele>1052.5999755859</ele>
        <time>2021-11-26T05:08:13.000Z</time>
      </trkpt>
      <trkpt lat="45.2185" lon="5.73344">
        <ele>1052.5999755859</ele>
        <time>2021-11-26T05:08:15.000Z</time>
      </trkpt>
      <trkpt lat="45.21847" lon="5.73346">
        <ele>1052.5999755859</ele>
        <time>2021-11-26T05:08:22.000Z</time>
      </trkpt>
      <trkpt lat="45.21846" lon="5.73346">
        <ele>1052</ele>
        <time>2021-11-26T05:08:27.000Z</time>
      </trkpt>
      <trkpt lat="45.21846" lon="5.73346">
        <ele>1051.8000488281</ele>
        <time>2021-11-26T05:08:33.000Z</time>
      </trkpt>
      <trkpt lat="45.21847" lon="5.73346">
        <ele>1051.5999755859</ele>
        <time>2021-11-26T05:08:40.000Z</time>
      </trkpt>
      <trkpt lat="45.21847" lon="5.73346">
        <ele>1051.5999755859</ele>
        <time>2021-11-26T05:08:44.000Z</time>
      </trkpt>
      <trkpt lat="45.21847" lon="5.73346">
        <ele>1051.5999755859</ele>
        <time>2021-11-26T05:08:51.000Z</time>
      </trkpt>
      <trkpt lat="45.21847" lon="5.73346">
        <ele>1051.5999755859</ele>
        <time>2021-11-26T05:08:53.000Z</time>
      </trkpt>
      <trkpt lat="45.21848" lon="5.73346">
        <ele>1051.4000244141</ele>
        <time>2021-11-26T05:09:03.000Z</time>
      </trkpt>
      <trkpt lat="45.21848" lon="5.73344">
        <ele>1051.1999511719</ele>
        <time>2021-11-26T05:09:14.000Z</time>
      </trkpt>
      <trkpt lat="45.21848" lon="5.73344">
        <ele>1051.1999511719</ele>
        <time>2021-11-26T05:09:18.000Z</time>
      </trkpt>
      <trkpt lat="45.21848" lon="5.73344">
        <ele>1051.4000244141</ele>
        <time>2021-11-26T05:09:21.000Z</time>
      </trkpt>
      <trkpt lat="45.21847" lon="5.73344">
        <ele>1051.4000244141</ele>
        <time>2021-11-26T05:09:24.000Z</time>
      </trkpt>
      <trkpt lat="45.21847" lon="5.73344">
        <ele>1051.4000244141</ele>
        <time>2021-11-26T05:09:27.000Z</time>
      </trkpt>
      <trkpt lat="45.21847" lon="5.73344">
        <ele>1051.4000244141</ele>
        <time>2021-11-26T05:09:30.000Z</time>
      </trkpt>
      <trkpt lat="45.21847" lon="5.73345">
        <ele>1051.4000244141</ele>
        <time>2021-11-26T05:09:34.000Z</time>
      </trkpt>
      <trkpt lat="45.21846" lon="5.73346">
        <ele>1051.4000244141</ele>
        <time>2021-11-26T05:09:38.000Z</time>
      </trkpt>
      <trkpt lat="45.21846" lon="5.73346">
        <ele>1051.4000244141</ele>
        <time>2021-11-26T05:09:42.000Z</time>
      </trkpt>
      <trkpt lat="45.21845" lon="5.73347">
        <ele>1051.4000244141</ele>
        <time>2021-11-26T05:09:53.000Z</time>
      </trkpt>
      <trkpt lat="45.21845" lon="5.73347">
        <ele>1051.4000244141</ele>
        <time>2021-11-26T05:10:16.000Z</time>
      </trkpt>
      <trkpt lat="45.21841" lon="5.73342">
        <ele>1051.4000244141</ele>
        <time>2021-11-26T05:10:20.000Z</time>
      </trkpt>
      <trkpt lat="45.21833" lon="5.7333">
        <ele>1051.4000244141</ele>
        <time>2021-11-26T05:10:27.000Z</time>
      </trkpt>
      <trkpt lat="45.21828" lon="5.73324">
        <ele>1050.5999755859</ele>
        <time>2021-11-26T05:10:33.000Z</time>
      </trkpt>
      <trkpt lat="45.21827" lon="5.73323">
        <ele>1050.4000244141</ele>
        <time>2021-11-26T05:10:34.000Z</time>
      </trkpt>
      <trkpt lat="45.21824" lon="5.73319">
        <ele>1049.4000244141</ele>
        <time>2021-11-26T05:10:38.000Z</time>
      </trkpt>
      <trkpt lat="45.21823" lon="5.73317">
        <ele>1049</ele>
        <time>2021-11-26T05:10:40.000Z</time>
      </trkpt>
      <trkpt lat="45.21822" lon="5.73316">
        <ele>1048.5999755859</ele>
        <time>2021-11-26T05:10:41.000Z</time>
      </trkpt>
      <trkpt lat="45.2182" lon="5.73313">
        <ele>1048.4000244141</ele>
        <time>2021-11-26T05:10:43.000Z</time>
      </trkpt>
      <trkpt lat="45.21819" lon="5.73312">
        <ele>1048</ele>
        <time>2021-11-26T05:10:44.000Z</time>
      </trkpt>
      <trkpt lat="45.21816" lon="5.73311">
        <ele>1047.4000244141</ele>
        <time>2021-11-26T05:10:46.000Z</time>
      </trkpt>
      <trkpt lat="45.21814" lon="5.73309">
        <ele>1047</ele>
        <time>2021-11-26T05:10:48.000Z</time>
      </trkpt>
      <trkpt lat="45.21811" lon="5.73304">
        <ele>1046.4000244141</ele>
        <time>2021-11-26T05:10:51.000Z</time>
      </trkpt>
      <trkpt lat="45.21805" lon="5.73296">
        <ele>1045.1999511719</ele>
        <time>2021-11-26T05:10:56.000Z</time>
      </trkpt>
      <trkpt lat="45.21798" lon="5.73286">
        <ele>1044</ele>
        <time>2021-11-26T05:11:02.000Z</time>
      </trkpt>
      <trkpt lat="45.21797" lon="5.73285">
        <ele>1044</ele>
        <time>2021-11-26T05:11:03.000Z</time>
      </trkpt>
      <trkpt lat="45.21794" lon="5.73284">
        <ele>1043.4000244141</ele>
        <time>2021-11-26T05:11:05.000Z</time>
      </trkpt>
      <trkpt lat="45.21793" lon="5.73284">
        <ele>1043</ele>
        <time>2021-11-26T05:11:06.000Z</time>
      </trkpt>
      <trkpt lat="45.21792" lon="5.73282">
        <ele>1042.5999755859</ele>
        <time>2021-11-26T05:11:08.000Z</time>
      </trkpt>
      <trkpt lat="45.21789" lon="5.7328">
        <ele>1042</ele>
        <time>2021-11-26T05:11:12.000Z</time>
      </trkpt>
      <trkpt lat="45.21788" lon="5.7328">
        <ele>1041.4000244141</ele>
        <time>2021-11-26T05:11:13.000Z</time>
      </trkpt>
      <trkpt lat="45.21786" lon="5.73278">
        <ele>1041.1999511719</ele>
        <time>2021-11-26T05:11:14.000Z</time>
      </trkpt>
      <trkpt lat="45.21785" lon="5.73277">
        <ele>1040.8000488281</ele>
        <time>2021-11-26T05:11:15.000Z</time>
      </trkpt>
      <trkpt lat="45.21785" lon="5.73276">
        <ele>1040.4000244141</ele>
        <time>2021-11-26T05:11:16.000Z</time>
      </trkpt>
      <trkpt lat="45.21782" lon="5.7327">
        <ele>1039.8000488281</ele>
        <time>2021-11-26T05:11:19.000Z</time>
      </trkpt>
      <trkpt lat="45.21783" lon="5.73269">
        <ele>1039.5999755859</ele>
        <time>2021-11-26T05:11:20.000Z</time>
      </trkpt>
      <trkpt lat="45.21785" lon="5.73265">
        <ele>1039.1999511719</ele>
        <time>2021-11-26T05:11:23.000Z</time>
      </trkpt>
      <trkpt lat="45.21785" lon="5.73264">
        <ele>1039.1999511719</ele>
        <time>2021-11-26T05:11:24.000Z</time>
      </trkpt>
      <trkpt lat="45.21785" lon="5.73261">
        <ele>1038.8000488281</ele>
        <time>2021-11-26T05:11:26.000Z</time>
      </trkpt>
      <trkpt lat="45.21785" lon="5.7326">
        <ele>1038.5999755859</ele>
        <time>2021-11-26T05:11:27.000Z</time>
      </trkpt>
      <trkpt lat="45.21784" lon="5.73259">
        <ele>1038.1999511719</ele>
        <time>2021-11-26T05:11:28.000Z</time>
      </trkpt>
      <trkpt lat="45.21783" lon="5.73256">
        <ele>1037.8000488281</ele>
        <time>2021-11-26T05:11:30.000Z</time>
      </trkpt>
      <trkpt lat="45.21782" lon="5.73255">
        <ele>1037.4000244141</ele>
        <time>2021-11-26T05:11:31.000Z</time>
      </trkpt>
      <trkpt lat="45.21781" lon="5.73252">
        <ele>1036.8000488281</ele>
        <time>2021-11-26T05:11:33.000Z</time>
      </trkpt>
      <trkpt lat="45.2178" lon="5.73249">
        <ele>1036.1999511719</ele>
        <time>2021-11-26T05:11:35.000Z</time>
      </trkpt>
      <trkpt lat="45.21779" lon="5.73246">
        <ele>1035.4000244141</ele>
        <time>2021-11-26T05:11:38.000Z</time>
      </trkpt>
      <trkpt lat="45.21779" lon="5.73244">
        <ele>1035</ele>
        <time>2021-11-26T05:11:39.000Z</time>
      </trkpt>
      <trkpt lat="45.21777" lon="5.73241">
        <ele>1034.4000244141</ele>
        <time>2021-11-26T05:11:41.000Z</time>
      </trkpt>
      <trkpt lat="45.21775" lon="5.73239">
        <ele>1034</ele>
        <time>2021-11-26T05:11:43.000Z</time>
      </trkpt>
      <trkpt lat="45.21771" lon="5.73237">
        <ele>1033.8000488281</ele>
        <time>2021-11-26T05:11:47.000Z</time>
      </trkpt>
      <trkpt lat="45.2177" lon="5.73236">
        <ele>1034</ele>
        <time>2021-11-26T05:11:48.000Z</time>
      </trkpt>
      <trkpt lat="45.21765" lon="5.73229">
        <ele>1033.8000488281</ele>
        <time>2021-11-26T05:11:53.000Z</time>
      </trkpt>
      <trkpt lat="45.21762" lon="5.73223">
        <ele>1033.1999511719</ele>
        <time>2021-11-26T05:12:00.000Z</time>
      </trkpt>
      <trkpt lat="45.21761" lon="5.73219">
        <ele>1032.8000488281</ele>
        <time>2021-11-26T05:12:03.000Z</time>
      </trkpt>
      <trkpt lat="45.2176" lon="5.73219">
        <ele>1032.5999755859</ele>
        <time>2021-11-26T05:12:04.000Z</time>
      </trkpt>
      <trkpt lat="45.2176" lon="5.73218">
        <ele>1032.1999511719</ele>
        <time>2021-11-26T05:12:05.000Z</time>
      </trkpt>
      <trkpt lat="45.21759" lon="5.73218">
        <ele>1031.8000488281</ele>
        <time>2021-11-26T05:12:06.000Z</time>
      </trkpt>
      <trkpt lat="45.21759" lon="5.73217">
        <ele>1031.4000244141</ele>
        <time>2021-11-26T05:12:07.000Z</time>
      </trkpt>
      <trkpt lat="45.21758" lon="5.73214">
        <ele>1031</ele>
        <time>2021-11-26T05:12:10.000Z</time>
      </trkpt>
      <trkpt lat="45.21757" lon="5.73213">
        <ele>1030.4000244141</ele>
        <time>2021-11-26T05:12:11.000Z</time>
      </trkpt>
      <trkpt lat="45.21756" lon="5.73212">
        <ele>1030.1999511719</ele>
        <time>2021-11-26T05:12:12.000Z</time>
      </trkpt>
      <trkpt lat="45.21752" lon="5.73207">
        <ele>1032</ele>
        <time>2021-11-26T05:12:15.000Z</time>
      </trkpt>
      <trkpt lat="45.2175" lon="5.73206">
        <ele>1032</ele>
        <time>2021-11-26T05:12:16.000Z</time>
      </trkpt>
      <trkpt lat="45.21748" lon="5.73206">
        <ele>1032</ele>
        <time>2021-11-26T05:12:18.000Z</time>
      </trkpt>
      <trkpt lat="45.21745" lon="5.73207">
        <ele>1032.1999511719</ele>
        <time>2021-11-26T05:12:21.000Z</time>
      </trkpt>
      <trkpt lat="45.21743" lon="5.73208">
        <ele>1032.5999755859</ele>
        <time>2021-11-26T05:12:23.000Z</time>
      </trkpt>
      <trkpt lat="45.21738" lon="5.73207">
        <ele>1033</ele>
        <time>2021-11-26T05:12:26.000Z</time>
      </trkpt>
      <trkpt lat="45.21737" lon="5.73207">
        <ele>1033.1999511719</ele>
        <time>2021-11-26T05:12:27.000Z</time>
      </trkpt>
      <trkpt lat="45.21736" lon="5.73208">
        <ele>1033.1999511719</ele>
        <time>2021-11-26T05:12:28.000Z</time>
      </trkpt>
      <trkpt lat="45.21733" lon="5.73212">
        <ele>1032.4000244141</ele>
        <time>2021-11-26T05:12:33.000Z</time>
      </trkpt>
      <trkpt lat="45.21733" lon="5.73212">
        <ele>1032.4000244141</ele>
        <time>2021-11-26T05:12:34.000Z</time>
      </trkpt>
      <trkpt lat="45.21732" lon="5.73213">
        <ele>1032</ele>
        <time>2021-11-26T05:12:37.000Z</time>
      </trkpt>
      <trkpt lat="45.2173" lon="5.73216">
        <ele>1031.4000244141</ele>
        <time>2021-11-26T05:12:40.000Z</time>
      </trkpt>
      <trkpt lat="45.21729" lon="5.73217">
        <ele>1030.5999755859</ele>
        <time>2021-11-26T05:12:43.000Z</time>
      </trkpt>
      <trkpt lat="45.21728" lon="5.73219">
        <ele>1030.1999511719</ele>
        <time>2021-11-26T05:12:45.000Z</time>
      </trkpt>
      <trkpt lat="45.21727" lon="5.73219">
        <ele>1029.5999755859</ele>
        <time>2021-11-26T05:12:48.000Z</time>
      </trkpt>
      <trkpt lat="45.21725" lon="5.73217">
        <ele>1029</ele>
        <time>2021-11-26T05:12:50.000Z</time>
      </trkpt>
      <trkpt lat="45.21723" lon="5.73216">
        <ele>1028.4000244141</ele>
        <time>2021-11-26T05:12:52.000Z</time>
      </trkpt>
      <trkpt lat="45.2172" lon="5.73217">
        <ele>1027.4000244141</ele>
        <time>2021-11-26T05:12:56.000Z</time>
      </trkpt>
      <trkpt lat="45.21719" lon="5.73217">
        <ele>1027.1999511719</ele>
        <time>2021-11-26T05:12:57.000Z</time>
      </trkpt>
      <trkpt lat="45.21719" lon="5.73213">
        <ele>1026.5999755859</ele>
        <time>2021-11-26T05:13:00.000Z</time>
      </trkpt>
      <trkpt lat="45.21718" lon="5.73211">
        <ele>1026.5999755859</ele>
        <time>2021-11-26T05:13:02.000Z</time>
      </trkpt>
      <trkpt lat="45.21715" lon="5.73208">
        <ele>1026.5999755859</ele>
        <time>2021-11-26T05:13:04.000Z</time>
      </trkpt>
      <trkpt lat="45.21713" lon="5.73204">
        <ele>1026.5999755859</ele>
        <time>2021-11-26T05:13:06.000Z</time>
      </trkpt>
      <trkpt lat="45.2171" lon="5.73199">
        <ele>1026.4000244141</ele>
        <time>2021-11-26T05:13:09.000Z</time>
      </trkpt>
      <trkpt lat="45.21709" lon="5.73199">
        <ele>1026.1999511719</ele>
        <time>2021-11-26T05:13:10.000Z</time>
      </trkpt>
      <trkpt lat="45.21707" lon="5.73199">
        <ele>1026.1999511719</ele>
        <time>2021-11-26T05:13:11.000Z</time>
      </trkpt>
      <trkpt lat="45.21706" lon="5.73198">
        <ele>1026.1999511719</ele>
        <time>2021-11-26T05:13:12.000Z</time>
      </trkpt>
      <trkpt lat="45.21703" lon="5.73192">
        <ele>1026</ele>
        <time>2021-11-26T05:13:15.000Z</time>
      </trkpt>
      <trkpt lat="45.21702" lon="5.73192">
        <ele>1025.8000488281</ele>
        <time>2021-11-26T05:13:16.000Z</time>
      </trkpt>
      <trkpt lat="45.217" lon="5.73188">
        <ele>1025.4000244141</ele>
        <time>2021-11-26T05:13:18.000Z</time>
      </trkpt>
      <trkpt lat="45.21698" lon="5.73186">
        <ele>1025.1999511719</ele>
        <time>2021-11-26T05:13:20.000Z</time>
      </trkpt>
      <trkpt lat="45.21697" lon="5.73185">
        <ele>1025</ele>
        <time>2021-11-26T05:13:21.000Z</time>
      </trkpt>
      <trkpt lat="45.21696" lon="5.73184">
        <ele>1024.8000488281</ele>
        <time>2021-11-26T05:13:22.000Z</time>
      </trkpt>
      <trkpt lat="45.21693" lon="5.73179">
        <ele>1024.4000244141</ele>
        <time>2021-11-26T05:13:26.000Z</time>
      </trkpt>
      <trkpt lat="45.21691" lon="5.73177">
        <ele>1023.799987793</ele>
        <time>2021-11-26T05:13:28.000Z</time>
      </trkpt>
      <trkpt lat="45.21688" lon="5.73174">
        <ele>1022.5999755859</ele>
        <time>2021-11-26T05:13:31.000Z</time>
      </trkpt>
      <trkpt lat="45.21687" lon="5.73172">
        <ele>1022.4000244141</ele>
        <time>2021-11-26T05:13:32.000Z</time>
      </trkpt>
      <trkpt lat="45.21686" lon="5.7317">
        <ele>1021.799987793</ele>
        <time>2021-11-26T05:13:34.000Z</time>
      </trkpt>
      <trkpt lat="45.21686" lon="5.73169">
        <ele>1021.4000244141</ele>
        <time>2021-11-26T05:13:35.000Z</time>
      </trkpt>
      <trkpt lat="45.21684" lon="5.73166">
        <ele>1020.4000244141</ele>
        <time>2021-11-26T05:13:38.000Z</time>
      </trkpt>
      <trkpt lat="45.21682" lon="5.73165">
        <ele>1019.5999755859</ele>
        <time>2021-11-26T05:13:41.000Z</time>
      </trkpt>
      <trkpt lat="45.21681" lon="5.73163">
        <ele>1019.200012207</ele>
        <time>2021-11-26T05:13:43.000Z</time>
      </trkpt>
      <trkpt lat="45.21677" lon="5.7316">
        <ele>1018</ele>
        <time>2021-11-26T05:13:48.000Z</time>
      </trkpt>
      <trkpt lat="45.21677" lon="5.73158">
        <ele>1017.799987793</ele>
        <time>2021-11-26T05:13:49.000Z</time>
      </trkpt>
      <trkpt lat="45.21677" lon="5.73157">
        <ele>1017.5999755859</ele>
        <time>2021-11-26T05:13:50.000Z</time>
      </trkpt>
      <trkpt lat="45.21676" lon="5.73153">
        <ele>1016.5999755859</ele>
        <time>2021-11-26T05:13:53.000Z</time>
      </trkpt>
      <trkpt lat="45.21676" lon="5.73152">
        <ele>1016.200012207</ele>
        <time>2021-11-26T05:13:54.000Z</time>
      </trkpt>
      <trkpt lat="45.21675" lon="5.73152">
        <ele>1016</ele>
        <time>2021-11-26T05:13:55.000Z</time>
      </trkpt>
      <trkpt lat="45.21674" lon="5.7315">
        <ele>1015.5999755859</ele>
        <time>2021-11-26T05:13:57.000Z</time>
      </trkpt>
      <trkpt lat="45.21673" lon="5.7315">
        <ele>1015.200012207</ele>
        <time>2021-11-26T05:13:58.000Z</time>
      </trkpt>
      <trkpt lat="45.21673" lon="5.73148">
        <ele>1014.799987793</ele>
        <time>2021-11-26T05:14:00.000Z</time>
      </trkpt>
      <trkpt lat="45.21671" lon="5.73145">
        <ele>1014</ele>
        <time>2021-11-26T05:14:03.000Z</time>
      </trkpt>
      <trkpt lat="45.2167" lon="5.73144">
        <ele>1013.200012207</ele>
        <time>2021-11-26T05:14:05.000Z</time>
      </trkpt>
      <trkpt lat="45.21669" lon="5.73145">
        <ele>1013</ele>
        <time>2021-11-26T05:14:06.000Z</time>
      </trkpt>
      <trkpt lat="45.21668" lon="5.73144">
        <ele>1012.5999755859</ele>
        <time>2021-11-26T05:14:08.000Z</time>
      </trkpt>
      <trkpt lat="45.21666" lon="5.73141">
        <ele>1011.5999755859</ele>
        <time>2021-11-26T05:14:12.000Z</time>
      </trkpt>
      <trkpt lat="45.21665" lon="5.7314">
        <ele>1011.200012207</ele>
        <time>2021-11-26T05:14:14.000Z</time>
      </trkpt>
      <trkpt lat="45.21664" lon="5.73138">
        <ele>1010.5999755859</ele>
        <time>2021-11-26T05:14:16.000Z</time>
      </trkpt>
      <trkpt lat="45.21662" lon="5.73138">
        <ele>1009.4000244141</ele>
        <time>2021-11-26T05:14:20.000Z</time>
      </trkpt>
      <trkpt lat="45.2166" lon="5.73138">
        <ele>1008.799987793</ele>
        <time>2021-11-26T05:14:23.000Z</time>
      </trkpt>
      <trkpt lat="45.21659" lon="5.73138">
        <ele>1008.200012207</ele>
        <time>2021-11-26T05:14:24.000Z</time>
      </trkpt>
      <trkpt lat="45.21658" lon="5.73139">
        <ele>1007.799987793</ele>
        <time>2021-11-26T05:14:25.000Z</time>
      </trkpt>
      <trkpt lat="45.21657" lon="5.73138">
        <ele>1007.5999755859</ele>
        <time>2021-11-26T05:14:26.000Z</time>
      </trkpt>
      <trkpt lat="45.21656" lon="5.73138">
        <ele>1007.200012207</ele>
        <time>2021-11-26T05:14:27.000Z</time>
      </trkpt>
      <trkpt lat="45.21652" lon="5.73139">
        <ele>1006.200012207</ele>
        <time>2021-11-26T05:14:31.000Z</time>
      </trkpt>
      <trkpt lat="45.21651" lon="5.73139">
        <ele>1006</ele>
        <time>2021-11-26T05:14:32.000Z</time>
      </trkpt>
      <trkpt lat="45.21647" lon="5.73139">
        <ele>1004.799987793</ele>
        <time>2021-11-26T05:14:35.000Z</time>
      </trkpt>
      <trkpt lat="45.21645" lon="5.73139">
        <ele>1004.4000244141</ele>
        <time>2021-11-26T05:14:37.000Z</time>
      </trkpt>
      <trkpt lat="45.21644" lon="5.73139">
        <ele>1004.4000244141</ele>
        <time>2021-11-26T05:14:38.000Z</time>
      </trkpt>
      <trkpt lat="45.21642" lon="5.7314">
        <ele>1003.799987793</ele>
        <time>2021-11-26T05:14:39.000Z</time>
      </trkpt>
      <trkpt lat="45.2164" lon="5.73141">
        <ele>1003</ele>
        <time>2021-11-26T05:14:41.000Z</time>
      </trkpt>
      <trkpt lat="45.21638" lon="5.73141">
        <ele>1002.799987793</ele>
        <time>2021-11-26T05:14:42.000Z</time>
      </trkpt>
      <trkpt lat="45.21637" lon="5.73142">
        <ele>1002.5999755859</ele>
        <time>2021-11-26T05:14:43.000Z</time>
      </trkpt>
      <trkpt lat="45.21633" lon="5.73143">
        <ele>1001.4000244141</ele>
        <time>2021-11-26T05:14:46.000Z</time>
      </trkpt>
      <trkpt lat="45.2163" lon="5.73141">
        <ele>1000.4000244141</ele>
        <time>2021-11-26T05:14:49.000Z</time>
      </trkpt>
      <trkpt lat="45.21625" lon="5.73139">
        <ele>999</ele>
        <time>2021-11-26T05:14:53.000Z</time>
      </trkpt>
      <trkpt lat="45.21624" lon="5.73137">
        <ele>998.79998779297</ele>
        <time>2021-11-26T05:14:54.000Z</time>
      </trkpt>
      <trkpt lat="45.21623" lon="5.73137">
        <ele>998.40002441406</ele>
        <time>2021-11-26T05:14:55.000Z</time>
      </trkpt>
      <trkpt lat="45.21621" lon="5.73136">
        <ele>997.79998779297</ele>
        <time>2021-11-26T05:14:57.000Z</time>
      </trkpt>
      <trkpt lat="45.21616" lon="5.73132">
        <ele>996.79998779297</ele>
        <time>2021-11-26T05:15:00.000Z</time>
      </trkpt>
      <trkpt lat="45.21614" lon="5.73131">
        <ele>996.40002441406</ele>
        <time>2021-11-26T05:15:01.000Z</time>
      </trkpt>
      <trkpt lat="45.2161" lon="5.73129">
        <ele>995.40002441406</ele>
        <time>2021-11-26T05:15:05.000Z</time>
      </trkpt>
      <trkpt lat="45.21608" lon="5.73129">
        <ele>995</ele>
        <time>2021-11-26T05:15:06.000Z</time>
      </trkpt>
      <trkpt lat="45.21603" lon="5.73126">
        <ele>994</ele>
        <time>2021-11-26T05:15:09.000Z</time>
      </trkpt>
      <trkpt lat="45.21602" lon="5.73125">
        <ele>993.59997558594</ele>
        <time>2021-11-26T05:15:10.000Z</time>
      </trkpt>
      <trkpt lat="45.21598" lon="5.73122">
        <ele>992.79998779297</ele>
        <time>2021-11-26T05:15:12.000Z</time>
      </trkpt>
      <trkpt lat="45.21594" lon="5.7312">
        <ele>992.20001220703</ele>
        <time>2021-11-26T05:15:14.000Z</time>
      </trkpt>
      <trkpt lat="45.2159" lon="5.7312">
        <ele>991.79998779297</ele>
        <time>2021-11-26T05:15:17.000Z</time>
      </trkpt>
      <trkpt lat="45.21588" lon="5.73123">
        <ele>991</ele>
        <time>2021-11-26T05:15:20.000Z</time>
      </trkpt>
      <trkpt lat="45.21587" lon="5.73124">
        <ele>990.40002441406</ele>
        <time>2021-11-26T05:15:21.000Z</time>
      </trkpt>
      <trkpt lat="45.21584" lon="5.73125">
        <ele>989.40002441406</ele>
        <time>2021-11-26T05:15:24.000Z</time>
      </trkpt>
      <trkpt lat="45.21584" lon="5.73125">
        <ele>989.20001220703</ele>
        <time>2021-11-26T05:15:25.000Z</time>
      </trkpt>
      <trkpt lat="45.21582" lon="5.73128">
        <ele>988.59997558594</ele>
        <time>2021-11-26T05:15:28.000Z</time>
      </trkpt>
      <trkpt lat="45.21582" lon="5.73128">
        <ele>988.40002441406</ele>
        <time>2021-11-26T05:15:29.000Z</time>
      </trkpt>
      <trkpt lat="45.21582" lon="5.73131">
        <ele>987.40002441406</ele>
        <time>2021-11-26T05:15:31.000Z</time>
      </trkpt>
      <trkpt lat="45.21582" lon="5.73132">
        <ele>987.20001220703</ele>
        <time>2021-11-26T05:15:32.000Z</time>
      </trkpt>
      <trkpt lat="45.21582" lon="5.73136">
        <ele>986.20001220703</ele>
        <time>2021-11-26T05:15:35.000Z</time>
      </trkpt>
      <trkpt lat="45.21582" lon="5.73138">
        <ele>985.59997558594</ele>
        <time>2021-11-26T05:15:37.000Z</time>
      </trkpt>
      <trkpt lat="45.21582" lon="5.7314">
        <ele>985</ele>
        <time>2021-11-26T05:15:39.000Z</time>
      </trkpt>
      <trkpt lat="45.21582" lon="5.73141">
        <ele>983.59997558594</ele>
        <time>2021-11-26T05:15:43.000Z</time>
      </trkpt>
      <trkpt lat="45.2158" lon="5.73142">
        <ele>982.59997558594</ele>
        <time>2021-11-26T05:15:47.000Z</time>
      </trkpt>
      <trkpt lat="45.2158" lon="5.73143">
        <ele>982.40002441406</ele>
        <time>2021-11-26T05:15:48.000Z</time>
      </trkpt>
      <trkpt lat="45.21581" lon="5.73144">
        <ele>981.79998779297</ele>
        <time>2021-11-26T05:15:50.000Z</time>
      </trkpt>
      <trkpt lat="45.2158" lon="5.73145">
        <ele>981.40002441406</ele>
        <time>2021-11-26T05:15:51.000Z</time>
      </trkpt>
      <trkpt lat="45.21579" lon="5.73148">
        <ele>980.59997558594</ele>
        <time>2021-11-26T05:15:54.000Z</time>
      </trkpt>
      <trkpt lat="45.21579" lon="5.73149">
        <ele>980.20001220703</ele>
        <time>2021-11-26T05:15:55.000Z</time>
      </trkpt>
      <trkpt lat="45.21578" lon="5.7315">
        <ele>980</ele>
        <time>2021-11-26T05:15:56.000Z</time>
      </trkpt>
      <trkpt lat="45.21578" lon="5.73151">
        <ele>979</ele>
        <time>2021-11-26T05:15:59.000Z</time>
      </trkpt>
      <trkpt lat="45.21578" lon="5.73151">
        <ele>978.79998779297</ele>
        <time>2021-11-26T05:16:00.000Z</time>
      </trkpt>
      <trkpt lat="45.21578" lon="5.73152">
        <ele>978.79998779297</ele>
        <time>2021-11-26T05:16:01.000Z</time>
      </trkpt>
      <trkpt lat="45.21578" lon="5.73155">
        <ele>977.79998779297</ele>
        <time>2021-11-26T05:16:04.000Z</time>
      </trkpt>
      <trkpt lat="45.21578" lon="5.73156">
        <ele>977.40002441406</ele>
        <time>2021-11-26T05:16:05.000Z</time>
      </trkpt>
      <trkpt lat="45.21577" lon="5.73156">
        <ele>977.20001220703</ele>
        <time>2021-11-26T05:16:06.000Z</time>
      </trkpt>
      <trkpt lat="45.21576" lon="5.73156">
        <ele>976.59997558594</ele>
        <time>2021-11-26T05:16:08.000Z</time>
      </trkpt>
      <trkpt lat="45.21575" lon="5.73156">
        <ele>976.40002441406</ele>
        <time>2021-11-26T05:16:09.000Z</time>
      </trkpt>
      <trkpt lat="45.21573" lon="5.73159">
        <ele>975.79998779297</ele>
        <time>2021-11-26T05:16:12.000Z</time>
      </trkpt>
      <trkpt lat="45.21572" lon="5.7316">
        <ele>975.40002441406</ele>
        <time>2021-11-26T05:16:13.000Z</time>
      </trkpt>
      <trkpt lat="45.21572" lon="5.73161">
        <ele>975.20001220703</ele>
        <time>2021-11-26T05:16:14.000Z</time>
      </trkpt>
      <trkpt lat="45.21572" lon="5.73163">
        <ele>974.20001220703</ele>
        <time>2021-11-26T05:16:16.000Z</time>
      </trkpt>
      <trkpt lat="45.21571" lon="5.73167">
        <ele>973.40002441406</ele>
        <time>2021-11-26T05:16:18.000Z</time>
      </trkpt>
      <trkpt lat="45.21571" lon="5.73168">
        <ele>973.20001220703</ele>
        <time>2021-11-26T05:16:19.000Z</time>
      </trkpt>
      <trkpt lat="45.21571" lon="5.73171">
        <ele>972</ele>
        <time>2021-11-26T05:16:22.000Z</time>
      </trkpt>
      <trkpt lat="45.21572" lon="5.73171">
        <ele>971.59997558594</ele>
        <time>2021-11-26T05:16:24.000Z</time>
      </trkpt>
      <trkpt lat="45.21574" lon="5.73174">
        <ele>970.79998779297</ele>
        <time>2021-11-26T05:16:28.000Z</time>
      </trkpt>
      <trkpt lat="45.21574" lon="5.73175">
        <ele>970.40002441406</ele>
        <time>2021-11-26T05:16:29.000Z</time>
      </trkpt>
      <trkpt lat="45.21574" lon="5.73178">
        <ele>969.79998779297</ele>
        <time>2021-11-26T05:16:31.000Z</time>
      </trkpt>
      <trkpt lat="45.21576" lon="5.73182">
        <ele>969</ele>
        <time>2021-11-26T05:16:34.000Z</time>
      </trkpt>
      <trkpt lat="45.21577" lon="5.73183">
        <ele>968.59997558594</ele>
        <time>2021-11-26T05:16:35.000Z</time>
      </trkpt>
      <trkpt lat="45.21579" lon="5.73188">
        <ele>967.59997558594</ele>
        <time>2021-11-26T05:16:38.000Z</time>
      </trkpt>
      <trkpt lat="45.21581" lon="5.73189">
        <ele>967</ele>
        <time>2021-11-26T05:16:39.000Z</time>
      </trkpt>
      <trkpt lat="45.21585" lon="5.73193">
        <ele>966.40002441406</ele>
        <time>2021-11-26T05:16:42.000Z</time>
      </trkpt>
      <trkpt lat="45.21587" lon="5.73197">
        <ele>965.79998779297</ele>
        <time>2021-11-26T05:16:44.000Z</time>
      </trkpt>
      <trkpt lat="45.21594" lon="5.73202">
        <ele>964.59997558594</ele>
        <time>2021-11-26T05:16:48.000Z</time>
      </trkpt>
      <trkpt lat="45.21595" lon="5.73205">
        <ele>964.20001220703</ele>
        <time>2021-11-26T05:16:49.000Z</time>
      </trkpt>
      <trkpt lat="45.21596" lon="5.73207">
        <ele>964</ele>
        <time>2021-11-26T05:16:50.000Z</time>
      </trkpt>
      <trkpt lat="45.21599" lon="5.7321">
        <ele>963.59997558594</ele>
        <time>2021-11-26T05:16:52.000Z</time>
      </trkpt>
      <trkpt lat="45.21602" lon="5.73216">
        <ele>962.79998779297</ele>
        <time>2021-11-26T05:16:55.000Z</time>
      </trkpt>
      <trkpt lat="45.21603" lon="5.73218">
        <ele>962.40002441406</ele>
        <time>2021-11-26T05:16:56.000Z</time>
      </trkpt>
      <trkpt lat="45.21603" lon="5.73219">
        <ele>962.20001220703</ele>
        <time>2021-11-26T05:16:57.000Z</time>
      </trkpt>
      <trkpt lat="45.21604" lon="5.73222">
        <ele>961.79998779297</ele>
        <time>2021-11-26T05:16:59.000Z</time>
      </trkpt>
      <trkpt lat="45.21605" lon="5.73222">
        <ele>961.40002441406</ele>
        <time>2021-11-26T05:17:00.000Z</time>
      </trkpt>
      <trkpt lat="45.21606" lon="5.73224">
        <ele>961</ele>
        <time>2021-11-26T05:17:02.000Z</time>
      </trkpt>
      <trkpt lat="45.21608" lon="5.7323">
        <ele>960.20001220703</ele>
        <time>2021-11-26T05:17:06.000Z</time>
      </trkpt>
      <trkpt lat="45.21609" lon="5.73231">
        <ele>960</ele>
        <time>2021-11-26T05:17:07.000Z</time>
      </trkpt>
      <trkpt lat="45.21611" lon="5.73235">
        <ele>959</ele>
        <time>2021-11-26T05:17:10.000Z</time>
      </trkpt>
      <trkpt lat="45.21614" lon="5.73235">
        <ele>958.59997558594</ele>
        <time>2021-11-26T05:17:12.000Z</time>
      </trkpt>
      <trkpt lat="45.21614" lon="5.73236">
        <ele>958.40002441406</ele>
        <time>2021-11-26T05:17:13.000Z</time>
      </trkpt>
      <trkpt lat="45.21615" lon="5.73237">
        <ele>958.20001220703</ele>
        <time>2021-11-26T05:17:14.000Z</time>
      </trkpt>
      <trkpt lat="45.21615" lon="5.73238">
        <ele>958</ele>
        <time>2021-11-26T05:17:15.000Z</time>
      </trkpt>
      <trkpt lat="45.21618" lon="5.73243">
        <ele>956.59997558594</ele>
        <time>2021-11-26T05:17:18.000Z</time>
      </trkpt>
      <trkpt lat="45.21621" lon="5.7325">
        <ele>955.40002441406</ele>
        <time>2021-11-26T05:17:22.000Z</time>
      </trkpt>
      <trkpt lat="45.21622" lon="5.73251">
        <ele>955</ele>
        <time>2021-11-26T05:17:23.000Z</time>
      </trkpt>
      <trkpt lat="45.21623" lon="5.73253">
        <ele>954.59997558594</ele>
        <time>2021-11-26T05:17:24.000Z</time>
      </trkpt>
      <trkpt lat="45.21624" lon="5.73254">
        <ele>954.20001220703</ele>
        <time>2021-11-26T05:17:25.000Z</time>
      </trkpt>
      <trkpt lat="45.21628" lon="5.7326">
        <ele>953</ele>
        <time>2021-11-26T05:17:29.000Z</time>
      </trkpt>
      <trkpt lat="45.2163" lon="5.73262">
        <ele>952.59997558594</ele>
        <time>2021-11-26T05:17:31.000Z</time>
      </trkpt>
      <trkpt lat="45.21631" lon="5.73266">
        <ele>952</ele>
        <time>2021-11-26T05:17:33.000Z</time>
      </trkpt>
      <trkpt lat="45.21632" lon="5.73269">
        <ele>951.59997558594</ele>
        <time>2021-11-26T05:17:35.000Z</time>
      </trkpt>
      <trkpt lat="45.21634" lon="5.73274">
        <ele>951.20001220703</ele>
        <time>2021-11-26T05:17:37.000Z</time>
      </trkpt>
      <trkpt lat="45.21635" lon="5.73276">
        <ele>950.79998779297</ele>
        <time>2021-11-26T05:17:38.000Z</time>
      </trkpt>
      <trkpt lat="45.21642" lon="5.73287">
        <ele>949.40002441406</ele>
        <time>2021-11-26T05:17:44.000Z</time>
      </trkpt>
      <trkpt lat="45.21644" lon="5.73293">
        <ele>948.79998779297</ele>
        <time>2021-11-26T05:17:47.000Z</time>
      </trkpt>
      <trkpt lat="45.21645" lon="5.73294">
        <ele>948.40002441406</ele>
        <time>2021-11-26T05:17:48.000Z</time>
      </trkpt>
      <trkpt lat="45.21646" lon="5.733">
        <ele>948</ele>
        <time>2021-11-26T05:17:51.000Z</time>
      </trkpt>
      <trkpt lat="45.21647" lon="5.73303">
        <ele>947.79998779297</ele>
        <time>2021-11-26T05:17:52.000Z</time>
      </trkpt>
      <trkpt lat="45.21646" lon="5.73307">
        <ele>947.20001220703</ele>
        <time>2021-11-26T05:17:54.000Z</time>
      </trkpt>
      <trkpt lat="45.21647" lon="5.73312">
        <ele>946</ele>
        <time>2021-11-26T05:17:57.000Z</time>
      </trkpt>
      <trkpt lat="45.21649" lon="5.73319">
        <ele>945</ele>
        <time>2021-11-26T05:18:01.000Z</time>
      </trkpt>
      <trkpt lat="45.21651" lon="5.73323">
        <ele>944.40002441406</ele>
        <time>2021-11-26T05:18:03.000Z</time>
      </trkpt>
      <trkpt lat="45.21653" lon="5.73326">
        <ele>943.59997558594</ele>
        <time>2021-11-26T05:18:05.000Z</time>
      </trkpt>
      <trkpt lat="45.21655" lon="5.73329">
        <ele>943</ele>
        <time>2021-11-26T05:18:08.000Z</time>
      </trkpt>
      <trkpt lat="45.21655" lon="5.7333">
        <ele>942.59997558594</ele>
        <time>2021-11-26T05:18:09.000Z</time>
      </trkpt>
      <trkpt lat="45.21656" lon="5.73332">
        <ele>942.20001220703</ele>
        <time>2021-11-26T05:18:10.000Z</time>
      </trkpt>
      <trkpt lat="45.21655" lon="5.73335">
        <ele>941.40002441406</ele>
        <time>2021-11-26T05:18:12.000Z</time>
      </trkpt>
      <trkpt lat="45.21657" lon="5.7334">
        <ele>940.79998779297</ele>
        <time>2021-11-26T05:18:14.000Z</time>
      </trkpt>
      <trkpt lat="45.21657" lon="5.73341">
        <ele>940.20001220703</ele>
        <time>2021-11-26T05:18:15.000Z</time>
      </trkpt>
      <trkpt lat="45.21658" lon="5.73344">
        <ele>939.59997558594</ele>
        <time>2021-11-26T05:18:16.000Z</time>
      </trkpt>
      <trkpt lat="45.21658" lon="5.73348">
        <ele>939</ele>
        <time>2021-11-26T05:18:18.000Z</time>
      </trkpt>
      <trkpt lat="45.21658" lon="5.73357">
        <ele>937.79998779297</ele>
        <time>2021-11-26T05:18:22.000Z</time>
      </trkpt>
      <trkpt lat="45.21658" lon="5.73358">
        <ele>937.59997558594</ele>
        <time>2021-11-26T05:18:23.000Z</time>
      </trkpt>
      <trkpt lat="45.21661" lon="5.73362">
        <ele>936.79998779297</ele>
        <time>2021-11-26T05:18:25.000Z</time>
      </trkpt>
      <trkpt lat="45.21663" lon="5.73366">
        <ele>935.40002441406</ele>
        <time>2021-11-26T05:18:27.000Z</time>
      </trkpt>
      <trkpt lat="45.21664" lon="5.73369">
        <ele>934.59997558594</ele>
        <time>2021-11-26T05:18:29.000Z</time>
      </trkpt>
      <trkpt lat="45.21665" lon="5.73371">
        <ele>934.20001220703</ele>
        <time>2021-11-26T05:18:30.000Z</time>
      </trkpt>
      <trkpt lat="45.21665" lon="5.73372">
        <ele>933.79998779297</ele>
        <time>2021-11-26T05:18:31.000Z</time>
      </trkpt>
      <trkpt lat="45.21665" lon="5.73374">
        <ele>933.20001220703</ele>
        <time>2021-11-26T05:18:33.000Z</time>
      </trkpt>
      <trkpt lat="45.21665" lon="5.73378">
        <ele>932.20001220703</ele>
        <time>2021-11-26T05:18:36.000Z</time>
      </trkpt>
      <trkpt lat="45.21666" lon="5.73379">
        <ele>931.59997558594</ele>
        <time>2021-11-26T05:18:37.000Z</time>
      </trkpt>
      <trkpt lat="45.21667" lon="5.73381">
        <ele>931</ele>
        <time>2021-11-26T05:18:38.000Z</time>
      </trkpt>
      <trkpt lat="45.21668" lon="5.73383">
        <ele>930.59997558594</ele>
        <time>2021-11-26T05:18:39.000Z</time>
      </trkpt>
      <trkpt lat="45.21667" lon="5.73386">
        <ele>930.20001220703</ele>
        <time>2021-11-26T05:18:40.000Z</time>
      </trkpt>
      <trkpt lat="45.21667" lon="5.73392">
        <ele>929.40002441406</ele>
        <time>2021-11-26T05:18:43.000Z</time>
      </trkpt>
      <trkpt lat="45.21667" lon="5.73394">
        <ele>928.59997558594</ele>
        <time>2021-11-26T05:18:44.000Z</time>
      </trkpt>
      <trkpt lat="45.21669" lon="5.73394">
        <ele>928.40002441406</ele>
        <time>2021-11-26T05:18:45.000Z</time>
      </trkpt>
      <trkpt lat="45.21673" lon="5.73398">
        <ele>927.79998779297</ele>
        <time>2021-11-26T05:18:47.000Z</time>
      </trkpt>
      <trkpt lat="45.21674" lon="5.734">
        <ele>927.40002441406</ele>
        <time>2021-11-26T05:18:48.000Z</time>
      </trkpt>
      <trkpt lat="45.21677" lon="5.73409">
        <ele>926.59997558594</ele>
        <time>2021-11-26T05:18:51.000Z</time>
      </trkpt>
      <trkpt lat="45.21677" lon="5.73411">
        <ele>926</ele>
        <time>2021-11-26T05:18:52.000Z</time>
      </trkpt>
      <trkpt lat="45.21676" lon="5.73419">
        <ele>924.79998779297</ele>
        <time>2021-11-26T05:18:55.000Z</time>
      </trkpt>
      <trkpt lat="45.21676" lon="5.73429">
        <ele>923.40002441406</ele>
        <time>2021-11-26T05:18:59.000Z</time>
      </trkpt>
      <trkpt lat="45.21676" lon="5.73438">
        <ele>922.40002441406</ele>
        <time>2021-11-26T05:19:03.000Z</time>
      </trkpt>
      <trkpt lat="45.21675" lon="5.73448">
        <ele>921</ele>
        <time>2021-11-26T05:19:07.000Z</time>
      </trkpt>
      <trkpt lat="45.21673" lon="5.73456">
        <ele>920.20001220703</ele>
        <time>2021-11-26T05:19:09.000Z</time>
      </trkpt>
      <trkpt lat="45.21673" lon="5.73459">
        <ele>919.79998779297</ele>
        <time>2021-11-26T05:19:10.000Z</time>
      </trkpt>
      <trkpt lat="45.21673" lon="5.7347">
        <ele>918.59997558594</ele>
        <time>2021-11-26T05:19:14.000Z</time>
      </trkpt>
      <trkpt lat="45.21673" lon="5.73472">
        <ele>918.20001220703</ele>
        <time>2021-11-26T05:19:15.000Z</time>
      </trkpt>
      <trkpt lat="45.21674" lon="5.73474">
        <ele>918</ele>
        <time>2021-11-26T05:19:16.000Z</time>
      </trkpt>
      <trkpt lat="45.21675" lon="5.73478">
        <ele>917.59997558594</ele>
        <time>2021-11-26T05:19:18.000Z</time>
      </trkpt>
      <trkpt lat="45.21676" lon="5.73479">
        <ele>916.79998779297</ele>
        <time>2021-11-26T05:19:21.000Z</time>
      </trkpt>
      <trkpt lat="45.21676" lon="5.73482">
        <ele>916.59997558594</ele>
        <time>2021-11-26T05:19:23.000Z</time>
      </trkpt>
      <trkpt lat="45.21672" lon="5.73481">
        <ele>915.79998779297</ele>
        <time>2021-11-26T05:19:26.000Z</time>
      </trkpt>
      <trkpt lat="45.21671" lon="5.73478">
        <ele>915.40002441406</ele>
        <time>2021-11-26T05:19:27.000Z</time>
      </trkpt>
      <trkpt lat="45.21667" lon="5.73467">
        <ele>914.20001220703</ele>
        <time>2021-11-26T05:19:31.000Z</time>
      </trkpt>
      <trkpt lat="45.21667" lon="5.73464">
        <ele>914</ele>
        <time>2021-11-26T05:19:32.000Z</time>
      </trkpt>
      <trkpt lat="45.21666" lon="5.73455">
        <ele>913.40002441406</ele>
        <time>2021-11-26T05:19:35.000Z</time>
      </trkpt>
      <trkpt lat="45.21665" lon="5.73452">
        <ele>913.20001220703</ele>
        <time>2021-11-26T05:19:36.000Z</time>
      </trkpt>
      <trkpt lat="45.21664" lon="5.73449">
        <ele>913</ele>
        <time>2021-11-26T05:19:37.000Z</time>
      </trkpt>
      <trkpt lat="45.21662" lon="5.73438">
        <ele>912.20001220703</ele>
        <time>2021-11-26T05:19:41.000Z</time>
      </trkpt>
      <trkpt lat="45.21661" lon="5.7343">
        <ele>911.40002441406</ele>
        <time>2021-11-26T05:19:44.000Z</time>
      </trkpt>
      <trkpt lat="45.21658" lon="5.73423">
        <ele>910.79998779297</ele>
        <time>2021-11-26T05:19:47.000Z</time>
      </trkpt>
      <trkpt lat="45.2165" lon="5.73411">
        <ele>910.20001220703</ele>
        <time>2021-11-26T05:19:52.000Z</time>
      </trkpt>
      <trkpt lat="45.21649" lon="5.73408">
        <ele>910</ele>
        <time>2021-11-26T05:19:53.000Z</time>
      </trkpt>
      <trkpt lat="45.21645" lon="5.73401">
        <ele>909.79998779297</ele>
        <time>2021-11-26T05:19:56.000Z</time>
      </trkpt>
      <trkpt lat="45.21634" lon="5.73391">
        <ele>908.59997558594</ele>
        <time>2021-11-26T05:20:02.000Z</time>
      </trkpt>
      <trkpt lat="45.21626" lon="5.73385">
        <ele>907.59997558594</ele>
        <time>2021-11-26T05:20:07.000Z</time>
      </trkpt>
      <trkpt lat="45.21624" lon="5.73385">
        <ele>907.40002441406</ele>
        <time>2021-11-26T05:20:08.000Z</time>
      </trkpt>
      <trkpt lat="45.21617" lon="5.73381">
        <ele>906.40002441406</ele>
        <time>2021-11-26T05:20:12.000Z</time>
      </trkpt>
      <trkpt lat="45.21617" lon="5.73379">
        <ele>906</ele>
        <time>2021-11-26T05:20:13.000Z</time>
      </trkpt>
      <trkpt lat="45.21616" lon="5.73378">
        <ele>905.79998779297</ele>
        <time>2021-11-26T05:20:14.000Z</time>
      </trkpt>
      <trkpt lat="45.21614" lon="5.73376">
        <ele>905.40002441406</ele>
        <time>2021-11-26T05:20:16.000Z</time>
      </trkpt>
      <trkpt lat="45.21608" lon="5.73372">
        <ele>904.20001220703</ele>
        <time>2021-11-26T05:20:20.000Z</time>
      </trkpt>
      <trkpt lat="45.21607" lon="5.73371">
        <ele>904</ele>
        <time>2021-11-26T05:20:21.000Z</time>
      </trkpt>
      <trkpt lat="45.21605" lon="5.73367">
        <ele>903</ele>
        <time>2021-11-26T05:20:23.000Z</time>
      </trkpt>
      <trkpt lat="45.21602" lon="5.73363">
        <ele>902.59997558594</ele>
        <time>2021-11-26T05:20:25.000Z</time>
      </trkpt>
      <trkpt lat="45.21601" lon="5.73362">
        <ele>902</ele>
        <time>2021-11-26T05:20:26.000Z</time>
      </trkpt>
      <trkpt lat="45.21597" lon="5.73356">
        <ele>901.20001220703</ele>
        <time>2021-11-26T05:20:29.000Z</time>
      </trkpt>
      <trkpt lat="45.21597" lon="5.73354">
        <ele>900.79998779297</ele>
        <time>2021-11-26T05:20:30.000Z</time>
      </trkpt>
      <trkpt lat="45.21595" lon="5.73353">
        <ele>900.59997558594</ele>
        <time>2021-11-26T05:20:31.000Z</time>
      </trkpt>
      <trkpt lat="45.21591" lon="5.7335">
        <ele>900</ele>
        <time>2021-11-26T05:20:34.000Z</time>
      </trkpt>
      <trkpt lat="45.21588" lon="5.73347">
        <ele>899.79998779297</ele>
        <time>2021-11-26T05:20:36.000Z</time>
      </trkpt>
      <trkpt lat="45.21585" lon="5.73345">
        <ele>898.59997558594</ele>
        <time>2021-11-26T05:20:38.000Z</time>
      </trkpt>
      <trkpt lat="45.21581" lon="5.73343">
        <ele>898.20001220703</ele>
        <time>2021-11-26T05:20:40.000Z</time>
      </trkpt>
      <trkpt lat="45.21577" lon="5.73341">
        <ele>897.40002441406</ele>
        <time>2021-11-26T05:20:42.000Z</time>
      </trkpt>
      <trkpt lat="45.21571" lon="5.73336">
        <ele>896.20001220703</ele>
        <time>2021-11-26T05:20:46.000Z</time>
      </trkpt>
      <trkpt lat="45.21562" lon="5.73333">
        <ele>895.20001220703</ele>
        <time>2021-11-26T05:20:50.000Z</time>
      </trkpt>
      <trkpt lat="45.2156" lon="5.73333">
        <ele>895</ele>
        <time>2021-11-26T05:20:51.000Z</time>
      </trkpt>
      <trkpt lat="45.21555" lon="5.73331">
        <ele>893.79998779297</ele>
        <time>2021-11-26T05:20:55.000Z</time>
      </trkpt>
      <trkpt lat="45.21552" lon="5.73331">
        <ele>893.40002441406</ele>
        <time>2021-11-26T05:20:57.000Z</time>
      </trkpt>
      <trkpt lat="45.21548" lon="5.73331">
        <ele>892.79998779297</ele>
        <time>2021-11-26T05:20:59.000Z</time>
      </trkpt>
      <trkpt lat="45.21543" lon="5.73331">
        <ele>891.59997558594</ele>
        <time>2021-11-26T05:21:02.000Z</time>
      </trkpt>
      <trkpt lat="45.21538" lon="5.73331">
        <ele>890.40002441406</ele>
        <time>2021-11-26T05:21:05.000Z</time>
      </trkpt>
      <trkpt lat="45.21535" lon="5.73331">
        <ele>890.20001220703</ele>
        <time>2021-11-26T05:21:06.000Z</time>
      </trkpt>
      <trkpt lat="45.21529" lon="5.73331">
        <ele>889.40002441406</ele>
        <time>2021-11-26T05:21:09.000Z</time>
      </trkpt>
      <trkpt lat="45.21524" lon="5.7333">
        <ele>888.40002441406</ele>
        <time>2021-11-26T05:21:12.000Z</time>
      </trkpt>
      <trkpt lat="45.21522" lon="5.7333">
        <ele>888.20001220703</ele>
        <time>2021-11-26T05:21:13.000Z</time>
      </trkpt>
      <trkpt lat="45.21517" lon="5.73324">
        <ele>887.40002441406</ele>
        <time>2021-11-26T05:21:16.000Z</time>
      </trkpt>
      <trkpt lat="45.21515" lon="5.73323">
        <ele>887.20001220703</ele>
        <time>2021-11-26T05:21:17.000Z</time>
      </trkpt>
      <trkpt lat="45.21514" lon="5.73321">
        <ele>887</ele>
        <time>2021-11-26T05:21:18.000Z</time>
      </trkpt>
      <trkpt lat="45.21514" lon="5.73315">
        <ele>886.40002441406</ele>
        <time>2021-11-26T05:21:21.000Z</time>
      </trkpt>
      <trkpt lat="45.21514" lon="5.73308">
        <ele>885.79998779297</ele>
        <time>2021-11-26T05:21:24.000Z</time>
      </trkpt>
      <trkpt lat="45.21513" lon="5.73296">
        <ele>884.59997558594</ele>
        <time>2021-11-26T05:21:28.000Z</time>
      </trkpt>
      <trkpt lat="45.21513" lon="5.7329">
        <ele>884.40002441406</ele>
        <time>2021-11-26T05:21:30.000Z</time>
      </trkpt>
      <trkpt lat="45.21514" lon="5.73287">
        <ele>884.20001220703</ele>
        <time>2021-11-26T05:21:31.000Z</time>
      </trkpt>
      <trkpt lat="45.21514" lon="5.73277">
        <ele>884</ele>
        <time>2021-11-26T05:21:34.000Z</time>
      </trkpt>
      <trkpt lat="45.21513" lon="5.73272">
        <ele>884.20001220703</ele>
        <time>2021-11-26T05:21:36.000Z</time>
      </trkpt>
      <trkpt lat="45.21508" lon="5.73265">
        <ele>884.40002441406</ele>
        <time>2021-11-26T05:21:39.000Z</time>
      </trkpt>
      <trkpt lat="45.21504" lon="5.7326">
        <ele>884.40002441406</ele>
        <time>2021-11-26T05:21:41.000Z</time>
      </trkpt>
      <trkpt lat="45.21499" lon="5.73253">
        <ele>883.59997558594</ele>
        <time>2021-11-26T05:21:44.000Z</time>
      </trkpt>
      <trkpt lat="45.21497" lon="5.73251">
        <ele>883.20001220703</ele>
        <time>2021-11-26T05:21:45.000Z</time>
      </trkpt>
      <trkpt lat="45.21495" lon="5.73249">
        <ele>882.40002441406</ele>
        <time>2021-11-26T05:21:47.000Z</time>
      </trkpt>
      <trkpt lat="45.21491" lon="5.73244">
        <ele>881.40002441406</ele>
        <time>2021-11-26T05:21:51.000Z</time>
      </trkpt>
      <trkpt lat="45.21489" lon="5.73242">
        <ele>881</ele>
        <time>2021-11-26T05:21:53.000Z</time>
      </trkpt>
      <trkpt lat="45.21487" lon="5.7324">
        <ele>880.40002441406</ele>
        <time>2021-11-26T05:21:55.000Z</time>
      </trkpt>
      <trkpt lat="45.21483" lon="5.73236">
        <ele>879.40002441406</ele>
        <time>2021-11-26T05:21:58.000Z</time>
      </trkpt>
      <trkpt lat="45.21481" lon="5.73234">
        <ele>879.20001220703</ele>
        <time>2021-11-26T05:21:59.000Z</time>
      </trkpt>
      <trkpt lat="45.21478" lon="5.73227">
        <ele>878</ele>
        <time>2021-11-26T05:22:02.000Z</time>
      </trkpt>
      <trkpt lat="45.21477" lon="5.73213">
        <ele>876.79998779297</ele>
        <time>2021-11-26T05:22:06.000Z</time>
      </trkpt>
      <trkpt lat="45.21477" lon="5.73198">
        <ele>876.20001220703</ele>
        <time>2021-11-26T05:22:12.000Z</time>
      </trkpt>
      <trkpt lat="45.21475" lon="5.73194">
        <ele>876</ele>
        <time>2021-11-26T05:22:15.000Z</time>
      </trkpt>
      <trkpt lat="45.21474" lon="5.73193">
        <ele>875.79998779297</ele>
        <time>2021-11-26T05:22:16.000Z</time>
      </trkpt>
      <trkpt lat="45.21473" lon="5.73191">
        <ele>875.59997558594</ele>
        <time>2021-11-26T05:22:17.000Z</time>
      </trkpt>
      <trkpt lat="45.21471" lon="5.73187">
        <ele>875.20001220703</ele>
        <time>2021-11-26T05:22:19.000Z</time>
      </trkpt>
      <trkpt lat="45.21468" lon="5.73185">
        <ele>874.40002441406</ele>
        <time>2021-11-26T05:22:21.000Z</time>
      </trkpt>
      <trkpt lat="45.21467" lon="5.73185">
        <ele>874</ele>
        <time>2021-11-26T05:22:22.000Z</time>
      </trkpt>
      <trkpt lat="45.21465" lon="5.73182">
        <ele>873.20001220703</ele>
        <time>2021-11-26T05:22:24.000Z</time>
      </trkpt>
      <trkpt lat="45.21464" lon="5.73181">
        <ele>873</ele>
        <time>2021-11-26T05:22:25.000Z</time>
      </trkpt>
      <trkpt lat="45.21464" lon="5.73177">
        <ele>871.79998779297</ele>
        <time>2021-11-26T05:22:27.000Z</time>
      </trkpt>
      <trkpt lat="45.21463" lon="5.73171">
        <ele>870.79998779297</ele>
        <time>2021-11-26T05:22:30.000Z</time>
      </trkpt>
      <trkpt lat="45.2146" lon="5.73169">
        <ele>870</ele>
        <time>2021-11-26T05:22:32.000Z</time>
      </trkpt>
      <trkpt lat="45.21457" lon="5.73169">
        <ele>869.20001220703</ele>
        <time>2021-11-26T05:22:34.000Z</time>
      </trkpt>
      <trkpt lat="45.21456" lon="5.73169">
        <ele>868.79998779297</ele>
        <time>2021-11-26T05:22:35.000Z</time>
      </trkpt>
      <trkpt lat="45.21455" lon="5.73167">
        <ele>868.59997558594</ele>
        <time>2021-11-26T05:22:36.000Z</time>
      </trkpt>
      <trkpt lat="45.21454" lon="5.73165">
        <ele>868.20001220703</ele>
        <time>2021-11-26T05:22:37.000Z</time>
      </trkpt>
      <trkpt lat="45.21453" lon="5.73164">
        <ele>868</ele>
        <time>2021-11-26T05:22:38.000Z</time>
      </trkpt>
      <trkpt lat="45.21452" lon="5.73164">
        <ele>867.79998779297</ele>
        <time>2021-11-26T05:22:39.000Z</time>
      </trkpt>
      <trkpt lat="45.21448" lon="5.73164">
        <ele>866.79998779297</ele>
        <time>2021-11-26T05:22:42.000Z</time>
      </trkpt>
      <trkpt lat="45.21443" lon="5.73163">
        <ele>865.59997558594</ele>
        <time>2021-11-26T05:22:45.000Z</time>
      </trkpt>
      <trkpt lat="45.21436" lon="5.73161">
        <ele>864.79998779297</ele>
        <time>2021-11-26T05:22:48.000Z</time>
      </trkpt>
      <trkpt lat="45.21434" lon="5.7316">
        <ele>864.59997558594</ele>
        <time>2021-11-26T05:22:49.000Z</time>
      </trkpt>
      <trkpt lat="45.21431" lon="5.7316">
        <ele>864.40002441406</ele>
        <time>2021-11-26T05:22:50.000Z</time>
      </trkpt>
      <trkpt lat="45.21428" lon="5.73158">
        <ele>864</ele>
        <time>2021-11-26T05:22:52.000Z</time>
      </trkpt>
      <trkpt lat="45.21425" lon="5.73156">
        <ele>863.59997558594</ele>
        <time>2021-11-26T05:22:54.000Z</time>
      </trkpt>
      <trkpt lat="45.21423" lon="5.73155">
        <ele>863.40002441406</ele>
        <time>2021-11-26T05:22:55.000Z</time>
      </trkpt>
      <trkpt lat="45.21421" lon="5.73154">
        <ele>863</ele>
        <time>2021-11-26T05:22:57.000Z</time>
      </trkpt>
      <trkpt lat="45.2142" lon="5.73152">
        <ele>862.59997558594</ele>
        <time>2021-11-26T05:22:58.000Z</time>
      </trkpt>
      <trkpt lat="45.21415" lon="5.73144">
        <ele>861.40002441406</ele>
        <time>2021-11-26T05:23:02.000Z</time>
      </trkpt>
      <trkpt lat="45.21413" lon="5.73139">
        <ele>861</ele>
        <time>2021-11-26T05:23:04.000Z</time>
      </trkpt>
      <trkpt lat="45.21411" lon="5.73135">
        <ele>860.59997558594</ele>
        <time>2021-11-26T05:23:06.000Z</time>
      </trkpt>
      <trkpt lat="45.2141" lon="5.73135">
        <ele>860.20001220703</ele>
        <time>2021-11-26T05:23:07.000Z</time>
      </trkpt>
      <trkpt lat="45.21406" lon="5.73131">
        <ele>859.79998779297</ele>
        <time>2021-11-26T05:23:09.000Z</time>
      </trkpt>
      <trkpt lat="45.21401" lon="5.73126">
        <ele>859</ele>
        <time>2021-11-26T05:23:12.000Z</time>
      </trkpt>
      <trkpt lat="45.21397" lon="5.73121">
        <ele>858.59997558594</ele>
        <time>2021-11-26T05:23:15.000Z</time>
      </trkpt>
      <trkpt lat="45.21392" lon="5.73115">
        <ele>858.20001220703</ele>
        <time>2021-11-26T05:23:18.000Z</time>
      </trkpt>
      <trkpt lat="45.21389" lon="5.7311">
        <ele>857.79998779297</ele>
        <time>2021-11-26T05:23:20.000Z</time>
      </trkpt>
      <trkpt lat="45.21382" lon="5.73099">
        <ele>857</ele>
        <time>2021-11-26T05:23:25.000Z</time>
      </trkpt>
      <trkpt lat="45.21379" lon="5.73096">
        <ele>856.79998779297</ele>
        <time>2021-11-26T05:23:27.000Z</time>
      </trkpt>
      <trkpt lat="45.21374" lon="5.73082">
        <ele>856.20001220703</ele>
        <time>2021-11-26T05:23:32.000Z</time>
      </trkpt>
      <trkpt lat="45.21372" lon="5.7308">
        <ele>856.20001220703</ele>
        <time>2021-11-26T05:23:33.000Z</time>
      </trkpt>
      <trkpt lat="45.21369" lon="5.73077">
        <ele>855.79998779297</ele>
        <time>2021-11-26T05:23:36.000Z</time>
      </trkpt>
      <trkpt lat="45.21366" lon="5.73073">
        <ele>855.20001220703</ele>
        <time>2021-11-26T05:23:39.000Z</time>
      </trkpt>
      <trkpt lat="45.21364" lon="5.73072">
        <ele>854.79998779297</ele>
        <time>2021-11-26T05:23:41.000Z</time>
      </trkpt>
      <trkpt lat="45.21362" lon="5.7307">
        <ele>854.59997558594</ele>
        <time>2021-11-26T05:23:43.000Z</time>
      </trkpt>
      <trkpt lat="45.2136" lon="5.73068">
        <ele>854.40002441406</ele>
        <time>2021-11-26T05:23:44.000Z</time>
      </trkpt>
      <trkpt lat="45.21358" lon="5.73064">
        <ele>853.40002441406</ele>
        <time>2021-11-26T05:23:47.000Z</time>
      </trkpt>
      <trkpt lat="45.21355" lon="5.7306">
        <ele>852.59997558594</ele>
        <time>2021-11-26T05:23:50.000Z</time>
      </trkpt>
      <trkpt lat="45.21354" lon="5.73058">
        <ele>852.20001220703</ele>
        <time>2021-11-26T05:23:51.000Z</time>
      </trkpt>
      <trkpt lat="45.21353" lon="5.73056">
        <ele>851.79998779297</ele>
        <time>2021-11-26T05:23:52.000Z</time>
      </trkpt>
      <trkpt lat="45.21353" lon="5.73055">
        <ele>851.20001220703</ele>
        <time>2021-11-26T05:23:53.000Z</time>
      </trkpt>
      <trkpt lat="45.2135" lon="5.73051">
        <ele>850.40002441406</ele>
        <time>2021-11-26T05:23:56.000Z</time>
      </trkpt>
      <trkpt lat="45.21349" lon="5.73049">
        <ele>849.79998779297</ele>
        <time>2021-11-26T05:23:57.000Z</time>
      </trkpt>
      <trkpt lat="45.21347" lon="5.73044">
        <ele>848.59997558594</ele>
        <time>2021-11-26T05:24:01.000Z</time>
      </trkpt>
      <trkpt lat="45.21346" lon="5.73043">
        <ele>848.20001220703</ele>
        <time>2021-11-26T05:24:02.000Z</time>
      </trkpt>
      <trkpt lat="45.21345" lon="5.7304">
        <ele>847.40002441406</ele>
        <time>2021-11-26T05:24:05.000Z</time>
      </trkpt>
      <trkpt lat="45.21344" lon="5.73039">
        <ele>847.20001220703</ele>
        <time>2021-11-26T05:24:06.000Z</time>
      </trkpt>
      <trkpt lat="45.21342" lon="5.73036">
        <ele>846.59997558594</ele>
        <time>2021-11-26T05:24:08.000Z</time>
      </trkpt>
      <trkpt lat="45.21341" lon="5.73034">
        <ele>846</ele>
        <time>2021-11-26T05:24:10.000Z</time>
      </trkpt>
      <trkpt lat="45.2134" lon="5.73033">
        <ele>845.59997558594</ele>
        <time>2021-11-26T05:24:12.000Z</time>
      </trkpt>
      <trkpt lat="45.21338" lon="5.73033">
        <ele>845</ele>
        <time>2021-11-26T05:24:14.000Z</time>
      </trkpt>
      <trkpt lat="45.21336" lon="5.73032">
        <ele>844.59997558594</ele>
        <time>2021-11-26T05:24:15.000Z</time>
      </trkpt>
      <trkpt lat="45.21334" lon="5.73029">
        <ele>844</ele>
        <time>2021-11-26T05:24:17.000Z</time>
      </trkpt>
      <trkpt lat="45.21333" lon="5.73028">
        <ele>843.59997558594</ele>
        <time>2021-11-26T05:24:18.000Z</time>
      </trkpt>
      <trkpt lat="45.21332" lon="5.73024">
        <ele>843.20001220703</ele>
        <time>2021-11-26T05:24:20.000Z</time>
      </trkpt>
      <trkpt lat="45.21328" lon="5.73018">
        <ele>842.40002441406</ele>
        <time>2021-11-26T05:24:23.000Z</time>
      </trkpt>
      <trkpt lat="45.21327" lon="5.73017">
        <ele>842.20001220703</ele>
        <time>2021-11-26T05:24:24.000Z</time>
      </trkpt>
      <trkpt lat="45.21321" lon="5.73012">
        <ele>841</ele>
        <time>2021-11-26T05:24:29.000Z</time>
      </trkpt>
      <trkpt lat="45.21317" lon="5.73006">
        <ele>839.79998779297</ele>
        <time>2021-11-26T05:24:33.000Z</time>
      </trkpt>
      <trkpt lat="45.21314" lon="5.73001">
        <ele>838.79998779297</ele>
        <time>2021-11-26T05:24:36.000Z</time>
      </trkpt>
      <trkpt lat="45.21311" lon="5.72997">
        <ele>838</ele>
        <time>2021-11-26T05:24:39.000Z</time>
      </trkpt>
      <trkpt lat="45.21309" lon="5.72994">
        <ele>837.79998779297</ele>
        <time>2021-11-26T05:24:41.000Z</time>
      </trkpt>
      <trkpt lat="45.21304" lon="5.7299">
        <ele>836.79998779297</ele>
        <time>2021-11-26T05:24:45.000Z</time>
      </trkpt>
      <trkpt lat="45.21303" lon="5.72989">
        <ele>836.40002441406</ele>
        <time>2021-11-26T05:24:46.000Z</time>
      </trkpt>
      <trkpt lat="45.213" lon="5.72987">
        <ele>835.40002441406</ele>
        <time>2021-11-26T05:24:49.000Z</time>
      </trkpt>
      <trkpt lat="45.21299" lon="5.72985">
        <ele>835.20001220703</ele>
        <time>2021-11-26T05:24:50.000Z</time>
      </trkpt>
      <trkpt lat="45.21298" lon="5.72982">
        <ele>834.59997558594</ele>
        <time>2021-11-26T05:24:52.000Z</time>
      </trkpt>
      <trkpt lat="45.21298" lon="5.72981">
        <ele>834.40002441406</ele>
        <time>2021-11-26T05:24:53.000Z</time>
      </trkpt>
      <trkpt lat="45.21297" lon="5.7298">
        <ele>834.20001220703</ele>
        <time>2021-11-26T05:24:54.000Z</time>
      </trkpt>
      <trkpt lat="45.21296" lon="5.72979">
        <ele>834</ele>
        <time>2021-11-26T05:24:55.000Z</time>
      </trkpt>
      <trkpt lat="45.21294" lon="5.72977">
        <ele>833</ele>
        <time>2021-11-26T05:24:57.000Z</time>
      </trkpt>
      <trkpt lat="45.21289" lon="5.72977">
        <ele>832.20001220703</ele>
        <time>2021-11-26T05:25:00.000Z</time>
      </trkpt>
      <trkpt lat="45.21288" lon="5.72975">
        <ele>831.79998779297</ele>
        <time>2021-11-26T05:25:01.000Z</time>
      </trkpt>
      <trkpt lat="45.21285" lon="5.72972">
        <ele>831.40002441406</ele>
        <time>2021-11-26T05:25:03.000Z</time>
      </trkpt>
      <trkpt lat="45.21285" lon="5.72969">
        <ele>831</ele>
        <time>2021-11-26T05:25:04.000Z</time>
      </trkpt>
      <trkpt lat="45.21286" lon="5.72967">
        <ele>830.59997558594</ele>
        <time>2021-11-26T05:25:05.000Z</time>
      </trkpt>
      <trkpt lat="45.21286" lon="5.72961">
        <ele>829.40002441406</ele>
        <time>2021-11-26T05:25:09.000Z</time>
      </trkpt>
      <trkpt lat="45.21284" lon="5.72959">
        <ele>828.79998779297</ele>
        <time>2021-11-26T05:25:11.000Z</time>
      </trkpt>
      <trkpt lat="45.21282" lon="5.72958">
        <ele>828.20001220703</ele>
        <time>2021-11-26T05:25:13.000Z</time>
      </trkpt>
      <trkpt lat="45.2128" lon="5.72958">
        <ele>827.20001220703</ele>
        <time>2021-11-26T05:25:16.000Z</time>
      </trkpt>
      <trkpt lat="45.2128" lon="5.72958">
        <ele>827</ele>
        <time>2021-11-26T05:25:17.000Z</time>
      </trkpt>
      <trkpt lat="45.21279" lon="5.72957">
        <ele>826.79998779297</ele>
        <time>2021-11-26T05:25:18.000Z</time>
      </trkpt>
      <trkpt lat="45.21277" lon="5.72957">
        <ele>825.79998779297</ele>
        <time>2021-11-26T05:25:21.000Z</time>
      </trkpt>
      <trkpt lat="45.21276" lon="5.72956">
        <ele>825.40002441406</ele>
        <time>2021-11-26T05:25:22.000Z</time>
      </trkpt>
      <trkpt lat="45.21274" lon="5.72956">
        <ele>825.20001220703</ele>
        <time>2021-11-26T05:25:23.000Z</time>
      </trkpt>
      <trkpt lat="45.21272" lon="5.72955">
        <ele>825.20001220703</ele>
        <time>2021-11-26T05:25:24.000Z</time>
      </trkpt>
      <trkpt lat="45.21269" lon="5.72953">
        <ele>824.40002441406</ele>
        <time>2021-11-26T05:25:26.000Z</time>
      </trkpt>
      <trkpt lat="45.21265" lon="5.7295">
        <ele>823.59997558594</ele>
        <time>2021-11-26T05:25:29.000Z</time>
      </trkpt>
      <trkpt lat="45.21264" lon="5.72949">
        <ele>823.20001220703</ele>
        <time>2021-11-26T05:25:30.000Z</time>
      </trkpt>
      <trkpt lat="45.21263" lon="5.72948">
        <ele>823</ele>
        <time>2021-11-26T05:25:31.000Z</time>
      </trkpt>
      <trkpt lat="45.2126" lon="5.72945">
        <ele>822</ele>
        <time>2021-11-26T05:25:34.000Z</time>
      </trkpt>
      <trkpt lat="45.21257" lon="5.72945">
        <ele>821.20001220703</ele>
        <time>2021-11-26T05:25:37.000Z</time>
      </trkpt>
      <trkpt lat="45.21254" lon="5.72944">
        <ele>820.79998779297</ele>
        <time>2021-11-26T05:25:39.000Z</time>
      </trkpt>
      <trkpt lat="45.21254" lon="5.72944">
        <ele>820.40002441406</ele>
        <time>2021-11-26T05:25:40.000Z</time>
      </trkpt>
      <trkpt lat="45.21253" lon="5.72944">
        <ele>819.79998779297</ele>
        <time>2021-11-26T05:25:41.000Z</time>
      </trkpt>
      <trkpt lat="45.21248" lon="5.7294">
        <ele>818.59997558594</ele>
        <time>2021-11-26T05:25:45.000Z</time>
      </trkpt>
      <trkpt lat="45.21245" lon="5.72938">
        <ele>818.20001220703</ele>
        <time>2021-11-26T05:25:47.000Z</time>
      </trkpt>
      <trkpt lat="45.21241" lon="5.72937">
        <ele>817.59997558594</ele>
        <time>2021-11-26T05:25:49.000Z</time>
      </trkpt>
      <trkpt lat="45.21238" lon="5.72935">
        <ele>817</ele>
        <time>2021-11-26T05:25:51.000Z</time>
      </trkpt>
      <trkpt lat="45.21235" lon="5.72931">
        <ele>816.59997558594</ele>
        <time>2021-11-26T05:25:53.000Z</time>
      </trkpt>
      <trkpt lat="45.21234" lon="5.72929">
        <ele>816.40002441406</ele>
        <time>2021-11-26T05:25:54.000Z</time>
      </trkpt>
      <trkpt lat="45.21233" lon="5.72924">
        <ele>815.59997558594</ele>
        <time>2021-11-26T05:25:57.000Z</time>
      </trkpt>
      <trkpt lat="45.21232" lon="5.72924">
        <ele>815.20001220703</ele>
        <time>2021-11-26T05:25:58.000Z</time>
      </trkpt>
      <trkpt lat="45.21226" lon="5.7292">
        <ele>814.20001220703</ele>
        <time>2021-11-26T05:26:04.000Z</time>
      </trkpt>
      <trkpt lat="45.21224" lon="5.72919">
        <ele>813.79998779297</ele>
        <time>2021-11-26T05:26:05.000Z</time>
      </trkpt>
      <trkpt lat="45.2122" lon="5.7292">
        <ele>813</ele>
        <time>2021-11-26T05:26:07.000Z</time>
      </trkpt>
      <trkpt lat="45.21214" lon="5.72918">
        <ele>811.79998779297</ele>
        <time>2021-11-26T05:26:11.000Z</time>
      </trkpt>
      <trkpt lat="45.21213" lon="5.72919">
        <ele>811.59997558594</ele>
        <time>2021-11-26T05:26:12.000Z</time>
      </trkpt>
      <trkpt lat="45.21212" lon="5.7292">
        <ele>811.59997558594</ele>
        <time>2021-11-26T05:26:13.000Z</time>
      </trkpt>
      <trkpt lat="45.21211" lon="5.72922">
        <ele>810.79998779297</ele>
        <time>2021-11-26T05:26:15.000Z</time>
      </trkpt>
      <trkpt lat="45.21211" lon="5.72925">
        <ele>810.20001220703</ele>
        <time>2021-11-26T05:26:17.000Z</time>
      </trkpt>
      <trkpt lat="45.21212" lon="5.72928">
        <ele>809.79998779297</ele>
        <time>2021-11-26T05:26:19.000Z</time>
      </trkpt>
      <trkpt lat="45.21214" lon="5.72931">
        <ele>809</ele>
        <time>2021-11-26T05:26:21.000Z</time>
      </trkpt>
      <trkpt lat="45.21215" lon="5.72932">
        <ele>808.59997558594</ele>
        <time>2021-11-26T05:26:22.000Z</time>
      </trkpt>
      <trkpt lat="45.21217" lon="5.72936">
        <ele>808</ele>
        <time>2021-11-26T05:26:24.000Z</time>
      </trkpt>
      <trkpt lat="45.21218" lon="5.72938">
        <ele>807.40002441406</ele>
        <time>2021-11-26T05:26:26.000Z</time>
      </trkpt>
      <trkpt lat="45.2122" lon="5.72943">
        <ele>806.40002441406</ele>
        <time>2021-11-26T05:26:31.000Z</time>
      </trkpt>
      <trkpt lat="45.21219" lon="5.72943">
        <ele>806.20001220703</ele>
        <time>2021-11-26T05:26:32.000Z</time>
      </trkpt>
      <trkpt lat="45.21213" lon="5.72945">
        <ele>805.20001220703</ele>
        <time>2021-11-26T05:26:35.000Z</time>
      </trkpt>
      <trkpt lat="45.21211" lon="5.72944">
        <ele>805</ele>
        <time>2021-11-26T05:26:36.000Z</time>
      </trkpt>
      <trkpt lat="45.21207" lon="5.7294">
        <ele>804</ele>
        <time>2021-11-26T05:26:39.000Z</time>
      </trkpt>
      <trkpt lat="45.21205" lon="5.72937">
        <ele>803.40002441406</ele>
        <time>2021-11-26T05:26:41.000Z</time>
      </trkpt>
      <trkpt lat="45.21204" lon="5.72935">
        <ele>803.40002441406</ele>
        <time>2021-11-26T05:26:42.000Z</time>
      </trkpt>
      <trkpt lat="45.21202" lon="5.72932">
        <ele>802.79998779297</ele>
        <time>2021-11-26T05:26:44.000Z</time>
      </trkpt>
      <trkpt lat="45.21198" lon="5.72926">
        <ele>801.79998779297</ele>
        <time>2021-11-26T05:26:49.000Z</time>
      </trkpt>
      <trkpt lat="45.21195" lon="5.72921">
        <ele>800.79998779297</ele>
        <time>2021-11-26T05:26:52.000Z</time>
      </trkpt>
      <trkpt lat="45.21192" lon="5.72916">
        <ele>799.79998779297</ele>
        <time>2021-11-26T05:26:55.000Z</time>
      </trkpt>
      <trkpt lat="45.21191" lon="5.72915">
        <ele>799.59997558594</ele>
        <time>2021-11-26T05:26:56.000Z</time>
      </trkpt>
      <trkpt lat="45.2119" lon="5.72914">
        <ele>799.20001220703</ele>
        <time>2021-11-26T05:26:57.000Z</time>
      </trkpt>
      <trkpt lat="45.21188" lon="5.72914">
        <ele>799</ele>
        <time>2021-11-26T05:26:58.000Z</time>
      </trkpt>
      <trkpt lat="45.21185" lon="5.72912">
        <ele>798.40002441406</ele>
        <time>2021-11-26T05:27:00.000Z</time>
      </trkpt>
      <trkpt lat="45.21182" lon="5.72909">
        <ele>797.59997558594</ele>
        <time>2021-11-26T05:27:03.000Z</time>
      </trkpt>
      <trkpt lat="45.21181" lon="5.72908">
        <ele>797.20001220703</ele>
        <time>2021-11-26T05:27:04.000Z</time>
      </trkpt>
      <trkpt lat="45.21177" lon="5.72906">
        <ele>796</ele>
        <time>2021-11-26T05:27:07.000Z</time>
      </trkpt>
      <trkpt lat="45.21174" lon="5.72905">
        <ele>795.40002441406</ele>
        <time>2021-11-26T05:27:09.000Z</time>
      </trkpt>
      <trkpt lat="45.21173" lon="5.72904">
        <ele>795</ele>
        <time>2021-11-26T05:27:10.000Z</time>
      </trkpt>
      <trkpt lat="45.21171" lon="5.72903">
        <ele>794.79998779297</ele>
        <time>2021-11-26T05:27:11.000Z</time>
      </trkpt>
      <trkpt lat="45.21163" lon="5.72898">
        <ele>793.59997558594</ele>
        <time>2021-11-26T05:27:16.000Z</time>
      </trkpt>
      <trkpt lat="45.21161" lon="5.72897">
        <ele>793.20001220703</ele>
        <time>2021-11-26T05:27:18.000Z</time>
      </trkpt>
      <trkpt lat="45.21159" lon="5.72896">
        <ele>793</ele>
        <time>2021-11-26T05:27:19.000Z</time>
      </trkpt>
      <trkpt lat="45.21156" lon="5.72896">
        <ele>792.40002441406</ele>
        <time>2021-11-26T05:27:21.000Z</time>
      </trkpt>
      <trkpt lat="45.21153" lon="5.72896">
        <ele>792</ele>
        <time>2021-11-26T05:27:23.000Z</time>
      </trkpt>
      <trkpt lat="45.21152" lon="5.72896">
        <ele>791.79998779297</ele>
        <time>2021-11-26T05:27:24.000Z</time>
      </trkpt>
      <trkpt lat="45.21151" lon="5.72896">
        <ele>791.40002441406</ele>
        <time>2021-11-26T05:27:25.000Z</time>
      </trkpt>
      <trkpt lat="45.2115" lon="5.72896">
        <ele>791.20001220703</ele>
        <time>2021-11-26T05:27:26.000Z</time>
      </trkpt>
      <trkpt lat="45.21149" lon="5.72895">
        <ele>790.79998779297</ele>
        <time>2021-11-26T05:27:27.000Z</time>
      </trkpt>
      <trkpt lat="45.21147" lon="5.72893">
        <ele>790.40002441406</ele>
        <time>2021-11-26T05:27:29.000Z</time>
      </trkpt>
      <trkpt lat="45.21146" lon="5.72892">
        <ele>790</ele>
        <time>2021-11-26T05:27:30.000Z</time>
      </trkpt>
      <trkpt lat="45.21142" lon="5.7289">
        <ele>789.20001220703</ele>
        <time>2021-11-26T05:27:33.000Z</time>
      </trkpt>
      <trkpt lat="45.21139" lon="5.72889">
        <ele>788.79998779297</ele>
        <time>2021-11-26T05:27:34.000Z</time>
      </trkpt>
      <trkpt lat="45.21137" lon="5.72888">
        <ele>788.40002441406</ele>
        <time>2021-11-26T05:27:36.000Z</time>
      </trkpt>
      <trkpt lat="45.21133" lon="5.72887">
        <ele>787.59997558594</ele>
        <time>2021-11-26T05:27:38.000Z</time>
      </trkpt>
      <trkpt lat="45.21132" lon="5.72887">
        <ele>787.20001220703</ele>
        <time>2021-11-26T05:27:39.000Z</time>
      </trkpt>
      <trkpt lat="45.21128" lon="5.72885">
        <ele>786.40002441406</ele>
        <time>2021-11-26T05:27:42.000Z</time>
      </trkpt>
      <trkpt lat="45.21127" lon="5.72884">
        <ele>786</ele>
        <time>2021-11-26T05:27:43.000Z</time>
      </trkpt>
      <trkpt lat="45.21124" lon="5.72883">
        <ele>785.59997558594</ele>
        <time>2021-11-26T05:27:45.000Z</time>
      </trkpt>
      <trkpt lat="45.21122" lon="5.72882">
        <ele>785.20001220703</ele>
        <time>2021-11-26T05:27:46.000Z</time>
      </trkpt>
      <trkpt lat="45.2112" lon="5.72881">
        <ele>785</ele>
        <time>2021-11-26T05:27:47.000Z</time>
      </trkpt>
      <trkpt lat="45.21119" lon="5.72879">
        <ele>784.40002441406</ele>
        <time>2021-11-26T05:27:49.000Z</time>
      </trkpt>
      <trkpt lat="45.21116" lon="5.72878">
        <ele>784.20001220703</ele>
        <time>2021-11-26T05:27:51.000Z</time>
      </trkpt>
      <trkpt lat="45.21116" lon="5.72877">
        <ele>783.79998779297</ele>
        <time>2021-11-26T05:27:52.000Z</time>
      </trkpt>
      <trkpt lat="45.21114" lon="5.72873">
        <ele>783</ele>
        <time>2021-11-26T05:27:55.000Z</time>
      </trkpt>
      <trkpt lat="45.2111" lon="5.72867">
        <ele>782</ele>
        <time>2021-11-26T05:27:59.000Z</time>
      </trkpt>
      <trkpt lat="45.21108" lon="5.72866">
        <ele>781.79998779297</ele>
        <time>2021-11-26T05:28:01.000Z</time>
      </trkpt>
      <trkpt lat="45.21106" lon="5.72864">
        <ele>781</ele>
        <time>2021-11-26T05:28:03.000Z</time>
      </trkpt>
      <trkpt lat="45.21104" lon="5.72862">
        <ele>780.79998779297</ele>
        <time>2021-11-26T05:28:04.000Z</time>
      </trkpt>
      <trkpt lat="45.211" lon="5.72858">
        <ele>780.20001220703</ele>
        <time>2021-11-26T05:28:07.000Z</time>
      </trkpt>
      <trkpt lat="45.21098" lon="5.72856">
        <ele>780</ele>
        <time>2021-11-26T05:28:08.000Z</time>
      </trkpt>
      <trkpt lat="45.21096" lon="5.72854">
        <ele>779.59997558594</ele>
        <time>2021-11-26T05:28:10.000Z</time>
      </trkpt>
      <trkpt lat="45.21092" lon="5.72848">
        <ele>779.20001220703</ele>
        <time>2021-11-26T05:28:14.000Z</time>
      </trkpt>
      <trkpt lat="45.21092" lon="5.72847">
        <ele>778.79998779297</ele>
        <time>2021-11-26T05:28:15.000Z</time>
      </trkpt>
      <trkpt lat="45.2109" lon="5.72845">
        <ele>778.59997558594</ele>
        <time>2021-11-26T05:28:16.000Z</time>
      </trkpt>
      <trkpt lat="45.21087" lon="5.72837">
        <ele>777.79998779297</ele>
        <time>2021-11-26T05:28:20.000Z</time>
      </trkpt>
      <trkpt lat="45.21086" lon="5.72836">
        <ele>777.59997558594</ele>
        <time>2021-11-26T05:28:21.000Z</time>
      </trkpt>
      <trkpt lat="45.21082" lon="5.72827">
        <ele>776.79998779297</ele>
        <time>2021-11-26T05:28:25.000Z</time>
      </trkpt>
      <trkpt lat="45.21081" lon="5.72824">
        <ele>776.59997558594</ele>
        <time>2021-11-26T05:28:26.000Z</time>
      </trkpt>
      <trkpt lat="45.21079" lon="5.72821">
        <ele>776.40002441406</ele>
        <time>2021-11-26T05:28:28.000Z</time>
      </trkpt>
      <trkpt lat="45.21074" lon="5.72808">
        <ele>776</ele>
        <time>2021-11-26T05:28:33.000Z</time>
      </trkpt>
      <trkpt lat="45.21071" lon="5.72804">
        <ele>775.79998779297</ele>
        <time>2021-11-26T05:28:34.000Z</time>
      </trkpt>
      <trkpt lat="45.21069" lon="5.728">
        <ele>775.79998779297</ele>
        <time>2021-11-26T05:28:35.000Z</time>
      </trkpt>
      <trkpt lat="45.21067" lon="5.72792">
        <ele>775.59997558594</ele>
        <time>2021-11-26T05:28:38.000Z</time>
      </trkpt>
      <trkpt lat="45.21063" lon="5.72784">
        <ele>775.59997558594</ele>
        <time>2021-11-26T05:28:41.000Z</time>
      </trkpt>
      <trkpt lat="45.21063" lon="5.72781">
        <ele>775.59997558594</ele>
        <time>2021-11-26T05:28:42.000Z</time>
      </trkpt>
      <trkpt lat="45.21062" lon="5.7278">
        <ele>775.59997558594</ele>
        <time>2021-11-26T05:28:43.000Z</time>
      </trkpt>
      <trkpt lat="45.21059" lon="5.72773">
        <ele>775.20001220703</ele>
        <time>2021-11-26T05:28:47.000Z</time>
      </trkpt>
      <trkpt lat="45.21058" lon="5.72771">
        <ele>775.20001220703</ele>
        <time>2021-11-26T05:28:48.000Z</time>
      </trkpt>
      <trkpt lat="45.21053" lon="5.72761">
        <ele>774.59997558594</ele>
        <time>2021-11-26T05:28:53.000Z</time>
      </trkpt>
      <trkpt lat="45.2105" lon="5.72756">
        <ele>774</ele>
        <time>2021-11-26T05:28:56.000Z</time>
      </trkpt>
      <trkpt lat="45.21049" lon="5.72755">
        <ele>773.79998779297</ele>
        <time>2021-11-26T05:28:57.000Z</time>
      </trkpt>
      <trkpt lat="45.21046" lon="5.72753">
        <ele>773.40002441406</ele>
        <time>2021-11-26T05:28:59.000Z</time>
      </trkpt>
      <trkpt lat="45.21043" lon="5.7275">
        <ele>772.79998779297</ele>
        <time>2021-11-26T05:29:02.000Z</time>
      </trkpt>
      <trkpt lat="45.21043" lon="5.7275">
        <ele>772.59997558594</ele>
        <time>2021-11-26T05:29:03.000Z</time>
      </trkpt>
      <trkpt lat="45.21043" lon="5.7275">
        <ele>772.20001220703</ele>
        <time>2021-11-26T05:29:04.000Z</time>
      </trkpt>
      <trkpt lat="45.21041" lon="5.72748">
        <ele>771.79998779297</ele>
        <time>2021-11-26T05:29:07.000Z</time>
      </trkpt>
      <trkpt lat="45.21037" lon="5.72747">
        <ele>771</ele>
        <time>2021-11-26T05:29:11.000Z</time>
      </trkpt>
      <trkpt lat="45.21034" lon="5.72747">
        <ele>770</ele>
        <time>2021-11-26T05:29:14.000Z</time>
      </trkpt>
      <trkpt lat="45.21033" lon="5.72746">
        <ele>769.59997558594</ele>
        <time>2021-11-26T05:29:15.000Z</time>
      </trkpt>
      <trkpt lat="45.2103" lon="5.72744">
        <ele>768.79998779297</ele>
        <time>2021-11-26T05:29:18.000Z</time>
      </trkpt>
      <trkpt lat="45.21029" lon="5.72744">
        <ele>768</ele>
        <time>2021-11-26T05:29:20.000Z</time>
      </trkpt>
      <trkpt lat="45.21027" lon="5.72744">
        <ele>767.59997558594</ele>
        <time>2021-11-26T05:29:22.000Z</time>
      </trkpt>
      <trkpt lat="45.21024" lon="5.72743">
        <ele>766.59997558594</ele>
        <time>2021-11-26T05:29:26.000Z</time>
      </trkpt>
      <trkpt lat="45.21024" lon="5.72743">
        <ele>766.40002441406</ele>
        <time>2021-11-26T05:29:27.000Z</time>
      </trkpt>
      <trkpt lat="45.21023" lon="5.72744">
        <ele>766.20001220703</ele>
        <time>2021-11-26T05:29:28.000Z</time>
      </trkpt>
      <trkpt lat="45.21023" lon="5.72745">
        <ele>765.79998779297</ele>
        <time>2021-11-26T05:29:30.000Z</time>
      </trkpt>
      <trkpt lat="45.21022" lon="5.72745">
        <ele>765.40002441406</ele>
        <time>2021-11-26T05:29:32.000Z</time>
      </trkpt>
      <trkpt lat="45.21021" lon="5.72746">
        <ele>765.40002441406</ele>
        <time>2021-11-26T05:29:33.000Z</time>
      </trkpt>
      <trkpt lat="45.2102" lon="5.72747">
        <ele>765.20001220703</ele>
        <time>2021-11-26T05:29:34.000Z</time>
      </trkpt>
      <trkpt lat="45.21017" lon="5.72747">
        <ele>764.59997558594</ele>
        <time>2021-11-26T05:29:36.000Z</time>
      </trkpt>
      <trkpt lat="45.21016" lon="5.72748">
        <ele>764.20001220703</ele>
        <time>2021-11-26T05:29:37.000Z</time>
      </trkpt>
      <trkpt lat="45.21015" lon="5.72747">
        <ele>763.20001220703</ele>
        <time>2021-11-26T05:29:39.000Z</time>
      </trkpt>
      <trkpt lat="45.21015" lon="5.72746">
        <ele>763</ele>
        <time>2021-11-26T05:29:40.000Z</time>
      </trkpt>
      <trkpt lat="45.21014" lon="5.72747">
        <ele>762.79998779297</ele>
        <time>2021-11-26T05:29:41.000Z</time>
      </trkpt>
      <trkpt lat="45.21013" lon="5.72747">
        <ele>762</ele>
        <time>2021-11-26T05:29:44.000Z</time>
      </trkpt>
      <trkpt lat="45.21012" lon="5.72747">
        <ele>761.79998779297</ele>
        <time>2021-11-26T05:29:45.000Z</time>
      </trkpt>
      <trkpt lat="45.21012" lon="5.72748">
        <ele>761.40002441406</ele>
        <time>2021-11-26T05:29:47.000Z</time>
      </trkpt>
      <trkpt lat="45.21011" lon="5.72749">
        <ele>761</ele>
        <time>2021-11-26T05:29:49.000Z</time>
      </trkpt>
      <trkpt lat="45.2101" lon="5.7275">
        <ele>760.40002441406</ele>
        <time>2021-11-26T05:29:51.000Z</time>
      </trkpt>
      <trkpt lat="45.21009" lon="5.7275">
        <ele>760.20001220703</ele>
        <time>2021-11-26T05:29:52.000Z</time>
      </trkpt>
      <trkpt lat="45.21008" lon="5.72751">
        <ele>759.79998779297</ele>
        <time>2021-11-26T05:29:53.000Z</time>
      </trkpt>
      <trkpt lat="45.21008" lon="5.72753">
        <ele>759.40002441406</ele>
        <time>2021-11-26T05:29:55.000Z</time>
      </trkpt>
      <trkpt lat="45.21007" lon="5.72753">
        <ele>759.20001220703</ele>
        <time>2021-11-26T05:29:56.000Z</time>
      </trkpt>
      <trkpt lat="45.21007" lon="5.72754">
        <ele>759</ele>
        <time>2021-11-26T05:29:58.000Z</time>
      </trkpt>
      <trkpt lat="45.21008" lon="5.72754">
        <ele>758.79998779297</ele>
        <time>2021-11-26T05:29:59.000Z</time>
      </trkpt>
      <trkpt lat="45.21006" lon="5.72755">
        <ele>757.59997558594</ele>
        <time>2021-11-26T05:30:03.000Z</time>
      </trkpt>
      <trkpt lat="45.21005" lon="5.72757">
        <ele>757.20001220703</ele>
        <time>2021-11-26T05:30:05.000Z</time>
      </trkpt>
      <trkpt lat="45.21004" lon="5.72758">
        <ele>756.40002441406</ele>
        <time>2021-11-26T05:30:07.000Z</time>
      </trkpt>
      <trkpt lat="45.21002" lon="5.72758">
        <ele>755.40002441406</ele>
        <time>2021-11-26T05:30:10.000Z</time>
      </trkpt>
      <trkpt lat="45.21001" lon="5.72759">
        <ele>755.40002441406</ele>
        <time>2021-11-26T05:30:11.000Z</time>
      </trkpt>
      <trkpt lat="45.20997" lon="5.72758">
        <ele>754</ele>
        <time>2021-11-26T05:30:17.000Z</time>
      </trkpt>
      <trkpt lat="45.20995" lon="5.72758">
        <ele>753.40002441406</ele>
        <time>2021-11-26T05:30:19.000Z</time>
      </trkpt>
      <trkpt lat="45.20995" lon="5.72758">
        <ele>753</ele>
        <time>2021-11-26T05:30:20.000Z</time>
      </trkpt>
      <trkpt lat="45.20995" lon="5.72759">
        <ele>752.79998779297</ele>
        <time>2021-11-26T05:30:21.000Z</time>
      </trkpt>
      <trkpt lat="45.20993" lon="5.72761">
        <ele>752.20001220703</ele>
        <time>2021-11-26T05:30:23.000Z</time>
      </trkpt>
      <trkpt lat="45.20992" lon="5.72761">
        <ele>752</ele>
        <time>2021-11-26T05:30:24.000Z</time>
      </trkpt>
      <trkpt lat="45.20991" lon="5.72762">
        <ele>751.59997558594</ele>
        <time>2021-11-26T05:30:25.000Z</time>
      </trkpt>
      <trkpt lat="45.20989" lon="5.72762">
        <ele>751.20001220703</ele>
        <time>2021-11-26T05:30:27.000Z</time>
      </trkpt>
      <trkpt lat="45.20988" lon="5.72761">
        <ele>750.79998779297</ele>
        <time>2021-11-26T05:30:29.000Z</time>
      </trkpt>
      <trkpt lat="45.20988" lon="5.7276">
        <ele>750.59997558594</ele>
        <time>2021-11-26T05:30:30.000Z</time>
      </trkpt>
      <trkpt lat="45.20985" lon="5.72758">
        <ele>750</ele>
        <time>2021-11-26T05:30:33.000Z</time>
      </trkpt>
      <trkpt lat="45.20984" lon="5.72757">
        <ele>749.59997558594</ele>
        <time>2021-11-26T05:30:34.000Z</time>
      </trkpt>
      <trkpt lat="45.20981" lon="5.72756">
        <ele>748.59997558594</ele>
        <time>2021-11-26T05:30:37.000Z</time>
      </trkpt>
      <trkpt lat="45.2098" lon="5.72755">
        <ele>747.79998779297</ele>
        <time>2021-11-26T05:30:40.000Z</time>
      </trkpt>
      <trkpt lat="45.20979" lon="5.72754">
        <ele>747.59997558594</ele>
        <time>2021-11-26T05:30:41.000Z</time>
      </trkpt>
      <trkpt lat="45.20975" lon="5.72751">
        <ele>746.20001220703</ele>
        <time>2021-11-26T05:30:44.000Z</time>
      </trkpt>
      <trkpt lat="45.20975" lon="5.72748">
        <ele>745.59997558594</ele>
        <time>2021-11-26T05:30:46.000Z</time>
      </trkpt>
      <trkpt lat="45.20974" lon="5.72747">
        <ele>745.20001220703</ele>
        <time>2021-11-26T05:30:47.000Z</time>
      </trkpt>
      <trkpt lat="45.20973" lon="5.72745">
        <ele>744</ele>
        <time>2021-11-26T05:30:50.000Z</time>
      </trkpt>
      <trkpt lat="45.20972" lon="5.72744">
        <ele>743.40002441406</ele>
        <time>2021-11-26T05:30:52.000Z</time>
      </trkpt>
      <trkpt lat="45.20971" lon="5.7274">
        <ele>742.79998779297</ele>
        <time>2021-11-26T05:30:54.000Z</time>
      </trkpt>
      <trkpt lat="45.20969" lon="5.72737">
        <ele>742</ele>
        <time>2021-11-26T05:30:56.000Z</time>
      </trkpt>
      <trkpt lat="45.20969" lon="5.72736">
        <ele>741.79998779297</ele>
        <time>2021-11-26T05:30:57.000Z</time>
      </trkpt>
      <trkpt lat="45.20969" lon="5.72734">
        <ele>741.40002441406</ele>
        <time>2021-11-26T05:30:58.000Z</time>
      </trkpt>
      <trkpt lat="45.20968" lon="5.72729">
        <ele>740.79998779297</ele>
        <time>2021-11-26T05:31:01.000Z</time>
      </trkpt>
      <trkpt lat="45.20968" lon="5.72728">
        <ele>740</ele>
        <time>2021-11-26T05:31:03.000Z</time>
      </trkpt>
      <trkpt lat="45.20967" lon="5.72727">
        <ele>739.79998779297</ele>
        <time>2021-11-26T05:31:04.000Z</time>
      </trkpt>
      <trkpt lat="45.20965" lon="5.72726">
        <ele>739.40002441406</ele>
        <time>2021-11-26T05:31:05.000Z</time>
      </trkpt>
      <trkpt lat="45.20963" lon="5.72725">
        <ele>738.79998779297</ele>
        <time>2021-11-26T05:31:07.000Z</time>
      </trkpt>
      <trkpt lat="45.20959" lon="5.72721">
        <ele>737.79998779297</ele>
        <time>2021-11-26T05:31:11.000Z</time>
      </trkpt>
      <trkpt lat="45.20957" lon="5.72719">
        <ele>736.59997558594</ele>
        <time>2021-11-26T05:31:14.000Z</time>
      </trkpt>
      <trkpt lat="45.20953" lon="5.72717">
        <ele>735.40002441406</ele>
        <time>2021-11-26T05:31:17.000Z</time>
      </trkpt>
      <trkpt lat="45.2095" lon="5.72716">
        <ele>734.59997558594</ele>
        <time>2021-11-26T05:31:20.000Z</time>
      </trkpt>
      <trkpt lat="45.20949" lon="5.72715">
        <ele>733.79998779297</ele>
        <time>2021-11-26T05:31:21.000Z</time>
      </trkpt>
      <trkpt lat="45.20948" lon="5.72712">
        <ele>732.79998779297</ele>
        <time>2021-11-26T05:31:23.000Z</time>
      </trkpt>
      <trkpt lat="45.20945" lon="5.72706">
        <ele>731.20001220703</ele>
        <time>2021-11-26T05:31:27.000Z</time>
      </trkpt>
      <trkpt lat="45.20942" lon="5.72702">
        <ele>730.20001220703</ele>
        <time>2021-11-26T05:31:29.000Z</time>
      </trkpt>
      <trkpt lat="45.20936" lon="5.72695">
        <ele>729</ele>
        <time>2021-11-26T05:31:33.000Z</time>
      </trkpt>
      <trkpt lat="45.20933" lon="5.72692">
        <ele>728.20001220703</ele>
        <time>2021-11-26T05:31:35.000Z</time>
      </trkpt>
      <trkpt lat="45.20932" lon="5.72691">
        <ele>727.79998779297</ele>
        <time>2021-11-26T05:31:36.000Z</time>
      </trkpt>
      <trkpt lat="45.20926" lon="5.72689">
        <ele>726.79998779297</ele>
        <time>2021-11-26T05:31:39.000Z</time>
      </trkpt>
      <trkpt lat="45.20924" lon="5.72688">
        <ele>726.59997558594</ele>
        <time>2021-11-26T05:31:40.000Z</time>
      </trkpt>
      <trkpt lat="45.20923" lon="5.72686">
        <ele>726.40002441406</ele>
        <time>2021-11-26T05:31:41.000Z</time>
      </trkpt>
      <trkpt lat="45.20921" lon="5.72684">
        <ele>725.79998779297</ele>
        <time>2021-11-26T05:31:43.000Z</time>
      </trkpt>
      <trkpt lat="45.2092" lon="5.72682">
        <ele>725.59997558594</ele>
        <time>2021-11-26T05:31:44.000Z</time>
      </trkpt>
      <trkpt lat="45.20919" lon="5.72682">
        <ele>725</ele>
        <time>2021-11-26T05:31:46.000Z</time>
      </trkpt>
      <trkpt lat="45.20918" lon="5.72682">
        <ele>724.59997558594</ele>
        <time>2021-11-26T05:31:47.000Z</time>
      </trkpt>
      <trkpt lat="45.20913" lon="5.72678">
        <ele>723.20001220703</ele>
        <time>2021-11-26T05:31:52.000Z</time>
      </trkpt>
      <trkpt lat="45.20911" lon="5.72679">
        <ele>722</ele>
        <time>2021-11-26T05:31:56.000Z</time>
      </trkpt>
      <trkpt lat="45.20911" lon="5.7268">
        <ele>721.59997558594</ele>
        <time>2021-11-26T05:31:58.000Z</time>
      </trkpt>
      <trkpt lat="45.20909" lon="5.72681">
        <ele>720.79998779297</ele>
        <time>2021-11-26T05:32:00.000Z</time>
      </trkpt>
      <trkpt lat="45.20906" lon="5.72682">
        <ele>719.59997558594</ele>
        <time>2021-11-26T05:32:04.000Z</time>
      </trkpt>
      <trkpt lat="45.20903" lon="5.72683">
        <ele>718.40002441406</ele>
        <time>2021-11-26T05:32:08.000Z</time>
      </trkpt>
      <trkpt lat="45.209" lon="5.72682">
        <ele>717.79998779297</ele>
        <time>2021-11-26T05:32:10.000Z</time>
      </trkpt>
      <trkpt lat="45.20899" lon="5.72682">
        <ele>717.40002441406</ele>
        <time>2021-11-26T05:32:11.000Z</time>
      </trkpt>
      <trkpt lat="45.20897" lon="5.72682">
        <ele>717.20001220703</ele>
        <time>2021-11-26T05:32:12.000Z</time>
      </trkpt>
      <trkpt lat="45.20895" lon="5.72684">
        <ele>716.40002441406</ele>
        <time>2021-11-26T05:32:14.000Z</time>
      </trkpt>
      <trkpt lat="45.20894" lon="5.72685">
        <ele>716.20001220703</ele>
        <time>2021-11-26T05:32:15.000Z</time>
      </trkpt>
      <trkpt lat="45.20886" lon="5.72691">
        <ele>714.79998779297</ele>
        <time>2021-11-26T05:32:20.000Z</time>
      </trkpt>
      <trkpt lat="45.20882" lon="5.72692">
        <ele>714.20001220703</ele>
        <time>2021-11-26T05:32:22.000Z</time>
      </trkpt>
      <trkpt lat="45.2088" lon="5.72692">
        <ele>714</ele>
        <time>2021-11-26T05:32:23.000Z</time>
      </trkpt>
      <trkpt lat="45.20878" lon="5.72693">
        <ele>713.79998779297</ele>
        <time>2021-11-26T05:32:24.000Z</time>
      </trkpt>
      <trkpt lat="45.20873" lon="5.72693">
        <ele>712.40002441406</ele>
        <time>2021-11-26T05:32:27.000Z</time>
      </trkpt>
      <trkpt lat="45.20871" lon="5.72694">
        <ele>712</ele>
        <time>2021-11-26T05:32:28.000Z</time>
      </trkpt>
      <trkpt lat="45.20868" lon="5.72696">
        <ele>711.79998779297</ele>
        <time>2021-11-26T05:32:30.000Z</time>
      </trkpt>
      <trkpt lat="45.20867" lon="5.72696">
        <ele>711.40002441406</ele>
        <time>2021-11-26T05:32:31.000Z</time>
      </trkpt>
      <trkpt lat="45.20865" lon="5.72696">
        <ele>711.40002441406</ele>
        <time>2021-11-26T05:32:32.000Z</time>
      </trkpt>
      <trkpt lat="45.2086" lon="5.72697">
        <ele>710.20001220703</ele>
        <time>2021-11-26T05:32:35.000Z</time>
      </trkpt>
      <trkpt lat="45.20858" lon="5.72698">
        <ele>710</ele>
        <time>2021-11-26T05:32:36.000Z</time>
      </trkpt>
      <trkpt lat="45.20854" lon="5.72697">
        <ele>709.40002441406</ele>
        <time>2021-11-26T05:32:39.000Z</time>
      </trkpt>
      <trkpt lat="45.20854" lon="5.72698">
        <ele>709</ele>
        <time>2021-11-26T05:32:40.000Z</time>
      </trkpt>
      <trkpt lat="45.20853" lon="5.72698">
        <ele>709</ele>
        <time>2021-11-26T05:32:41.000Z</time>
      </trkpt>
      <trkpt lat="45.20852" lon="5.727">
        <ele>708.20001220703</ele>
        <time>2021-11-26T05:32:44.000Z</time>
      </trkpt>
      <trkpt lat="45.20851" lon="5.727">
        <ele>707.79998779297</ele>
        <time>2021-11-26T05:32:45.000Z</time>
      </trkpt>
      <trkpt lat="45.20851" lon="5.727">
        <ele>707.79998779297</ele>
        <time>2021-11-26T05:32:46.000Z</time>
      </trkpt>
      <trkpt lat="45.2085" lon="5.72702">
        <ele>707.40002441406</ele>
        <time>2021-11-26T05:32:48.000Z</time>
      </trkpt>
      <trkpt lat="45.20849" lon="5.72702">
        <ele>706.79998779297</ele>
        <time>2021-11-26T05:32:50.000Z</time>
      </trkpt>
      <trkpt lat="45.20847" lon="5.72703">
        <ele>706.40002441406</ele>
        <time>2021-11-26T05:32:52.000Z</time>
      </trkpt>
      <trkpt lat="45.20845" lon="5.72701">
        <ele>706</ele>
        <time>2021-11-26T05:32:54.000Z</time>
      </trkpt>
      <trkpt lat="45.20843" lon="5.727">
        <ele>705.59997558594</ele>
        <time>2021-11-26T05:32:55.000Z</time>
      </trkpt>
      <trkpt lat="45.20842" lon="5.72698">
        <ele>705.20001220703</ele>
        <time>2021-11-26T05:32:56.000Z</time>
      </trkpt>
      <trkpt lat="45.2084" lon="5.72699">
        <ele>704.79998779297</ele>
        <time>2021-11-26T05:32:58.000Z</time>
      </trkpt>
      <trkpt lat="45.20839" lon="5.72702">
        <ele>704.79998779297</ele>
        <time>2021-11-26T05:32:59.000Z</time>
      </trkpt>
      <trkpt lat="45.2084" lon="5.72703">
        <ele>704.79998779297</ele>
        <time>2021-11-26T05:33:00.000Z</time>
      </trkpt>
      <trkpt lat="45.2084" lon="5.72705">
        <ele>704.79998779297</ele>
        <time>2021-11-26T05:33:01.000Z</time>
      </trkpt>
      <trkpt lat="45.2084" lon="5.72708">
        <ele>705.40002441406</ele>
        <time>2021-11-26T05:33:03.000Z</time>
      </trkpt>
      <trkpt lat="45.20839" lon="5.72712">
        <ele>706.40002441406</ele>
        <time>2021-11-26T05:33:06.000Z</time>
      </trkpt>
      <trkpt lat="45.20838" lon="5.72714">
        <ele>707</ele>
        <time>2021-11-26T05:33:08.000Z</time>
      </trkpt>
      <trkpt lat="45.20837" lon="5.72715">
        <ele>708</ele>
        <time>2021-11-26T05:33:11.000Z</time>
      </trkpt>
      <trkpt lat="45.20836" lon="5.72716">
        <ele>708.40002441406</ele>
        <time>2021-11-26T05:33:13.000Z</time>
      </trkpt>
      <trkpt lat="45.20836" lon="5.72717">
        <ele>709.20001220703</ele>
        <time>2021-11-26T05:33:15.000Z</time>
      </trkpt>
      <trkpt lat="45.20835" lon="5.72717">
        <ele>709.59997558594</ele>
        <time>2021-11-26T05:33:16.000Z</time>
      </trkpt>
      <trkpt lat="45.20835" lon="5.72719">
        <ele>710.59997558594</ele>
        <time>2021-11-26T05:33:19.000Z</time>
      </trkpt>
      <trkpt lat="45.20833" lon="5.7272">
        <ele>711.20001220703</ele>
        <time>2021-11-26T05:33:22.000Z</time>
      </trkpt>
      <trkpt lat="45.20833" lon="5.72721">
        <ele>711.40002441406</ele>
        <time>2021-11-26T05:33:23.000Z</time>
      </trkpt>
      <trkpt lat="45.20832" lon="5.72722">
        <ele>711.79998779297</ele>
        <time>2021-11-26T05:33:24.000Z</time>
      </trkpt>
      <trkpt lat="45.20828" lon="5.72723">
        <ele>712.40002441406</ele>
        <time>2021-11-26T05:33:28.000Z</time>
      </trkpt>
      <trkpt lat="45.20825" lon="5.72724">
        <ele>712.59997558594</ele>
        <time>2021-11-26T05:33:32.000Z</time>
      </trkpt>
      <trkpt lat="45.20826" lon="5.72726">
        <ele>712.59997558594</ele>
        <time>2021-11-26T05:33:33.000Z</time>
      </trkpt>
      <trkpt lat="45.20825" lon="5.72727">
        <ele>712.59997558594</ele>
        <time>2021-11-26T05:33:34.000Z</time>
      </trkpt>
      <trkpt lat="45.20823" lon="5.7273">
        <ele>712.79998779297</ele>
        <time>2021-11-26T05:33:39.000Z</time>
      </trkpt>
      <trkpt lat="45.20822" lon="5.7273">
        <ele>712.20001220703</ele>
        <time>2021-11-26T05:33:41.000Z</time>
      </trkpt>
      <trkpt lat="45.20821" lon="5.72729">
        <ele>711.59997558594</ele>
        <time>2021-11-26T05:33:44.000Z</time>
      </trkpt>
      <trkpt lat="45.20817" lon="5.72732">
        <ele>710.59997558594</ele>
        <time>2021-11-26T05:33:49.000Z</time>
      </trkpt>
      <trkpt lat="45.20816" lon="5.72732">
        <ele>710.40002441406</ele>
        <time>2021-11-26T05:33:50.000Z</time>
      </trkpt>
      <trkpt lat="45.20814" lon="5.72731">
        <ele>710.20001220703</ele>
        <time>2021-11-26T05:33:51.000Z</time>
      </trkpt>
      <trkpt lat="45.20809" lon="5.72731">
        <ele>709.40002441406</ele>
        <time>2021-11-26T05:33:55.000Z</time>
      </trkpt>
      <trkpt lat="45.20807" lon="5.72733">
        <ele>709.40002441406</ele>
        <time>2021-11-26T05:33:57.000Z</time>
      </trkpt>
      <trkpt lat="45.20804" lon="5.72733">
        <ele>709.79998779297</ele>
        <time>2021-11-26T05:34:02.000Z</time>
      </trkpt>
      <trkpt lat="45.20802" lon="5.72731">
        <ele>710.40002441406</ele>
        <time>2021-11-26T05:34:06.000Z</time>
      </trkpt>
      <trkpt lat="45.20802" lon="5.72732">
        <ele>710.59997558594</ele>
        <time>2021-11-26T05:34:07.000Z</time>
      </trkpt>
      <trkpt lat="45.208" lon="5.7273">
        <ele>711.40002441406</ele>
        <time>2021-11-26T05:34:10.000Z</time>
      </trkpt>
      <trkpt lat="45.20799" lon="5.72729">
        <ele>711.79998779297</ele>
        <time>2021-11-26T05:34:12.000Z</time>
      </trkpt>
      <trkpt lat="45.208" lon="5.7273">
        <ele>712.20001220703</ele>
        <time>2021-11-26T05:34:16.000Z</time>
      </trkpt>
      <trkpt lat="45.20801" lon="5.7273">
        <ele>711.79998779297</ele>
        <time>2021-11-26T05:34:19.000Z</time>
      </trkpt>
      <trkpt lat="45.20803" lon="5.72732">
        <ele>711</ele>
        <time>2021-11-26T05:34:25.000Z</time>
      </trkpt>
      <trkpt lat="45.20803" lon="5.72732">
        <ele>710.59997558594</ele>
        <time>2021-11-26T05:34:27.000Z</time>
      </trkpt>
      <trkpt lat="45.20806" lon="5.72736">
        <ele>710.20001220703</ele>
        <time>2021-11-26T05:34:31.000Z</time>
      </trkpt>
      <trkpt lat="45.20808" lon="5.72739">
        <ele>710.20001220703</ele>
        <time>2021-11-26T05:34:35.000Z</time>
      </trkpt>
      <trkpt lat="45.20808" lon="5.72739">
        <ele>710.20001220703</ele>
        <time>2021-11-26T05:34:36.000Z</time>
      </trkpt>
      <trkpt lat="45.20804" lon="5.72736">
        <ele>710.40002441406</ele>
        <time>2021-11-26T05:34:43.000Z</time>
      </trkpt>
      <trkpt lat="45.20804" lon="5.72732">
        <ele>710.40002441406</ele>
        <time>2021-11-26T05:34:46.000Z</time>
      </trkpt>
      <trkpt lat="45.20808" lon="5.72732">
        <ele>709.59997558594</ele>
        <time>2021-11-26T05:34:49.000Z</time>
      </trkpt>
      <trkpt lat="45.20809" lon="5.72732">
        <ele>709.59997558594</ele>
        <time>2021-11-26T05:34:50.000Z</time>
      </trkpt>
      <trkpt lat="45.20812" lon="5.72731">
        <ele>709.59997558594</ele>
        <time>2021-11-26T05:34:53.000Z</time>
      </trkpt>
      <trkpt lat="45.20814" lon="5.7273">
        <ele>710</ele>
        <time>2021-11-26T05:34:55.000Z</time>
      </trkpt>
      <trkpt lat="45.20816" lon="5.7273">
        <ele>710.20001220703</ele>
        <time>2021-11-26T05:34:59.000Z</time>
      </trkpt>
      <trkpt lat="45.20816" lon="5.72728">
        <ele>710.79998779297</ele>
        <time>2021-11-26T05:35:01.000Z</time>
      </trkpt>
      <trkpt lat="45.20816" lon="5.72728">
        <ele>711</ele>
        <time>2021-11-26T05:35:02.000Z</time>
      </trkpt>
      <trkpt lat="45.20818" lon="5.72727">
        <ele>711.79998779297</ele>
        <time>2021-11-26T05:35:05.000Z</time>
      </trkpt>
      <trkpt lat="45.2082" lon="5.72725">
        <ele>712.59997558594</ele>
        <time>2021-11-26T05:35:07.000Z</time>
      </trkpt>
      <trkpt lat="45.20821" lon="5.72723">
        <ele>713</ele>
        <time>2021-11-26T05:35:09.000Z</time>
      </trkpt>
      <trkpt lat="45.20824" lon="5.72721">
        <ele>713</ele>
        <time>2021-11-26T05:35:13.000Z</time>
      </trkpt>
      <trkpt lat="45.20825" lon="5.72718">
        <ele>713</ele>
        <time>2021-11-26T05:35:17.000Z</time>
      </trkpt>
      <trkpt lat="45.20825" lon="5.72717">
        <ele>713</ele>
        <time>2021-11-26T05:35:18.000Z</time>
      </trkpt>
      <trkpt lat="45.20826" lon="5.72716">
        <ele>712.79998779297</ele>
        <time>2021-11-26T05:35:20.000Z</time>
      </trkpt>
      <trkpt lat="45.20827" lon="5.72716">
        <ele>712.59997558594</ele>
        <time>2021-11-26T05:35:22.000Z</time>
      </trkpt>
      <trkpt lat="45.20828" lon="5.72716">
        <ele>712.40002441406</ele>
        <time>2021-11-26T05:35:23.000Z</time>
      </trkpt>
      <trkpt lat="45.20828" lon="5.72715">
        <ele>712</ele>
        <time>2021-11-26T05:35:25.000Z</time>
      </trkpt>
      <trkpt lat="45.20828" lon="5.72714">
        <ele>711.79998779297</ele>
        <time>2021-11-26T05:35:26.000Z</time>
      </trkpt>
      <trkpt lat="45.20828" lon="5.72713">
        <ele>710.59997558594</ele>
        <time>2021-11-26T05:35:30.000Z</time>
      </trkpt>
      <trkpt lat="45.2083" lon="5.72711">
        <ele>710.20001220703</ele>
        <time>2021-11-26T05:35:33.000Z</time>
      </trkpt>
      <trkpt lat="45.20831" lon="5.72709">
        <ele>709.40002441406</ele>
        <time>2021-11-26T05:35:35.000Z</time>
      </trkpt>
      <trkpt lat="45.20832" lon="5.72706">
        <ele>708.20001220703</ele>
        <time>2021-11-26T05:35:38.000Z</time>
      </trkpt>
      <trkpt lat="45.20832" lon="5.72705">
        <ele>707.40002441406</ele>
        <time>2021-11-26T05:35:40.000Z</time>
      </trkpt>
      <trkpt lat="45.20833" lon="5.72703">
        <ele>707.20001220703</ele>
        <time>2021-11-26T05:35:41.000Z</time>
      </trkpt>
      <trkpt lat="45.20834" lon="5.72697">
        <ele>705.59997558594</ele>
        <time>2021-11-26T05:35:45.000Z</time>
      </trkpt>
      <trkpt lat="45.20834" lon="5.72695">
        <ele>705.20001220703</ele>
        <time>2021-11-26T05:35:46.000Z</time>
      </trkpt>
      <trkpt lat="45.20833" lon="5.72691">
        <ele>704.59997558594</ele>
        <time>2021-11-26T05:35:48.000Z</time>
      </trkpt>
      <trkpt lat="45.20833" lon="5.72686">
        <ele>703.40002441406</ele>
        <time>2021-11-26T05:35:51.000Z</time>
      </trkpt>
      <trkpt lat="45.20833" lon="5.72684">
        <ele>703</ele>
        <time>2021-11-26T05:35:52.000Z</time>
      </trkpt>
      <trkpt lat="45.20833" lon="5.72679">
        <ele>702.20001220703</ele>
        <time>2021-11-26T05:35:54.000Z</time>
      </trkpt>
      <trkpt lat="45.20832" lon="5.72674">
        <ele>701.20001220703</ele>
        <time>2021-11-26T05:35:58.000Z</time>
      </trkpt>
      <trkpt lat="45.20832" lon="5.72672">
        <ele>700.79998779297</ele>
        <time>2021-11-26T05:35:59.000Z</time>
      </trkpt>
      <trkpt lat="45.20832" lon="5.72671">
        <ele>700.20001220703</ele>
        <time>2021-11-26T05:36:00.000Z</time>
      </trkpt>
      <trkpt lat="45.20831" lon="5.72669">
        <ele>700</ele>
        <time>2021-11-26T05:36:01.000Z</time>
      </trkpt>
      <trkpt lat="45.2083" lon="5.72668">
        <ele>699.59997558594</ele>
        <time>2021-11-26T05:36:02.000Z</time>
      </trkpt>
      <trkpt lat="45.20828" lon="5.72664">
        <ele>698.20001220703</ele>
        <time>2021-11-26T05:36:05.000Z</time>
      </trkpt>
      <trkpt lat="45.20827" lon="5.72662">
        <ele>698</ele>
        <time>2021-11-26T05:36:06.000Z</time>
      </trkpt>
      <trkpt lat="45.20826" lon="5.72659">
        <ele>697.40002441406</ele>
        <time>2021-11-26T05:36:09.000Z</time>
      </trkpt>
      <trkpt lat="45.20826" lon="5.7266">
        <ele>697</ele>
        <time>2021-11-26T05:36:10.000Z</time>
      </trkpt>
      <trkpt lat="45.20824" lon="5.72661">
        <ele>696.20001220703</ele>
        <time>2021-11-26T05:36:12.000Z</time>
      </trkpt>
      <trkpt lat="45.20823" lon="5.72664">
        <ele>695.59997558594</ele>
        <time>2021-11-26T05:36:14.000Z</time>
      </trkpt>
      <trkpt lat="45.20821" lon="5.72667">
        <ele>694.59997558594</ele>
        <time>2021-11-26T05:36:17.000Z</time>
      </trkpt>
      <trkpt lat="45.20819" lon="5.72671">
        <ele>693.59997558594</ele>
        <time>2021-11-26T05:36:20.000Z</time>
      </trkpt>
      <trkpt lat="45.20818" lon="5.72672">
        <ele>693.40002441406</ele>
        <time>2021-11-26T05:36:21.000Z</time>
      </trkpt>
      <trkpt lat="45.20816" lon="5.72673">
        <ele>692.59997558594</ele>
        <time>2021-11-26T05:36:23.000Z</time>
      </trkpt>
      <trkpt lat="45.20815" lon="5.72674">
        <ele>692.20001220703</ele>
        <time>2021-11-26T05:36:24.000Z</time>
      </trkpt>
      <trkpt lat="45.20812" lon="5.72673">
        <ele>691.79998779297</ele>
        <time>2021-11-26T05:36:26.000Z</time>
      </trkpt>
      <trkpt lat="45.2081" lon="5.72671">
        <ele>691.59997558594</ele>
        <time>2021-11-26T05:36:27.000Z</time>
      </trkpt>
      <trkpt lat="45.20809" lon="5.72669">
        <ele>691.20001220703</ele>
        <time>2021-11-26T05:36:28.000Z</time>
      </trkpt>
      <trkpt lat="45.20806" lon="5.7266">
        <ele>689.59997558594</ele>
        <time>2021-11-26T05:36:32.000Z</time>
      </trkpt>
      <trkpt lat="45.20806" lon="5.72659">
        <ele>689.20001220703</ele>
        <time>2021-11-26T05:36:33.000Z</time>
      </trkpt>
      <trkpt lat="45.20805" lon="5.72655">
        <ele>688.40002441406</ele>
        <time>2021-11-26T05:36:36.000Z</time>
      </trkpt>
      <trkpt lat="45.20805" lon="5.72653">
        <ele>687.59997558594</ele>
        <time>2021-11-26T05:36:38.000Z</time>
      </trkpt>
      <trkpt lat="45.20803" lon="5.7265">
        <ele>686.79998779297</ele>
        <time>2021-11-26T05:36:40.000Z</time>
      </trkpt>
      <trkpt lat="45.20803" lon="5.7265">
        <ele>686.20001220703</ele>
        <time>2021-11-26T05:36:42.000Z</time>
      </trkpt>
      <trkpt lat="45.20803" lon="5.72649">
        <ele>685.79998779297</ele>
        <time>2021-11-26T05:36:43.000Z</time>
      </trkpt>
      <trkpt lat="45.20802" lon="5.72648">
        <ele>685.59997558594</ele>
        <time>2021-11-26T05:36:44.000Z</time>
      </trkpt>
      <trkpt lat="45.20801" lon="5.72645">
        <ele>685.20001220703</ele>
        <time>2021-11-26T05:36:45.000Z</time>
      </trkpt>
      <trkpt lat="45.208" lon="5.72644">
        <ele>684.79998779297</ele>
        <time>2021-11-26T05:36:46.000Z</time>
      </trkpt>
      <trkpt lat="45.20798" lon="5.7264">
        <ele>684.20001220703</ele>
        <time>2021-11-26T05:36:48.000Z</time>
      </trkpt>
      <trkpt lat="45.20796" lon="5.72636">
        <ele>683.59997558594</ele>
        <time>2021-11-26T05:36:50.000Z</time>
      </trkpt>
      <trkpt lat="45.20794" lon="5.72632">
        <ele>683.20001220703</ele>
        <time>2021-11-26T05:36:52.000Z</time>
      </trkpt>
      <trkpt lat="45.20793" lon="5.72629">
        <ele>682.40002441406</ele>
        <time>2021-11-26T05:36:54.000Z</time>
      </trkpt>
      <trkpt lat="45.20793" lon="5.72628">
        <ele>682.20001220703</ele>
        <time>2021-11-26T05:36:55.000Z</time>
      </trkpt>
      <trkpt lat="45.20791" lon="5.72629">
        <ele>681.59997558594</ele>
        <time>2021-11-26T05:36:58.000Z</time>
      </trkpt>
      <trkpt lat="45.2079" lon="5.72631">
        <ele>681</ele>
        <time>2021-11-26T05:37:00.000Z</time>
      </trkpt>
      <trkpt lat="45.2079" lon="5.72635">
        <ele>680.20001220703</ele>
        <time>2021-11-26T05:37:03.000Z</time>
      </trkpt>
      <trkpt lat="45.20789" lon="5.72639">
        <ele>679.79998779297</ele>
        <time>2021-11-26T05:37:05.000Z</time>
      </trkpt>
      <trkpt lat="45.20787" lon="5.72642">
        <ele>678.79998779297</ele>
        <time>2021-11-26T05:37:07.000Z</time>
      </trkpt>
      <trkpt lat="45.20786" lon="5.72642">
        <ele>678.59997558594</ele>
        <time>2021-11-26T05:37:08.000Z</time>
      </trkpt>
      <trkpt lat="45.20786" lon="5.72643">
        <ele>678.20001220703</ele>
        <time>2021-11-26T05:37:09.000Z</time>
      </trkpt>
      <trkpt lat="45.20786" lon="5.72644">
        <ele>677.79998779297</ele>
        <time>2021-11-26T05:37:10.000Z</time>
      </trkpt>
      <trkpt lat="45.20786" lon="5.72645">
        <ele>677.59997558594</ele>
        <time>2021-11-26T05:37:11.000Z</time>
      </trkpt>
      <trkpt lat="45.20786" lon="5.72646">
        <ele>677.20001220703</ele>
        <time>2021-11-26T05:37:12.000Z</time>
      </trkpt>
      <trkpt lat="45.20785" lon="5.72649">
        <ele>676.59997558594</ele>
        <time>2021-11-26T05:37:14.000Z</time>
      </trkpt>
      <trkpt lat="45.20781" lon="5.7265">
        <ele>676.40002441406</ele>
        <time>2021-11-26T05:37:16.000Z</time>
      </trkpt>
      <trkpt lat="45.20778" lon="5.7265">
        <ele>676</ele>
        <time>2021-11-26T05:37:17.000Z</time>
      </trkpt>
      <trkpt lat="45.20775" lon="5.7265">
        <ele>675.40002441406</ele>
        <time>2021-11-26T05:37:19.000Z</time>
      </trkpt>
      <trkpt lat="45.20775" lon="5.7265">
        <ele>675</ele>
        <time>2021-11-26T05:37:20.000Z</time>
      </trkpt>
      <trkpt lat="45.20773" lon="5.72649">
        <ele>674</ele>
        <time>2021-11-26T05:37:23.000Z</time>
      </trkpt>
      <trkpt lat="45.20772" lon="5.72647">
        <ele>673.59997558594</ele>
        <time>2021-11-26T05:37:24.000Z</time>
      </trkpt>
      <trkpt lat="45.20771" lon="5.72646">
        <ele>673.40002441406</ele>
        <time>2021-11-26T05:37:25.000Z</time>
      </trkpt>
      <trkpt lat="45.20772" lon="5.72644">
        <ele>672.79998779297</ele>
        <time>2021-11-26T05:37:26.000Z</time>
      </trkpt>
      <trkpt lat="45.20771" lon="5.7264">
        <ele>672</ele>
        <time>2021-11-26T05:37:28.000Z</time>
      </trkpt>
      <trkpt lat="45.20771" lon="5.72639">
        <ele>671.79998779297</ele>
        <time>2021-11-26T05:37:29.000Z</time>
      </trkpt>
      <trkpt lat="45.20771" lon="5.72633">
        <ele>671</ele>
        <time>2021-11-26T05:37:32.000Z</time>
      </trkpt>
      <trkpt lat="45.20771" lon="5.72631">
        <ele>670.40002441406</ele>
        <time>2021-11-26T05:37:33.000Z</time>
      </trkpt>
      <trkpt lat="45.2077" lon="5.72624">
        <ele>669.20001220703</ele>
        <time>2021-11-26T05:37:36.000Z</time>
      </trkpt>
      <trkpt lat="45.20769" lon="5.7262">
        <ele>668.20001220703</ele>
        <time>2021-11-26T05:37:39.000Z</time>
      </trkpt>
      <trkpt lat="45.20768" lon="5.72619">
        <ele>667.59997558594</ele>
        <time>2021-11-26T05:37:41.000Z</time>
      </trkpt>
      <trkpt lat="45.20768" lon="5.72619">
        <ele>667</ele>
        <time>2021-11-26T05:37:42.000Z</time>
      </trkpt>
      <trkpt lat="45.20767" lon="5.72619">
        <ele>666.20001220703</ele>
        <time>2021-11-26T05:37:44.000Z</time>
      </trkpt>
      <trkpt lat="45.20767" lon="5.7262">
        <ele>666</ele>
        <time>2021-11-26T05:37:45.000Z</time>
      </trkpt>
      <trkpt lat="45.20766" lon="5.7262">
        <ele>665.59997558594</ele>
        <time>2021-11-26T05:37:46.000Z</time>
      </trkpt>
      <trkpt lat="45.20763" lon="5.72621">
        <ele>664.79998779297</ele>
        <time>2021-11-26T05:37:48.000Z</time>
      </trkpt>
      <trkpt lat="45.20762" lon="5.72622">
        <ele>664.20001220703</ele>
        <time>2021-11-26T05:37:49.000Z</time>
      </trkpt>
      <trkpt lat="45.20759" lon="5.72623">
        <ele>663.79998779297</ele>
        <time>2021-11-26T05:37:51.000Z</time>
      </trkpt>
      <trkpt lat="45.20758" lon="5.72623">
        <ele>663.20001220703</ele>
        <time>2021-11-26T05:37:52.000Z</time>
      </trkpt>
      <trkpt lat="45.20757" lon="5.72623">
        <ele>662.79998779297</ele>
        <time>2021-11-26T05:37:53.000Z</time>
      </trkpt>
      <trkpt lat="45.20756" lon="5.72623">
        <ele>662.40002441406</ele>
        <time>2021-11-26T05:37:54.000Z</time>
      </trkpt>
      <trkpt lat="45.20754" lon="5.72623">
        <ele>662</ele>
        <time>2021-11-26T05:37:56.000Z</time>
      </trkpt>
      <trkpt lat="45.20753" lon="5.72623">
        <ele>661.59997558594</ele>
        <time>2021-11-26T05:37:57.000Z</time>
      </trkpt>
      <trkpt lat="45.20752" lon="5.72623">
        <ele>661.20001220703</ele>
        <time>2021-11-26T05:37:58.000Z</time>
      </trkpt>
      <trkpt lat="45.2075" lon="5.72625">
        <ele>660.40002441406</ele>
        <time>2021-11-26T05:38:00.000Z</time>
      </trkpt>
      <trkpt lat="45.20749" lon="5.72624">
        <ele>660.20001220703</ele>
        <time>2021-11-26T05:38:01.000Z</time>
      </trkpt>
      <trkpt lat="45.20748" lon="5.72621">
        <ele>659.59997558594</ele>
        <time>2021-11-26T05:38:03.000Z</time>
      </trkpt>
      <trkpt lat="45.20747" lon="5.72619">
        <ele>659.40002441406</ele>
        <time>2021-11-26T05:38:04.000Z</time>
      </trkpt>
      <trkpt lat="45.20744" lon="5.72611">
        <ele>658.20001220703</ele>
        <time>2021-11-26T05:38:08.000Z</time>
      </trkpt>
      <trkpt lat="45.20742" lon="5.72605">
        <ele>657.20001220703</ele>
        <time>2021-11-26T05:38:11.000Z</time>
      </trkpt>
      <trkpt lat="45.20741" lon="5.72604">
        <ele>656.79998779297</ele>
        <time>2021-11-26T05:38:12.000Z</time>
      </trkpt>
      <trkpt lat="45.20739" lon="5.72596">
        <ele>655.59997558594</ele>
        <time>2021-11-26T05:38:16.000Z</time>
      </trkpt>
      <trkpt lat="45.20738" lon="5.72594">
        <ele>655.40002441406</ele>
        <time>2021-11-26T05:38:17.000Z</time>
      </trkpt>
      <trkpt lat="45.20735" lon="5.72593">
        <ele>654.59997558594</ele>
        <time>2021-11-26T05:38:20.000Z</time>
      </trkpt>
      <trkpt lat="45.20732" lon="5.72593">
        <ele>653.79998779297</ele>
        <time>2021-11-26T05:38:22.000Z</time>
      </trkpt>
      <trkpt lat="45.2073" lon="5.72592">
        <ele>653.40002441406</ele>
        <time>2021-11-26T05:38:23.000Z</time>
      </trkpt>
      <trkpt lat="45.20729" lon="5.72591">
        <ele>653</ele>
        <time>2021-11-26T05:38:24.000Z</time>
      </trkpt>
      <trkpt lat="45.20727" lon="5.72588">
        <ele>652.40002441406</ele>
        <time>2021-11-26T05:38:26.000Z</time>
      </trkpt>
      <trkpt lat="45.20723" lon="5.72586">
        <ele>651.40002441406</ele>
        <time>2021-11-26T05:38:29.000Z</time>
      </trkpt>
      <trkpt lat="45.20719" lon="5.72585">
        <ele>650.20001220703</ele>
        <time>2021-11-26T05:38:32.000Z</time>
      </trkpt>
      <trkpt lat="45.20718" lon="5.72585">
        <ele>649.40002441406</ele>
        <time>2021-11-26T05:38:34.000Z</time>
      </trkpt>
      <trkpt lat="45.20717" lon="5.72584">
        <ele>649.20001220703</ele>
        <time>2021-11-26T05:38:35.000Z</time>
      </trkpt>
      <trkpt lat="45.20715" lon="5.72583">
        <ele>648</ele>
        <time>2021-11-26T05:38:39.000Z</time>
      </trkpt>
      <trkpt lat="45.2071" lon="5.72579">
        <ele>646.79998779297</ele>
        <time>2021-11-26T05:38:43.000Z</time>
      </trkpt>
      <trkpt lat="45.20708" lon="5.72576">
        <ele>646.40002441406</ele>
        <time>2021-11-26T05:38:45.000Z</time>
      </trkpt>
      <trkpt lat="45.20705" lon="5.72571">
        <ele>645.40002441406</ele>
        <time>2021-11-26T05:38:48.000Z</time>
      </trkpt>
      <trkpt lat="45.20701" lon="5.72569">
        <ele>644.79998779297</ele>
        <time>2021-11-26T05:38:51.000Z</time>
      </trkpt>
      <trkpt lat="45.20697" lon="5.72568">
        <ele>644.40002441406</ele>
        <time>2021-11-26T05:38:53.000Z</time>
      </trkpt>
      <trkpt lat="45.20693" lon="5.7257">
        <ele>643.59997558594</ele>
        <time>2021-11-26T05:38:56.000Z</time>
      </trkpt>
      <trkpt lat="45.20692" lon="5.72571">
        <ele>643.20001220703</ele>
        <time>2021-11-26T05:38:57.000Z</time>
      </trkpt>
      <trkpt lat="45.20686" lon="5.72576">
        <ele>642</ele>
        <time>2021-11-26T05:39:00.000Z</time>
      </trkpt>
      <trkpt lat="45.2068" lon="5.72579">
        <ele>641.20001220703</ele>
        <time>2021-11-26T05:39:03.000Z</time>
      </trkpt>
      <trkpt lat="45.20679" lon="5.72583">
        <ele>640.59997558594</ele>
        <time>2021-11-26T05:39:05.000Z</time>
      </trkpt>
      <trkpt lat="45.20676" lon="5.72585">
        <ele>640</ele>
        <time>2021-11-26T05:39:07.000Z</time>
      </trkpt>
      <trkpt lat="45.20675" lon="5.72587">
        <ele>639.79998779297</ele>
        <time>2021-11-26T05:39:08.000Z</time>
      </trkpt>
      <trkpt lat="45.20668" lon="5.72592">
        <ele>639.40002441406</ele>
        <time>2021-11-26T05:39:11.000Z</time>
      </trkpt>
      <trkpt lat="45.20663" lon="5.72596">
        <ele>638.40002441406</ele>
        <time>2021-11-26T05:39:14.000Z</time>
      </trkpt>
      <trkpt lat="45.20661" lon="5.72599">
        <ele>638.20001220703</ele>
        <time>2021-11-26T05:39:15.000Z</time>
      </trkpt>
      <trkpt lat="45.20658" lon="5.72602">
        <ele>637.79998779297</ele>
        <time>2021-11-26T05:39:17.000Z</time>
      </trkpt>
      <trkpt lat="45.20657" lon="5.72604">
        <ele>637.59997558594</ele>
        <time>2021-11-26T05:39:18.000Z</time>
      </trkpt>
      <trkpt lat="45.20653" lon="5.72608">
        <ele>637</ele>
        <time>2021-11-26T05:39:20.000Z</time>
      </trkpt>
      <trkpt lat="45.20651" lon="5.72608">
        <ele>636.79998779297</ele>
        <time>2021-11-26T05:39:21.000Z</time>
      </trkpt>
      <trkpt lat="45.20645" lon="5.72608">
        <ele>636.40002441406</ele>
        <time>2021-11-26T05:39:24.000Z</time>
      </trkpt>
      <trkpt lat="45.20641" lon="5.72609">
        <ele>636.20001220703</ele>
        <time>2021-11-26T05:39:26.000Z</time>
      </trkpt>
      <trkpt lat="45.20639" lon="5.72608">
        <ele>636.20001220703</ele>
        <time>2021-11-26T05:39:27.000Z</time>
      </trkpt>
      <trkpt lat="45.20634" lon="5.72605">
        <ele>636</ele>
        <time>2021-11-26T05:39:30.000Z</time>
      </trkpt>
      <trkpt lat="45.20633" lon="5.72604">
        <ele>635.79998779297</ele>
        <time>2021-11-26T05:39:31.000Z</time>
      </trkpt>
      <trkpt lat="45.20629" lon="5.72603">
        <ele>635.20001220703</ele>
        <time>2021-11-26T05:39:33.000Z</time>
      </trkpt>
      <trkpt lat="45.20623" lon="5.72598">
        <ele>634.40002441406</ele>
        <time>2021-11-26T05:39:37.000Z</time>
      </trkpt>
      <trkpt lat="45.2062" lon="5.72596">
        <ele>633.79998779297</ele>
        <time>2021-11-26T05:39:39.000Z</time>
      </trkpt>
      <trkpt lat="45.20618" lon="5.72594">
        <ele>633.40002441406</ele>
        <time>2021-11-26T05:39:40.000Z</time>
      </trkpt>
      <trkpt lat="45.20609" lon="5.72589">
        <ele>632.40002441406</ele>
        <time>2021-11-26T05:39:45.000Z</time>
      </trkpt>
      <trkpt lat="45.20607" lon="5.72588">
        <ele>632.20001220703</ele>
        <time>2021-11-26T05:39:46.000Z</time>
      </trkpt>
      <trkpt lat="45.20598" lon="5.72579">
        <ele>631.20001220703</ele>
        <time>2021-11-26T05:39:51.000Z</time>
      </trkpt>
      <trkpt lat="45.20591" lon="5.72576">
        <ele>631</ele>
        <time>2021-11-26T05:39:54.000Z</time>
      </trkpt>
      <trkpt lat="45.2058" lon="5.72569">
        <ele>630.40002441406</ele>
        <time>2021-11-26T05:40:00.000Z</time>
      </trkpt>
      <trkpt lat="45.20576" lon="5.72566">
        <ele>630.40002441406</ele>
        <time>2021-11-26T05:40:02.000Z</time>
      </trkpt>
      <trkpt lat="45.20574" lon="5.72565">
        <ele>630.20001220703</ele>
        <time>2021-11-26T05:40:03.000Z</time>
      </trkpt>
      <trkpt lat="45.20563" lon="5.72561">
        <ele>629.40002441406</ele>
        <time>2021-11-26T05:40:08.000Z</time>
      </trkpt>
      <trkpt lat="45.20556" lon="5.7256">
        <ele>629</ele>
        <time>2021-11-26T05:40:11.000Z</time>
      </trkpt>
      <trkpt lat="45.20551" lon="5.7256">
        <ele>628.20001220703</ele>
        <time>2021-11-26T05:40:14.000Z</time>
      </trkpt>
      <trkpt lat="45.2055" lon="5.72561">
        <ele>628</ele>
        <time>2021-11-26T05:40:15.000Z</time>
      </trkpt>
      <trkpt lat="45.20542" lon="5.72562">
        <ele>627</ele>
        <time>2021-11-26T05:40:19.000Z</time>
      </trkpt>
      <trkpt lat="45.20532" lon="5.72562">
        <ele>627.20001220703</ele>
        <time>2021-11-26T05:40:24.000Z</time>
      </trkpt>
      <trkpt lat="45.2053" lon="5.72562">
        <ele>627.40002441406</ele>
        <time>2021-11-26T05:40:25.000Z</time>
      </trkpt>
      <trkpt lat="45.20528" lon="5.72561">
        <ele>627.79998779297</ele>
        <time>2021-11-26T05:40:26.000Z</time>
      </trkpt>
      <trkpt lat="45.20517" lon="5.72555">
        <ele>628.79998779297</ele>
        <time>2021-11-26T05:40:32.000Z</time>
      </trkpt>
      <trkpt lat="45.20516" lon="5.72553">
        <ele>628.79998779297</ele>
        <time>2021-11-26T05:40:33.000Z</time>
      </trkpt>
      <trkpt lat="45.20511" lon="5.72548">
        <ele>629</ele>
        <time>2021-11-26T05:40:35.000Z</time>
      </trkpt>
      <trkpt lat="45.20504" lon="5.72539">
        <ele>629.20001220703</ele>
        <time>2021-11-26T05:40:39.000Z</time>
      </trkpt>
      <trkpt lat="45.20491" lon="5.7252">
        <ele>628.59997558594</ele>
        <time>2021-11-26T05:40:46.000Z</time>
      </trkpt>
      <trkpt lat="45.20487" lon="5.72503">
        <ele>628</ele>
        <time>2021-11-26T05:40:51.000Z</time>
      </trkpt>
      <trkpt lat="45.20483" lon="5.72491">
        <ele>627.59997558594</ele>
        <time>2021-11-26T05:40:55.000Z</time>
      </trkpt>
      <trkpt lat="45.20481" lon="5.72484">
        <ele>627.40002441406</ele>
        <time>2021-11-26T05:40:57.000Z</time>
      </trkpt>
      <trkpt lat="45.2048" lon="5.7248">
        <ele>627.40002441406</ele>
        <time>2021-11-26T05:40:58.000Z</time>
      </trkpt>
      <trkpt lat="45.20478" lon="5.7247">
        <ele>628.20001220703</ele>
        <time>2021-11-26T05:41:02.000Z</time>
      </trkpt>
      <trkpt lat="45.20479" lon="5.72463">
        <ele>629.20001220703</ele>
        <time>2021-11-26T05:41:05.000Z</time>
      </trkpt>
      <trkpt lat="45.20477" lon="5.72456">
        <ele>630.40002441406</ele>
        <time>2021-11-26T05:41:08.000Z</time>
      </trkpt>
      <trkpt lat="45.20476" lon="5.72454">
        <ele>630.59997558594</ele>
        <time>2021-11-26T05:41:09.000Z</time>
      </trkpt>
      <trkpt lat="45.20474" lon="5.72446">
        <ele>631.59997558594</ele>
        <time>2021-11-26T05:41:13.000Z</time>
      </trkpt>
      <trkpt lat="45.20474" lon="5.72443">
        <ele>632</ele>
        <time>2021-11-26T05:41:14.000Z</time>
      </trkpt>
      <trkpt lat="45.20473" lon="5.72441">
        <ele>632</ele>
        <time>2021-11-26T05:41:15.000Z</time>
      </trkpt>
      <trkpt lat="45.2047" lon="5.72435">
        <ele>632.20001220703</ele>
        <time>2021-11-26T05:41:17.000Z</time>
      </trkpt>
      <trkpt lat="45.20465" lon="5.72424">
        <ele>632.20001220703</ele>
        <time>2021-11-26T05:41:21.000Z</time>
      </trkpt>
      <trkpt lat="45.20458" lon="5.72416">
        <ele>632.40002441406</ele>
        <time>2021-11-26T05:41:25.000Z</time>
      </trkpt>
      <trkpt lat="45.20452" lon="5.72411">
        <ele>632.40002441406</ele>
        <time>2021-11-26T05:41:28.000Z</time>
      </trkpt>
      <trkpt lat="45.20445" lon="5.72407">
        <ele>630.79998779297</ele>
        <time>2021-11-26T05:41:32.000Z</time>
      </trkpt>
      <trkpt lat="45.20442" lon="5.72404">
        <ele>630.59997558594</ele>
        <time>2021-11-26T05:41:34.000Z</time>
      </trkpt>
      <trkpt lat="45.20437" lon="5.72399">
        <ele>629.59997558594</ele>
        <time>2021-11-26T05:41:37.000Z</time>
      </trkpt>
      <trkpt lat="45.2043" lon="5.72396">
        <ele>629</ele>
        <time>2021-11-26T05:41:40.000Z</time>
      </trkpt>
      <trkpt lat="45.20418" lon="5.72395">
        <ele>628.79998779297</ele>
        <time>2021-11-26T05:41:45.000Z</time>
      </trkpt>
      <trkpt lat="45.20408" lon="5.72392">
        <ele>628.40002441406</ele>
        <time>2021-11-26T05:41:49.000Z</time>
      </trkpt>
      <trkpt lat="45.20403" lon="5.72391">
        <ele>628.40002441406</ele>
        <time>2021-11-26T05:41:51.000Z</time>
      </trkpt>
      <trkpt lat="45.20389" lon="5.72391">
        <ele>628.20001220703</ele>
        <time>2021-11-26T05:41:57.000Z</time>
      </trkpt>
      <trkpt lat="45.20379" lon="5.724">
        <ele>627.79998779297</ele>
        <time>2021-11-26T05:42:03.000Z</time>
      </trkpt>
      <trkpt lat="45.20378" lon="5.72405">
        <ele>627.79998779297</ele>
        <time>2021-11-26T05:42:05.000Z</time>
      </trkpt>
      <trkpt lat="45.2038" lon="5.72412">
        <ele>628</ele>
        <time>2021-11-26T05:42:08.000Z</time>
      </trkpt>
      <trkpt lat="45.20381" lon="5.72419">
        <ele>628.59997558594</ele>
        <time>2021-11-26T05:42:12.000Z</time>
      </trkpt>
      <trkpt lat="45.20383" lon="5.72422">
        <ele>629.20001220703</ele>
        <time>2021-11-26T05:42:14.000Z</time>
      </trkpt>
      <trkpt lat="45.20384" lon="5.72423">
        <ele>629.79998779297</ele>
        <time>2021-11-26T05:42:15.000Z</time>
      </trkpt>
      <trkpt lat="45.20389" lon="5.72423">
        <ele>631.20001220703</ele>
        <time>2021-11-26T05:42:19.000Z</time>
      </trkpt>
      <trkpt lat="45.20391" lon="5.72423">
        <ele>631.59997558594</ele>
        <time>2021-11-26T05:42:20.000Z</time>
      </trkpt>
      <trkpt lat="45.20392" lon="5.72422">
        <ele>632</ele>
        <time>2021-11-26T05:42:21.000Z</time>
      </trkpt>
      <trkpt lat="45.20393" lon="5.72422">
        <ele>632.40002441406</ele>
        <time>2021-11-26T05:42:22.000Z</time>
      </trkpt>
      <trkpt lat="45.20397" lon="5.72415">
        <ele>632.79998779297</ele>
        <time>2021-11-26T05:42:26.000Z</time>
      </trkpt>
      <trkpt lat="45.20399" lon="5.72412">
        <ele>633</ele>
        <time>2021-11-26T05:42:28.000Z</time>
      </trkpt>
      <trkpt lat="45.20401" lon="5.72414">
        <ele>633.40002441406</ele>
        <time>2021-11-26T05:42:30.000Z</time>
      </trkpt>
      <trkpt lat="45.20398" lon="5.72429">
        <ele>633.40002441406</ele>
        <time>2021-11-26T05:42:37.000Z</time>
      </trkpt>
      <trkpt lat="45.20396" lon="5.7243">
        <ele>633</ele>
        <time>2021-11-26T05:42:38.000Z</time>
      </trkpt>
      <trkpt lat="45.2039" lon="5.72432">
        <ele>632.40002441406</ele>
        <time>2021-11-26T05:42:41.000Z</time>
      </trkpt>
      <trkpt lat="45.20388" lon="5.72433">
        <ele>632</ele>
        <time>2021-11-26T05:42:43.000Z</time>
      </trkpt>
      <trkpt lat="45.20386" lon="5.72436">
        <ele>631.79998779297</ele>
        <time>2021-11-26T05:42:45.000Z</time>
      </trkpt>
      <trkpt lat="45.20385" lon="5.72438">
        <ele>631.59997558594</ele>
        <time>2021-11-26T05:42:46.000Z</time>
      </trkpt>
      <trkpt lat="45.20386" lon="5.7244">
        <ele>631.40002441406</ele>
        <time>2021-11-26T05:42:48.000Z</time>
      </trkpt>
      <trkpt lat="45.20387" lon="5.7244">
        <ele>631.40002441406</ele>
        <time>2021-11-26T05:42:49.000Z</time>
      </trkpt>
      <trkpt lat="45.20392" lon="5.7244">
        <ele>631</ele>
        <time>2021-11-26T05:42:53.000Z</time>
      </trkpt>
      <trkpt lat="45.20396" lon="5.72439">
        <ele>630.79998779297</ele>
        <time>2021-11-26T05:42:56.000Z</time>
      </trkpt>
      <trkpt lat="45.20398" lon="5.72438">
        <ele>630.79998779297</ele>
        <time>2021-11-26T05:42:57.000Z</time>
      </trkpt>
      <trkpt lat="45.20401" lon="5.72438">
        <ele>630.40002441406</ele>
        <time>2021-11-26T05:43:00.000Z</time>
      </trkpt>
      <trkpt lat="45.20402" lon="5.72439">
        <ele>630.20001220703</ele>
        <time>2021-11-26T05:43:02.000Z</time>
      </trkpt>
      <trkpt lat="45.20402" lon="5.72439">
        <ele>630</ele>
        <time>2021-11-26T05:43:03.000Z</time>
      </trkpt>
      <trkpt lat="45.20402" lon="5.72442">
        <ele>629.79998779297</ele>
        <time>2021-11-26T05:43:05.000Z</time>
      </trkpt>
      <trkpt lat="45.20403" lon="5.72443">
        <ele>629.20001220703</ele>
        <time>2021-11-26T05:43:07.000Z</time>
      </trkpt>
      <trkpt lat="45.20405" lon="5.72443">
        <ele>629</ele>
        <time>2021-11-26T05:43:08.000Z</time>
      </trkpt>
      <trkpt lat="45.20408" lon="5.72446">
        <ele>628.20001220703</ele>
        <time>2021-11-26T05:43:10.000Z</time>
      </trkpt>
      <trkpt lat="45.2041" lon="5.72448">
        <ele>628</ele>
        <time>2021-11-26T05:43:11.000Z</time>
      </trkpt>
      <trkpt lat="45.20412" lon="5.72451">
        <ele>627.79998779297</ele>
        <time>2021-11-26T05:43:12.000Z</time>
      </trkpt>
      <trkpt lat="45.20418" lon="5.72458">
        <ele>627</ele>
        <time>2021-11-26T05:43:15.000Z</time>
      </trkpt>
      <trkpt lat="45.20424" lon="5.72463">
        <ele>626.59997558594</ele>
        <time>2021-11-26T05:43:18.000Z</time>
      </trkpt>
      <trkpt lat="45.2044" lon="5.72471">
        <ele>626.59997558594</ele>
        <time>2021-11-26T05:43:27.000Z</time>
      </trkpt>
      <trkpt lat="45.20455" lon="5.72479">
        <ele>627</ele>
        <time>2021-11-26T05:43:35.000Z</time>
      </trkpt>
      <trkpt lat="45.20473" lon="5.72486">
        <ele>626.20001220703</ele>
        <time>2021-11-26T05:43:43.000Z</time>
      </trkpt>
      <trkpt lat="45.20478" lon="5.72489">
        <ele>626</ele>
        <time>2021-11-26T05:43:45.000Z</time>
      </trkpt>
      <trkpt lat="45.20482" lon="5.72497">
        <ele>626.20001220703</ele>
        <time>2021-11-26T05:43:48.000Z</time>
      </trkpt>
      <trkpt lat="45.20484" lon="5.72504">
        <ele>626.20001220703</ele>
        <time>2021-11-26T05:43:50.000Z</time>
      </trkpt>
      <trkpt lat="45.20486" lon="5.72515">
        <ele>627</ele>
        <time>2021-11-26T05:43:55.000Z</time>
      </trkpt>
      <trkpt lat="45.20486" lon="5.72528">
        <ele>628</ele>
        <time>2021-11-26T05:43:59.000Z</time>
      </trkpt>
      <trkpt lat="45.20486" lon="5.7253">
        <ele>628</ele>
        <time>2021-11-26T05:44:00.000Z</time>
      </trkpt>
      <trkpt lat="45.20487" lon="5.72533">
        <ele>627.79998779297</ele>
        <time>2021-11-26T05:44:01.000Z</time>
      </trkpt>
      <trkpt lat="45.20491" lon="5.72543">
        <ele>627</ele>
        <time>2021-11-26T05:44:05.000Z</time>
      </trkpt>
      <trkpt lat="45.20492" lon="5.72545">
        <ele>626.40002441406</ele>
        <time>2021-11-26T05:44:06.000Z</time>
      </trkpt>
      <trkpt lat="45.20492" lon="5.7255">
        <ele>625.79998779297</ele>
        <time>2021-11-26T05:44:08.000Z</time>
      </trkpt>
      <trkpt lat="45.20494" lon="5.72556">
        <ele>624.40002441406</ele>
        <time>2021-11-26T05:44:10.000Z</time>
      </trkpt>
      <trkpt lat="45.20495" lon="5.72562">
        <ele>623.20001220703</ele>
        <time>2021-11-26T05:44:13.000Z</time>
      </trkpt>
      <trkpt lat="45.20494" lon="5.72563">
        <ele>623</ele>
        <time>2021-11-26T05:44:14.000Z</time>
      </trkpt>
      <trkpt lat="45.20487" lon="5.72563">
        <ele>622.20001220703</ele>
        <time>2021-11-26T05:44:17.000Z</time>
      </trkpt>
      <trkpt lat="45.20484" lon="5.7256">
        <ele>621.59997558594</ele>
        <time>2021-11-26T05:44:19.000Z</time>
      </trkpt>
      <trkpt lat="45.20479" lon="5.72556">
        <ele>620.79998779297</ele>
        <time>2021-11-26T05:44:22.000Z</time>
      </trkpt>
      <trkpt lat="45.20472" lon="5.7255">
        <ele>620.20001220703</ele>
        <time>2021-11-26T05:44:25.000Z</time>
      </trkpt>
      <trkpt lat="45.20468" lon="5.72546">
        <ele>619.79998779297</ele>
        <time>2021-11-26T05:44:28.000Z</time>
      </trkpt>
      <trkpt lat="45.20466" lon="5.72545">
        <ele>619.59997558594</ele>
        <time>2021-11-26T05:44:29.000Z</time>
      </trkpt>
      <trkpt lat="45.20465" lon="5.72543">
        <ele>619.40002441406</ele>
        <time>2021-11-26T05:44:30.000Z</time>
      </trkpt>
      <trkpt lat="45.2046" lon="5.72537">
        <ele>618.59997558594</ele>
        <time>2021-11-26T05:44:33.000Z</time>
      </trkpt>
      <trkpt lat="45.20456" lon="5.72531">
        <ele>618.20001220703</ele>
        <time>2021-11-26T05:44:35.000Z</time>
      </trkpt>
      <trkpt lat="45.20449" lon="5.72521">
        <ele>617.20001220703</ele>
        <time>2021-11-26T05:44:39.000Z</time>
      </trkpt>
      <trkpt lat="45.20445" lon="5.72516">
        <ele>616.40002441406</ele>
        <time>2021-11-26T05:44:42.000Z</time>
      </trkpt>
      <trkpt lat="45.20443" lon="5.72515">
        <ele>616.20001220703</ele>
        <time>2021-11-26T05:44:43.000Z</time>
      </trkpt>
      <trkpt lat="45.20439" lon="5.72516">
        <ele>615.20001220703</ele>
        <time>2021-11-26T05:44:45.000Z</time>
      </trkpt>
      <trkpt lat="45.20438" lon="5.72518">
        <ele>615</ele>
        <time>2021-11-26T05:44:46.000Z</time>
      </trkpt>
      <trkpt lat="45.20437" lon="5.72518">
        <ele>614.59997558594</ele>
        <time>2021-11-26T05:44:48.000Z</time>
      </trkpt>
      <trkpt lat="45.20438" lon="5.72519">
        <ele>614.40002441406</ele>
        <time>2021-11-26T05:44:50.000Z</time>
      </trkpt>
      <trkpt lat="45.20439" lon="5.72519">
        <ele>614.40002441406</ele>
        <time>2021-11-26T05:44:51.000Z</time>
      </trkpt>
      <trkpt lat="45.20439" lon="5.7252">
        <ele>614.20001220703</ele>
        <time>2021-11-26T05:44:52.000Z</time>
      </trkpt>
      <trkpt lat="45.2044" lon="5.72521">
        <ele>614</ele>
        <time>2021-11-26T05:44:53.000Z</time>
      </trkpt>
      <trkpt lat="45.20438" lon="5.72521">
        <ele>613.40002441406</ele>
        <time>2021-11-26T05:44:55.000Z</time>
      </trkpt>
      <trkpt lat="45.20436" lon="5.72522">
        <ele>612.59997558594</ele>
        <time>2021-11-26T05:44:57.000Z</time>
      </trkpt>
      <trkpt lat="45.20435" lon="5.72522">
        <ele>611.79998779297</ele>
        <time>2021-11-26T05:44:59.000Z</time>
      </trkpt>
      <trkpt lat="45.20435" lon="5.72522">
        <ele>611.59997558594</ele>
        <time>2021-11-26T05:45:00.000Z</time>
      </trkpt>
      <trkpt lat="45.20435" lon="5.72522">
        <ele>611.20001220703</ele>
        <time>2021-11-26T05:45:01.000Z</time>
      </trkpt>
      <trkpt lat="45.20433" lon="5.72522">
        <ele>610.59997558594</ele>
        <time>2021-11-26T05:45:04.000Z</time>
      </trkpt>
      <trkpt lat="45.20432" lon="5.72522">
        <ele>610.40002441406</ele>
        <time>2021-11-26T05:45:05.000Z</time>
      </trkpt>
      <trkpt lat="45.20431" lon="5.72522">
        <ele>610.20001220703</ele>
        <time>2021-11-26T05:45:07.000Z</time>
      </trkpt>
      <trkpt lat="45.2043" lon="5.72525">
        <ele>609</ele>
        <time>2021-11-26T05:45:10.000Z</time>
      </trkpt>
      <trkpt lat="45.2043" lon="5.72525">
        <ele>608.59997558594</ele>
        <time>2021-11-26T05:45:11.000Z</time>
      </trkpt>
      <trkpt lat="45.20429" lon="5.72525">
        <ele>608.40002441406</ele>
        <time>2021-11-26T05:45:13.000Z</time>
      </trkpt>
      <trkpt lat="45.20427" lon="5.72525">
        <ele>607.79998779297</ele>
        <time>2021-11-26T05:45:14.000Z</time>
      </trkpt>
      <trkpt lat="45.20425" lon="5.72527">
        <ele>606.79998779297</ele>
        <time>2021-11-26T05:45:17.000Z</time>
      </trkpt>
      <trkpt lat="45.20425" lon="5.72528">
        <ele>606.20001220703</ele>
        <time>2021-11-26T05:45:18.000Z</time>
      </trkpt>
      <trkpt lat="45.20424" lon="5.7253">
        <ele>605.79998779297</ele>
        <time>2021-11-26T05:45:20.000Z</time>
      </trkpt>
      <trkpt lat="45.20424" lon="5.72533">
        <ele>605.40002441406</ele>
        <time>2021-11-26T05:45:22.000Z</time>
      </trkpt>
      <trkpt lat="45.20423" lon="5.72534">
        <ele>605</ele>
        <time>2021-11-26T05:45:23.000Z</time>
      </trkpt>
      <trkpt lat="45.20422" lon="5.72535">
        <ele>604.59997558594</ele>
        <time>2021-11-26T05:45:24.000Z</time>
      </trkpt>
      <trkpt lat="45.2042" lon="5.72537">
        <ele>604.20001220703</ele>
        <time>2021-11-26T05:45:26.000Z</time>
      </trkpt>
      <trkpt lat="45.20417" lon="5.72539">
        <ele>603.59997558594</ele>
        <time>2021-11-26T05:45:28.000Z</time>
      </trkpt>
      <trkpt lat="45.20417" lon="5.72539">
        <ele>603.40002441406</ele>
        <time>2021-11-26T05:45:29.000Z</time>
      </trkpt>
      <trkpt lat="45.20417" lon="5.72539">
        <ele>603</ele>
        <time>2021-11-26T05:45:30.000Z</time>
      </trkpt>
      <trkpt lat="45.20416" lon="5.7254">
        <ele>602.59997558594</ele>
        <time>2021-11-26T05:45:32.000Z</time>
      </trkpt>
      <trkpt lat="45.20415" lon="5.7254">
        <ele>602.20001220703</ele>
        <time>2021-11-26T05:45:33.000Z</time>
      </trkpt>
      <trkpt lat="45.20412" lon="5.72542">
        <ele>601.59997558594</ele>
        <time>2021-11-26T05:45:36.000Z</time>
      </trkpt>
      <trkpt lat="45.20411" lon="5.72544">
        <ele>601.20001220703</ele>
        <time>2021-11-26T05:45:38.000Z</time>
      </trkpt>
      <trkpt lat="45.2041" lon="5.72545">
        <ele>600.79998779297</ele>
        <time>2021-11-26T05:45:40.000Z</time>
      </trkpt>
      <trkpt lat="45.20408" lon="5.72546">
        <ele>600</ele>
        <time>2021-11-26T05:45:42.000Z</time>
      </trkpt>
      <trkpt lat="45.20406" lon="5.72547">
        <ele>599.59997558594</ele>
        <time>2021-11-26T05:45:44.000Z</time>
      </trkpt>
      <trkpt lat="45.20403" lon="5.72544">
        <ele>599</ele>
        <time>2021-11-26T05:45:47.000Z</time>
      </trkpt>
      <trkpt lat="45.204" lon="5.72542">
        <ele>597.79998779297</ele>
        <time>2021-11-26T05:45:51.000Z</time>
      </trkpt>
      <trkpt lat="45.20399" lon="5.72542">
        <ele>597.20001220703</ele>
        <time>2021-11-26T05:45:53.000Z</time>
      </trkpt>
      <trkpt lat="45.20398" lon="5.72542">
        <ele>597</ele>
        <time>2021-11-26T05:45:55.000Z</time>
      </trkpt>
      <trkpt lat="45.20397" lon="5.72542">
        <ele>596.59997558594</ele>
        <time>2021-11-26T05:45:56.000Z</time>
      </trkpt>
      <trkpt lat="45.20397" lon="5.72543">
        <ele>596.20001220703</ele>
        <time>2021-11-26T05:45:58.000Z</time>
      </trkpt>
      <trkpt lat="45.20396" lon="5.72544">
        <ele>595.79998779297</ele>
        <time>2021-11-26T05:46:00.000Z</time>
      </trkpt>
      <trkpt lat="45.20395" lon="5.72547">
        <ele>595.40002441406</ele>
        <time>2021-11-26T05:46:02.000Z</time>
      </trkpt>
      <trkpt lat="45.20394" lon="5.72547">
        <ele>595</ele>
        <time>2021-11-26T05:46:03.000Z</time>
      </trkpt>
      <trkpt lat="45.20389" lon="5.72546">
        <ele>594.20001220703</ele>
        <time>2021-11-26T05:46:05.000Z</time>
      </trkpt>
      <trkpt lat="45.20389" lon="5.72545">
        <ele>594</ele>
        <time>2021-11-26T05:46:06.000Z</time>
      </trkpt>
      <trkpt lat="45.20388" lon="5.72543">
        <ele>593.40002441406</ele>
        <time>2021-11-26T05:46:07.000Z</time>
      </trkpt>
      <trkpt lat="45.20386" lon="5.72542">
        <ele>593.20001220703</ele>
        <time>2021-11-26T05:46:08.000Z</time>
      </trkpt>
      <trkpt lat="45.20384" lon="5.7254">
        <ele>592.20001220703</ele>
        <time>2021-11-26T05:46:11.000Z</time>
      </trkpt>
      <trkpt lat="45.20384" lon="5.7254">
        <ele>591.79998779297</ele>
        <time>2021-11-26T05:46:12.000Z</time>
      </trkpt>
      <trkpt lat="45.20381" lon="5.72537">
        <ele>590.59997558594</ele>
        <time>2021-11-26T05:46:17.000Z</time>
      </trkpt>
      <trkpt lat="45.20381" lon="5.72537">
        <ele>590.40002441406</ele>
        <time>2021-11-26T05:46:18.000Z</time>
      </trkpt>
      <trkpt lat="45.20381" lon="5.72538">
        <ele>590.20001220703</ele>
        <time>2021-11-26T05:46:19.000Z</time>
      </trkpt>
      <trkpt lat="45.2038" lon="5.72538">
        <ele>589.59997558594</ele>
        <time>2021-11-26T05:46:21.000Z</time>
      </trkpt>
      <trkpt lat="45.20379" lon="5.72538">
        <ele>589.59997558594</ele>
        <time>2021-11-26T05:46:22.000Z</time>
      </trkpt>
      <trkpt lat="45.20379" lon="5.72538">
        <ele>589.40002441406</ele>
        <time>2021-11-26T05:46:23.000Z</time>
      </trkpt>
      <trkpt lat="45.20376" lon="5.72535">
        <ele>588.59997558594</ele>
        <time>2021-11-26T05:46:25.000Z</time>
      </trkpt>
      <trkpt lat="45.20376" lon="5.72533">
        <ele>588.40002441406</ele>
        <time>2021-11-26T05:46:26.000Z</time>
      </trkpt>
      <trkpt lat="45.20374" lon="5.7253">
        <ele>588</ele>
        <time>2021-11-26T05:46:28.000Z</time>
      </trkpt>
      <trkpt lat="45.20371" lon="5.72528">
        <ele>587.20001220703</ele>
        <time>2021-11-26T05:46:30.000Z</time>
      </trkpt>
      <trkpt lat="45.2037" lon="5.72528">
        <ele>586.79998779297</ele>
        <time>2021-11-26T05:46:31.000Z</time>
      </trkpt>
      <trkpt lat="45.20365" lon="5.72528">
        <ele>586</ele>
        <time>2021-11-26T05:46:34.000Z</time>
      </trkpt>
      <trkpt lat="45.2036" lon="5.72527">
        <ele>585</ele>
        <time>2021-11-26T05:46:38.000Z</time>
      </trkpt>
      <trkpt lat="45.20358" lon="5.72527">
        <ele>584.79998779297</ele>
        <time>2021-11-26T05:46:39.000Z</time>
      </trkpt>
      <trkpt lat="45.20357" lon="5.72526">
        <ele>584.59997558594</ele>
        <time>2021-11-26T05:46:40.000Z</time>
      </trkpt>
      <trkpt lat="45.20355" lon="5.72525">
        <ele>584.40002441406</ele>
        <time>2021-11-26T05:46:42.000Z</time>
      </trkpt>
      <trkpt lat="45.20355" lon="5.72522">
        <ele>584</ele>
        <time>2021-11-26T05:46:44.000Z</time>
      </trkpt>
      <trkpt lat="45.20355" lon="5.72523">
        <ele>583.79998779297</ele>
        <time>2021-11-26T05:46:45.000Z</time>
      </trkpt>
      <trkpt lat="45.20354" lon="5.72524">
        <ele>583.40002441406</ele>
        <time>2021-11-26T05:46:46.000Z</time>
      </trkpt>
      <trkpt lat="45.20354" lon="5.72526">
        <ele>583.20001220703</ele>
        <time>2021-11-26T05:46:47.000Z</time>
      </trkpt>
      <trkpt lat="45.20354" lon="5.72528">
        <ele>582.40002441406</ele>
        <time>2021-11-26T05:46:49.000Z</time>
      </trkpt>
      <trkpt lat="45.20352" lon="5.72529">
        <ele>581.59997558594</ele>
        <time>2021-11-26T05:46:53.000Z</time>
      </trkpt>
      <trkpt lat="45.20352" lon="5.72528">
        <ele>581</ele>
        <time>2021-11-26T05:46:54.000Z</time>
      </trkpt>
      <trkpt lat="45.20352" lon="5.72529">
        <ele>580.59997558594</ele>
        <time>2021-11-26T05:46:55.000Z</time>
      </trkpt>
      <trkpt lat="45.2035" lon="5.72529">
        <ele>580</ele>
        <time>2021-11-26T05:46:57.000Z</time>
      </trkpt>
      <trkpt lat="45.20349" lon="5.72528">
        <ele>579.79998779297</ele>
        <time>2021-11-26T05:46:58.000Z</time>
      </trkpt>
      <trkpt lat="45.20348" lon="5.72529">
        <ele>579.40002441406</ele>
        <time>2021-11-26T05:46:59.000Z</time>
      </trkpt>
      <trkpt lat="45.20346" lon="5.72528">
        <ele>578.79998779297</ele>
        <time>2021-11-26T05:47:01.000Z</time>
      </trkpt>
      <trkpt lat="45.20342" lon="5.72526">
        <ele>577.79998779297</ele>
        <time>2021-11-26T05:47:05.000Z</time>
      </trkpt>
      <trkpt lat="45.20342" lon="5.72526">
        <ele>577.59997558594</ele>
        <time>2021-11-26T05:47:06.000Z</time>
      </trkpt>
      <trkpt lat="45.20341" lon="5.72526">
        <ele>577.20001220703</ele>
        <time>2021-11-26T05:47:07.000Z</time>
      </trkpt>
      <trkpt lat="45.20341" lon="5.72526">
        <ele>576.59997558594</ele>
        <time>2021-11-26T05:47:11.000Z</time>
      </trkpt>
      <trkpt lat="45.20341" lon="5.72527">
        <ele>576.40002441406</ele>
        <time>2021-11-26T05:47:12.000Z</time>
      </trkpt>
      <trkpt lat="45.20338" lon="5.72526">
        <ele>575.40002441406</ele>
        <time>2021-11-26T05:47:16.000Z</time>
      </trkpt>
      <trkpt lat="45.20338" lon="5.72523">
        <ele>574.40002441406</ele>
        <time>2021-11-26T05:47:21.000Z</time>
      </trkpt>
      <trkpt lat="45.20338" lon="5.72522">
        <ele>574.20001220703</ele>
        <time>2021-11-26T05:47:22.000Z</time>
      </trkpt>
      <trkpt lat="45.20335" lon="5.72522">
        <ele>573.40002441406</ele>
        <time>2021-11-26T05:47:27.000Z</time>
      </trkpt>
      <trkpt lat="45.20333" lon="5.72524">
        <ele>573</ele>
        <time>2021-11-26T05:47:33.000Z</time>
      </trkpt>
      <trkpt lat="45.20331" lon="5.72526">
        <ele>571.59997558594</ele>
        <time>2021-11-26T05:47:36.000Z</time>
      </trkpt>
      <trkpt lat="45.20329" lon="5.72525">
        <ele>571.40002441406</ele>
        <time>2021-11-26T05:47:37.000Z</time>
      </trkpt>
      <trkpt lat="45.20327" lon="5.72524">
        <ele>570.40002441406</ele>
        <time>2021-11-26T05:47:39.000Z</time>
      </trkpt>
      <trkpt lat="45.20325" lon="5.72521">
        <ele>569.20001220703</ele>
        <time>2021-11-26T05:47:43.000Z</time>
      </trkpt>
      <trkpt lat="45.20324" lon="5.72522">
        <ele>568.79998779297</ele>
        <time>2021-11-26T05:47:44.000Z</time>
      </trkpt>
      <trkpt lat="45.20322" lon="5.72521">
        <ele>568.20001220703</ele>
        <time>2021-11-26T05:47:46.000Z</time>
      </trkpt>
      <trkpt lat="45.20321" lon="5.72521">
        <ele>567.79998779297</ele>
        <time>2021-11-26T05:47:47.000Z</time>
      </trkpt>
      <trkpt lat="45.20319" lon="5.72521">
        <ele>567</ele>
        <time>2021-11-26T05:47:50.000Z</time>
      </trkpt>
      <trkpt lat="45.20319" lon="5.72521">
        <ele>566.79998779297</ele>
        <time>2021-11-26T05:47:51.000Z</time>
      </trkpt>
      <trkpt lat="45.20316" lon="5.72522">
        <ele>566</ele>
        <time>2021-11-26T05:47:53.000Z</time>
      </trkpt>
      <trkpt lat="45.20314" lon="5.72521">
        <ele>565.59997558594</ele>
        <time>2021-11-26T05:47:54.000Z</time>
      </trkpt>
      <trkpt lat="45.20311" lon="5.72521">
        <ele>564.59997558594</ele>
        <time>2021-11-26T05:47:57.000Z</time>
      </trkpt>
      <trkpt lat="45.20306" lon="5.72521">
        <ele>563.40002441406</ele>
        <time>2021-11-26T05:48:01.000Z</time>
      </trkpt>
      <trkpt lat="45.20302" lon="5.72521">
        <ele>562.59997558594</ele>
        <time>2021-11-26T05:48:03.000Z</time>
      </trkpt>
      <trkpt lat="45.20301" lon="5.72521">
        <ele>562.20001220703</ele>
        <time>2021-11-26T05:48:04.000Z</time>
      </trkpt>
      <trkpt lat="45.20296" lon="5.72521">
        <ele>561.20001220703</ele>
        <time>2021-11-26T05:48:07.000Z</time>
      </trkpt>
      <trkpt lat="45.20293" lon="5.72522">
        <ele>560.59997558594</ele>
        <time>2021-11-26T05:48:09.000Z</time>
      </trkpt>
      <trkpt lat="45.20291" lon="5.72522">
        <ele>560.20001220703</ele>
        <time>2021-11-26T05:48:10.000Z</time>
      </trkpt>
      <trkpt lat="45.20289" lon="5.72522">
        <ele>560</ele>
        <time>2021-11-26T05:48:11.000Z</time>
      </trkpt>
      <trkpt lat="45.20286" lon="5.72523">
        <ele>559.20001220703</ele>
        <time>2021-11-26T05:48:13.000Z</time>
      </trkpt>
      <trkpt lat="45.20282" lon="5.72526">
        <ele>558.59997558594</ele>
        <time>2021-11-26T05:48:15.000Z</time>
      </trkpt>
      <trkpt lat="45.2028" lon="5.72526">
        <ele>558.40002441406</ele>
        <time>2021-11-26T05:48:16.000Z</time>
      </trkpt>
      <trkpt lat="45.20274" lon="5.72527">
        <ele>557.79998779297</ele>
        <time>2021-11-26T05:48:19.000Z</time>
      </trkpt>
      <trkpt lat="45.20272" lon="5.72526">
        <ele>557.40002441406</ele>
        <time>2021-11-26T05:48:20.000Z</time>
      </trkpt>
      <trkpt lat="45.20267" lon="5.72527">
        <ele>556.20001220703</ele>
        <time>2021-11-26T05:48:23.000Z</time>
      </trkpt>
      <trkpt lat="45.20267" lon="5.72527">
        <ele>555.79998779297</ele>
        <time>2021-11-26T05:48:24.000Z</time>
      </trkpt>
      <trkpt lat="45.20266" lon="5.72528">
        <ele>555.40002441406</ele>
        <time>2021-11-26T05:48:25.000Z</time>
      </trkpt>
      <trkpt lat="45.20265" lon="5.72528">
        <ele>555</ele>
        <time>2021-11-26T05:48:26.000Z</time>
      </trkpt>
      <trkpt lat="45.20261" lon="5.72525">
        <ele>554.20001220703</ele>
        <time>2021-11-26T05:48:28.000Z</time>
      </trkpt>
      <trkpt lat="45.2026" lon="5.72524">
        <ele>554</ele>
        <time>2021-11-26T05:48:29.000Z</time>
      </trkpt>
      <trkpt lat="45.20258" lon="5.72522">
        <ele>553</ele>
        <time>2021-11-26T05:48:31.000Z</time>
      </trkpt>
      <trkpt lat="45.20257" lon="5.72522">
        <ele>552.79998779297</ele>
        <time>2021-11-26T05:48:32.000Z</time>
      </trkpt>
      <trkpt lat="45.20257" lon="5.72523">
        <ele>552.59997558594</ele>
        <time>2021-11-26T05:48:33.000Z</time>
      </trkpt>
      <trkpt lat="45.20256" lon="5.72525">
        <ele>551.79998779297</ele>
        <time>2021-11-26T05:48:35.000Z</time>
      </trkpt>
      <trkpt lat="45.20254" lon="5.72526">
        <ele>551.40002441406</ele>
        <time>2021-11-26T05:48:36.000Z</time>
      </trkpt>
      <trkpt lat="45.20251" lon="5.72526">
        <ele>550.40002441406</ele>
        <time>2021-11-26T05:48:38.000Z</time>
      </trkpt>
      <trkpt lat="45.2025" lon="5.72526">
        <ele>550</ele>
        <time>2021-11-26T05:48:39.000Z</time>
      </trkpt>
      <trkpt lat="45.20247" lon="5.72528">
        <ele>549</ele>
        <time>2021-11-26T05:48:42.000Z</time>
      </trkpt>
      <trkpt lat="45.20245" lon="5.72528">
        <ele>548.79998779297</ele>
        <time>2021-11-26T05:48:43.000Z</time>
      </trkpt>
      <trkpt lat="45.2024" lon="5.72527">
        <ele>547.59997558594</ele>
        <time>2021-11-26T05:48:47.000Z</time>
      </trkpt>
      <trkpt lat="45.20237" lon="5.72528">
        <ele>546.59997558594</ele>
        <time>2021-11-26T05:48:50.000Z</time>
      </trkpt>
      <trkpt lat="45.20235" lon="5.72528">
        <ele>546</ele>
        <time>2021-11-26T05:48:51.000Z</time>
      </trkpt>
      <trkpt lat="45.20232" lon="5.72529">
        <ele>545.20001220703</ele>
        <time>2021-11-26T05:48:53.000Z</time>
      </trkpt>
      <trkpt lat="45.20231" lon="5.72528">
        <ele>544.79998779297</ele>
        <time>2021-11-26T05:48:54.000Z</time>
      </trkpt>
      <trkpt lat="45.20229" lon="5.72527">
        <ele>544</ele>
        <time>2021-11-26T05:48:56.000Z</time>
      </trkpt>
      <trkpt lat="45.20228" lon="5.72527">
        <ele>543.59997558594</ele>
        <time>2021-11-26T05:48:57.000Z</time>
      </trkpt>
      <trkpt lat="45.20227" lon="5.72527">
        <ele>543</ele>
        <time>2021-11-26T05:48:58.000Z</time>
      </trkpt>
      <trkpt lat="45.20226" lon="5.72528">
        <ele>542.40002441406</ele>
        <time>2021-11-26T05:48:59.000Z</time>
      </trkpt>
      <trkpt lat="45.20224" lon="5.72528">
        <ele>542</ele>
        <time>2021-11-26T05:49:00.000Z</time>
      </trkpt>
      <trkpt lat="45.20221" lon="5.72527">
        <ele>541.40002441406</ele>
        <time>2021-11-26T05:49:02.000Z</time>
      </trkpt>
      <trkpt lat="45.2022" lon="5.72527">
        <ele>541.20001220703</ele>
        <time>2021-11-26T05:49:03.000Z</time>
      </trkpt>
      <trkpt lat="45.20219" lon="5.72527">
        <ele>541</ele>
        <time>2021-11-26T05:49:04.000Z</time>
      </trkpt>
      <trkpt lat="45.20217" lon="5.72528">
        <ele>540.40002441406</ele>
        <time>2021-11-26T05:49:06.000Z</time>
      </trkpt>
      <trkpt lat="45.20215" lon="5.72529">
        <ele>540</ele>
        <time>2021-11-26T05:49:07.000Z</time>
      </trkpt>
      <trkpt lat="45.20214" lon="5.72528">
        <ele>539.40002441406</ele>
        <time>2021-11-26T05:49:08.000Z</time>
      </trkpt>
      <trkpt lat="45.20208" lon="5.72524">
        <ele>538</ele>
        <time>2021-11-26T05:49:11.000Z</time>
      </trkpt>
      <trkpt lat="45.20201" lon="5.72517">
        <ele>536.79998779297</ele>
        <time>2021-11-26T05:49:15.000Z</time>
      </trkpt>
      <trkpt lat="45.20199" lon="5.72516">
        <ele>536.20001220703</ele>
        <time>2021-11-26T05:49:16.000Z</time>
      </trkpt>
      <trkpt lat="45.20197" lon="5.72514">
        <ele>535.79998779297</ele>
        <time>2021-11-26T05:49:17.000Z</time>
      </trkpt>
      <trkpt lat="45.2019" lon="5.72508">
        <ele>534.59997558594</ele>
        <time>2021-11-26T05:49:22.000Z</time>
      </trkpt>
      <trkpt lat="45.20189" lon="5.72507">
        <ele>534.20001220703</ele>
        <time>2021-11-26T05:49:23.000Z</time>
      </trkpt>
      <trkpt lat="45.20184" lon="5.72501">
        <ele>533.59997558594</ele>
        <time>2021-11-26T05:49:27.000Z</time>
      </trkpt>
      <trkpt lat="45.2018" lon="5.72496">
        <ele>532.40002441406</ele>
        <time>2021-11-26T05:49:31.000Z</time>
      </trkpt>
      <trkpt lat="45.20178" lon="5.72495">
        <ele>532.20001220703</ele>
        <time>2021-11-26T05:49:33.000Z</time>
      </trkpt>
      <trkpt lat="45.20174" lon="5.72496">
        <ele>531.20001220703</ele>
        <time>2021-11-26T05:49:36.000Z</time>
      </trkpt>
      <trkpt lat="45.20174" lon="5.72495">
        <ele>531</ele>
        <time>2021-11-26T05:49:37.000Z</time>
      </trkpt>
      <trkpt lat="45.20172" lon="5.72493">
        <ele>530.40002441406</ele>
        <time>2021-11-26T05:49:39.000Z</time>
      </trkpt>
      <trkpt lat="45.20171" lon="5.72491">
        <ele>530.20001220703</ele>
        <time>2021-11-26T05:49:40.000Z</time>
      </trkpt>
      <trkpt lat="45.20168" lon="5.72487">
        <ele>529.59997558594</ele>
        <time>2021-11-26T05:49:43.000Z</time>
      </trkpt>
      <trkpt lat="45.20166" lon="5.72486">
        <ele>529.59997558594</ele>
        <time>2021-11-26T05:49:45.000Z</time>
      </trkpt>
      <trkpt lat="45.20165" lon="5.72486">
        <ele>529.20001220703</ele>
        <time>2021-11-26T05:49:46.000Z</time>
      </trkpt>
      <trkpt lat="45.20164" lon="5.72485">
        <ele>529</ele>
        <time>2021-11-26T05:49:47.000Z</time>
      </trkpt>
      <trkpt lat="45.20163" lon="5.72484">
        <ele>528.59997558594</ele>
        <time>2021-11-26T05:49:49.000Z</time>
      </trkpt>
      <trkpt lat="45.20162" lon="5.72481">
        <ele>528</ele>
        <time>2021-11-26T05:49:52.000Z</time>
      </trkpt>
      <trkpt lat="45.20162" lon="5.7248">
        <ele>528</ele>
        <time>2021-11-26T05:49:53.000Z</time>
      </trkpt>
      <trkpt lat="45.20161" lon="5.72479">
        <ele>527.79998779297</ele>
        <time>2021-11-26T05:49:55.000Z</time>
      </trkpt>
      <trkpt lat="45.2016" lon="5.72477">
        <ele>526.79998779297</ele>
        <time>2021-11-26T05:49:58.000Z</time>
      </trkpt>
      <trkpt lat="45.20159" lon="5.72477">
        <ele>526.40002441406</ele>
        <time>2021-11-26T05:49:59.000Z</time>
      </trkpt>
      <trkpt lat="45.20159" lon="5.72477">
        <ele>525.79998779297</ele>
        <time>2021-11-26T05:50:00.000Z</time>
      </trkpt>
      <trkpt lat="45.20158" lon="5.72476">
        <ele>525.40002441406</ele>
        <time>2021-11-26T05:50:01.000Z</time>
      </trkpt>
      <trkpt lat="45.20156" lon="5.72474">
        <ele>525</ele>
        <time>2021-11-26T05:50:03.000Z</time>
      </trkpt>
      <trkpt lat="45.20155" lon="5.72473">
        <ele>524.20001220703</ele>
        <time>2021-11-26T05:50:05.000Z</time>
      </trkpt>
      <trkpt lat="45.20154" lon="5.7247">
        <ele>523.40002441406</ele>
        <time>2021-11-26T05:50:07.000Z</time>
      </trkpt>
      <trkpt lat="45.20154" lon="5.72469">
        <ele>523.20001220703</ele>
        <time>2021-11-26T05:50:08.000Z</time>
      </trkpt>
      <trkpt lat="45.20153" lon="5.72466">
        <ele>521.79998779297</ele>
        <time>2021-11-26T05:50:12.000Z</time>
      </trkpt>
      <trkpt lat="45.20149" lon="5.72462">
        <ele>520.20001220703</ele>
        <time>2021-11-26T05:50:17.000Z</time>
      </trkpt>
      <trkpt lat="45.20148" lon="5.72461">
        <ele>519.20001220703</ele>
        <time>2021-11-26T05:50:19.000Z</time>
      </trkpt>
      <trkpt lat="45.20146" lon="5.72461">
        <ele>518.59997558594</ele>
        <time>2021-11-26T05:50:22.000Z</time>
      </trkpt>
      <trkpt lat="45.20144" lon="5.72459">
        <ele>517.79998779297</ele>
        <time>2021-11-26T05:50:25.000Z</time>
      </trkpt>
      <trkpt lat="45.20144" lon="5.72458">
        <ele>516.59997558594</ele>
        <time>2021-11-26T05:50:28.000Z</time>
      </trkpt>
      <trkpt lat="45.20143" lon="5.72459">
        <ele>516.20001220703</ele>
        <time>2021-11-26T05:50:29.000Z</time>
      </trkpt>
      <trkpt lat="45.20142" lon="5.72461">
        <ele>515.40002441406</ele>
        <time>2021-11-26T05:50:31.000Z</time>
      </trkpt>
      <trkpt lat="45.20142" lon="5.72462">
        <ele>515.20001220703</ele>
        <time>2021-11-26T05:50:32.000Z</time>
      </trkpt>
      <trkpt lat="45.2014" lon="5.72464">
        <ele>514.59997558594</ele>
        <time>2021-11-26T05:50:35.000Z</time>
      </trkpt>
      <trkpt lat="45.20141" lon="5.72465">
        <ele>514.20001220703</ele>
        <time>2021-11-26T05:50:36.000Z</time>
      </trkpt>
      <trkpt lat="45.20142" lon="5.72466">
        <ele>514</ele>
        <time>2021-11-26T05:50:38.000Z</time>
      </trkpt>
      <trkpt lat="45.20141" lon="5.72463">
        <ele>514</ele>
        <time>2021-11-26T05:50:48.000Z</time>
      </trkpt>
      <trkpt lat="45.20141" lon="5.72463">
        <ele>514</ele>
        <time>2021-11-26T05:50:52.000Z</time>
      </trkpt>
      <trkpt lat="45.20141" lon="5.72461">
        <ele>514.40002441406</ele>
        <time>2021-11-26T05:51:00.000Z</time>
      </trkpt>
      <trkpt lat="45.2014" lon="5.7246">
        <ele>514</ele>
        <time>2021-11-26T05:51:23.000Z</time>
      </trkpt>
      <trkpt lat="45.2014" lon="5.7246">
        <ele>514</ele>
        <time>2021-11-26T05:51:25.000Z</time>
      </trkpt>
      <trkpt lat="45.20139" lon="5.7246">
        <ele>513.79998779297</ele>
        <time>2021-11-26T05:51:38.000Z</time>
      </trkpt>
      <trkpt lat="45.20139" lon="5.72459">
        <ele>513.40002441406</ele>
        <time>2021-11-26T05:51:41.000Z</time>
      </trkpt>
      <trkpt lat="45.20139" lon="5.72459">
        <ele>513.40002441406</ele>
        <time>2021-11-26T05:51:46.000Z</time>
      </trkpt>
      <trkpt lat="45.20139" lon="5.72459">
        <ele>513.20001220703</ele>
        <time>2021-11-26T05:51:48.000Z</time>
      </trkpt>
      <trkpt lat="45.20139" lon="5.72459">
        <ele>512.79998779297</ele>
        <time>2021-11-26T05:51:56.000Z</time>
      </trkpt>
      <trkpt lat="45.20139" lon="5.72459">
        <ele>512.20001220703</ele>
        <time>2021-11-26T05:52:00.000Z</time>
      </trkpt>
      <trkpt lat="45.20136" lon="5.72465">
        <ele>511.39999389648</ele>
        <time>2021-11-26T05:52:08.000Z</time>
      </trkpt>
      <trkpt lat="45.20133" lon="5.72467">
        <ele>511</ele>
        <time>2021-11-26T05:52:10.000Z</time>
      </trkpt>
      <trkpt lat="45.20131" lon="5.7247">
        <ele>509.79998779297</ele>
        <time>2021-11-26T05:52:13.000Z</time>
      </trkpt>
      <trkpt lat="45.20131" lon="5.72477">
        <ele>508.60000610352</ele>
        <time>2021-11-26T05:52:16.000Z</time>
      </trkpt>
      <trkpt lat="45.20132" lon="5.72483">
        <ele>507.79998779297</ele>
        <time>2021-11-26T05:52:19.000Z</time>
      </trkpt>
      <trkpt lat="45.20131" lon="5.72486">
        <ele>507.39999389648</ele>
        <time>2021-11-26T05:52:21.000Z</time>
      </trkpt>
      <trkpt lat="45.20131" lon="5.7249">
        <ele>506.39999389648</ele>
        <time>2021-11-26T05:52:23.000Z</time>
      </trkpt>
      <trkpt lat="45.2013" lon="5.72492">
        <ele>506</ele>
        <time>2021-11-26T05:52:24.000Z</time>
      </trkpt>
      <trkpt lat="45.20129" lon="5.72496">
        <ele>505.20001220703</ele>
        <time>2021-11-26T05:52:26.000Z</time>
      </trkpt>
      <trkpt lat="45.20128" lon="5.72498">
        <ele>504.60000610352</ele>
        <time>2021-11-26T05:52:27.000Z</time>
      </trkpt>
      <trkpt lat="45.20125" lon="5.72501">
        <ele>503.60000610352</ele>
        <time>2021-11-26T05:52:29.000Z</time>
      </trkpt>
      <trkpt lat="45.20122" lon="5.72506">
        <ele>502.79998779297</ele>
        <time>2021-11-26T05:52:31.000Z</time>
      </trkpt>
      <trkpt lat="45.20121" lon="5.72508">
        <ele>502.20001220703</ele>
        <time>2021-11-26T05:52:32.000Z</time>
      </trkpt>
      <trkpt lat="45.2012" lon="5.7251">
        <ele>501.79998779297</ele>
        <time>2021-11-26T05:52:33.000Z</time>
      </trkpt>
      <trkpt lat="45.20117" lon="5.72512">
        <ele>501.39999389648</ele>
        <time>2021-11-26T05:52:35.000Z</time>
      </trkpt>
      <trkpt lat="45.20116" lon="5.72513">
        <ele>500.79998779297</ele>
        <time>2021-11-26T05:52:36.000Z</time>
      </trkpt>
      <trkpt lat="45.20116" lon="5.72515">
        <ele>500.60000610352</ele>
        <time>2021-11-26T05:52:37.000Z</time>
      </trkpt>
      <trkpt lat="45.20115" lon="5.72519">
        <ele>499.60000610352</ele>
        <time>2021-11-26T05:52:39.000Z</time>
      </trkpt>
      <trkpt lat="45.20114" lon="5.72524">
        <ele>498.20001220703</ele>
        <time>2021-11-26T05:52:42.000Z</time>
      </trkpt>
      <trkpt lat="45.20114" lon="5.72528">
        <ele>497.39999389648</ele>
        <time>2021-11-26T05:52:44.000Z</time>
      </trkpt>
      <trkpt lat="45.20114" lon="5.7253">
        <ele>497.20001220703</ele>
        <time>2021-11-26T05:52:45.000Z</time>
      </trkpt>
      <trkpt lat="45.20115" lon="5.72532">
        <ele>497</ele>
        <time>2021-11-26T05:52:46.000Z</time>
      </trkpt>
      <trkpt lat="45.20119" lon="5.72541">
        <ele>496</ele>
        <time>2021-11-26T05:52:51.000Z</time>
      </trkpt>
      <trkpt lat="45.20121" lon="5.72544">
        <ele>495.39999389648</ele>
        <time>2021-11-26T05:52:53.000Z</time>
      </trkpt>
      <trkpt lat="45.20123" lon="5.72545">
        <ele>495</ele>
        <time>2021-11-26T05:52:55.000Z</time>
      </trkpt>
      <trkpt lat="45.20129" lon="5.72547">
        <ele>495.60000610352</ele>
        <time>2021-11-26T05:52:59.000Z</time>
      </trkpt>
      <trkpt lat="45.20131" lon="5.72548">
        <ele>495.79998779297</ele>
        <time>2021-11-26T05:53:00.000Z</time>
      </trkpt>
      <trkpt lat="45.20134" lon="5.7255">
        <ele>496.39999389648</ele>
        <time>2021-11-26T05:53:02.000Z</time>
      </trkpt>
      <trkpt lat="45.2014" lon="5.72552">
        <ele>497.60000610352</ele>
        <time>2021-11-26T05:53:05.000Z</time>
      </trkpt>
      <trkpt lat="45.20145" lon="5.72553">
        <ele>498.20001220703</ele>
        <time>2021-11-26T05:53:08.000Z</time>
      </trkpt>
      <trkpt lat="45.20148" lon="5.72555">
        <ele>498.60000610352</ele>
        <time>2021-11-26T05:53:10.000Z</time>
      </trkpt>
      <trkpt lat="45.20157" lon="5.72559">
        <ele>499.79998779297</ele>
        <time>2021-11-26T05:53:15.000Z</time>
      </trkpt>
      <trkpt lat="45.20159" lon="5.7256">
        <ele>500</ele>
        <time>2021-11-26T05:53:16.000Z</time>
      </trkpt>
      <trkpt lat="45.20162" lon="5.72561">
        <ele>500.39999389648</ele>
        <time>2021-11-26T05:53:18.000Z</time>
      </trkpt>
      <trkpt lat="45.20169" lon="5.72566">
        <ele>501</ele>
        <time>2021-11-26T05:53:22.000Z</time>
      </trkpt>
      <trkpt lat="45.20175" lon="5.7257">
        <ele>502</ele>
        <time>2021-11-26T05:53:26.000Z</time>
      </trkpt>
      <trkpt lat="45.20181" lon="5.72575">
        <ele>503</ele>
        <time>2021-11-26T05:53:30.000Z</time>
      </trkpt>
      <trkpt lat="45.20184" lon="5.72576">
        <ele>503.60000610352</ele>
        <time>2021-11-26T05:53:32.000Z</time>
      </trkpt>
      <trkpt lat="45.20186" lon="5.72578">
        <ele>504</ele>
        <time>2021-11-26T05:53:34.000Z</time>
      </trkpt>
      <trkpt lat="45.20189" lon="5.72582">
        <ele>505.20001220703</ele>
        <time>2021-11-26T05:53:37.000Z</time>
      </trkpt>
      <trkpt lat="45.2019" lon="5.72583">
        <ele>505.20001220703</ele>
        <time>2021-11-26T05:53:38.000Z</time>
      </trkpt>
      <trkpt lat="45.20197" lon="5.7259">
        <ele>506.20001220703</ele>
        <time>2021-11-26T05:53:44.000Z</time>
      </trkpt>
      <trkpt lat="45.202" lon="5.72592">
        <ele>506.79998779297</ele>
        <time>2021-11-26T05:53:46.000Z</time>
      </trkpt>
      <trkpt lat="45.20205" lon="5.72595">
        <ele>507.39999389648</ele>
        <time>2021-11-26T05:53:50.000Z</time>
      </trkpt>
      <trkpt lat="45.20209" lon="5.72597">
        <ele>508</ele>
        <time>2021-11-26T05:53:54.000Z</time>
      </trkpt>
      <trkpt lat="45.20215" lon="5.72598">
        <ele>508.39999389648</ele>
        <time>2021-11-26T05:53:57.000Z</time>
      </trkpt>
      <trkpt lat="45.20219" lon="5.72601">
        <ele>509</ele>
        <time>2021-11-26T05:54:02.000Z</time>
      </trkpt>
      <trkpt lat="45.20221" lon="5.72602">
        <ele>509.39999389648</ele>
        <time>2021-11-26T05:54:04.000Z</time>
      </trkpt>
      <trkpt lat="45.20227" lon="5.72606">
        <ele>510.39999389648</ele>
        <time>2021-11-26T05:54:09.000Z</time>
      </trkpt>
      <trkpt lat="45.2023" lon="5.72608">
        <ele>510.79998779297</ele>
        <time>2021-11-26T05:54:11.000Z</time>
      </trkpt>
      <trkpt lat="45.20236" lon="5.7261">
        <ele>512</ele>
        <time>2021-11-26T05:54:15.000Z</time>
      </trkpt>
      <trkpt lat="45.2024" lon="5.72609">
        <ele>512.79998779297</ele>
        <time>2021-11-26T05:54:18.000Z</time>
      </trkpt>
      <trkpt lat="45.20242" lon="5.72609">
        <ele>513.20001220703</ele>
        <time>2021-11-26T05:54:19.000Z</time>
      </trkpt>
      <trkpt lat="45.20248" lon="5.72608">
        <ele>514.40002441406</ele>
        <time>2021-11-26T05:54:23.000Z</time>
      </trkpt>
      <trkpt lat="45.20254" lon="5.72609">
        <ele>515</ele>
        <time>2021-11-26T05:54:26.000Z</time>
      </trkpt>
      <trkpt lat="45.20258" lon="5.72609">
        <ele>515.40002441406</ele>
        <time>2021-11-26T05:54:29.000Z</time>
      </trkpt>
      <trkpt lat="45.20264" lon="5.72608">
        <ele>516.40002441406</ele>
        <time>2021-11-26T05:54:33.000Z</time>
      </trkpt>
      <trkpt lat="45.20266" lon="5.72608">
        <ele>516.40002441406</ele>
        <time>2021-11-26T05:54:34.000Z</time>
      </trkpt>
      <trkpt lat="45.20273" lon="5.72606">
        <ele>517.40002441406</ele>
        <time>2021-11-26T05:54:39.000Z</time>
      </trkpt>
      <trkpt lat="45.20281" lon="5.72604">
        <ele>518.79998779297</ele>
        <time>2021-11-26T05:54:44.000Z</time>
      </trkpt>
      <trkpt lat="45.20283" lon="5.72605">
        <ele>519.40002441406</ele>
        <time>2021-11-26T05:54:46.000Z</time>
      </trkpt>
      <trkpt lat="45.20285" lon="5.72605">
        <ele>519.79998779297</ele>
        <time>2021-11-26T05:54:47.000Z</time>
      </trkpt>
      <trkpt lat="45.2029" lon="5.72604">
        <ele>520.79998779297</ele>
        <time>2021-11-26T05:54:50.000Z</time>
      </trkpt>
      <trkpt lat="45.20298" lon="5.72606">
        <ele>522</ele>
        <time>2021-11-26T05:54:55.000Z</time>
      </trkpt>
      <trkpt lat="45.20306" lon="5.72608">
        <ele>523</ele>
        <time>2021-11-26T05:55:00.000Z</time>
      </trkpt>
      <trkpt lat="45.20309" lon="5.72611">
        <ele>523.59997558594</ele>
        <time>2021-11-26T05:55:03.000Z</time>
      </trkpt>
      <trkpt lat="45.20313" lon="5.72613">
        <ele>524.40002441406</ele>
        <time>2021-11-26T05:55:06.000Z</time>
      </trkpt>
      <trkpt lat="45.20316" lon="5.72616">
        <ele>525</ele>
        <time>2021-11-26T05:55:09.000Z</time>
      </trkpt>
      <trkpt lat="45.20317" lon="5.72617">
        <ele>525.40002441406</ele>
        <time>2021-11-26T05:55:10.000Z</time>
      </trkpt>
      <trkpt lat="45.20319" lon="5.72618">
        <ele>525.59997558594</ele>
        <time>2021-11-26T05:55:11.000Z</time>
      </trkpt>
      <trkpt lat="45.20322" lon="5.7262">
        <ele>526.40002441406</ele>
        <time>2021-11-26T05:55:14.000Z</time>
      </trkpt>
      <trkpt lat="45.20326" lon="5.72621">
        <ele>526.79998779297</ele>
        <time>2021-11-26T05:55:16.000Z</time>
      </trkpt>
      <trkpt lat="45.20329" lon="5.72622">
        <ele>527.40002441406</ele>
        <time>2021-11-26T05:55:18.000Z</time>
      </trkpt>
      <trkpt lat="45.20332" lon="5.72623">
        <ele>527.79998779297</ele>
        <time>2021-11-26T05:55:20.000Z</time>
      </trkpt>
      <trkpt lat="45.20334" lon="5.72624">
        <ele>528.20001220703</ele>
        <time>2021-11-26T05:55:22.000Z</time>
      </trkpt>
      <trkpt lat="45.20336" lon="5.72625">
        <ele>528.59997558594</ele>
        <time>2021-11-26T05:55:24.000Z</time>
      </trkpt>
      <trkpt lat="45.20339" lon="5.72628">
        <ele>529.20001220703</ele>
        <time>2021-11-26T05:55:26.000Z</time>
      </trkpt>
      <trkpt lat="45.2034" lon="5.7263">
        <ele>529.40002441406</ele>
        <time>2021-11-26T05:55:27.000Z</time>
      </trkpt>
      <trkpt lat="45.20342" lon="5.72633">
        <ele>530</ele>
        <time>2021-11-26T05:55:30.000Z</time>
      </trkpt>
      <trkpt lat="45.20346" lon="5.72636">
        <ele>530.59997558594</ele>
        <time>2021-11-26T05:55:33.000Z</time>
      </trkpt>
      <trkpt lat="45.20348" lon="5.72637">
        <ele>531</ele>
        <time>2021-11-26T05:55:35.000Z</time>
      </trkpt>
      <trkpt lat="45.2035" lon="5.72639">
        <ele>531.40002441406</ele>
        <time>2021-11-26T05:55:37.000Z</time>
      </trkpt>
      <trkpt lat="45.20352" lon="5.7264">
        <ele>531.79998779297</ele>
        <time>2021-11-26T05:55:39.000Z</time>
      </trkpt>
      <trkpt lat="45.20353" lon="5.72641">
        <ele>532.20001220703</ele>
        <time>2021-11-26T05:55:41.000Z</time>
      </trkpt>
      <trkpt lat="45.20355" lon="5.72644">
        <ele>532.40002441406</ele>
        <time>2021-11-26T05:55:43.000Z</time>
      </trkpt>
      <trkpt lat="45.20358" lon="5.72647">
        <ele>533</ele>
        <time>2021-11-26T05:55:45.000Z</time>
      </trkpt>
      <trkpt lat="45.2036" lon="5.72648">
        <ele>533.20001220703</ele>
        <time>2021-11-26T05:55:46.000Z</time>
      </trkpt>
      <trkpt lat="45.20365" lon="5.72653">
        <ele>534.20001220703</ele>
        <time>2021-11-26T05:55:50.000Z</time>
      </trkpt>
      <trkpt lat="45.20366" lon="5.72653">
        <ele>534.59997558594</ele>
        <time>2021-11-26T05:55:51.000Z</time>
      </trkpt>
      <trkpt lat="45.20367" lon="5.72654">
        <ele>535.20001220703</ele>
        <time>2021-11-26T05:55:53.000Z</time>
      </trkpt>
      <trkpt lat="45.20369" lon="5.72658">
        <ele>535.59997558594</ele>
        <time>2021-11-26T05:55:55.000Z</time>
      </trkpt>
      <trkpt lat="45.2037" lon="5.72659">
        <ele>535.79998779297</ele>
        <time>2021-11-26T05:55:56.000Z</time>
      </trkpt>
      <trkpt lat="45.20375" lon="5.72667">
        <ele>536.40002441406</ele>
        <time>2021-11-26T05:56:01.000Z</time>
      </trkpt>
      <trkpt lat="45.20376" lon="5.72668">
        <ele>536.79998779297</ele>
        <time>2021-11-26T05:56:02.000Z</time>
      </trkpt>
      <trkpt lat="45.20383" lon="5.72673">
        <ele>537.59997558594</ele>
        <time>2021-11-26T05:56:07.000Z</time>
      </trkpt>
      <trkpt lat="45.20384" lon="5.72675">
        <ele>537.79998779297</ele>
        <time>2021-11-26T05:56:08.000Z</time>
      </trkpt>
      <trkpt lat="45.20389" lon="5.7268">
        <ele>539</ele>
        <time>2021-11-26T05:56:13.000Z</time>
      </trkpt>
      <trkpt lat="45.20391" lon="5.72685">
        <ele>540</ele>
        <time>2021-11-26T05:56:16.000Z</time>
      </trkpt>
      <trkpt lat="45.20392" lon="5.72686">
        <ele>540.20001220703</ele>
        <time>2021-11-26T05:56:17.000Z</time>
      </trkpt>
      <trkpt lat="45.20395" lon="5.72689">
        <ele>540.79998779297</ele>
        <time>2021-11-26T05:56:19.000Z</time>
      </trkpt>
      <trkpt lat="45.20399" lon="5.72693">
        <ele>541.20001220703</ele>
        <time>2021-11-26T05:56:21.000Z</time>
      </trkpt>
      <trkpt lat="45.20401" lon="5.72696">
        <ele>541.79998779297</ele>
        <time>2021-11-26T05:56:23.000Z</time>
      </trkpt>
      <trkpt lat="45.20404" lon="5.72697">
        <ele>542.20001220703</ele>
        <time>2021-11-26T05:56:25.000Z</time>
      </trkpt>
      <trkpt lat="45.2041" lon="5.72703">
        <ele>543.20001220703</ele>
        <time>2021-11-26T05:56:30.000Z</time>
      </trkpt>
      <trkpt lat="45.20412" lon="5.72704">
        <ele>543.40002441406</ele>
        <time>2021-11-26T05:56:31.000Z</time>
      </trkpt>
      <trkpt lat="45.20415" lon="5.72708">
        <ele>544.40002441406</ele>
        <time>2021-11-26T05:56:34.000Z</time>
      </trkpt>
      <trkpt lat="45.20417" lon="5.7271">
        <ele>544.79998779297</ele>
        <time>2021-11-26T05:56:35.000Z</time>
      </trkpt>
      <trkpt lat="45.20419" lon="5.72713">
        <ele>545.20001220703</ele>
        <time>2021-11-26T05:56:37.000Z</time>
      </trkpt>
      <trkpt lat="45.20421" lon="5.72714">
        <ele>545.40002441406</ele>
        <time>2021-11-26T05:56:38.000Z</time>
      </trkpt>
      <trkpt lat="45.20424" lon="5.72717">
        <ele>545.79998779297</ele>
        <time>2021-11-26T05:56:40.000Z</time>
      </trkpt>
      <trkpt lat="45.20425" lon="5.72718">
        <ele>545.79998779297</ele>
        <time>2021-11-26T05:56:41.000Z</time>
      </trkpt>
      <trkpt lat="45.20431" lon="5.72721">
        <ele>546.59997558594</ele>
        <time>2021-11-26T05:56:45.000Z</time>
      </trkpt>
      <trkpt lat="45.20435" lon="5.72722">
        <ele>547.59997558594</ele>
        <time>2021-11-26T05:56:48.000Z</time>
      </trkpt>
      <trkpt lat="45.20437" lon="5.72722">
        <ele>548</ele>
        <time>2021-11-26T05:56:49.000Z</time>
      </trkpt>
      <trkpt lat="45.20444" lon="5.7272">
        <ele>548.59997558594</ele>
        <time>2021-11-26T05:56:51.000Z</time>
      </trkpt>
      <trkpt lat="45.20449" lon="5.72718">
        <ele>549</ele>
        <time>2021-11-26T05:56:54.000Z</time>
      </trkpt>
      <trkpt lat="45.20456" lon="5.7272">
        <ele>550.20001220703</ele>
        <time>2021-11-26T05:56:58.000Z</time>
      </trkpt>
      <trkpt lat="45.20464" lon="5.72723">
        <ele>550.40002441406</ele>
        <time>2021-11-26T05:57:02.000Z</time>
      </trkpt>
      <trkpt lat="45.20466" lon="5.72723">
        <ele>550.59997558594</ele>
        <time>2021-11-26T05:57:03.000Z</time>
      </trkpt>
      <trkpt lat="45.20469" lon="5.72723">
        <ele>551.20001220703</ele>
        <time>2021-11-26T05:57:05.000Z</time>
      </trkpt>
      <trkpt lat="45.2047" lon="5.72724">
        <ele>551.40002441406</ele>
        <time>2021-11-26T05:57:06.000Z</time>
      </trkpt>
      <trkpt lat="45.20476" lon="5.72728">
        <ele>552.20001220703</ele>
        <time>2021-11-26T05:57:10.000Z</time>
      </trkpt>
      <trkpt lat="45.20478" lon="5.72728">
        <ele>552.40002441406</ele>
        <time>2021-11-26T05:57:11.000Z</time>
      </trkpt>
      <trkpt lat="45.20479" lon="5.72729">
        <ele>552.59997558594</ele>
        <time>2021-11-26T05:57:12.000Z</time>
      </trkpt>
      <trkpt lat="45.20481" lon="5.7273">
        <ele>553</ele>
        <time>2021-11-26T05:57:13.000Z</time>
      </trkpt>
      <trkpt lat="45.20483" lon="5.72733">
        <ele>553.40002441406</ele>
        <time>2021-11-26T05:57:15.000Z</time>
      </trkpt>
      <trkpt lat="45.20486" lon="5.72735">
        <ele>553.79998779297</ele>
        <time>2021-11-26T05:57:17.000Z</time>
      </trkpt>
      <trkpt lat="45.20492" lon="5.72742">
        <ele>554.59997558594</ele>
        <time>2021-11-26T05:57:21.000Z</time>
      </trkpt>
      <trkpt lat="45.20494" lon="5.72744">
        <ele>554.79998779297</ele>
        <time>2021-11-26T05:57:22.000Z</time>
      </trkpt>
      <trkpt lat="45.20501" lon="5.7275">
        <ele>556</ele>
        <time>2021-11-26T05:57:26.000Z</time>
      </trkpt>
      <trkpt lat="45.20503" lon="5.72751">
        <ele>556.20001220703</ele>
        <time>2021-11-26T05:57:27.000Z</time>
      </trkpt>
      <trkpt lat="45.2051" lon="5.72755">
        <ele>557</ele>
        <time>2021-11-26T05:57:31.000Z</time>
      </trkpt>
      <trkpt lat="45.20513" lon="5.72753">
        <ele>557.20001220703</ele>
        <time>2021-11-26T05:57:33.000Z</time>
      </trkpt>
      <trkpt lat="45.20515" lon="5.72753">
        <ele>557.20001220703</ele>
        <time>2021-11-26T05:57:34.000Z</time>
      </trkpt>
      <trkpt lat="45.20524" lon="5.72761">
        <ele>557.79998779297</ele>
        <time>2021-11-26T05:57:38.000Z</time>
      </trkpt>
      <trkpt lat="45.20526" lon="5.72764">
        <ele>558</ele>
        <time>2021-11-26T05:57:39.000Z</time>
      </trkpt>
      <trkpt lat="45.20534" lon="5.72771">
        <ele>558</ele>
        <time>2021-11-26T05:57:43.000Z</time>
      </trkpt>
      <trkpt lat="45.20541" lon="5.72778">
        <ele>557.79998779297</ele>
        <time>2021-11-26T05:57:46.000Z</time>
      </trkpt>
      <trkpt lat="45.20547" lon="5.72784">
        <ele>557.20001220703</ele>
        <time>2021-11-26T05:57:49.000Z</time>
      </trkpt>
      <trkpt lat="45.20549" lon="5.72787">
        <ele>556.79998779297</ele>
        <time>2021-11-26T05:57:50.000Z</time>
      </trkpt>
      <trkpt lat="45.20556" lon="5.728">
        <ele>556.40002441406</ele>
        <time>2021-11-26T05:57:55.000Z</time>
      </trkpt>
      <trkpt lat="45.20564" lon="5.72813">
        <ele>556.79998779297</ele>
        <time>2021-11-26T05:58:01.000Z</time>
      </trkpt>
      <trkpt lat="45.20565" lon="5.72815">
        <ele>556.79998779297</ele>
        <time>2021-11-26T05:58:02.000Z</time>
      </trkpt>
      <trkpt lat="45.20575" lon="5.72834">
        <ele>557.20001220703</ele>
        <time>2021-11-26T05:58:09.000Z</time>
      </trkpt>
      <trkpt lat="45.20579" lon="5.72839">
        <ele>557.40002441406</ele>
        <time>2021-11-26T05:58:11.000Z</time>
      </trkpt>
      <trkpt lat="45.20583" lon="5.72843">
        <ele>558</ele>
        <time>2021-11-26T05:58:13.000Z</time>
      </trkpt>
      <trkpt lat="45.20585" lon="5.72847">
        <ele>557.59997558594</ele>
        <time>2021-11-26T05:58:15.000Z</time>
      </trkpt>
      <trkpt lat="45.20599" lon="5.72861">
        <ele>556.79998779297</ele>
        <time>2021-11-26T05:58:22.000Z</time>
      </trkpt>
      <trkpt lat="45.20602" lon="5.72864">
        <ele>556.59997558594</ele>
        <time>2021-11-26T05:58:23.000Z</time>
      </trkpt>
      <trkpt lat="45.2061" lon="5.72871">
        <ele>556</ele>
        <time>2021-11-26T05:58:27.000Z</time>
      </trkpt>
      <trkpt lat="45.20614" lon="5.72874">
        <ele>555.79998779297</ele>
        <time>2021-11-26T05:58:29.000Z</time>
      </trkpt>
      <trkpt lat="45.20624" lon="5.72888">
        <ele>556.20001220703</ele>
        <time>2021-11-26T05:58:36.000Z</time>
      </trkpt>
      <trkpt lat="45.20638" lon="5.72898">
        <ele>557</ele>
        <time>2021-11-26T05:58:42.000Z</time>
      </trkpt>
      <trkpt lat="45.20639" lon="5.72901">
        <ele>557</ele>
        <time>2021-11-26T05:58:43.000Z</time>
      </trkpt>
      <trkpt lat="45.20652" lon="5.72916">
        <ele>556</ele>
        <time>2021-11-26T05:58:50.000Z</time>
      </trkpt>
      <trkpt lat="45.20653" lon="5.72918">
        <ele>555.79998779297</ele>
        <time>2021-11-26T05:58:51.000Z</time>
      </trkpt>
      <trkpt lat="45.20658" lon="5.72926">
        <ele>554.79998779297</ele>
        <time>2021-11-26T05:58:55.000Z</time>
      </trkpt>
      <trkpt lat="45.2066" lon="5.7293">
        <ele>554.40002441406</ele>
        <time>2021-11-26T05:58:57.000Z</time>
      </trkpt>
      <trkpt lat="45.20665" lon="5.72938">
        <ele>553.59997558594</ele>
        <time>2021-11-26T05:59:00.000Z</time>
      </trkpt>
      <trkpt lat="45.2067" lon="5.72946">
        <ele>552.59997558594</ele>
        <time>2021-11-26T05:59:03.000Z</time>
      </trkpt>
      <trkpt lat="45.20678" lon="5.72957">
        <ele>551.20001220703</ele>
        <time>2021-11-26T05:59:08.000Z</time>
      </trkpt>
      <trkpt lat="45.2068" lon="5.72957">
        <ele>551</ele>
        <time>2021-11-26T05:59:09.000Z</time>
      </trkpt>
      <trkpt lat="45.20693" lon="5.72967">
        <ele>550.79998779297</ele>
        <time>2021-11-26T05:59:16.000Z</time>
      </trkpt>
      <trkpt lat="45.20702" lon="5.72975">
        <ele>550.40002441406</ele>
        <time>2021-11-26T05:59:23.000Z</time>
      </trkpt>
      <trkpt lat="45.20703" lon="5.72976">
        <ele>550.20001220703</ele>
        <time>2021-11-26T05:59:24.000Z</time>
      </trkpt>
      <trkpt lat="45.20705" lon="5.72978">
        <ele>549.79998779297</ele>
        <time>2021-11-26T05:59:25.000Z</time>
      </trkpt>
      <trkpt lat="45.20706" lon="5.72979">
        <ele>549.40002441406</ele>
        <time>2021-11-26T05:59:26.000Z</time>
      </trkpt>
      <trkpt lat="45.20706" lon="5.72982">
        <ele>549</ele>
        <time>2021-11-26T05:59:27.000Z</time>
      </trkpt>
      <trkpt lat="45.20711" lon="5.7299">
        <ele>548.40002441406</ele>
        <time>2021-11-26T05:59:31.000Z</time>
      </trkpt>
      <trkpt lat="45.20712" lon="5.72992">
        <ele>547.79998779297</ele>
        <time>2021-11-26T05:59:32.000Z</time>
      </trkpt>
      <trkpt lat="45.20718" lon="5.72999">
        <ele>546.79998779297</ele>
        <time>2021-11-26T05:59:38.000Z</time>
      </trkpt>
      <trkpt lat="45.20719" lon="5.73001">
        <ele>546.59997558594</ele>
        <time>2021-11-26T05:59:39.000Z</time>
      </trkpt>
      <trkpt lat="45.20723" lon="5.73008">
        <ele>545.79998779297</ele>
        <time>2021-11-26T05:59:44.000Z</time>
      </trkpt>
      <trkpt lat="45.20724" lon="5.7301">
        <ele>545.59997558594</ele>
        <time>2021-11-26T05:59:45.000Z</time>
      </trkpt>
      <trkpt lat="45.20725" lon="5.73013">
        <ele>545</ele>
        <time>2021-11-26T05:59:46.000Z</time>
      </trkpt>
      <trkpt lat="45.20727" lon="5.73018">
        <ele>544.59997558594</ele>
        <time>2021-11-26T05:59:49.000Z</time>
      </trkpt>
      <trkpt lat="45.20729" lon="5.73019">
        <ele>544.40002441406</ele>
        <time>2021-11-26T05:59:50.000Z</time>
      </trkpt>
      <trkpt lat="45.2073" lon="5.7302">
        <ele>544.20001220703</ele>
        <time>2021-11-26T05:59:51.000Z</time>
      </trkpt>
      <trkpt lat="45.20734" lon="5.73023">
        <ele>544</ele>
        <time>2021-11-26T05:59:55.000Z</time>
      </trkpt>
      <trkpt lat="45.20735" lon="5.73025">
        <ele>543.79998779297</ele>
        <time>2021-11-26T05:59:56.000Z</time>
      </trkpt>
      <trkpt lat="45.20742" lon="5.73033">
        <ele>543.59997558594</ele>
        <time>2021-11-26T06:00:01.000Z</time>
      </trkpt>
      <trkpt lat="45.20744" lon="5.73034">
        <ele>543.40002441406</ele>
        <time>2021-11-26T06:00:03.000Z</time>
      </trkpt>
      <trkpt lat="45.20746" lon="5.73035">
        <ele>543.40002441406</ele>
        <time>2021-11-26T06:00:04.000Z</time>
      </trkpt>
      <trkpt lat="45.20749" lon="5.73038">
        <ele>543.20001220703</ele>
        <time>2021-11-26T06:00:07.000Z</time>
      </trkpt>
      <trkpt lat="45.20753" lon="5.73043">
        <ele>542.79998779297</ele>
        <time>2021-11-26T06:00:10.000Z</time>
      </trkpt>
      <trkpt lat="45.20758" lon="5.73047">
        <ele>542.79998779297</ele>
        <time>2021-11-26T06:00:13.000Z</time>
      </trkpt>
      <trkpt lat="45.20762" lon="5.7305">
        <ele>542.40002441406</ele>
        <time>2021-11-26T06:00:15.000Z</time>
      </trkpt>
      <trkpt lat="45.20767" lon="5.73056">
        <ele>541.59997558594</ele>
        <time>2021-11-26T06:00:18.000Z</time>
      </trkpt>
      <trkpt lat="45.2077" lon="5.7306">
        <ele>541.40002441406</ele>
        <time>2021-11-26T06:00:20.000Z</time>
      </trkpt>
      <trkpt lat="45.20771" lon="5.73062">
        <ele>541.20001220703</ele>
        <time>2021-11-26T06:00:21.000Z</time>
      </trkpt>
      <trkpt lat="45.20772" lon="5.73063">
        <ele>541</ele>
        <time>2021-11-26T06:00:22.000Z</time>
      </trkpt>
      <trkpt lat="45.20775" lon="5.73068">
        <ele>540.20001220703</ele>
        <time>2021-11-26T06:00:25.000Z</time>
      </trkpt>
      <trkpt lat="45.20776" lon="5.7307">
        <ele>539.79998779297</ele>
        <time>2021-11-26T06:00:26.000Z</time>
      </trkpt>
      <trkpt lat="45.20779" lon="5.73073">
        <ele>539.40002441406</ele>
        <time>2021-11-26T06:00:28.000Z</time>
      </trkpt>
      <trkpt lat="45.20781" lon="5.73077">
        <ele>538.79998779297</ele>
        <time>2021-11-26T06:00:30.000Z</time>
      </trkpt>
      <trkpt lat="45.20782" lon="5.73079">
        <ele>538.40002441406</ele>
        <time>2021-11-26T06:00:31.000Z</time>
      </trkpt>
      <trkpt lat="45.20783" lon="5.73081">
        <ele>537.79998779297</ele>
        <time>2021-11-26T06:00:34.000Z</time>
      </trkpt>
      <trkpt lat="45.20784" lon="5.73082">
        <ele>537.40002441406</ele>
        <time>2021-11-26T06:00:35.000Z</time>
      </trkpt>
      <trkpt lat="45.20786" lon="5.73086">
        <ele>536.59997558594</ele>
        <time>2021-11-26T06:00:38.000Z</time>
      </trkpt>
      <trkpt lat="45.20786" lon="5.73089">
        <ele>535.40002441406</ele>
        <time>2021-11-26T06:00:41.000Z</time>
      </trkpt>
      <trkpt lat="45.20786" lon="5.7309">
        <ele>535</ele>
        <time>2021-11-26T06:00:42.000Z</time>
      </trkpt>
      <trkpt lat="45.20786" lon="5.73094">
        <ele>534.20001220703</ele>
        <time>2021-11-26T06:00:44.000Z</time>
      </trkpt>
      <trkpt lat="45.20789" lon="5.731">
        <ele>533.40002441406</ele>
        <time>2021-11-26T06:00:47.000Z</time>
      </trkpt>
      <trkpt lat="45.2079" lon="5.73102">
        <ele>533</ele>
        <time>2021-11-26T06:00:48.000Z</time>
      </trkpt>
      <trkpt lat="45.20791" lon="5.73104">
        <ele>532.79998779297</ele>
        <time>2021-11-26T06:00:49.000Z</time>
      </trkpt>
      <trkpt lat="45.20793" lon="5.73108">
        <ele>532</ele>
        <time>2021-11-26T06:00:52.000Z</time>
      </trkpt>
      <trkpt lat="45.20795" lon="5.73111">
        <ele>531.59997558594</ele>
        <time>2021-11-26T06:00:54.000Z</time>
      </trkpt>
      <trkpt lat="45.20796" lon="5.73113">
        <ele>531.40002441406</ele>
        <time>2021-11-26T06:00:56.000Z</time>
      </trkpt>
      <trkpt lat="45.20798" lon="5.73116">
        <ele>530.79998779297</ele>
        <time>2021-11-26T06:00:58.000Z</time>
      </trkpt>
      <trkpt lat="45.20801" lon="5.7312">
        <ele>530.20001220703</ele>
        <time>2021-11-26T06:01:00.000Z</time>
      </trkpt>
      <trkpt lat="45.20803" lon="5.73124">
        <ele>529.59997558594</ele>
        <time>2021-11-26T06:01:02.000Z</time>
      </trkpt>
      <trkpt lat="45.20804" lon="5.73126">
        <ele>529.20001220703</ele>
        <time>2021-11-26T06:01:03.000Z</time>
      </trkpt>
      <trkpt lat="45.20806" lon="5.73132">
        <ele>528.40002441406</ele>
        <time>2021-11-26T06:01:06.000Z</time>
      </trkpt>
      <trkpt lat="45.20807" lon="5.73133">
        <ele>528</ele>
        <time>2021-11-26T06:01:07.000Z</time>
      </trkpt>
      <trkpt lat="45.20808" lon="5.73134">
        <ele>527.79998779297</ele>
        <time>2021-11-26T06:01:08.000Z</time>
      </trkpt>
      <trkpt lat="45.2081" lon="5.73138">
        <ele>527.20001220703</ele>
        <time>2021-11-26T06:01:10.000Z</time>
      </trkpt>
      <trkpt lat="45.20814" lon="5.73144">
        <ele>526.59997558594</ele>
        <time>2021-11-26T06:01:13.000Z</time>
      </trkpt>
      <trkpt lat="45.20816" lon="5.73148">
        <ele>526.40002441406</ele>
        <time>2021-11-26T06:01:15.000Z</time>
      </trkpt>
      <trkpt lat="45.20816" lon="5.7315">
        <ele>526.20001220703</ele>
        <time>2021-11-26T06:01:16.000Z</time>
      </trkpt>
      <trkpt lat="45.20817" lon="5.73152">
        <ele>525.79998779297</ele>
        <time>2021-11-26T06:01:17.000Z</time>
      </trkpt>
      <trkpt lat="45.20819" lon="5.73155">
        <ele>525.20001220703</ele>
        <time>2021-11-26T06:01:20.000Z</time>
      </trkpt>
      <trkpt lat="45.20822" lon="5.73163">
        <ele>524</ele>
        <time>2021-11-26T06:01:24.000Z</time>
      </trkpt>
      <trkpt lat="45.20823" lon="5.73164">
        <ele>523.79998779297</ele>
        <time>2021-11-26T06:01:25.000Z</time>
      </trkpt>
      <trkpt lat="45.20824" lon="5.73165">
        <ele>523.40002441406</ele>
        <time>2021-11-26T06:01:26.000Z</time>
      </trkpt>
      <trkpt lat="45.20825" lon="5.73167">
        <ele>522.59997558594</ele>
        <time>2021-11-26T06:01:28.000Z</time>
      </trkpt>
      <trkpt lat="45.20827" lon="5.73169">
        <ele>522.20001220703</ele>
        <time>2021-11-26T06:01:30.000Z</time>
      </trkpt>
      <trkpt lat="45.20828" lon="5.73172">
        <ele>521.40002441406</ele>
        <time>2021-11-26T06:01:33.000Z</time>
      </trkpt>
      <trkpt lat="45.2083" lon="5.73181">
        <ele>520.40002441406</ele>
        <time>2021-11-26T06:01:37.000Z</time>
      </trkpt>
      <trkpt lat="45.2083" lon="5.73184">
        <ele>520</ele>
        <time>2021-11-26T06:01:38.000Z</time>
      </trkpt>
      <trkpt lat="45.20831" lon="5.73185">
        <ele>519.59997558594</ele>
        <time>2021-11-26T06:01:39.000Z</time>
      </trkpt>
      <trkpt lat="45.20831" lon="5.73186">
        <ele>519.40002441406</ele>
        <time>2021-11-26T06:01:40.000Z</time>
      </trkpt>
      <trkpt lat="45.20832" lon="5.73187">
        <ele>518.59997558594</ele>
        <time>2021-11-26T06:01:42.000Z</time>
      </trkpt>
      <trkpt lat="45.20833" lon="5.73189">
        <ele>518</ele>
        <time>2021-11-26T06:01:44.000Z</time>
      </trkpt>
      <trkpt lat="45.20835" lon="5.73195">
        <ele>517.40002441406</ele>
        <time>2021-11-26T06:01:46.000Z</time>
      </trkpt>
      <trkpt lat="45.20836" lon="5.73199">
        <ele>517.20001220703</ele>
        <time>2021-11-26T06:01:48.000Z</time>
      </trkpt>
      <trkpt lat="45.20837" lon="5.73201">
        <ele>516.79998779297</ele>
        <time>2021-11-26T06:01:49.000Z</time>
      </trkpt>
      <trkpt lat="45.20843" lon="5.73209">
        <ele>516</ele>
        <time>2021-11-26T06:01:53.000Z</time>
      </trkpt>
      <trkpt lat="45.20844" lon="5.73215">
        <ele>515.79998779297</ele>
        <time>2021-11-26T06:01:55.000Z</time>
      </trkpt>
      <trkpt lat="45.20846" lon="5.73224">
        <ele>515.40002441406</ele>
        <time>2021-11-26T06:01:58.000Z</time>
      </trkpt>
      <trkpt lat="45.20849" lon="5.73233">
        <ele>514.79998779297</ele>
        <time>2021-11-26T06:02:03.000Z</time>
      </trkpt>
      <trkpt lat="45.20854" lon="5.73242">
        <ele>514.20001220703</ele>
        <time>2021-11-26T06:02:07.000Z</time>
      </trkpt>
      <trkpt lat="45.20858" lon="5.73249">
        <ele>514</ele>
        <time>2021-11-26T06:02:10.000Z</time>
      </trkpt>
      <trkpt lat="45.20866" lon="5.73261">
        <ele>513.79998779297</ele>
        <time>2021-11-26T06:02:16.000Z</time>
      </trkpt>
      <trkpt lat="45.20868" lon="5.73265">
        <ele>512.59997558594</ele>
        <time>2021-11-26T06:02:19.000Z</time>
      </trkpt>
      <trkpt lat="45.20869" lon="5.73268">
        <ele>511.79998779297</ele>
        <time>2021-11-26T06:02:21.000Z</time>
      </trkpt>
      <trkpt lat="45.2087" lon="5.73271">
        <ele>511.60000610352</ele>
        <time>2021-11-26T06:02:22.000Z</time>
      </trkpt>
      <trkpt lat="45.20871" lon="5.73276">
        <ele>510.39999389648</ele>
        <time>2021-11-26T06:02:26.000Z</time>
      </trkpt>
      <trkpt lat="45.20872" lon="5.73277">
        <ele>510</ele>
        <time>2021-11-26T06:02:27.000Z</time>
      </trkpt>
      <trkpt lat="45.20873" lon="5.7328">
        <ele>509.20001220703</ele>
        <time>2021-11-26T06:02:29.000Z</time>
      </trkpt>
      <trkpt lat="45.20873" lon="5.73282">
        <ele>508.60000610352</ele>
        <time>2021-11-26T06:02:31.000Z</time>
      </trkpt>
      <trkpt lat="45.20873" lon="5.73284">
        <ele>508</ele>
        <time>2021-11-26T06:02:33.000Z</time>
      </trkpt>
      <trkpt lat="45.20872" lon="5.73287">
        <ele>507</ele>
        <time>2021-11-26T06:02:36.000Z</time>
      </trkpt>
      <trkpt lat="45.20873" lon="5.73288">
        <ele>506.60000610352</ele>
        <time>2021-11-26T06:02:37.000Z</time>
      </trkpt>
      <trkpt lat="45.20872" lon="5.73292">
        <ele>505.20001220703</ele>
        <time>2021-11-26T06:02:41.000Z</time>
      </trkpt>
      <trkpt lat="45.20871" lon="5.73292">
        <ele>504.79998779297</ele>
        <time>2021-11-26T06:02:42.000Z</time>
      </trkpt>
      <trkpt lat="45.2087" lon="5.73291">
        <ele>504.60000610352</ele>
        <time>2021-11-26T06:02:43.000Z</time>
      </trkpt>
      <trkpt lat="45.2087" lon="5.7329">
        <ele>504.20001220703</ele>
        <time>2021-11-26T06:02:44.000Z</time>
      </trkpt>
      <trkpt lat="45.20869" lon="5.73291">
        <ele>503.20001220703</ele>
        <time>2021-11-26T06:02:47.000Z</time>
      </trkpt>
      <trkpt lat="45.20868" lon="5.7329">
        <ele>503</ele>
        <time>2021-11-26T06:02:48.000Z</time>
      </trkpt>
      <trkpt lat="45.20867" lon="5.7329">
        <ele>502.39999389648</ele>
        <time>2021-11-26T06:02:50.000Z</time>
      </trkpt>
      <trkpt lat="45.20863" lon="5.7329">
        <ele>501.60000610352</ele>
        <time>2021-11-26T06:02:53.000Z</time>
      </trkpt>
      <trkpt lat="45.20862" lon="5.73289">
        <ele>501</ele>
        <time>2021-11-26T06:02:55.000Z</time>
      </trkpt>
      <trkpt lat="45.20861" lon="5.73287">
        <ele>500.20001220703</ele>
        <time>2021-11-26T06:02:57.000Z</time>
      </trkpt>
      <trkpt lat="45.2086" lon="5.73287">
        <ele>500</ele>
        <time>2021-11-26T06:02:58.000Z</time>
      </trkpt>
      <trkpt lat="45.20858" lon="5.73286">
        <ele>499</ele>
        <time>2021-11-26T06:03:01.000Z</time>
      </trkpt>
      <trkpt lat="45.20857" lon="5.73285">
        <ele>498.60000610352</ele>
        <time>2021-11-26T06:03:03.000Z</time>
      </trkpt>
      <trkpt lat="45.20855" lon="5.73284">
        <ele>498</ele>
        <time>2021-11-26T06:03:05.000Z</time>
      </trkpt>
      <trkpt lat="45.20854" lon="5.73284">
        <ele>497.60000610352</ele>
        <time>2021-11-26T06:03:06.000Z</time>
      </trkpt>
      <trkpt lat="45.20853" lon="5.73283">
        <ele>496.79998779297</ele>
        <time>2021-11-26T06:03:09.000Z</time>
      </trkpt>
      <trkpt lat="45.20854" lon="5.73284">
        <ele>496.60000610352</ele>
        <time>2021-11-26T06:03:10.000Z</time>
      </trkpt>
      <trkpt lat="45.20853" lon="5.73284">
        <ele>495.79998779297</ele>
        <time>2021-11-26T06:03:14.000Z</time>
      </trkpt>
      <trkpt lat="45.20852" lon="5.73285">
        <ele>495.60000610352</ele>
        <time>2021-11-26T06:03:16.000Z</time>
      </trkpt>
      <trkpt lat="45.20853" lon="5.73285">
        <ele>495.39999389648</ele>
        <time>2021-11-26T06:03:17.000Z</time>
      </trkpt>
      <trkpt lat="45.20853" lon="5.73287">
        <ele>494.79998779297</ele>
        <time>2021-11-26T06:03:19.000Z</time>
      </trkpt>
      <trkpt lat="45.20853" lon="5.7329">
        <ele>494</ele>
        <time>2021-11-26T06:03:21.000Z</time>
      </trkpt>
      <trkpt lat="45.20852" lon="5.73296">
        <ele>492.79998779297</ele>
        <time>2021-11-26T06:03:24.000Z</time>
      </trkpt>
      <trkpt lat="45.20852" lon="5.733">
        <ele>492</ele>
        <time>2021-11-26T06:03:26.000Z</time>
      </trkpt>
      <trkpt lat="45.20852" lon="5.73302">
        <ele>491.79998779297</ele>
        <time>2021-11-26T06:03:27.000Z</time>
      </trkpt>
      <trkpt lat="45.20852" lon="5.73306">
        <ele>491.20001220703</ele>
        <time>2021-11-26T06:03:29.000Z</time>
      </trkpt>
      <trkpt lat="45.20854" lon="5.73309">
        <ele>490.60000610352</ele>
        <time>2021-11-26T06:03:31.000Z</time>
      </trkpt>
      <trkpt lat="45.20855" lon="5.73311">
        <ele>490</ele>
        <time>2021-11-26T06:03:33.000Z</time>
      </trkpt>
      <trkpt lat="45.20855" lon="5.73313">
        <ele>489.60000610352</ele>
        <time>2021-11-26T06:03:34.000Z</time>
      </trkpt>
      <trkpt lat="45.20855" lon="5.73313">
        <ele>489.39999389648</ele>
        <time>2021-11-26T06:03:35.000Z</time>
      </trkpt>
      <trkpt lat="45.20854" lon="5.73314">
        <ele>489</ele>
        <time>2021-11-26T06:03:38.000Z</time>
      </trkpt>
      <trkpt lat="45.20855" lon="5.73312">
        <ele>489</ele>
        <time>2021-11-26T06:03:47.000Z</time>
      </trkpt>
      <trkpt lat="45.20855" lon="5.73312">
        <ele>489</ele>
        <time>2021-11-26T06:03:52.000Z</time>
      </trkpt>
      <trkpt lat="45.20855" lon="5.73312">
        <ele>489</ele>
        <time>2021-11-26T06:03:55.000Z</time>
      </trkpt>
      <trkpt lat="45.20855" lon="5.73312">
        <ele>488.39999389648</ele>
        <time>2021-11-26T06:04:03.000Z</time>
      </trkpt>
      <trkpt lat="45.20855" lon="5.73315">
        <ele>487.79998779297</ele>
        <time>2021-11-26T06:04:06.000Z</time>
      </trkpt>
      <trkpt lat="45.20855" lon="5.73318">
        <ele>487.20001220703</ele>
        <time>2021-11-26T06:04:08.000Z</time>
      </trkpt>
      <trkpt lat="45.20855" lon="5.73319">
        <ele>487</ele>
        <time>2021-11-26T06:04:09.000Z</time>
      </trkpt>
      <trkpt lat="45.20855" lon="5.73322">
        <ele>486.20001220703</ele>
        <time>2021-11-26T06:04:11.000Z</time>
      </trkpt>
      <trkpt lat="45.20856" lon="5.73325">
        <ele>485.39999389648</ele>
        <time>2021-11-26T06:04:13.000Z</time>
      </trkpt>
      <trkpt lat="45.20856" lon="5.73325">
        <ele>485</ele>
        <time>2021-11-26T06:04:14.000Z</time>
      </trkpt>
      <trkpt lat="45.20856" lon="5.73327">
        <ele>484.20001220703</ele>
        <time>2021-11-26T06:04:16.000Z</time>
      </trkpt>
      <trkpt lat="45.20857" lon="5.73327">
        <ele>484</ele>
        <time>2021-11-26T06:04:17.000Z</time>
      </trkpt>
      <trkpt lat="45.20858" lon="5.73327">
        <ele>483.60000610352</ele>
        <time>2021-11-26T06:04:18.000Z</time>
      </trkpt>
      <trkpt lat="45.20859" lon="5.73327">
        <ele>483.39999389648</ele>
        <time>2021-11-26T06:04:19.000Z</time>
      </trkpt>
      <trkpt lat="45.20861" lon="5.73326">
        <ele>482.39999389648</ele>
        <time>2021-11-26T06:04:22.000Z</time>
      </trkpt>
      <trkpt lat="45.20861" lon="5.73326">
        <ele>482.20001220703</ele>
        <time>2021-11-26T06:04:23.000Z</time>
      </trkpt>
      <trkpt lat="45.20862" lon="5.73327">
        <ele>481.79998779297</ele>
        <time>2021-11-26T06:04:24.000Z</time>
      </trkpt>
      <trkpt lat="45.20864" lon="5.73327">
        <ele>481.20001220703</ele>
        <time>2021-11-26T06:04:26.000Z</time>
      </trkpt>
      <trkpt lat="45.20867" lon="5.73328">
        <ele>480</ele>
        <time>2021-11-26T06:04:29.000Z</time>
      </trkpt>
      <trkpt lat="45.20869" lon="5.73329">
        <ele>479.20001220703</ele>
        <time>2021-11-26T06:04:32.000Z</time>
      </trkpt>
      <trkpt lat="45.2087" lon="5.73329">
        <ele>478.79998779297</ele>
        <time>2021-11-26T06:04:33.000Z</time>
      </trkpt>
      <trkpt lat="45.20872" lon="5.7333">
        <ele>477.60000610352</ele>
        <time>2021-11-26T06:04:36.000Z</time>
      </trkpt>
      <trkpt lat="45.20872" lon="5.7333">
        <ele>477.20001220703</ele>
        <time>2021-11-26T06:04:37.000Z</time>
      </trkpt>
      <trkpt lat="45.20873" lon="5.73331">
        <ele>477</ele>
        <time>2021-11-26T06:04:38.000Z</time>
      </trkpt>
      <trkpt lat="45.20874" lon="5.73332">
        <ele>476.39999389648</ele>
        <time>2021-11-26T06:04:40.000Z</time>
      </trkpt>
      <trkpt lat="45.20875" lon="5.73333">
        <ele>476</ele>
        <time>2021-11-26T06:04:41.000Z</time>
      </trkpt>
      <trkpt lat="45.20876" lon="5.73334">
        <ele>475.20001220703</ele>
        <time>2021-11-26T06:04:43.000Z</time>
      </trkpt>
      <trkpt lat="45.20876" lon="5.73334">
        <ele>475</ele>
        <time>2021-11-26T06:04:44.000Z</time>
      </trkpt>
      <trkpt lat="45.20877" lon="5.73334">
        <ele>474.79998779297</ele>
        <time>2021-11-26T06:04:45.000Z</time>
      </trkpt>
      <trkpt lat="45.20879" lon="5.73335">
        <ele>474.20001220703</ele>
        <time>2021-11-26T06:04:47.000Z</time>
      </trkpt>
      <trkpt lat="45.2088" lon="5.73336">
        <ele>474</ele>
        <time>2021-11-26T06:04:48.000Z</time>
      </trkpt>
      <trkpt lat="45.20884" lon="5.73339">
        <ele>473</ele>
        <time>2021-11-26T06:04:51.000Z</time>
      </trkpt>
      <trkpt lat="45.20885" lon="5.73339">
        <ele>472.60000610352</ele>
        <time>2021-11-26T06:04:52.000Z</time>
      </trkpt>
      <trkpt lat="45.20886" lon="5.7334">
        <ele>472</ele>
        <time>2021-11-26T06:04:53.000Z</time>
      </trkpt>
      <trkpt lat="45.20887" lon="5.73341">
        <ele>471.60000610352</ele>
        <time>2021-11-26T06:04:54.000Z</time>
      </trkpt>
      <trkpt lat="45.20888" lon="5.73343">
        <ele>471.20001220703</ele>
        <time>2021-11-26T06:04:55.000Z</time>
      </trkpt>
      <trkpt lat="45.2089" lon="5.73347">
        <ele>470.39999389648</ele>
        <time>2021-11-26T06:04:57.000Z</time>
      </trkpt>
      <trkpt lat="45.20892" lon="5.73349">
        <ele>469.60000610352</ele>
        <time>2021-11-26T06:04:59.000Z</time>
      </trkpt>
      <trkpt lat="45.20893" lon="5.73349">
        <ele>469.20001220703</ele>
        <time>2021-11-26T06:05:00.000Z</time>
      </trkpt>
      <trkpt lat="45.20896" lon="5.7335">
        <ele>468.39999389648</ele>
        <time>2021-11-26T06:05:03.000Z</time>
      </trkpt>
      <trkpt lat="45.20898" lon="5.7335">
        <ele>468</ele>
        <time>2021-11-26T06:05:04.000Z</time>
      </trkpt>
      <trkpt lat="45.209" lon="5.73351">
        <ele>467</ele>
        <time>2021-11-26T06:05:07.000Z</time>
      </trkpt>
      <trkpt lat="45.20901" lon="5.73352">
        <ele>466.60000610352</ele>
        <time>2021-11-26T06:05:08.000Z</time>
      </trkpt>
      <trkpt lat="45.20901" lon="5.73354">
        <ele>466.20001220703</ele>
        <time>2021-11-26T06:05:09.000Z</time>
      </trkpt>
      <trkpt lat="45.20901" lon="5.73354">
        <ele>465.60000610352</ele>
        <time>2021-11-26T06:05:10.000Z</time>
      </trkpt>
      <trkpt lat="45.20904" lon="5.7336">
        <ele>464.39999389648</ele>
        <time>2021-11-26T06:05:14.000Z</time>
      </trkpt>
      <trkpt lat="45.20904" lon="5.73362">
        <ele>463.39999389648</ele>
        <time>2021-11-26T06:05:17.000Z</time>
      </trkpt>
      <trkpt lat="45.20904" lon="5.73363">
        <ele>462.60000610352</ele>
        <time>2021-11-26T06:05:19.000Z</time>
      </trkpt>
      <trkpt lat="45.20905" lon="5.73364">
        <ele>462.20001220703</ele>
        <time>2021-11-26T06:05:21.000Z</time>
      </trkpt>
      <trkpt lat="45.20906" lon="5.73369">
        <ele>460.79998779297</ele>
        <time>2021-11-26T06:05:24.000Z</time>
      </trkpt>
      <trkpt lat="45.20907" lon="5.73372">
        <ele>459.60000610352</ele>
        <time>2021-11-26T06:05:27.000Z</time>
      </trkpt>
      <trkpt lat="45.20908" lon="5.73374">
        <ele>458.79998779297</ele>
        <time>2021-11-26T06:05:29.000Z</time>
      </trkpt>
      <trkpt lat="45.20908" lon="5.73375">
        <ele>458.39999389648</ele>
        <time>2021-11-26T06:05:30.000Z</time>
      </trkpt>
      <trkpt lat="45.20909" lon="5.73377">
        <ele>458</ele>
        <time>2021-11-26T06:05:31.000Z</time>
      </trkpt>
      <trkpt lat="45.20911" lon="5.73379">
        <ele>457</ele>
        <time>2021-11-26T06:05:33.000Z</time>
      </trkpt>
      <trkpt lat="45.20917" lon="5.73383">
        <ele>455.60000610352</ele>
        <time>2021-11-26T06:05:37.000Z</time>
      </trkpt>
      <trkpt lat="45.20918" lon="5.73384">
        <ele>455.20001220703</ele>
        <time>2021-11-26T06:05:38.000Z</time>
      </trkpt>
      <trkpt lat="45.20929" lon="5.7339">
        <ele>454.79998779297</ele>
        <time>2021-11-26T06:05:43.000Z</time>
      </trkpt>
      <trkpt lat="45.20931" lon="5.7339">
        <ele>455</ele>
        <time>2021-11-26T06:05:44.000Z</time>
      </trkpt>
      <trkpt lat="45.20933" lon="5.7339">
        <ele>455.20001220703</ele>
        <time>2021-11-26T06:05:45.000Z</time>
      </trkpt>
      <trkpt lat="45.20936" lon="5.73391">
        <ele>455.60000610352</ele>
        <time>2021-11-26T06:05:47.000Z</time>
      </trkpt>
      <trkpt lat="45.20938" lon="5.73391">
        <ele>456</ele>
        <time>2021-11-26T06:05:48.000Z</time>
      </trkpt>
      <trkpt lat="45.2094" lon="5.73391">
        <ele>456.20001220703</ele>
        <time>2021-11-26T06:05:50.000Z</time>
      </trkpt>
      <trkpt lat="45.20942" lon="5.73392">
        <ele>456.20001220703</ele>
        <time>2021-11-26T06:05:52.000Z</time>
      </trkpt>
      <trkpt lat="45.20944" lon="5.73394">
        <ele>456</ele>
        <time>2021-11-26T06:05:53.000Z</time>
      </trkpt>
      <trkpt lat="45.20945" lon="5.73396">
        <ele>455.39999389648</ele>
        <time>2021-11-26T06:05:55.000Z</time>
      </trkpt>
      <trkpt lat="45.20948" lon="5.73398">
        <ele>454.60000610352</ele>
        <time>2021-11-26T06:05:59.000Z</time>
      </trkpt>
      <trkpt lat="45.2095" lon="5.73402">
        <ele>453.39999389648</ele>
        <time>2021-11-26T06:06:03.000Z</time>
      </trkpt>
      <trkpt lat="45.2095" lon="5.73403">
        <ele>452.39999389648</ele>
        <time>2021-11-26T06:06:06.000Z</time>
      </trkpt>
      <trkpt lat="45.20952" lon="5.73403">
        <ele>451.20001220703</ele>
        <time>2021-11-26T06:06:09.000Z</time>
      </trkpt>
      <trkpt lat="45.20955" lon="5.73406">
        <ele>450.39999389648</ele>
        <time>2021-11-26T06:06:12.000Z</time>
      </trkpt>
      <trkpt lat="45.20957" lon="5.73407">
        <ele>450</ele>
        <time>2021-11-26T06:06:14.000Z</time>
      </trkpt>
      <trkpt lat="45.20958" lon="5.73408">
        <ele>449.79998779297</ele>
        <time>2021-11-26T06:06:15.000Z</time>
      </trkpt>
      <trkpt lat="45.20959" lon="5.73411">
        <ele>449</ele>
        <time>2021-11-26T06:06:18.000Z</time>
      </trkpt>
      <trkpt lat="45.20959" lon="5.73414">
        <ele>447.79998779297</ele>
        <time>2021-11-26T06:06:21.000Z</time>
      </trkpt>
      <trkpt lat="45.2096" lon="5.73415">
        <ele>447.39999389648</ele>
        <time>2021-11-26T06:06:22.000Z</time>
      </trkpt>
      <trkpt lat="45.20961" lon="5.73417">
        <ele>446.60000610352</ele>
        <time>2021-11-26T06:06:24.000Z</time>
      </trkpt>
      <trkpt lat="45.20962" lon="5.73421">
        <ele>445.39999389648</ele>
        <time>2021-11-26T06:06:28.000Z</time>
      </trkpt>
      <trkpt lat="45.20963" lon="5.73425">
        <ele>444.20001220703</ele>
        <time>2021-11-26T06:06:32.000Z</time>
      </trkpt>
      <trkpt lat="45.20963" lon="5.73429">
        <ele>443</ele>
        <time>2021-11-26T06:06:36.000Z</time>
      </trkpt>
      <trkpt lat="45.20964" lon="5.73429">
        <ele>442.79998779297</ele>
        <time>2021-11-26T06:06:37.000Z</time>
      </trkpt>
      <trkpt lat="45.20965" lon="5.7343">
        <ele>442</ele>
        <time>2021-11-26T06:06:40.000Z</time>
      </trkpt>
      <trkpt lat="45.20966" lon="5.73431">
        <ele>441.39999389648</ele>
        <time>2021-11-26T06:06:42.000Z</time>
      </trkpt>
      <trkpt lat="45.20967" lon="5.73431">
        <ele>441</ele>
        <time>2021-11-26T06:06:43.000Z</time>
      </trkpt>
      <trkpt lat="45.20969" lon="5.73432">
        <ele>440.60000610352</ele>
        <time>2021-11-26T06:06:44.000Z</time>
      </trkpt>
      <trkpt lat="45.20971" lon="5.73433">
        <ele>439.79998779297</ele>
        <time>2021-11-26T06:06:47.000Z</time>
      </trkpt>
      <trkpt lat="45.20972" lon="5.73433">
        <ele>439.39999389648</ele>
        <time>2021-11-26T06:06:49.000Z</time>
      </trkpt>
      <trkpt lat="45.20973" lon="5.73433">
        <ele>438.79998779297</ele>
        <time>2021-11-26T06:06:50.000Z</time>
      </trkpt>
      <trkpt lat="45.20975" lon="5.73435">
        <ele>438.20001220703</ele>
        <time>2021-11-26T06:06:52.000Z</time>
      </trkpt>
      <trkpt lat="45.20976" lon="5.73436">
        <ele>437.39999389648</ele>
        <time>2021-11-26T06:06:54.000Z</time>
      </trkpt>
      <trkpt lat="45.20977" lon="5.73437">
        <ele>437</ele>
        <time>2021-11-26T06:06:55.000Z</time>
      </trkpt>
      <trkpt lat="45.20978" lon="5.73437">
        <ele>436.39999389648</ele>
        <time>2021-11-26T06:06:56.000Z</time>
      </trkpt>
      <trkpt lat="45.2098" lon="5.73438">
        <ele>435.79998779297</ele>
        <time>2021-11-26T06:06:58.000Z</time>
      </trkpt>
      <trkpt lat="45.20984" lon="5.7344">
        <ele>434.79998779297</ele>
        <time>2021-11-26T06:07:01.000Z</time>
      </trkpt>
      <trkpt lat="45.20988" lon="5.73441">
        <ele>433.79998779297</ele>
        <time>2021-11-26T06:07:04.000Z</time>
      </trkpt>
      <trkpt lat="45.2099" lon="5.73442">
        <ele>433.20001220703</ele>
        <time>2021-11-26T06:07:05.000Z</time>
      </trkpt>
      <trkpt lat="45.20991" lon="5.73443">
        <ele>432.79998779297</ele>
        <time>2021-11-26T06:07:06.000Z</time>
      </trkpt>
      <trkpt lat="45.20992" lon="5.73445">
        <ele>432</ele>
        <time>2021-11-26T06:07:08.000Z</time>
      </trkpt>
      <trkpt lat="45.20993" lon="5.73447">
        <ele>431.60000610352</ele>
        <time>2021-11-26T06:07:10.000Z</time>
      </trkpt>
      <trkpt lat="45.20993" lon="5.73448">
        <ele>431</ele>
        <time>2021-11-26T06:07:11.000Z</time>
      </trkpt>
      <trkpt lat="45.20994" lon="5.73449">
        <ele>430.79998779297</ele>
        <time>2021-11-26T06:07:12.000Z</time>
      </trkpt>
      <trkpt lat="45.20998" lon="5.73452">
        <ele>429.60000610352</ele>
        <time>2021-11-26T06:07:16.000Z</time>
      </trkpt>
      <trkpt lat="45.20998" lon="5.73453">
        <ele>429.20001220703</ele>
        <time>2021-11-26T06:07:17.000Z</time>
      </trkpt>
      <trkpt lat="45.21" lon="5.73451">
        <ele>428.60000610352</ele>
        <time>2021-11-26T06:07:20.000Z</time>
      </trkpt>
      <trkpt lat="45.21" lon="5.73451">
        <ele>428.39999389648</ele>
        <time>2021-11-26T06:07:21.000Z</time>
      </trkpt>
      <trkpt lat="45.21001" lon="5.73451">
        <ele>428</ele>
        <time>2021-11-26T06:07:22.000Z</time>
      </trkpt>
      <trkpt lat="45.21002" lon="5.73451">
        <ele>427.79998779297</ele>
        <time>2021-11-26T06:07:23.000Z</time>
      </trkpt>
      <trkpt lat="45.21003" lon="5.73451">
        <ele>427.39999389648</ele>
        <time>2021-11-26T06:07:24.000Z</time>
      </trkpt>
      <trkpt lat="45.21007" lon="5.73453">
        <ele>426.20001220703</ele>
        <time>2021-11-26T06:07:29.000Z</time>
      </trkpt>
      <trkpt lat="45.21009" lon="5.73456">
        <ele>425</ele>
        <time>2021-11-26T06:07:34.000Z</time>
      </trkpt>
      <trkpt lat="45.21011" lon="5.73458">
        <ele>424.79998779297</ele>
        <time>2021-11-26T06:07:35.000Z</time>
      </trkpt>
      <trkpt lat="45.21012" lon="5.7346">
        <ele>423.79998779297</ele>
        <time>2021-11-26T06:07:38.000Z</time>
      </trkpt>
      <trkpt lat="45.21012" lon="5.73461">
        <ele>423.60000610352</ele>
        <time>2021-11-26T06:07:39.000Z</time>
      </trkpt>
      <trkpt lat="45.21014" lon="5.73463">
        <ele>422.60000610352</ele>
        <time>2021-11-26T06:07:43.000Z</time>
      </trkpt>
      <trkpt lat="45.21014" lon="5.73464">
        <ele>422.20001220703</ele>
        <time>2021-11-26T06:07:44.000Z</time>
      </trkpt>
      <trkpt lat="45.21015" lon="5.73467">
        <ele>421.39999389648</ele>
        <time>2021-11-26T06:07:47.000Z</time>
      </trkpt>
      <trkpt lat="45.21016" lon="5.73469">
        <ele>420.20001220703</ele>
        <time>2021-11-26T06:07:50.000Z</time>
      </trkpt>
      <trkpt lat="45.21017" lon="5.73472">
        <ele>419</ele>
        <time>2021-11-26T06:07:54.000Z</time>
      </trkpt>
      <trkpt lat="45.21019" lon="5.73474">
        <ele>418.20001220703</ele>
        <time>2021-11-26T06:07:57.000Z</time>
      </trkpt>
      <trkpt lat="45.21019" lon="5.73475">
        <ele>418</ele>
        <time>2021-11-26T06:07:58.000Z</time>
      </trkpt>
      <trkpt lat="45.21019" lon="5.73478">
        <ele>417.20001220703</ele>
        <time>2021-11-26T06:08:02.000Z</time>
      </trkpt>
      <trkpt lat="45.21019" lon="5.73479">
        <ele>416.79998779297</ele>
        <time>2021-11-26T06:08:03.000Z</time>
      </trkpt>
      <trkpt lat="45.21019" lon="5.73479">
        <ele>416.60000610352</ele>
        <time>2021-11-26T06:08:04.000Z</time>
      </trkpt>
      <trkpt lat="45.21018" lon="5.7348">
        <ele>415.60000610352</ele>
        <time>2021-11-26T06:08:07.000Z</time>
      </trkpt>
      <trkpt lat="45.21019" lon="5.73483">
        <ele>414.79998779297</ele>
        <time>2021-11-26T06:08:11.000Z</time>
      </trkpt>
      <trkpt lat="45.21018" lon="5.73485">
        <ele>414.60000610352</ele>
        <time>2021-11-26T06:08:13.000Z</time>
      </trkpt>
      <trkpt lat="45.21018" lon="5.73486">
        <ele>413.39999389648</ele>
        <time>2021-11-26T06:08:15.000Z</time>
      </trkpt>
      <trkpt lat="45.21018" lon="5.73487">
        <ele>413.20001220703</ele>
        <time>2021-11-26T06:08:16.000Z</time>
      </trkpt>
      <trkpt lat="45.21018" lon="5.73488">
        <ele>413</ele>
        <time>2021-11-26T06:08:17.000Z</time>
      </trkpt>
      <trkpt lat="45.21018" lon="5.7349">
        <ele>412.60000610352</ele>
        <time>2021-11-26T06:08:19.000Z</time>
      </trkpt>
      <trkpt lat="45.21017" lon="5.73491">
        <ele>412</ele>
        <time>2021-11-26T06:08:20.000Z</time>
      </trkpt>
      <trkpt lat="45.21015" lon="5.73493">
        <ele>411</ele>
        <time>2021-11-26T06:08:23.000Z</time>
      </trkpt>
      <trkpt lat="45.21015" lon="5.73493">
        <ele>410.79998779297</ele>
        <time>2021-11-26T06:08:24.000Z</time>
      </trkpt>
      <trkpt lat="45.21016" lon="5.73494">
        <ele>410.20001220703</ele>
        <time>2021-11-26T06:08:27.000Z</time>
      </trkpt>
      <trkpt lat="45.21017" lon="5.73497">
        <ele>409.79998779297</ele>
        <time>2021-11-26T06:08:29.000Z</time>
      </trkpt>
      <trkpt lat="45.21017" lon="5.73499">
        <ele>408.79998779297</ele>
        <time>2021-11-26T06:08:32.000Z</time>
      </trkpt>
      <trkpt lat="45.21016" lon="5.735">
        <ele>408.39999389648</ele>
        <time>2021-11-26T06:08:34.000Z</time>
      </trkpt>
      <trkpt lat="45.21015" lon="5.73504">
        <ele>407.60000610352</ele>
        <time>2021-11-26T06:08:37.000Z</time>
      </trkpt>
      <trkpt lat="45.21014" lon="5.73506">
        <ele>406.60000610352</ele>
        <time>2021-11-26T06:08:40.000Z</time>
      </trkpt>
      <trkpt lat="45.21014" lon="5.73508">
        <ele>406.39999389648</ele>
        <time>2021-11-26T06:08:41.000Z</time>
      </trkpt>
      <trkpt lat="45.21013" lon="5.73511">
        <ele>405.60000610352</ele>
        <time>2021-11-26T06:08:44.000Z</time>
      </trkpt>
      <trkpt lat="45.21013" lon="5.73511">
        <ele>405.39999389648</ele>
        <time>2021-11-26T06:08:45.000Z</time>
      </trkpt>
      <trkpt lat="45.21014" lon="5.73512">
        <ele>404.60000610352</ele>
        <time>2021-11-26T06:08:47.000Z</time>
      </trkpt>
      <trkpt lat="45.21014" lon="5.73513">
        <ele>404.20001220703</ele>
        <time>2021-11-26T06:08:48.000Z</time>
      </trkpt>
      <trkpt lat="45.21012" lon="5.73518">
        <ele>402.79998779297</ele>
        <time>2021-11-26T06:08:52.000Z</time>
      </trkpt>
      <trkpt lat="45.21012" lon="5.7352">
        <ele>402.20001220703</ele>
        <time>2021-11-26T06:08:54.000Z</time>
      </trkpt>
      <trkpt lat="45.21011" lon="5.73521">
        <ele>402</ele>
        <time>2021-11-26T06:08:55.000Z</time>
      </trkpt>
      <trkpt lat="45.21011" lon="5.73522">
        <ele>401.79998779297</ele>
        <time>2021-11-26T06:08:56.000Z</time>
      </trkpt>
      <trkpt lat="45.21008" lon="5.73525">
        <ele>400.39999389648</ele>
        <time>2021-11-26T06:09:00.000Z</time>
      </trkpt>
      <trkpt lat="45.21006" lon="5.73528">
        <ele>399.79998779297</ele>
        <time>2021-11-26T06:09:03.000Z</time>
      </trkpt>
      <trkpt lat="45.21006" lon="5.73529">
        <ele>399.60000610352</ele>
        <time>2021-11-26T06:09:04.000Z</time>
      </trkpt>
      <trkpt lat="45.21006" lon="5.7353">
        <ele>399.39999389648</ele>
        <time>2021-11-26T06:09:05.000Z</time>
      </trkpt>
      <trkpt lat="45.21005" lon="5.73531">
        <ele>399.20001220703</ele>
        <time>2021-11-26T06:09:06.000Z</time>
      </trkpt>
      <trkpt lat="45.21002" lon="5.73535">
        <ele>398.60000610352</ele>
        <time>2021-11-26T06:09:09.000Z</time>
      </trkpt>
      <trkpt lat="45.21001" lon="5.73536">
        <ele>398.20001220703</ele>
        <time>2021-11-26T06:09:10.000Z</time>
      </trkpt>
      <trkpt lat="45.21" lon="5.73537">
        <ele>397.20001220703</ele>
        <time>2021-11-26T06:09:12.000Z</time>
      </trkpt>
      <trkpt lat="45.21" lon="5.73538">
        <ele>396.79998779297</ele>
        <time>2021-11-26T06:09:13.000Z</time>
      </trkpt>
      <trkpt lat="45.21" lon="5.7354">
        <ele>395.60000610352</ele>
        <time>2021-11-26T06:09:16.000Z</time>
      </trkpt>
      <trkpt lat="45.21" lon="5.73541">
        <ele>395.60000610352</ele>
        <time>2021-11-26T06:09:17.000Z</time>
      </trkpt>
      <trkpt lat="45.21" lon="5.73545">
        <ele>394.60000610352</ele>
        <time>2021-11-26T06:09:20.000Z</time>
      </trkpt>
      <trkpt lat="45.21" lon="5.73547">
        <ele>394</ele>
        <time>2021-11-26T06:09:22.000Z</time>
      </trkpt>
      <trkpt lat="45.21" lon="5.73547">
        <ele>393.79998779297</ele>
        <time>2021-11-26T06:09:23.000Z</time>
      </trkpt>
      <trkpt lat="45.21" lon="5.73547">
        <ele>393.39999389648</ele>
        <time>2021-11-26T06:09:24.000Z</time>
      </trkpt>
      <trkpt lat="45.20998" lon="5.7355">
        <ele>392.20001220703</ele>
        <time>2021-11-26T06:09:27.000Z</time>
      </trkpt>
      <trkpt lat="45.20998" lon="5.73554">
        <ele>391.20001220703</ele>
        <time>2021-11-26T06:09:31.000Z</time>
      </trkpt>
      <trkpt lat="45.20998" lon="5.73559">
        <ele>390.39999389648</ele>
        <time>2021-11-26T06:09:37.000Z</time>
      </trkpt>
      <trkpt lat="45.20998" lon="5.73559">
        <ele>390</ele>
        <time>2021-11-26T06:09:38.000Z</time>
      </trkpt>
      <trkpt lat="45.20997" lon="5.73562">
        <ele>388.79998779297</ele>
        <time>2021-11-26T06:09:43.000Z</time>
      </trkpt>
      <trkpt lat="45.20995" lon="5.73563">
        <ele>387.79998779297</ele>
        <time>2021-11-26T06:09:46.000Z</time>
      </trkpt>
      <trkpt lat="45.20995" lon="5.73565">
        <ele>387.20001220703</ele>
        <time>2021-11-26T06:09:48.000Z</time>
      </trkpt>
      <trkpt lat="45.20996" lon="5.73566">
        <ele>386.60000610352</ele>
        <time>2021-11-26T06:09:50.000Z</time>
      </trkpt>
      <trkpt lat="45.20995" lon="5.73569">
        <ele>385.60000610352</ele>
        <time>2021-11-26T06:09:53.000Z</time>
      </trkpt>
      <trkpt lat="45.20995" lon="5.7357">
        <ele>385.39999389648</ele>
        <time>2021-11-26T06:09:54.000Z</time>
      </trkpt>
      <trkpt lat="45.20993" lon="5.73575">
        <ele>384.20001220703</ele>
        <time>2021-11-26T06:09:59.000Z</time>
      </trkpt>
      <trkpt lat="45.20993" lon="5.73576">
        <ele>383.79998779297</ele>
        <time>2021-11-26T06:10:00.000Z</time>
      </trkpt>
      <trkpt lat="45.20993" lon="5.73579">
        <ele>383</ele>
        <time>2021-11-26T06:10:03.000Z</time>
      </trkpt>
      <trkpt lat="45.20993" lon="5.73581">
        <ele>382.39999389648</ele>
        <time>2021-11-26T06:10:05.000Z</time>
      </trkpt>
      <trkpt lat="45.20993" lon="5.73581">
        <ele>382</ele>
        <time>2021-11-26T06:10:06.000Z</time>
      </trkpt>
      <trkpt lat="45.20993" lon="5.73582">
        <ele>381.60000610352</ele>
        <time>2021-11-26T06:10:07.000Z</time>
      </trkpt>
      <trkpt lat="45.20993" lon="5.73585">
        <ele>381</ele>
        <time>2021-11-26T06:10:09.000Z</time>
      </trkpt>
      <trkpt lat="45.20992" lon="5.73587">
        <ele>380.79998779297</ele>
        <time>2021-11-26T06:10:10.000Z</time>
      </trkpt>
      <trkpt lat="45.20992" lon="5.73588">
        <ele>380.60000610352</ele>
        <time>2021-11-26T06:10:11.000Z</time>
      </trkpt>
      <trkpt lat="45.20991" lon="5.73592">
        <ele>379.39999389648</ele>
        <time>2021-11-26T06:10:14.000Z</time>
      </trkpt>
      <trkpt lat="45.20992" lon="5.73594">
        <ele>379</ele>
        <time>2021-11-26T06:10:16.000Z</time>
      </trkpt>
      <trkpt lat="45.20992" lon="5.73595">
        <ele>378.79998779297</ele>
        <time>2021-11-26T06:10:17.000Z</time>
      </trkpt>
      <trkpt lat="45.20992" lon="5.73597">
        <ele>378.39999389648</ele>
        <time>2021-11-26T06:10:18.000Z</time>
      </trkpt>
      <trkpt lat="45.20989" lon="5.73602">
        <ele>377.20001220703</ele>
        <time>2021-11-26T06:10:22.000Z</time>
      </trkpt>
      <trkpt lat="45.20989" lon="5.73605">
        <ele>376.20001220703</ele>
        <time>2021-11-26T06:10:24.000Z</time>
      </trkpt>
      <trkpt lat="45.20989" lon="5.73607">
        <ele>375.60000610352</ele>
        <time>2021-11-26T06:10:25.000Z</time>
      </trkpt>
      <trkpt lat="45.20988" lon="5.73611">
        <ele>374.60000610352</ele>
        <time>2021-11-26T06:10:27.000Z</time>
      </trkpt>
      <trkpt lat="45.20989" lon="5.73615">
        <ele>373.60000610352</ele>
        <time>2021-11-26T06:10:30.000Z</time>
      </trkpt>
      <trkpt lat="45.20989" lon="5.73617">
        <ele>373.20001220703</ele>
        <time>2021-11-26T06:10:31.000Z</time>
      </trkpt>
      <trkpt lat="45.2099" lon="5.7362">
        <ele>372.39999389648</ele>
        <time>2021-11-26T06:10:33.000Z</time>
      </trkpt>
      <trkpt lat="45.20989" lon="5.73624">
        <ele>371.20001220703</ele>
        <time>2021-11-26T06:10:36.000Z</time>
      </trkpt>
      <trkpt lat="45.20989" lon="5.73627">
        <ele>370.60000610352</ele>
        <time>2021-11-26T06:10:38.000Z</time>
      </trkpt>
      <trkpt lat="45.20988" lon="5.73628">
        <ele>370.20001220703</ele>
        <time>2021-11-26T06:10:39.000Z</time>
      </trkpt>
      <trkpt lat="45.20986" lon="5.73632">
        <ele>369.20001220703</ele>
        <time>2021-11-26T06:10:42.000Z</time>
      </trkpt>
      <trkpt lat="45.20985" lon="5.73633">
        <ele>369</ele>
        <time>2021-11-26T06:10:43.000Z</time>
      </trkpt>
      <trkpt lat="45.20986" lon="5.73635">
        <ele>368.79998779297</ele>
        <time>2021-11-26T06:10:44.000Z</time>
      </trkpt>
      <trkpt lat="45.20986" lon="5.7364">
        <ele>368</ele>
        <time>2021-11-26T06:10:47.000Z</time>
      </trkpt>
      <trkpt lat="45.20986" lon="5.73643">
        <ele>367.20001220703</ele>
        <time>2021-11-26T06:10:49.000Z</time>
      </trkpt>
      <trkpt lat="45.20986" lon="5.73643">
        <ele>366.79998779297</ele>
        <time>2021-11-26T06:10:50.000Z</time>
      </trkpt>
      <trkpt lat="45.20984" lon="5.73646">
        <ele>366</ele>
        <time>2021-11-26T06:10:53.000Z</time>
      </trkpt>
      <trkpt lat="45.20983" lon="5.73648">
        <ele>365.60000610352</ele>
        <time>2021-11-26T06:10:54.000Z</time>
      </trkpt>
      <trkpt lat="45.20981" lon="5.73649">
        <ele>365.39999389648</ele>
        <time>2021-11-26T06:10:55.000Z</time>
      </trkpt>
      <trkpt lat="45.20981" lon="5.73651">
        <ele>364.60000610352</ele>
        <time>2021-11-26T06:10:57.000Z</time>
      </trkpt>
      <trkpt lat="45.2098" lon="5.73653">
        <ele>363.60000610352</ele>
        <time>2021-11-26T06:11:00.000Z</time>
      </trkpt>
      <trkpt lat="45.20978" lon="5.73656">
        <ele>362.39999389648</ele>
        <time>2021-11-26T06:11:03.000Z</time>
      </trkpt>
      <trkpt lat="45.20976" lon="5.73662">
        <ele>361.20001220703</ele>
        <time>2021-11-26T06:11:07.000Z</time>
      </trkpt>
      <trkpt lat="45.20974" lon="5.73663">
        <ele>360.20001220703</ele>
        <time>2021-11-26T06:11:09.000Z</time>
      </trkpt>
      <trkpt lat="45.20971" lon="5.73666">
        <ele>359</ele>
        <time>2021-11-26T06:11:12.000Z</time>
      </trkpt>
      <trkpt lat="45.2097" lon="5.7367">
        <ele>357.79998779297</ele>
        <time>2021-11-26T06:11:15.000Z</time>
      </trkpt>
      <trkpt lat="45.20967" lon="5.73674">
        <ele>356.60000610352</ele>
        <time>2021-11-26T06:11:19.000Z</time>
      </trkpt>
      <trkpt lat="45.20966" lon="5.73676">
        <ele>355.60000610352</ele>
        <time>2021-11-26T06:11:21.000Z</time>
      </trkpt>
      <trkpt lat="45.20966" lon="5.73677">
        <ele>355.20001220703</ele>
        <time>2021-11-26T06:11:22.000Z</time>
      </trkpt>
      <trkpt lat="45.20965" lon="5.73677">
        <ele>354.79998779297</ele>
        <time>2021-11-26T06:11:23.000Z</time>
      </trkpt>
      <trkpt lat="45.20964" lon="5.73677">
        <ele>354.39999389648</ele>
        <time>2021-11-26T06:11:25.000Z</time>
      </trkpt>
      <trkpt lat="45.20962" lon="5.73681">
        <ele>353</ele>
        <time>2021-11-26T06:11:29.000Z</time>
      </trkpt>
      <trkpt lat="45.20961" lon="5.73683">
        <ele>352.79998779297</ele>
        <time>2021-11-26T06:11:30.000Z</time>
      </trkpt>
      <trkpt lat="45.20961" lon="5.73685">
        <ele>352.60000610352</ele>
        <time>2021-11-26T06:11:31.000Z</time>
      </trkpt>
      <trkpt lat="45.20959" lon="5.73689">
        <ele>352</ele>
        <time>2021-11-26T06:11:33.000Z</time>
      </trkpt>
      <trkpt lat="45.20955" lon="5.73692">
        <ele>350.60000610352</ele>
        <time>2021-11-26T06:11:36.000Z</time>
      </trkpt>
      <trkpt lat="45.20952" lon="5.73692">
        <ele>350</ele>
        <time>2021-11-26T06:11:38.000Z</time>
      </trkpt>
      <trkpt lat="45.2095" lon="5.73693">
        <ele>349.60000610352</ele>
        <time>2021-11-26T06:11:39.000Z</time>
      </trkpt>
      <trkpt lat="45.20949" lon="5.73695">
        <ele>348.79998779297</ele>
        <time>2021-11-26T06:11:41.000Z</time>
      </trkpt>
      <trkpt lat="45.20949" lon="5.73696">
        <ele>348.39999389648</ele>
        <time>2021-11-26T06:11:42.000Z</time>
      </trkpt>
      <trkpt lat="45.20948" lon="5.73697">
        <ele>348.20001220703</ele>
        <time>2021-11-26T06:11:43.000Z</time>
      </trkpt>
      <trkpt lat="45.20947" lon="5.73699">
        <ele>347.60000610352</ele>
        <time>2021-11-26T06:11:45.000Z</time>
      </trkpt>
      <trkpt lat="45.20946" lon="5.737">
        <ele>347.39999389648</ele>
        <time>2021-11-26T06:11:46.000Z</time>
      </trkpt>
      <trkpt lat="45.20942" lon="5.73701">
        <ele>346.39999389648</ele>
        <time>2021-11-26T06:11:50.000Z</time>
      </trkpt>
      <trkpt lat="45.20941" lon="5.73702">
        <ele>346.20001220703</ele>
        <time>2021-11-26T06:11:51.000Z</time>
      </trkpt>
      <trkpt lat="45.20936" lon="5.73703">
        <ele>344.79998779297</ele>
        <time>2021-11-26T06:11:54.000Z</time>
      </trkpt>
      <trkpt lat="45.20934" lon="5.73703">
        <ele>344.60000610352</ele>
        <time>2021-11-26T06:11:55.000Z</time>
      </trkpt>
      <trkpt lat="45.2093" lon="5.73703">
        <ele>343.60000610352</ele>
        <time>2021-11-26T06:11:58.000Z</time>
      </trkpt>
      <trkpt lat="45.20928" lon="5.73703">
        <ele>342.39999389648</ele>
        <time>2021-11-26T06:12:01.000Z</time>
      </trkpt>
      <trkpt lat="45.20927" lon="5.73703">
        <ele>342</ele>
        <time>2021-11-26T06:12:02.000Z</time>
      </trkpt>
      <trkpt lat="45.20924" lon="5.73704">
        <ele>341.39999389648</ele>
        <time>2021-11-26T06:12:04.000Z</time>
      </trkpt>
      <trkpt lat="45.2092" lon="5.73704">
        <ele>340</ele>
        <time>2021-11-26T06:12:07.000Z</time>
      </trkpt>
      <trkpt lat="45.20919" lon="5.73705">
        <ele>339.79998779297</ele>
        <time>2021-11-26T06:12:08.000Z</time>
      </trkpt>
      <trkpt lat="45.20916" lon="5.73707">
        <ele>339</ele>
        <time>2021-11-26T06:12:10.000Z</time>
      </trkpt>
      <trkpt lat="45.20914" lon="5.73707">
        <ele>338.39999389648</ele>
        <time>2021-11-26T06:12:12.000Z</time>
      </trkpt>
      <trkpt lat="45.20912" lon="5.73707">
        <ele>337.79998779297</ele>
        <time>2021-11-26T06:12:14.000Z</time>
      </trkpt>
      <trkpt lat="45.20909" lon="5.73706">
        <ele>336.20001220703</ele>
        <time>2021-11-26T06:12:17.000Z</time>
      </trkpt>
      <trkpt lat="45.20908" lon="5.73707">
        <ele>335.79998779297</ele>
        <time>2021-11-26T06:12:18.000Z</time>
      </trkpt>
      <trkpt lat="45.20906" lon="5.73707">
        <ele>334.79998779297</ele>
        <time>2021-11-26T06:12:20.000Z</time>
      </trkpt>
      <trkpt lat="45.20904" lon="5.73708">
        <ele>334</ele>
        <time>2021-11-26T06:12:22.000Z</time>
      </trkpt>
      <trkpt lat="45.20903" lon="5.73708">
        <ele>333.60000610352</ele>
        <time>2021-11-26T06:12:23.000Z</time>
      </trkpt>
      <trkpt lat="45.20897" lon="5.73711">
        <ele>332.20001220703</ele>
        <time>2021-11-26T06:12:27.000Z</time>
      </trkpt>
      <trkpt lat="45.20894" lon="5.73713">
        <ele>331.20001220703</ele>
        <time>2021-11-26T06:12:29.000Z</time>
      </trkpt>
      <trkpt lat="45.20893" lon="5.73713">
        <ele>330.79998779297</ele>
        <time>2021-11-26T06:12:30.000Z</time>
      </trkpt>
      <trkpt lat="45.2089" lon="5.73717">
        <ele>329.20001220703</ele>
        <time>2021-11-26T06:12:33.000Z</time>
      </trkpt>
      <trkpt lat="45.20888" lon="5.73719">
        <ele>328.39999389648</ele>
        <time>2021-11-26T06:12:35.000Z</time>
      </trkpt>
      <trkpt lat="45.20887" lon="5.7372">
        <ele>328</ele>
        <time>2021-11-26T06:12:36.000Z</time>
      </trkpt>
      <trkpt lat="45.20884" lon="5.73722">
        <ele>327</ele>
        <time>2021-11-26T06:12:38.000Z</time>
      </trkpt>
      <trkpt lat="45.20882" lon="5.73725">
        <ele>326.39999389648</ele>
        <time>2021-11-26T06:12:40.000Z</time>
      </trkpt>
      <trkpt lat="45.20881" lon="5.73726">
        <ele>325.79998779297</ele>
        <time>2021-11-26T06:12:41.000Z</time>
      </trkpt>
      <trkpt lat="45.20881" lon="5.73727">
        <ele>325.39999389648</ele>
        <time>2021-11-26T06:12:42.000Z</time>
      </trkpt>
      <trkpt lat="45.20879" lon="5.73729">
        <ele>324.60000610352</ele>
        <time>2021-11-26T06:12:44.000Z</time>
      </trkpt>
      <trkpt lat="45.20875" lon="5.73732">
        <ele>323.79998779297</ele>
        <time>2021-11-26T06:12:47.000Z</time>
      </trkpt>
      <trkpt lat="45.20873" lon="5.73732">
        <ele>323.39999389648</ele>
        <time>2021-11-26T06:12:48.000Z</time>
      </trkpt>
      <trkpt lat="45.20872" lon="5.73731">
        <ele>323.20001220703</ele>
        <time>2021-11-26T06:12:49.000Z</time>
      </trkpt>
      <trkpt lat="45.2087" lon="5.7373">
        <ele>322.79998779297</ele>
        <time>2021-11-26T06:12:50.000Z</time>
      </trkpt>
      <trkpt lat="45.20869" lon="5.73728">
        <ele>322.60000610352</ele>
        <time>2021-11-26T06:12:51.000Z</time>
      </trkpt>
      <trkpt lat="45.20868" lon="5.73728">
        <ele>322.39999389648</ele>
        <time>2021-11-26T06:12:52.000Z</time>
      </trkpt>
      <trkpt lat="45.20866" lon="5.73727">
        <ele>321.39999389648</ele>
        <time>2021-11-26T06:12:54.000Z</time>
      </trkpt>
      <trkpt lat="45.20864" lon="5.73726">
        <ele>321.20001220703</ele>
        <time>2021-11-26T06:12:55.000Z</time>
      </trkpt>
      <trkpt lat="45.20862" lon="5.73725">
        <ele>320.79998779297</ele>
        <time>2021-11-26T06:12:56.000Z</time>
      </trkpt>
      <trkpt lat="45.20857" lon="5.73722">
        <ele>319.60000610352</ele>
        <time>2021-11-26T06:12:59.000Z</time>
      </trkpt>
      <trkpt lat="45.20853" lon="5.73719">
        <ele>318.60000610352</ele>
        <time>2021-11-26T06:13:02.000Z</time>
      </trkpt>
      <trkpt lat="45.20851" lon="5.73719">
        <ele>318.20001220703</ele>
        <time>2021-11-26T06:13:03.000Z</time>
      </trkpt>
      <trkpt lat="45.20848" lon="5.73721">
        <ele>317.20001220703</ele>
        <time>2021-11-26T06:13:05.000Z</time>
      </trkpt>
      <trkpt lat="45.20847" lon="5.73722">
        <ele>316.60000610352</ele>
        <time>2021-11-26T06:13:06.000Z</time>
      </trkpt>
      <trkpt lat="45.20846" lon="5.73724">
        <ele>316</ele>
        <time>2021-11-26T06:13:08.000Z</time>
      </trkpt>
      <trkpt lat="45.20846" lon="5.73725">
        <ele>315.79998779297</ele>
        <time>2021-11-26T06:13:09.000Z</time>
      </trkpt>
      <trkpt lat="45.20845" lon="5.73727">
        <ele>315.20001220703</ele>
        <time>2021-11-26T06:13:11.000Z</time>
      </trkpt>
      <trkpt lat="45.20845" lon="5.73729">
        <ele>314.79998779297</ele>
        <time>2021-11-26T06:13:12.000Z</time>
      </trkpt>
      <trkpt lat="45.20843" lon="5.73731">
        <ele>314</ele>
        <time>2021-11-26T06:13:14.000Z</time>
      </trkpt>
      <trkpt lat="45.20842" lon="5.73731">
        <ele>313.60000610352</ele>
        <time>2021-11-26T06:13:15.000Z</time>
      </trkpt>
      <trkpt lat="45.20839" lon="5.73729">
        <ele>313.20001220703</ele>
        <time>2021-11-26T06:13:17.000Z</time>
      </trkpt>
      <trkpt lat="45.20839" lon="5.73728">
        <ele>312.60000610352</ele>
        <time>2021-11-26T06:13:19.000Z</time>
      </trkpt>
      <trkpt lat="45.20839" lon="5.73728">
        <ele>312.20001220703</ele>
        <time>2021-11-26T06:13:20.000Z</time>
      </trkpt>
      <trkpt lat="45.20838" lon="5.73728">
        <ele>311.60000610352</ele>
        <time>2021-11-26T06:13:22.000Z</time>
      </trkpt>
      <trkpt lat="45.20837" lon="5.73728">
        <ele>311.20001220703</ele>
        <time>2021-11-26T06:13:24.000Z</time>
      </trkpt>
      <trkpt lat="45.20836" lon="5.7373">
        <ele>310.60000610352</ele>
        <time>2021-11-26T06:13:26.000Z</time>
      </trkpt>
      <trkpt lat="45.20835" lon="5.73735">
        <ele>310</ele>
        <time>2021-11-26T06:13:28.000Z</time>
      </trkpt>
      <trkpt lat="45.20833" lon="5.73737">
        <ele>310</ele>
        <time>2021-11-26T06:13:29.000Z</time>
      </trkpt>
      <trkpt lat="45.2083" lon="5.7374">
        <ele>308.79998779297</ele>
        <time>2021-11-26T06:13:31.000Z</time>
      </trkpt>
      <trkpt lat="45.20829" lon="5.7374">
        <ele>308.39999389648</ele>
        <time>2021-11-26T06:13:32.000Z</time>
      </trkpt>
      <trkpt lat="45.20826" lon="5.73739">
        <ele>307.60000610352</ele>
        <time>2021-11-26T06:13:34.000Z</time>
      </trkpt>
      <trkpt lat="45.20824" lon="5.73739">
        <ele>307.39999389648</ele>
        <time>2021-11-26T06:13:35.000Z</time>
      </trkpt>
      <trkpt lat="45.20821" lon="5.73739">
        <ele>306.20001220703</ele>
        <time>2021-11-26T06:13:37.000Z</time>
      </trkpt>
      <trkpt lat="45.20818" lon="5.73739">
        <ele>305.60000610352</ele>
        <time>2021-11-26T06:13:39.000Z</time>
      </trkpt>
      <trkpt lat="45.20815" lon="5.73737">
        <ele>304.79998779297</ele>
        <time>2021-11-26T06:13:41.000Z</time>
      </trkpt>
      <trkpt lat="45.20814" lon="5.73735">
        <ele>304.39999389648</ele>
        <time>2021-11-26T06:13:42.000Z</time>
      </trkpt>
      <trkpt lat="45.20812" lon="5.73728">
        <ele>303.79998779297</ele>
        <time>2021-11-26T06:13:45.000Z</time>
      </trkpt>
      <trkpt lat="45.20812" lon="5.73726">
        <ele>303.39999389648</ele>
        <time>2021-11-26T06:13:46.000Z</time>
      </trkpt>
      <trkpt lat="45.20811" lon="5.73722">
        <ele>302.79998779297</ele>
        <time>2021-11-26T06:13:48.000Z</time>
      </trkpt>
      <trkpt lat="45.2081" lon="5.73721">
        <ele>302.60000610352</ele>
        <time>2021-11-26T06:13:49.000Z</time>
      </trkpt>
      <trkpt lat="45.20809" lon="5.73721">
        <ele>302.39999389648</ele>
        <time>2021-11-26T06:13:50.000Z</time>
      </trkpt>
      <trkpt lat="45.20809" lon="5.73721">
        <ele>302</ele>
        <time>2021-11-26T06:13:51.000Z</time>
      </trkpt>
      <trkpt lat="45.20807" lon="5.73721">
        <ele>301.60000610352</ele>
        <time>2021-11-26T06:13:53.000Z</time>
      </trkpt>
      <trkpt lat="45.20805" lon="5.73721">
        <ele>300.39999389648</ele>
        <time>2021-11-26T06:13:56.000Z</time>
      </trkpt>
      <trkpt lat="45.20803" lon="5.73722">
        <ele>299.79998779297</ele>
        <time>2021-11-26T06:13:58.000Z</time>
      </trkpt>
      <trkpt lat="45.20802" lon="5.73723">
        <ele>299.39999389648</ele>
        <time>2021-11-26T06:13:59.000Z</time>
      </trkpt>
      <trkpt lat="45.20798" lon="5.73724">
        <ele>298.60000610352</ele>
        <time>2021-11-26T06:14:02.000Z</time>
      </trkpt>
      <trkpt lat="45.20797" lon="5.73724">
        <ele>298.20001220703</ele>
        <time>2021-11-26T06:14:03.000Z</time>
      </trkpt>
      <trkpt lat="45.20796" lon="5.73725">
        <ele>297.79998779297</ele>
        <time>2021-11-26T06:14:04.000Z</time>
      </trkpt>
      <trkpt lat="45.20795" lon="5.73726">
        <ele>297.39999389648</ele>
        <time>2021-11-26T06:14:05.000Z</time>
      </trkpt>
      <trkpt lat="45.20792" lon="5.73727">
        <ele>297</ele>
        <time>2021-11-26T06:14:07.000Z</time>
      </trkpt>
      <trkpt lat="45.20788" lon="5.73729">
        <ele>295.79998779297</ele>
        <time>2021-11-26T06:14:10.000Z</time>
      </trkpt>
      <trkpt lat="45.20786" lon="5.7373">
        <ele>295.20001220703</ele>
        <time>2021-11-26T06:14:12.000Z</time>
      </trkpt>
      <trkpt lat="45.20784" lon="5.73732">
        <ele>294.60000610352</ele>
        <time>2021-11-26T06:14:14.000Z</time>
      </trkpt>
      <trkpt lat="45.20781" lon="5.73732">
        <ele>294</ele>
        <time>2021-11-26T06:14:16.000Z</time>
      </trkpt>
      <trkpt lat="45.2078" lon="5.73732">
        <ele>293.39999389648</ele>
        <time>2021-11-26T06:14:18.000Z</time>
      </trkpt>
      <trkpt lat="45.20779" lon="5.73732">
        <ele>293</ele>
        <time>2021-11-26T06:14:19.000Z</time>
      </trkpt>
      <trkpt lat="45.20775" lon="5.73734">
        <ele>292.39999389648</ele>
        <time>2021-11-26T06:14:22.000Z</time>
      </trkpt>
      <trkpt lat="45.20773" lon="5.73735">
        <ele>292</ele>
        <time>2021-11-26T06:14:23.000Z</time>
      </trkpt>
      <trkpt lat="45.20769" lon="5.73735">
        <ele>291.20001220703</ele>
        <time>2021-11-26T06:14:27.000Z</time>
      </trkpt>
      <trkpt lat="45.20768" lon="5.73735">
        <ele>290.79998779297</ele>
        <time>2021-11-26T06:14:28.000Z</time>
      </trkpt>
      <trkpt lat="45.20767" lon="5.73736">
        <ele>290.60000610352</ele>
        <time>2021-11-26T06:14:29.000Z</time>
      </trkpt>
      <trkpt lat="45.20765" lon="5.73737">
        <ele>289.79998779297</ele>
        <time>2021-11-26T06:14:31.000Z</time>
      </trkpt>
      <trkpt lat="45.20766" lon="5.73738">
        <ele>289.60000610352</ele>
        <time>2021-11-26T06:14:32.000Z</time>
      </trkpt>
      <trkpt lat="45.20763" lon="5.73742">
        <ele>288.79998779297</ele>
        <time>2021-11-26T06:14:34.000Z</time>
      </trkpt>
      <trkpt lat="45.20762" lon="5.73744">
        <ele>288</ele>
        <time>2021-11-26T06:14:35.000Z</time>
      </trkpt>
      <trkpt lat="45.20759" lon="5.73745">
        <ele>287.20001220703</ele>
        <time>2021-11-26T06:14:37.000Z</time>
      </trkpt>
      <trkpt lat="45.20757" lon="5.73746">
        <ele>286.39999389648</ele>
        <time>2021-11-26T06:14:38.000Z</time>
      </trkpt>
      <trkpt lat="45.20755" lon="5.73748">
        <ele>285.39999389648</ele>
        <time>2021-11-26T06:14:40.000Z</time>
      </trkpt>
      <trkpt lat="45.20752" lon="5.73749">
        <ele>284.20001220703</ele>
        <time>2021-11-26T06:14:42.000Z</time>
      </trkpt>
      <trkpt lat="45.20751" lon="5.73751">
        <ele>283.39999389648</ele>
        <time>2021-11-26T06:14:44.000Z</time>
      </trkpt>
      <trkpt lat="45.20751" lon="5.73752">
        <ele>282.79998779297</ele>
        <time>2021-11-26T06:14:45.000Z</time>
      </trkpt>
      <trkpt lat="45.20751" lon="5.73754">
        <ele>282.60000610352</ele>
        <time>2021-11-26T06:14:46.000Z</time>
      </trkpt>
      <trkpt lat="45.20749" lon="5.73757">
        <ele>281.79998779297</ele>
        <time>2021-11-26T06:14:48.000Z</time>
      </trkpt>
      <trkpt lat="45.20747" lon="5.73759">
        <ele>281.20001220703</ele>
        <time>2021-11-26T06:14:50.000Z</time>
      </trkpt>
      <trkpt lat="45.20744" lon="5.73761">
        <ele>280.60000610352</ele>
        <time>2021-11-26T06:14:52.000Z</time>
      </trkpt>
      <trkpt lat="45.20741" lon="5.73763">
        <ele>279.39999389648</ele>
        <time>2021-11-26T06:14:54.000Z</time>
      </trkpt>
      <trkpt lat="45.20739" lon="5.73766">
        <ele>278.39999389648</ele>
        <time>2021-11-26T06:14:56.000Z</time>
      </trkpt>
      <trkpt lat="45.20734" lon="5.7377">
        <ele>277.39999389648</ele>
        <time>2021-11-26T06:14:59.000Z</time>
      </trkpt>
      <trkpt lat="45.20733" lon="5.73772">
        <ele>277</ele>
        <time>2021-11-26T06:15:00.000Z</time>
      </trkpt>
      <trkpt lat="45.20731" lon="5.73773">
        <ele>276.60000610352</ele>
        <time>2021-11-26T06:15:01.000Z</time>
      </trkpt>
      <trkpt lat="45.2073" lon="5.73774">
        <ele>275.60000610352</ele>
        <time>2021-11-26T06:15:02.000Z</time>
      </trkpt>
      <trkpt lat="45.20726" lon="5.73776">
        <ele>274.60000610352</ele>
        <time>2021-11-26T06:15:04.000Z</time>
      </trkpt>
      <trkpt lat="45.20722" lon="5.73781">
        <ele>273.79998779297</ele>
        <time>2021-11-26T06:15:07.000Z</time>
      </trkpt>
      <trkpt lat="45.2072" lon="5.73782">
        <ele>273.20001220703</ele>
        <time>2021-11-26T06:15:08.000Z</time>
      </trkpt>
      <trkpt lat="45.20718" lon="5.73785">
        <ele>272.39999389648</ele>
        <time>2021-11-26T06:15:11.000Z</time>
      </trkpt>
      <trkpt lat="45.20717" lon="5.73786">
        <ele>272</ele>
        <time>2021-11-26T06:15:12.000Z</time>
      </trkpt>
      <trkpt lat="45.20712" lon="5.73788">
        <ele>270.60000610352</ele>
        <time>2021-11-26T06:15:15.000Z</time>
      </trkpt>
      <trkpt lat="45.2071" lon="5.7379">
        <ele>269.79998779297</ele>
        <time>2021-11-26T06:15:17.000Z</time>
      </trkpt>
      <trkpt lat="45.20709" lon="5.73791">
        <ele>269.20001220703</ele>
        <time>2021-11-26T06:15:18.000Z</time>
      </trkpt>
      <trkpt lat="45.20706" lon="5.73792">
        <ele>268.20001220703</ele>
        <time>2021-11-26T06:15:21.000Z</time>
      </trkpt>
      <trkpt lat="45.20701" lon="5.73796">
        <ele>267.20001220703</ele>
        <time>2021-11-26T06:15:24.000Z</time>
      </trkpt>
      <trkpt lat="45.20699" lon="5.73797">
        <ele>266.79998779297</ele>
        <time>2021-11-26T06:15:25.000Z</time>
      </trkpt>
      <trkpt lat="45.20697" lon="5.738">
        <ele>266</ele>
        <time>2021-11-26T06:15:27.000Z</time>
      </trkpt>
      <trkpt lat="45.20694" lon="5.73803">
        <ele>265</ele>
        <time>2021-11-26T06:15:29.000Z</time>
      </trkpt>
      <trkpt lat="45.20693" lon="5.73804">
        <ele>264.60000610352</ele>
        <time>2021-11-26T06:15:30.000Z</time>
      </trkpt>
      <trkpt lat="45.20689" lon="5.73807">
        <ele>263.79998779297</ele>
        <time>2021-11-26T06:15:32.000Z</time>
      </trkpt>
      <trkpt lat="45.20685" lon="5.7381">
        <ele>263</ele>
        <time>2021-11-26T06:15:34.000Z</time>
      </trkpt>
      <trkpt lat="45.20683" lon="5.73812">
        <ele>262.60000610352</ele>
        <time>2021-11-26T06:15:35.000Z</time>
      </trkpt>
      <trkpt lat="45.20679" lon="5.73815">
        <ele>261.79998779297</ele>
        <time>2021-11-26T06:15:37.000Z</time>
      </trkpt>
      <trkpt lat="45.20675" lon="5.73817">
        <ele>260.79998779297</ele>
        <time>2021-11-26T06:15:39.000Z</time>
      </trkpt>
      <trkpt lat="45.20671" lon="5.73819">
        <ele>259.79998779297</ele>
        <time>2021-11-26T06:15:41.000Z</time>
      </trkpt>
      <trkpt lat="45.20669" lon="5.7382">
        <ele>259.60000610352</ele>
        <time>2021-11-26T06:15:42.000Z</time>
      </trkpt>
      <trkpt lat="45.20666" lon="5.73819">
        <ele>258.60000610352</ele>
        <time>2021-11-26T06:15:44.000Z</time>
      </trkpt>
      <trkpt lat="45.20665" lon="5.7382">
        <ele>258.39999389648</ele>
        <time>2021-11-26T06:15:45.000Z</time>
      </trkpt>
      <trkpt lat="45.20661" lon="5.73824">
        <ele>257.60000610352</ele>
        <time>2021-11-26T06:15:48.000Z</time>
      </trkpt>
      <trkpt lat="45.20658" lon="5.73826">
        <ele>256.79998779297</ele>
        <time>2021-11-26T06:15:50.000Z</time>
      </trkpt>
      <trkpt lat="45.20657" lon="5.73827">
        <ele>256.20001220703</ele>
        <time>2021-11-26T06:15:51.000Z</time>
      </trkpt>
      <trkpt lat="45.20652" lon="5.73829">
        <ele>255.19999694824</ele>
        <time>2021-11-26T06:15:54.000Z</time>
      </trkpt>
      <trkpt lat="45.20651" lon="5.73829">
        <ele>254.80000305176</ele>
        <time>2021-11-26T06:15:55.000Z</time>
      </trkpt>
      <trkpt lat="45.20649" lon="5.7383">
        <ele>254.19999694824</ele>
        <time>2021-11-26T06:15:56.000Z</time>
      </trkpt>
      <trkpt lat="45.20648" lon="5.73831">
        <ele>254</ele>
        <time>2021-11-26T06:15:57.000Z</time>
      </trkpt>
      <trkpt lat="45.20645" lon="5.73833">
        <ele>253</ele>
        <time>2021-11-26T06:15:59.000Z</time>
      </trkpt>
      <trkpt lat="45.20644" lon="5.73834">
        <ele>252.60000610352</ele>
        <time>2021-11-26T06:16:00.000Z</time>
      </trkpt>
      <trkpt lat="45.20639" lon="5.73835">
        <ele>251.80000305176</ele>
        <time>2021-11-26T06:16:02.000Z</time>
      </trkpt>
      <trkpt lat="45.20637" lon="5.73835">
        <ele>251</ele>
        <time>2021-11-26T06:16:03.000Z</time>
      </trkpt>
      <trkpt lat="45.20633" lon="5.73837">
        <ele>250</ele>
        <time>2021-11-26T06:16:05.000Z</time>
      </trkpt>
      <trkpt lat="45.20629" lon="5.7384">
        <ele>248.80000305176</ele>
        <time>2021-11-26T06:16:08.000Z</time>
      </trkpt>
      <trkpt lat="45.20626" lon="5.73841">
        <ele>247.80000305176</ele>
        <time>2021-11-26T06:16:10.000Z</time>
      </trkpt>
      <trkpt lat="45.20621" lon="5.73842">
        <ele>247</ele>
        <time>2021-11-26T06:16:13.000Z</time>
      </trkpt>
      <trkpt lat="45.20619" lon="5.73843">
        <ele>246.80000305176</ele>
        <time>2021-11-26T06:16:14.000Z</time>
      </trkpt>
      <trkpt lat="45.20616" lon="5.73844">
        <ele>245.60000610352</ele>
        <time>2021-11-26T06:16:16.000Z</time>
      </trkpt>
      <trkpt lat="45.2061" lon="5.73847">
        <ele>244.39999389648</ele>
        <time>2021-11-26T06:16:19.000Z</time>
      </trkpt>
      <trkpt lat="45.20608" lon="5.73848">
        <ele>243.80000305176</ele>
        <time>2021-11-26T06:16:20.000Z</time>
      </trkpt>
      <trkpt lat="45.20603" lon="5.73849">
        <ele>243.19999694824</ele>
        <time>2021-11-26T06:16:22.000Z</time>
      </trkpt>
      <trkpt lat="45.20598" lon="5.73851">
        <ele>241.80000305176</ele>
        <time>2021-11-26T06:16:25.000Z</time>
      </trkpt>
      <trkpt lat="45.20593" lon="5.73854">
        <ele>240.39999389648</ele>
        <time>2021-11-26T06:16:28.000Z</time>
      </trkpt>
      <trkpt lat="45.20589" lon="5.73855">
        <ele>239.39999389648</ele>
        <time>2021-11-26T06:16:30.000Z</time>
      </trkpt>
      <trkpt lat="45.20588" lon="5.73857">
        <ele>239</ele>
        <time>2021-11-26T06:16:31.000Z</time>
      </trkpt>
      <trkpt lat="45.20585" lon="5.73859">
        <ele>238.19999694824</ele>
        <time>2021-11-26T06:16:33.000Z</time>
      </trkpt>
      <trkpt lat="45.20583" lon="5.7386">
        <ele>238</ele>
        <time>2021-11-26T06:16:34.000Z</time>
      </trkpt>
      <trkpt lat="45.20581" lon="5.7386">
        <ele>237.19999694824</ele>
        <time>2021-11-26T06:16:35.000Z</time>
      </trkpt>
      <trkpt lat="45.20576" lon="5.73864">
        <ele>236</ele>
        <time>2021-11-26T06:16:38.000Z</time>
      </trkpt>
      <trkpt lat="45.20572" lon="5.73865">
        <ele>235.39999389648</ele>
        <time>2021-11-26T06:16:40.000Z</time>
      </trkpt>
      <trkpt lat="45.20568" lon="5.73867">
        <ele>234.80000305176</ele>
        <time>2021-11-26T06:16:42.000Z</time>
      </trkpt>
      <trkpt lat="45.20566" lon="5.73869">
        <ele>234.19999694824</ele>
        <time>2021-11-26T06:16:43.000Z</time>
      </trkpt>
      <trkpt lat="45.20561" lon="5.73871">
        <ele>233.60000610352</ele>
        <time>2021-11-26T06:16:45.000Z</time>
      </trkpt>
      <trkpt lat="45.20557" lon="5.73871">
        <ele>232.60000610352</ele>
        <time>2021-11-26T06:16:47.000Z</time>
      </trkpt>
      <trkpt lat="45.20556" lon="5.73871">
        <ele>232.39999389648</ele>
        <time>2021-11-26T06:16:48.000Z</time>
      </trkpt>
      <trkpt lat="45.20549" lon="5.73869">
        <ele>231.19999694824</ele>
        <time>2021-11-26T06:16:52.000Z</time>
      </trkpt>
      <trkpt lat="45.20548" lon="5.73867">
        <ele>230.80000305176</ele>
        <time>2021-11-26T06:16:53.000Z</time>
      </trkpt>
      <trkpt lat="45.20547" lon="5.73865">
        <ele>230.19999694824</ele>
        <time>2021-11-26T06:16:54.000Z</time>
      </trkpt>
      <trkpt lat="45.20543" lon="5.73862">
        <ele>229.19999694824</ele>
        <time>2021-11-26T06:16:56.000Z</time>
      </trkpt>
      <trkpt lat="45.20538" lon="5.73857">
        <ele>228</ele>
        <time>2021-11-26T06:16:59.000Z</time>
      </trkpt>
      <trkpt lat="45.20534" lon="5.7385">
        <ele>226.80000305176</ele>
        <time>2021-11-26T06:17:02.000Z</time>
      </trkpt>
      <trkpt lat="45.20528" lon="5.73844">
        <ele>225.60000610352</ele>
        <time>2021-11-26T06:17:05.000Z</time>
      </trkpt>
      <trkpt lat="45.20522" lon="5.73846">
        <ele>224.60000610352</ele>
        <time>2021-11-26T06:17:08.000Z</time>
      </trkpt>
      <trkpt lat="45.20511" lon="5.73852">
        <ele>223.60000610352</ele>
        <time>2021-11-26T06:17:13.000Z</time>
      </trkpt>
      <trkpt lat="45.2051" lon="5.7385">
        <ele>223.39999389648</ele>
        <time>2021-11-26T06:17:14.000Z</time>
      </trkpt>
      <trkpt lat="45.20509" lon="5.73846">
        <ele>223.19999694824</ele>
        <time>2021-11-26T06:17:15.000Z</time>
      </trkpt>
      <trkpt lat="45.20509" lon="5.73844">
        <ele>223.19999694824</ele>
        <time>2021-11-26T06:17:16.000Z</time>
      </trkpt>
      <trkpt lat="45.20506" lon="5.7384">
        <ele>222.80000305176</ele>
        <time>2021-11-26T06:17:18.000Z</time>
      </trkpt>
      <trkpt lat="45.20503" lon="5.73838">
        <ele>222.19999694824</ele>
        <time>2021-11-26T06:17:20.000Z</time>
      </trkpt>
      <trkpt lat="45.20502" lon="5.73836">
        <ele>222</ele>
        <time>2021-11-26T06:17:21.000Z</time>
      </trkpt>
      <trkpt lat="45.20495" lon="5.73829">
        <ele>221.19999694824</ele>
        <time>2021-11-26T06:17:25.000Z</time>
      </trkpt>
      <trkpt lat="45.20492" lon="5.73822">
        <ele>220.60000610352</ele>
        <time>2021-11-26T06:17:28.000Z</time>
      </trkpt>
      <trkpt lat="45.20489" lon="5.73815">
        <ele>220.19999694824</ele>
        <time>2021-11-26T06:17:31.000Z</time>
      </trkpt>
      <trkpt lat="45.20484" lon="5.7381">
        <ele>220</ele>
        <time>2021-11-26T06:17:34.000Z</time>
      </trkpt>
      <trkpt lat="45.20477" lon="5.73803">
        <ele>219</ele>
        <time>2021-11-26T06:17:38.000Z</time>
      </trkpt>
      <trkpt lat="45.2047" lon="5.73797">
        <ele>218.60000610352</ele>
        <time>2021-11-26T06:17:41.000Z</time>
      </trkpt>
      <trkpt lat="45.20461" lon="5.73787">
        <ele>218.19999694824</ele>
        <time>2021-11-26T06:17:45.000Z</time>
      </trkpt>
      <trkpt lat="45.20459" lon="5.73784">
        <ele>218.19999694824</ele>
        <time>2021-11-26T06:17:46.000Z</time>
      </trkpt>
      <trkpt lat="45.20451" lon="5.73776">
        <ele>218</ele>
        <time>2021-11-26T06:17:49.000Z</time>
      </trkpt>
      <trkpt lat="45.20434" lon="5.7376">
        <ele>217.39999389648</ele>
        <time>2021-11-26T06:17:55.000Z</time>
      </trkpt>
      <trkpt lat="45.20425" lon="5.73749">
        <ele>216.80000305176</ele>
        <time>2021-11-26T06:17:59.000Z</time>
      </trkpt>
      <trkpt lat="45.20413" lon="5.73736">
        <ele>216.60000610352</ele>
        <time>2021-11-26T06:18:04.000Z</time>
      </trkpt>
      <trkpt lat="45.20403" lon="5.73725">
        <ele>216.19999694824</ele>
        <time>2021-11-26T06:18:09.000Z</time>
      </trkpt>
      <trkpt lat="45.20397" lon="5.73721">
        <ele>216</ele>
        <time>2021-11-26T06:18:11.000Z</time>
      </trkpt>
      <trkpt lat="45.20394" lon="5.73719">
        <ele>215.80000305176</ele>
        <time>2021-11-26T06:18:12.000Z</time>
      </trkpt>
      <trkpt lat="45.20389" lon="5.7371">
        <ele>215.39999389648</ele>
        <time>2021-11-26T06:18:15.000Z</time>
      </trkpt>
      <trkpt lat="45.20387" lon="5.73708">
        <ele>215.19999694824</ele>
        <time>2021-11-26T06:18:16.000Z</time>
      </trkpt>
      <trkpt lat="45.20385" lon="5.73705">
        <ele>215.19999694824</ele>
        <time>2021-11-26T06:18:17.000Z</time>
      </trkpt>
      <trkpt lat="45.20374" lon="5.73692">
        <ele>215</ele>
        <time>2021-11-26T06:18:23.000Z</time>
      </trkpt>
      <trkpt lat="45.2037" lon="5.73688">
        <ele>214.80000305176</ele>
        <time>2021-11-26T06:18:25.000Z</time>
      </trkpt>
      <trkpt lat="45.20366" lon="5.73684">
        <ele>214.80000305176</ele>
        <time>2021-11-26T06:18:27.000Z</time>
      </trkpt>
      <trkpt lat="45.20353" lon="5.73668">
        <ele>214.60000610352</ele>
        <time>2021-11-26T06:18:34.000Z</time>
      </trkpt>
      <trkpt lat="45.2034" lon="5.73649">
        <ele>214.39999389648</ele>
        <time>2021-11-26T06:18:41.000Z</time>
      </trkpt>
      <trkpt lat="45.20338" lon="5.73646">
        <ele>214.39999389648</ele>
        <time>2021-11-26T06:18:42.000Z</time>
      </trkpt>
      <trkpt lat="45.20334" lon="5.73641">
        <ele>214.19999694824</ele>
        <time>2021-11-26T06:18:44.000Z</time>
      </trkpt>
      <trkpt lat="45.2033" lon="5.73633">
        <ele>214.19999694824</ele>
        <time>2021-11-26T06:18:47.000Z</time>
      </trkpt>
      <trkpt lat="45.2033" lon="5.73622">
        <ele>214</ele>
        <time>2021-11-26T06:18:51.000Z</time>
      </trkpt>
      <trkpt lat="45.20329" lon="5.7362">
        <ele>213.60000610352</ele>
        <time>2021-11-26T06:18:53.000Z</time>
      </trkpt>
      <trkpt lat="45.20327" lon="5.73616">
        <ele>213.60000610352</ele>
        <time>2021-11-26T06:18:56.000Z</time>
      </trkpt>
      <trkpt lat="45.20326" lon="5.73615">
        <ele>213.60000610352</ele>
        <time>2021-11-26T06:18:57.000Z</time>
      </trkpt>
      <trkpt lat="45.20323" lon="5.73612">
        <ele>213.39999389648</ele>
        <time>2021-11-26T06:18:59.000Z</time>
      </trkpt>
      <trkpt lat="45.20319" lon="5.73607">
        <ele>213.39999389648</ele>
        <time>2021-11-26T06:19:01.000Z</time>
      </trkpt>
      <trkpt lat="45.20316" lon="5.73601">
        <ele>213.19999694824</ele>
        <time>2021-11-26T06:19:03.000Z</time>
      </trkpt>
      <trkpt lat="45.20306" lon="5.73587">
        <ele>212.60000610352</ele>
        <time>2021-11-26T06:19:08.000Z</time>
      </trkpt>
      <trkpt lat="45.20304" lon="5.73584">
        <ele>212.39999389648</ele>
        <time>2021-11-26T06:19:09.000Z</time>
      </trkpt>
      <trkpt lat="45.203" lon="5.7357">
        <ele>211.60000610352</ele>
        <time>2021-11-26T06:19:13.000Z</time>
      </trkpt>
      <trkpt lat="45.20297" lon="5.73562">
        <ele>211.19999694824</ele>
        <time>2021-11-26T06:19:15.000Z</time>
      </trkpt>
      <trkpt lat="45.20294" lon="5.73559">
        <ele>211</ele>
        <time>2021-11-26T06:19:16.000Z</time>
      </trkpt>
      <trkpt lat="45.20287" lon="5.73555">
        <ele>210.60000610352</ele>
        <time>2021-11-26T06:19:18.000Z</time>
      </trkpt>
      <trkpt lat="45.20284" lon="5.73555">
        <ele>210.39999389648</ele>
        <time>2021-11-26T06:19:19.000Z</time>
      </trkpt>
      <trkpt lat="45.20272" lon="5.73562">
        <ele>209.39999389648</ele>
        <time>2021-11-26T06:19:24.000Z</time>
      </trkpt>
      <trkpt lat="45.20268" lon="5.73565">
        <ele>208.80000305176</ele>
        <time>2021-11-26T06:19:26.000Z</time>
      </trkpt>
      <trkpt lat="45.20263" lon="5.73567">
        <ele>208.19999694824</ele>
        <time>2021-11-26T06:19:28.000Z</time>
      </trkpt>
      <trkpt lat="45.20256" lon="5.73573">
        <ele>207</ele>
        <time>2021-11-26T06:19:31.000Z</time>
      </trkpt>
      <trkpt lat="45.20251" lon="5.73577">
        <ele>206.39999389648</ele>
        <time>2021-11-26T06:19:33.000Z</time>
      </trkpt>
      <trkpt lat="45.20244" lon="5.73582">
        <ele>205.80000305176</ele>
        <time>2021-11-26T06:19:35.000Z</time>
      </trkpt>
      <trkpt lat="45.20239" lon="5.73588">
        <ele>205.39999389648</ele>
        <time>2021-11-26T06:19:37.000Z</time>
      </trkpt>
      <trkpt lat="45.20237" lon="5.73594">
        <ele>205</ele>
        <time>2021-11-26T06:19:39.000Z</time>
      </trkpt>
      <trkpt lat="45.20237" lon="5.73597">
        <ele>204.80000305176</ele>
        <time>2021-11-26T06:19:40.000Z</time>
      </trkpt>
      <trkpt lat="45.20241" lon="5.7361">
        <ele>204.60000610352</ele>
        <time>2021-11-26T06:19:44.000Z</time>
      </trkpt>
      <trkpt lat="45.20251" lon="5.7363">
        <ele>204.60000610352</ele>
        <time>2021-11-26T06:19:49.000Z</time>
      </trkpt>
      <trkpt lat="45.20256" lon="5.73655">
        <ele>205</ele>
        <time>2021-11-26T06:19:55.000Z</time>
      </trkpt>
      <trkpt lat="45.20257" lon="5.73659">
        <ele>205</ele>
        <time>2021-11-26T06:19:56.000Z</time>
      </trkpt>
      <trkpt lat="45.20263" lon="5.73685">
        <ele>205.19999694824</ele>
        <time>2021-11-26T06:20:02.000Z</time>
      </trkpt>
      <trkpt lat="45.20263" lon="5.73693">
        <ele>205.19999694824</ele>
        <time>2021-11-26T06:20:04.000Z</time>
      </trkpt>
      <trkpt lat="45.20266" lon="5.73717">
        <ele>205</ele>
        <time>2021-11-26T06:20:10.000Z</time>
      </trkpt>
      <trkpt lat="45.20266" lon="5.73729">
        <ele>205</ele>
        <time>2021-11-26T06:20:13.000Z</time>
      </trkpt>
      <trkpt lat="45.20266" lon="5.73733">
        <ele>205</ele>
        <time>2021-11-26T06:20:14.000Z</time>
      </trkpt>
      <trkpt lat="45.20267" lon="5.73752">
        <ele>205</ele>
        <time>2021-11-26T06:20:19.000Z</time>
      </trkpt>
      <trkpt lat="45.20266" lon="5.73768">
        <ele>205.19999694824</ele>
        <time>2021-11-26T06:20:23.000Z</time>
      </trkpt>
      <trkpt lat="45.20267" lon="5.73776">
        <ele>205.19999694824</ele>
        <time>2021-11-26T06:20:25.000Z</time>
      </trkpt>
      <trkpt lat="45.20266" lon="5.73793">
        <ele>205.39999389648</ele>
        <time>2021-11-26T06:20:29.000Z</time>
      </trkpt>
      <trkpt lat="45.20264" lon="5.73805">
        <ele>205.39999389648</ele>
        <time>2021-11-26T06:20:32.000Z</time>
      </trkpt>
      <trkpt lat="45.20259" lon="5.7383">
        <ele>205.60000610352</ele>
        <time>2021-11-26T06:20:38.000Z</time>
      </trkpt>
      <trkpt lat="45.20255" lon="5.73856">
        <ele>205.60000610352</ele>
        <time>2021-11-26T06:20:44.000Z</time>
      </trkpt>
      <trkpt lat="45.20251" lon="5.73877">
        <ele>205.60000610352</ele>
        <time>2021-11-26T06:20:49.000Z</time>
      </trkpt>
      <trkpt lat="45.20246" lon="5.73896">
        <ele>205.80000305176</ele>
        <time>2021-11-26T06:20:54.000Z</time>
      </trkpt>
      <trkpt lat="45.20236" lon="5.73919">
        <ele>205.80000305176</ele>
        <time>2021-11-26T06:21:00.000Z</time>
      </trkpt>
      <trkpt lat="45.20232" lon="5.73932">
        <ele>206</ele>
        <time>2021-11-26T06:21:03.000Z</time>
      </trkpt>
      <trkpt lat="45.20227" lon="5.73943">
        <ele>206</ele>
        <time>2021-11-26T06:21:06.000Z</time>
      </trkpt>
      <trkpt lat="45.20218" lon="5.73968">
        <ele>205.80000305176</ele>
        <time>2021-11-26T06:21:12.000Z</time>
      </trkpt>
      <trkpt lat="45.20218" lon="5.73972">
        <ele>205.80000305176</ele>
        <time>2021-11-26T06:21:13.000Z</time>
      </trkpt>
      <trkpt lat="45.20209" lon="5.73997">
        <ele>206</ele>
        <time>2021-11-26T06:21:20.000Z</time>
      </trkpt>
      <trkpt lat="45.20204" lon="5.74008">
        <ele>206</ele>
        <time>2021-11-26T06:21:23.000Z</time>
      </trkpt>
      <trkpt lat="45.20199" lon="5.7402">
        <ele>206</ele>
        <time>2021-11-26T06:21:26.000Z</time>
      </trkpt>
      <trkpt lat="45.2019" lon="5.74039">
        <ele>206.39999389648</ele>
        <time>2021-11-26T06:21:31.000Z</time>
      </trkpt>
      <trkpt lat="45.20184" lon="5.74051">
        <ele>206.39999389648</ele>
        <time>2021-11-26T06:21:35.000Z</time>
      </trkpt>
      <trkpt lat="45.20172" lon="5.74071">
        <ele>206.39999389648</ele>
        <time>2021-11-26T06:21:41.000Z</time>
      </trkpt>
      <trkpt lat="45.20169" lon="5.74075">
        <ele>206.39999389648</ele>
        <time>2021-11-26T06:21:42.000Z</time>
      </trkpt>
      <trkpt lat="45.20161" lon="5.74083">
        <ele>206.60000610352</ele>
        <time>2021-11-26T06:21:45.000Z</time>
      </trkpt>
      <trkpt lat="45.20154" lon="5.74093">
        <ele>207</ele>
        <time>2021-11-26T06:21:48.000Z</time>
      </trkpt>
      <trkpt lat="45.20147" lon="5.74112">
        <ele>207.19999694824</ele>
        <time>2021-11-26T06:21:53.000Z</time>
      </trkpt>
      <trkpt lat="45.20145" lon="5.74115">
        <ele>207.39999389648</ele>
        <time>2021-11-26T06:21:54.000Z</time>
      </trkpt>
      <trkpt lat="45.2014" lon="5.74125">
        <ele>208</ele>
        <time>2021-11-26T06:21:57.000Z</time>
      </trkpt>
      <trkpt lat="45.20138" lon="5.74128">
        <ele>208</ele>
        <time>2021-11-26T06:21:58.000Z</time>
      </trkpt>
      <trkpt lat="45.20136" lon="5.7413">
        <ele>208.39999389648</ele>
        <time>2021-11-26T06:21:59.000Z</time>
      </trkpt>
      <trkpt lat="45.20128" lon="5.74143">
        <ele>209.19999694824</ele>
        <time>2021-11-26T06:22:03.000Z</time>
      </trkpt>
      <trkpt lat="45.20121" lon="5.74157">
        <ele>210.19999694824</ele>
        <time>2021-11-26T06:22:07.000Z</time>
      </trkpt>
      <trkpt lat="45.20112" lon="5.74168">
        <ele>211</ele>
        <time>2021-11-26T06:22:12.000Z</time>
      </trkpt>
      <trkpt lat="45.2011" lon="5.74167">
        <ele>211.19999694824</ele>
        <time>2021-11-26T06:22:13.000Z</time>
      </trkpt>
      <trkpt lat="45.20094" lon="5.74151">
        <ele>211.60000610352</ele>
        <time>2021-11-26T06:22:19.000Z</time>
      </trkpt>
      <trkpt lat="45.20088" lon="5.74144">
        <ele>211.80000305176</ele>
        <time>2021-11-26T06:22:21.000Z</time>
      </trkpt>
      <trkpt lat="45.2008" lon="5.74134">
        <ele>211.80000305176</ele>
        <time>2021-11-26T06:22:24.000Z</time>
      </trkpt>
      <trkpt lat="45.20078" lon="5.7413">
        <ele>211.80000305176</ele>
        <time>2021-11-26T06:22:25.000Z</time>
      </trkpt>
      <trkpt lat="45.20075" lon="5.74128">
        <ele>212</ele>
        <time>2021-11-26T06:22:26.000Z</time>
      </trkpt>
      <trkpt lat="45.2006" lon="5.74111">
        <ele>212</ele>
        <time>2021-11-26T06:22:32.000Z</time>
      </trkpt>
      <trkpt lat="45.20055" lon="5.74106">
        <ele>212</ele>
        <time>2021-11-26T06:22:34.000Z</time>
      </trkpt>
      <trkpt lat="45.20045" lon="5.74092">
        <ele>211.80000305176</ele>
        <time>2021-11-26T06:22:38.000Z</time>
      </trkpt>
      <trkpt lat="45.2003" lon="5.74075">
        <ele>211.80000305176</ele>
        <time>2021-11-26T06:22:44.000Z</time>
      </trkpt>
      <trkpt lat="45.20015" lon="5.74059">
        <ele>211.60000610352</ele>
        <time>2021-11-26T06:22:50.000Z</time>
      </trkpt>
      <trkpt lat="45.2002" lon="5.74048">
        <ele>211.19999694824</ele>
        <time>2021-11-26T06:22:53.000Z</time>
      </trkpt>
      <trkpt lat="45.20031" lon="5.74032">
        <ele>210.60000610352</ele>
        <time>2021-11-26T06:22:58.000Z</time>
      </trkpt>
      <trkpt lat="45.20033" lon="5.74029">
        <ele>210.39999389648</ele>
        <time>2021-11-26T06:22:59.000Z</time>
      </trkpt>
      <trkpt lat="45.20034" lon="5.74027">
        <ele>210</ele>
        <time>2021-11-26T06:23:00.000Z</time>
      </trkpt>
      <trkpt lat="45.20039" lon="5.74019">
        <ele>209.60000610352</ele>
        <time>2021-11-26T06:23:03.000Z</time>
      </trkpt>
      <trkpt lat="45.20043" lon="5.74015">
        <ele>209.39999389648</ele>
        <time>2021-11-26T06:23:05.000Z</time>
      </trkpt>
      <trkpt lat="45.20046" lon="5.74012">
        <ele>208.80000305176</ele>
        <time>2021-11-26T06:23:07.000Z</time>
      </trkpt>
      <trkpt lat="45.20046" lon="5.74014">
        <ele>208.60000610352</ele>
        <time>2021-11-26T06:23:08.000Z</time>
      </trkpt>
      <trkpt lat="45.20047" lon="5.74016">
        <ele>208.39999389648</ele>
        <time>2021-11-26T06:23:09.000Z</time>
      </trkpt>
      <trkpt lat="45.20045" lon="5.74029">
        <ele>207.80000305176</ele>
        <time>2021-11-26T06:23:13.000Z</time>
      </trkpt>
      <trkpt lat="45.20038" lon="5.74043">
        <ele>206.60000610352</ele>
        <time>2021-11-26T06:23:18.000Z</time>
      </trkpt>
      <trkpt lat="45.20033" lon="5.74053">
        <ele>205.60000610352</ele>
        <time>2021-11-26T06:23:22.000Z</time>
      </trkpt>
      <trkpt lat="45.20034" lon="5.74056">
        <ele>205.39999389648</ele>
        <time>2021-11-26T06:23:23.000Z</time>
      </trkpt>
      <trkpt lat="45.2003" lon="5.74066">
        <ele>205</ele>
        <time>2021-11-26T06:23:27.000Z</time>
      </trkpt>
      <trkpt lat="45.20028" lon="5.74067">
        <ele>205</ele>
        <time>2021-11-26T06:23:28.000Z</time>
      </trkpt>
      <trkpt lat="45.20024" lon="5.74074">
        <ele>205.19999694824</ele>
        <time>2021-11-26T06:23:31.000Z</time>
      </trkpt>
      <trkpt lat="45.20022" lon="5.74076">
        <ele>205.19999694824</ele>
        <time>2021-11-26T06:23:32.000Z</time>
      </trkpt>
      <trkpt lat="45.20012" lon="5.7409">
        <ele>205.39999389648</ele>
        <time>2021-11-26T06:23:37.000Z</time>
      </trkpt>
      <trkpt lat="45.20008" lon="5.74096">
        <ele>205.39999389648</ele>
        <time>2021-11-26T06:23:39.000Z</time>
      </trkpt>
      <trkpt lat="45.19995" lon="5.74115">
        <ele>206.19999694824</ele>
        <time>2021-11-26T06:23:44.000Z</time>
      </trkpt>
      <trkpt lat="45.19991" lon="5.74118">
        <ele>206.60000610352</ele>
        <time>2021-11-26T06:23:45.000Z</time>
      </trkpt>
      <trkpt lat="45.1998" lon="5.74128">
        <ele>207.80000305176</ele>
        <time>2021-11-26T06:23:49.000Z</time>
      </trkpt>
      <trkpt lat="45.19974" lon="5.74133">
        <ele>208.19999694824</ele>
        <time>2021-11-26T06:23:51.000Z</time>
      </trkpt>
      <trkpt lat="45.19957" lon="5.74151">
        <ele>208.39999389648</ele>
        <time>2021-11-26T06:23:57.000Z</time>
      </trkpt>
      <trkpt lat="45.19945" lon="5.7416">
        <ele>208.39999389648</ele>
        <time>2021-11-26T06:24:01.000Z</time>
      </trkpt>
      <trkpt lat="45.19926" lon="5.74175">
        <ele>208.39999389648</ele>
        <time>2021-11-26T06:24:07.000Z</time>
      </trkpt>
      <trkpt lat="45.19921" lon="5.74179">
        <ele>208.39999389648</ele>
        <time>2021-11-26T06:24:09.000Z</time>
      </trkpt>
      <trkpt lat="45.19903" lon="5.74191">
        <ele>208.19999694824</ele>
        <time>2021-11-26T06:24:15.000Z</time>
      </trkpt>
      <trkpt lat="45.19894" lon="5.74198">
        <ele>208.19999694824</ele>
        <time>2021-11-26T06:24:18.000Z</time>
      </trkpt>
      <trkpt lat="45.19876" lon="5.74208">
        <ele>208.39999389648</ele>
        <time>2021-11-26T06:24:24.000Z</time>
      </trkpt>
      <trkpt lat="45.19873" lon="5.74209">
        <ele>208.39999389648</ele>
        <time>2021-11-26T06:24:25.000Z</time>
      </trkpt>
      <trkpt lat="45.19855" lon="5.74217">
        <ele>208.60000610352</ele>
        <time>2021-11-26T06:24:31.000Z</time>
      </trkpt>
      <trkpt lat="45.19852" lon="5.74218">
        <ele>208.60000610352</ele>
        <time>2021-11-26T06:24:32.000Z</time>
      </trkpt>
      <trkpt lat="45.19837" lon="5.74223">
        <ele>208.60000610352</ele>
        <time>2021-11-26T06:24:37.000Z</time>
      </trkpt>
      <trkpt lat="45.19834" lon="5.74224">
        <ele>208.60000610352</ele>
        <time>2021-11-26T06:24:38.000Z</time>
      </trkpt>
      <trkpt lat="45.19815" lon="5.74231">
        <ele>208.39999389648</ele>
        <time>2021-11-26T06:24:44.000Z</time>
      </trkpt>
      <trkpt lat="45.19802" lon="5.74235">
        <ele>208.39999389648</ele>
        <time>2021-11-26T06:24:48.000Z</time>
      </trkpt>
      <trkpt lat="45.19781" lon="5.74238">
        <ele>208.80000305176</ele>
        <time>2021-11-26T06:24:54.000Z</time>
      </trkpt>
      <trkpt lat="45.19774" lon="5.7424">
        <ele>208.80000305176</ele>
        <time>2021-11-26T06:24:56.000Z</time>
      </trkpt>
      <trkpt lat="45.19758" lon="5.74242">
        <ele>208.60000610352</ele>
        <time>2021-11-26T06:25:01.000Z</time>
      </trkpt>
      <trkpt lat="45.19743" lon="5.74245">
        <ele>208.80000305176</ele>
        <time>2021-11-26T06:25:06.000Z</time>
      </trkpt>
      <trkpt lat="45.19739" lon="5.74245">
        <ele>209</ele>
        <time>2021-11-26T06:25:07.000Z</time>
      </trkpt>
      <trkpt lat="45.19727" lon="5.74246">
        <ele>208.80000305176</ele>
        <time>2021-11-26T06:25:12.000Z</time>
      </trkpt>
      <trkpt lat="45.19726" lon="5.74245">
        <ele>208.60000610352</ele>
        <time>2021-11-26T06:25:13.000Z</time>
      </trkpt>
      <trkpt lat="45.19724" lon="5.7424">
        <ele>208.19999694824</ele>
        <time>2021-11-26T06:25:16.000Z</time>
      </trkpt>
      <trkpt lat="45.19723" lon="5.74238">
        <ele>207.80000305176</ele>
        <time>2021-11-26T06:25:17.000Z</time>
      </trkpt>
      <trkpt lat="45.1972" lon="5.74227">
        <ele>207.19999694824</ele>
        <time>2021-11-26T06:25:20.000Z</time>
      </trkpt>
      <trkpt lat="45.19716" lon="5.74203">
        <ele>206.80000305176</ele>
        <time>2021-11-26T06:25:26.000Z</time>
      </trkpt>
      <trkpt lat="45.19713" lon="5.74185">
        <ele>207</ele>
        <time>2021-11-26T06:25:31.000Z</time>
      </trkpt>
      <trkpt lat="45.19708" lon="5.74156">
        <ele>207</ele>
        <time>2021-11-26T06:25:38.000Z</time>
      </trkpt>
      <trkpt lat="45.19707" lon="5.74152">
        <ele>207.19999694824</ele>
        <time>2021-11-26T06:25:39.000Z</time>
      </trkpt>
      <trkpt lat="45.19704" lon="5.74126">
        <ele>207.19999694824</ele>
        <time>2021-11-26T06:25:45.000Z</time>
      </trkpt>
      <trkpt lat="45.19699" lon="5.741">
        <ele>207.19999694824</ele>
        <time>2021-11-26T06:25:51.000Z</time>
      </trkpt>
      <trkpt lat="45.19697" lon="5.74091">
        <ele>207</ele>
        <time>2021-11-26T06:25:53.000Z</time>
      </trkpt>
      <trkpt lat="45.19694" lon="5.74073">
        <ele>207</ele>
        <time>2021-11-26T06:25:57.000Z</time>
      </trkpt>
      <trkpt lat="45.19694" lon="5.74069">
        <ele>207</ele>
        <time>2021-11-26T06:25:58.000Z</time>
      </trkpt>
      <trkpt lat="45.19693" lon="5.74066">
        <ele>207</ele>
        <time>2021-11-26T06:25:59.000Z</time>
      </trkpt>
      <trkpt lat="45.19688" lon="5.74046">
        <ele>207.19999694824</ele>
        <time>2021-11-26T06:26:04.000Z</time>
      </trkpt>
      <trkpt lat="45.19684" lon="5.74029">
        <ele>207.19999694824</ele>
        <time>2021-11-26T06:26:08.000Z</time>
      </trkpt>
      <trkpt lat="45.19683" lon="5.74025">
        <ele>207.19999694824</ele>
        <time>2021-11-26T06:26:09.000Z</time>
      </trkpt>
      <trkpt lat="45.19682" lon="5.74009">
        <ele>207.39999389648</ele>
        <time>2021-11-26T06:26:13.000Z</time>
      </trkpt>
      <trkpt lat="45.19681" lon="5.74007">
        <ele>207.39999389648</ele>
        <time>2021-11-26T06:26:14.000Z</time>
      </trkpt>
      <trkpt lat="45.19679" lon="5.74006">
        <ele>207.39999389648</ele>
        <time>2021-11-26T06:26:15.000Z</time>
      </trkpt>
      <trkpt lat="45.19666" lon="5.74002">
        <ele>207.39999389648</ele>
        <time>2021-11-26T06:26:21.000Z</time>
      </trkpt>
      <trkpt lat="45.1965" lon="5.74">
        <ele>207.39999389648</ele>
        <time>2021-11-26T06:26:27.000Z</time>
      </trkpt>
      <trkpt lat="45.19633" lon="5.73999">
        <ele>207</ele>
        <time>2021-11-26T06:26:32.000Z</time>
      </trkpt>
      <trkpt lat="45.19626" lon="5.73997">
        <ele>206.80000305176</ele>
        <time>2021-11-26T06:26:34.000Z</time>
      </trkpt>
      <trkpt lat="45.19615" lon="5.73993">
        <ele>206.80000305176</ele>
        <time>2021-11-26T06:26:38.000Z</time>
      </trkpt>
      <trkpt lat="45.19614" lon="5.7399">
        <ele>207</ele>
        <time>2021-11-26T06:26:39.000Z</time>
      </trkpt>
      <trkpt lat="45.19616" lon="5.7397">
        <ele>207.19999694824</ele>
        <time>2021-11-26T06:26:45.000Z</time>
      </trkpt>
      <trkpt lat="45.1962" lon="5.7396">
        <ele>207.19999694824</ele>
        <time>2021-11-26T06:26:49.000Z</time>
      </trkpt>
      <trkpt lat="45.19621" lon="5.7396">
        <ele>207.19999694824</ele>
        <time>2021-11-26T06:26:50.000Z</time>
      </trkpt>
      <trkpt lat="45.19627" lon="5.7396">
        <ele>207.39999389648</ele>
        <time>2021-11-26T06:26:54.000Z</time>
      </trkpt>
      <trkpt lat="45.1963" lon="5.73958">
        <ele>207.39999389648</ele>
        <time>2021-11-26T06:26:56.000Z</time>
      </trkpt>
      <trkpt lat="45.19633" lon="5.73958">
        <ele>207.39999389648</ele>
        <time>2021-11-26T06:26:58.000Z</time>
      </trkpt>
      <trkpt lat="45.19663" lon="5.73954">
        <ele>216</ele>
        <time>2021-11-26T06:27:47.000Z</time>
      </trkpt>
      <trkpt lat="45.19654" lon="5.73961">
        <ele>216</ele>
        <time>2021-11-26T06:27:52.000Z</time>
      </trkpt>
    </trkseg>
  </trk>
</gpx>